<?xml version='1.0' encoding='UTF-8'?><gpx version="1.1" creator="JPX - https://github.com/jenetics/jpx" xmlns="http://www.topografix.com/GPX/1/1"><trk><trkseg><trkpt lat="45.06791573636394" lon="8.069108267777322"><ele>287.0</ele><time>2026-05-03T07:42:43Z</time></trkpt><trkpt lat="45.067883854943666" lon="8.069020829297457"><ele>287.0</ele><time>2026-05-03T07:42:48Z</time></trkpt><trkpt lat="45.06785548761486" lon="8.068937278853914"><ele>287.0</ele><time>2026-05-03T07:42:53Z</time></trkpt><trkpt lat="45.067829636705206" lon="8.068842820080853"><ele>287.0</ele><time>2026-05-03T07:42:58Z</time></trkpt><trkpt lat="45.06778605083974" lon="8.068762374485717"><ele>287.0</ele><time>2026-05-03T07:43:03Z</time></trkpt><trkpt lat="45.06773662501998" lon="8.068683264383468"><ele>287.0</ele><time>2026-05-03T07:43:08Z</time></trkpt><trkpt lat="45.06768060248775" lon="8.068602084343912"><ele>287.0</ele><time>2026-05-03T07:43:13Z</time></trkpt><trkpt lat="45.067621992070634" lon="8.06852733744408"><ele>287.0</ele><time>2026-05-03T07:43:17.999Z</time></trkpt><trkpt lat="45.067574107820306" lon="8.068452529490877"><ele>287.0</ele><time>2026-05-03T07:43:22.999Z</time></trkpt><trkpt lat="45.06752601740801" lon="8.068367905156494"><ele>287.0</ele><time>2026-05-03T07:43:25.999Z</time></trkpt><trkpt lat="45.06748290283036" lon="8.068283373980039"><ele>287.0</ele><time>2026-05-03T07:43:30.999Z</time></trkpt><trkpt lat="45.06743167235061" lon="8.068200052234065"><ele>287.0</ele><time>2026-05-03T07:43:35.999Z</time></trkpt><trkpt lat="45.067389044706005" lon="8.068130202223676"><ele>287.0</ele><time>2026-05-03T07:43:39.999Z</time></trkpt><trkpt lat="45.067347923468425" lon="8.068045651543423"><ele>287.0</ele><time>2026-05-03T07:43:43.999Z</time></trkpt><trkpt lat="45.06730034521935" lon="8.067970572367612"><ele>287.2857142857143</ele><time>2026-05-03T07:43:48.999Z</time></trkpt><trkpt lat="45.067274424534105" lon="8.067873798133629"><ele>287.57142857142856</ele><time>2026-05-03T07:43:52.999Z</time></trkpt><trkpt lat="45.06725217837989" lon="8.06778239319146"><ele>287.8571428571429</ele><time>2026-05-03T07:43:55.999Z</time></trkpt><trkpt lat="45.06722663003399" lon="8.067673073441338"><ele>288.1428571428571</ele><time>2026-05-03T07:43:59.999Z</time></trkpt><trkpt lat="45.06721433973863" lon="8.06757259661272"><ele>288.42857142857144</ele><time>2026-05-03T07:44:03.999Z</time></trkpt><trkpt lat="45.06723085309589" lon="8.067468270550537"><ele>288.7142857142857</ele><time>2026-05-03T07:44:08.999Z</time></trkpt><trkpt lat="45.067234471547444" lon="8.067361999016434"><ele>289.0</ele><time>2026-05-03T07:44:14Z</time></trkpt><trkpt lat="45.06722927772346" lon="8.067264980961895"><ele>289.0</ele><time>2026-05-03T07:44:19Z</time></trkpt><trkpt lat="45.06722896235914" lon="8.067167236173171"><ele>289.0</ele><time>2026-05-03T07:44:24Z</time></trkpt><trkpt lat="45.06721345133106" lon="8.067080602954832"><ele>289.0</ele><time>2026-05-03T07:44:30Z</time></trkpt><trkpt lat="45.06716851343113" lon="8.067001722809074"><ele>289.0</ele><time>2026-05-03T07:44:45Z</time></trkpt><trkpt lat="45.06714074241595" lon="8.066906222214131"><ele>289.0</ele><time>2026-05-03T07:44:52Z</time></trkpt><trkpt lat="45.06710526308761" lon="8.06682599768632"><ele>289.0</ele><time>2026-05-03T07:44:58Z</time></trkpt><trkpt lat="45.067081891253224" lon="8.066741051928215"><ele>289.0</ele><time>2026-05-03T07:45:03Z</time></trkpt><trkpt lat="45.06705886343516" lon="8.06665759522078"><ele>287.7142857142857</ele><time>2026-05-03T07:45:09Z</time></trkpt><trkpt lat="45.06703872956776" lon="8.066562234954736"><ele>286.42857142857144</ele><time>2026-05-03T07:45:15Z</time></trkpt><trkpt lat="45.06702544020553" lon="8.06645817238886"><ele>285.1428571428571</ele><time>2026-05-03T07:45:22Z</time></trkpt><trkpt lat="45.067033162629805" lon="8.066368956772612"><ele>283.8571428571429</ele><time>2026-05-03T07:45:26.999Z</time></trkpt><trkpt lat="45.06704481071582" lon="8.06628060443243"><ele>282.57142857142856</ele><time>2026-05-03T07:45:31.999Z</time></trkpt><trkpt lat="45.06706811187672" lon="8.066183095332908"><ele>281.2857142857143</ele><time>2026-05-03T07:45:37.999Z</time></trkpt><trkpt lat="45.067078818420924" lon="8.066093762034981"><ele>280.0</ele><time>2026-05-03T07:45:42.999Z</time></trkpt><trkpt lat="45.06709631544997" lon="8.066005662491428"><ele>280.0</ele><time>2026-05-03T07:45:47.999Z</time></trkpt><trkpt lat="45.067119777351444" lon="8.065910246202003"><ele>280.0</ele><time>2026-05-03T07:45:53.999Z</time></trkpt><trkpt lat="45.06713433093341" lon="8.06582259382882"><ele>280.0</ele><time>2026-05-03T07:45:57.999Z</time></trkpt><trkpt lat="45.06716819893356" lon="8.065731896049298"><ele>280.0</ele><time>2026-05-03T07:46:02.999Z</time></trkpt><trkpt lat="45.067212370585786" lon="8.065662600238662"><ele>280.0</ele><time>2026-05-03T07:46:07.999Z</time></trkpt><trkpt lat="45.06726596155932" lon="8.065588996524326"><ele>280.0</ele><time>2026-05-03T07:46:12.999Z</time></trkpt><trkpt lat="45.067322274561846" lon="8.065525545342847"><ele>280.0</ele><time>2026-05-03T07:46:17.999Z</time></trkpt><trkpt lat="45.067393204380686" lon="8.06547265242363"><ele>280.0</ele><time>2026-05-03T07:46:24Z</time></trkpt><trkpt lat="45.06744454893843" lon="8.065406233224284"><ele>280.0</ele><time>2026-05-03T07:46:30Z</time></trkpt><trkpt lat="45.067478428787844" lon="8.065317921969214"><ele>280.0</ele><time>2026-05-03T07:46:35Z</time></trkpt><trkpt lat="45.067479638450706" lon="8.065217872819685"><ele>280.0</ele><time>2026-05-03T07:46:40Z</time></trkpt><trkpt lat="45.067479274235495" lon="8.06510990075737"><ele>280.0</ele><time>2026-05-03T07:46:46Z</time></trkpt><trkpt lat="45.0674606846496" lon="8.065014715156142"><ele>280.0</ele><time>2026-05-03T07:46:51Z</time></trkpt><trkpt lat="45.06743883164847" lon="8.064928418272475"><ele>280.0</ele><time>2026-05-03T07:46:56Z</time></trkpt><trkpt lat="45.067404267286264" lon="8.06482135728611"><ele>277.57142857142856</ele><time>2026-05-03T07:47:03Z</time></trkpt><trkpt lat="45.06735714835925" lon="8.06474049314239"><ele>275.1428571428571</ele><time>2026-05-03T07:47:11Z</time></trkpt><trkpt lat="45.06734221471153" lon="8.064636413911098"><ele>272.7142857142857</ele><time>2026-05-03T07:47:16Z</time></trkpt><trkpt lat="45.06734077837763" lon="8.064535173242287"><ele>270.2857142857143</ele><time>2026-05-03T07:47:22Z</time></trkpt><trkpt lat="45.06732599371455" lon="8.064447942264984"><ele>267.85714285714283</ele><time>2026-05-03T07:47:26Z</time></trkpt><trkpt lat="45.067316664581284" lon="8.064352997755506"><ele>265.42857142857144</ele><time>2026-05-03T07:47:31Z</time></trkpt><trkpt lat="45.06730245473252" lon="8.064260205474286"><ele>263.0</ele><time>2026-05-03T07:47:35.999Z</time></trkpt><trkpt lat="45.06729476344704" lon="8.064166379361096"><ele>262.7142857142857</ele><time>2026-05-03T07:47:39.999Z</time></trkpt><trkpt lat="45.0672871455885" lon="8.064072461448992"><ele>262.4285714285714</ele><time>2026-05-03T07:47:44.999Z</time></trkpt><trkpt lat="45.067302305918574" lon="8.063980988909448"><ele>262.1428571428571</ele><time>2026-05-03T07:47:50.999Z</time></trkpt><trkpt lat="45.067321622476875" lon="8.063893339140806"><ele>261.85714285714283</ele><time>2026-05-03T07:47:55.999Z</time></trkpt><trkpt lat="45.067354020034685" lon="8.06380761039412"><ele>261.57142857142856</ele><time>2026-05-03T07:48:01.999Z</time></trkpt><trkpt lat="45.067388526194655" lon="8.063725706676596"><ele>261.2857142857143</ele><time>2026-05-03T07:48:06.999Z</time></trkpt><trkpt lat="45.06741927188785" lon="8.063647648958952"><ele>261.0</ele><time>2026-05-03T07:48:11.999Z</time></trkpt><trkpt lat="45.06744526274685" lon="8.06356426558737"><ele>261.14285714285717</ele><time>2026-05-03T07:48:17.999Z</time></trkpt><trkpt lat="45.06748003026604" lon="8.063473532103858"><ele>261.2857142857143</ele><time>2026-05-03T07:48:23.999Z</time></trkpt><trkpt lat="45.067477436990416" lon="8.063361499545351"><ele>261.42857142857144</ele><time>2026-05-03T07:48:30Z</time></trkpt><trkpt lat="45.06744527370466" lon="8.063268481342662"><ele>261.57142857142856</ele><time>2026-05-03T07:48:37Z</time></trkpt><trkpt lat="45.067410273964455" lon="8.063182606617938"><ele>261.7142857142857</ele><time>2026-05-03T07:48:42Z</time></trkpt><trkpt lat="45.06736970124138" lon="8.063103200204521"><ele>261.8571428571429</ele><time>2026-05-03T07:48:47Z</time></trkpt><trkpt lat="45.06733744195708" lon="8.063007006295702"><ele>262.0</ele><time>2026-05-03T07:48:52Z</time></trkpt><trkpt lat="45.067309773069674" lon="8.062913602384754"><ele>262.0</ele><time>2026-05-03T07:48:57Z</time></trkpt><trkpt lat="45.067280227624295" lon="8.062831418490976"><ele>262.0</ele><time>2026-05-03T07:49:02Z</time></trkpt><trkpt lat="45.06727061315611" lon="8.062742326985914"><ele>262.0</ele><time>2026-05-03T07:49:07Z</time></trkpt><trkpt lat="45.06725600532912" lon="8.062637651503938"><ele>262.0</ele><time>2026-05-03T07:49:13Z</time></trkpt><trkpt lat="45.067268560924205" lon="8.062533707971832"><ele>262.0</ele><time>2026-05-03T07:49:19Z</time></trkpt><trkpt lat="45.067282572443695" lon="8.062443110240498"><ele>262.0</ele><time>2026-05-03T07:49:24Z</time></trkpt><trkpt lat="45.067307856405364" lon="8.062360030694684"><ele>262.0</ele><time>2026-05-03T07:49:29Z</time></trkpt><trkpt lat="45.067342697872085" lon="8.06226468612185"><ele>260.8333333333333</ele><time>2026-05-03T07:49:37Z</time></trkpt><trkpt lat="45.06737641808511" lon="8.062164578281342"><ele>259.66666666666663</ele><time>2026-05-03T07:49:44.999Z</time></trkpt><trkpt lat="45.06739801081045" lon="8.06205559239909"><ele>258.5</ele><time>2026-05-03T07:49:53.999Z</time></trkpt><trkpt lat="45.06736529998412" lon="8.061967165881391"><ele>257.3333333333333</ele><time>2026-05-03T07:49:59.999Z</time></trkpt><trkpt lat="45.06732610995949" lon="8.061889241713734"><ele>256.1666666666667</ele><time>2026-05-03T07:50:05.999Z</time></trkpt><trkpt lat="45.06728804328452" lon="8.061788001364256"><ele>255.0</ele><time>2026-05-03T07:50:12.999Z</time></trkpt><trkpt lat="45.06725513107985" lon="8.06169209809409"><ele>254.85714285714286</ele><time>2026-05-03T07:50:19.999Z</time></trkpt><trkpt lat="45.06722782172518" lon="8.061609119273276"><ele>254.71428571428572</ele><time>2026-05-03T07:50:25.999Z</time></trkpt><trkpt lat="45.06719259107754" lon="8.061513789682671"><ele>254.57142857142858</ele><time>2026-05-03T07:50:33Z</time></trkpt><trkpt lat="45.06715603370635" lon="8.061421042066828"><ele>254.42857142857144</ele><time>2026-05-03T07:50:42Z</time></trkpt><trkpt lat="45.06712468040305" lon="8.061331412067767"><ele>254.28571428571428</ele><time>2026-05-03T07:50:48Z</time></trkpt><trkpt lat="45.06709884935655" lon="8.061244877716248"><ele>254.14285714285717</ele><time>2026-05-03T07:50:54Z</time></trkpt><trkpt lat="45.067067532923645" lon="8.061156690956942"><ele>254.0</ele><time>2026-05-03T07:51:00Z</time></trkpt><trkpt lat="45.067027647875875" lon="8.061077504097648"><ele>254.0</ele><time>2026-05-03T07:51:05Z</time></trkpt><trkpt lat="45.06698593974585" lon="8.060980265964599"><ele>254.0</ele><time>2026-05-03T07:51:11Z</time></trkpt><trkpt lat="45.06696228728927" lon="8.0608916477489"><ele>254.0</ele><time>2026-05-03T07:51:16Z</time></trkpt><trkpt lat="45.06693144544981" lon="8.060801439916457"><ele>254.0</ele><time>2026-05-03T07:51:22Z</time></trkpt><trkpt lat="45.0669003005064" lon="8.060719009483995"><ele>254.0</ele><time>2026-05-03T07:51:27Z</time></trkpt><trkpt lat="45.06688058503843" lon="8.06062267653792"><ele>254.0</ele><time>2026-05-03T07:51:33Z</time></trkpt><trkpt lat="45.06687512304763" lon="8.060532665180503"><ele>254.0</ele><time>2026-05-03T07:51:38Z</time></trkpt><trkpt lat="45.066919560272105" lon="8.060465894139481"><ele>253.83333333333334</ele><time>2026-05-03T07:51:44Z</time></trkpt><trkpt lat="45.06699364800917" lon="8.060459179551298"><ele>253.66666666666669</ele><time>2026-05-03T07:51:48.999Z</time></trkpt><trkpt lat="45.06707155507075" lon="8.06040756988306"><ele>253.5</ele><time>2026-05-03T07:51:54.999Z</time></trkpt><trkpt lat="45.06714622353738" lon="8.060364027229529"><ele>253.33333333333331</ele><time>2026-05-03T07:51:59.999Z</time></trkpt><trkpt lat="45.06720522804765" lon="8.060317679570487"><ele>253.16666666666666</ele><time>2026-05-03T07:52:03.999Z</time></trkpt><trkpt lat="45.067271070586486" lon="8.060265757474557"><ele>253.0</ele><time>2026-05-03T07:52:07.999Z</time></trkpt><trkpt lat="45.06733538269837" lon="8.06021317818733"><ele>253.00000000000003</ele><time>2026-05-03T07:52:12.999Z</time></trkpt><trkpt lat="45.06738895981411" lon="8.06015783224461"><ele>253.0</ele><time>2026-05-03T07:52:17.999Z</time></trkpt><trkpt lat="45.067439973016775" lon="8.06009814895815"><ele>253.00000000000003</ele><time>2026-05-03T07:52:22.999Z</time></trkpt><trkpt lat="45.067506072240555" lon="8.060047635089207"><ele>253.00000000000003</ele><time>2026-05-03T07:52:27.999Z</time></trkpt><trkpt lat="45.06757024984614" lon="8.059987839784025"><ele>253.0</ele><time>2026-05-03T07:52:32.999Z</time></trkpt><trkpt lat="45.067635830662674" lon="8.05992464590766"><ele>253.00000000000003</ele><time>2026-05-03T07:52:38Z</time></trkpt><trkpt lat="45.06769737684796" lon="8.059870003521237"><ele>253.00000000000003</ele><time>2026-05-03T07:52:43Z</time></trkpt><trkpt lat="45.06775547290042" lon="8.059820878940442"><ele>253.14285714285717</ele><time>2026-05-03T07:52:47Z</time></trkpt><trkpt lat="45.06780783273467" lon="8.059745304562911"><ele>253.28571428571428</ele><time>2026-05-03T07:52:52Z</time></trkpt><trkpt lat="45.06785089030926" lon="8.05967722527404"><ele>253.42857142857144</ele><time>2026-05-03T07:52:56Z</time></trkpt><trkpt lat="45.06791637239609" lon="8.059622151198353"><ele>253.57142857142858</ele><time>2026-05-03T07:53:01Z</time></trkpt><trkpt lat="45.06795986525869" lon="8.059548156210584"><ele>253.71428571428572</ele><time>2026-05-03T07:53:06Z</time></trkpt><trkpt lat="45.06801266515264" lon="8.059473580720937"><ele>253.85714285714286</ele><time>2026-05-03T07:53:11Z</time></trkpt><trkpt lat="45.06806020021251" lon="8.059409666954918"><ele>254.0</ele><time>2026-05-03T07:53:16Z</time></trkpt><trkpt lat="45.068097599688976" lon="8.059318402699768"><ele>254.0</ele><time>2026-05-03T07:53:21Z</time></trkpt><trkpt lat="45.06812944660152" lon="8.059219979192688"><ele>254.0</ele><time>2026-05-03T07:53:26Z</time></trkpt><trkpt lat="45.06816792988304" lon="8.059131049365071"><ele>254.0</ele><time>2026-05-03T07:53:31Z</time></trkpt><trkpt lat="45.06820385670392" lon="8.059052760248514"><ele>254.0</ele><time>2026-05-03T07:53:35Z</time></trkpt><trkpt lat="45.068247891317625" lon="8.058957546192504"><ele>254.0</ele><time>2026-05-03T07:53:40Z</time></trkpt><trkpt lat="45.06829069209165" lon="8.058879610583563"><ele>254.0</ele><time>2026-05-03T07:53:45Z</time></trkpt><trkpt lat="45.0683142739291" lon="8.058791145836622"><ele>254.0</ele><time>2026-05-03T07:53:49Z</time></trkpt><trkpt lat="45.06834434159804" lon="8.058693425959394"><ele>254.28571428571428</ele><time>2026-05-03T07:53:53.999Z</time></trkpt><trkpt lat="45.068367797067395" lon="8.058596820811132"><ele>254.57142857142856</ele><time>2026-05-03T07:53:58.999Z</time></trkpt><trkpt lat="45.06838243934709" lon="8.058495352984993"><ele>254.85714285714283</ele><time>2026-05-03T07:54:03.999Z</time></trkpt><trkpt lat="45.06839687764576" lon="8.05840259717802"><ele>255.14285714285714</ele><time>2026-05-03T07:54:07.999Z</time></trkpt><trkpt lat="45.06841449085201" lon="8.058316616727149"><ele>255.4285714285714</ele><time>2026-05-03T07:54:11.999Z</time></trkpt><trkpt lat="45.06842838137777" lon="8.058229185791365"><ele>255.7142857142857</ele><time>2026-05-03T07:54:15.999Z</time></trkpt><trkpt lat="45.068437731380506" lon="8.058132949223632"><ele>256.0</ele><time>2026-05-03T07:54:19.999Z</time></trkpt><trkpt lat="45.068419768510914" lon="8.058045413236258"><ele>256.0</ele><time>2026-05-03T07:54:23.999Z</time></trkpt><trkpt lat="45.068355000665605" lon="8.057987054248956"><ele>255.99999999999997</ele><time>2026-05-03T07:54:28.999Z</time></trkpt><trkpt lat="45.06828473862137" lon="8.057952734309001"><ele>256.0</ele><time>2026-05-03T07:54:33.999Z</time></trkpt><trkpt lat="45.06821217098636" lon="8.057919492021606"><ele>256.0</ele><time>2026-05-03T07:54:38.999Z</time></trkpt><trkpt lat="45.06814453107882" lon="8.057876763072949"><ele>255.99999999999997</ele><time>2026-05-03T07:54:44Z</time></trkpt><trkpt lat="45.06807612279348" lon="8.057838303084816"><ele>256.0</ele><time>2026-05-03T07:54:49Z</time></trkpt><trkpt lat="45.06801779297043" lon="8.05780064279728"><ele>256.0</ele><time>2026-05-03T07:54:53Z</time></trkpt><trkpt lat="45.067961905741306" lon="8.057751882731809"><ele>256.1428571428571</ele><time>2026-05-03T07:54:57Z</time></trkpt><trkpt lat="45.06790171638687" lon="8.057708478392499"><ele>256.2857142857143</ele><time>2026-05-03T07:55:01Z</time></trkpt><trkpt lat="45.0678513730022" lon="8.057647840009313"><ele>256.42857142857144</ele><time>2026-05-03T07:55:04Z</time></trkpt><trkpt lat="45.06778843082377" lon="8.057588773671426"><ele>256.57142857142856</ele><time>2026-05-03T07:55:08Z</time></trkpt><trkpt lat="45.06772249223064" lon="8.05753573217212"><ele>256.7142857142857</ele><time>2026-05-03T07:55:12Z</time></trkpt><trkpt lat="45.06765314729821" lon="8.05748836979995"><ele>256.85714285714283</ele><time>2026-05-03T07:55:16Z</time></trkpt><trkpt lat="45.06758304168808" lon="8.057455184522617"><ele>257.0</ele><time>2026-05-03T07:55:19Z</time></trkpt><trkpt lat="45.06749580864624" lon="8.057435904685885"><ele>259.0</ele><time>2026-05-03T07:55:23Z</time></trkpt><trkpt lat="45.06738225074485" lon="8.05747201424115"><ele>261.0</ele><time>2026-05-03T07:55:27Z</time></trkpt><trkpt lat="45.06731484121084" lon="8.057478908071408"><ele>263.0</ele><time>2026-05-03T07:55:29Z</time></trkpt><trkpt lat="45.067229787353945" lon="8.05747884836645"><ele>265.0</ele><time>2026-05-03T07:55:32Z</time></trkpt><trkpt lat="45.0671464101333" lon="8.057447116190312"><ele>267.0</ele><time>2026-05-03T07:55:35Z</time></trkpt><trkpt lat="45.06705101680145" lon="8.05740682099099"><ele>268.0</ele><time>2026-05-03T07:55:37Z</time></trkpt><trkpt lat="45.066979834230864" lon="8.057351480255758"><ele>269.0</ele><time>2026-05-03T07:55:39Z</time></trkpt><trkpt lat="45.0669077665293" lon="8.057269151689923"><ele>270.0</ele><time>2026-05-03T07:55:41Z</time></trkpt><trkpt lat="45.06684838021443" lon="8.057185556035906"><ele>271.0</ele><time>2026-05-03T07:55:43Z</time></trkpt><trkpt lat="45.06678627115021" lon="8.057074367030621"><ele>272.0</ele><time>2026-05-03T07:55:45Z</time></trkpt><trkpt lat="45.066732744459415" lon="8.056975251283038"><ele>273.0</ele><time>2026-05-03T07:55:47Z</time></trkpt><trkpt lat="45.06667580150709" lon="8.056855496637276"><ele>273.0</ele><time>2026-05-03T07:55:50Z</time></trkpt><trkpt lat="45.06662695296469" lon="8.05675493155998"><ele>273.0</ele><time>2026-05-03T07:55:52Z</time></trkpt><trkpt lat="45.066567451353805" lon="8.056663609138365"><ele>273.0</ele><time>2026-05-03T07:55:54.999Z</time></trkpt><trkpt lat="45.06653009829535" lon="8.056558952430757"><ele>273.0</ele><time>2026-05-03T07:55:57.999Z</time></trkpt><trkpt lat="45.06650049143242" lon="8.056467223010019"><ele>273.0</ele><time>2026-05-03T07:56:00.999Z</time></trkpt><trkpt lat="45.06643208203833" lon="8.056427893849127"><ele>273.0</ele><time>2026-05-03T07:56:04.999Z</time></trkpt><trkpt lat="45.06639128466387" lon="8.05634694051163"><ele>275.42857142857144</ele><time>2026-05-03T07:56:08.999Z</time></trkpt><trkpt lat="45.0663541892116" lon="8.056263050525173"><ele>277.8571428571429</ele><time>2026-05-03T07:56:11.999Z</time></trkpt><trkpt lat="45.06630628685995" lon="8.0562023867092"><ele>280.2857142857143</ele><time>2026-05-03T07:56:16.999Z</time></trkpt><trkpt lat="45.06626623386686" lon="8.056124866455136"><ele>282.7142857142857</ele><time>2026-05-03T07:56:20.999Z</time></trkpt><trkpt lat="45.06622568403301" lon="8.05605021619738"><ele>285.14285714285717</ele><time>2026-05-03T07:56:24.999Z</time></trkpt><trkpt lat="45.066187035660896" lon="8.055978110697172"><ele>287.57142857142856</ele><time>2026-05-03T07:56:28.999Z</time></trkpt><trkpt lat="45.06614784340636" lon="8.05589586367333"><ele>290.0</ele><time>2026-05-03T07:56:33.999Z</time></trkpt><trkpt lat="45.06611279723488" lon="8.055814515819426"><ele>290.57142857142856</ele><time>2026-05-03T07:56:39.999Z</time></trkpt><trkpt lat="45.06610490218286" lon="8.05571741849574"><ele>291.14285714285717</ele><time>2026-05-03T07:56:46.999Z</time></trkpt><trkpt lat="45.06610296479369" lon="8.055624023853161"><ele>291.7142857142857</ele><time>2026-05-03T07:56:50Z</time></trkpt><trkpt lat="45.06609819620093" lon="8.055526835877005"><ele>292.2857142857143</ele><time>2026-05-03T07:56:55Z</time></trkpt><trkpt lat="45.066087733869836" lon="8.055433573406315"><ele>292.8571428571429</ele><time>2026-05-03T07:57:00Z</time></trkpt><trkpt lat="45.06607036228153" lon="8.055337769326991"><ele>293.42857142857144</ele><time>2026-05-03T07:57:05Z</time></trkpt><trkpt lat="45.066063608606086" lon="8.055236469910216"><ele>294.0</ele><time>2026-05-03T07:57:10Z</time></trkpt><trkpt lat="45.06602009225841" lon="8.055150734949896"><ele>294.0</ele><time>2026-05-03T07:57:15Z</time></trkpt><trkpt lat="45.06597287553623" lon="8.055064687332708"><ele>294.0</ele><time>2026-05-03T07:57:20Z</time></trkpt><trkpt lat="45.0659115813064" lon="8.055003670470303"><ele>294.0</ele><time>2026-05-03T07:57:25Z</time></trkpt><trkpt lat="45.06585768782222" lon="8.054939778495982"><ele>294.0</ele><time>2026-05-03T07:57:30Z</time></trkpt><trkpt lat="45.06580426519647" lon="8.054873525628139"><ele>294.0</ele><time>2026-05-03T07:57:35Z</time></trkpt><trkpt lat="45.06575049315426" lon="8.054798325608472"><ele>294.0</ele><time>2026-05-03T07:57:40Z</time></trkpt><trkpt lat="45.06570411436989" lon="8.05472488520203"><ele>294.0</ele><time>2026-05-03T07:57:45Z</time></trkpt><trkpt lat="45.065652696893984" lon="8.05465175408319"><ele>297.7142857142857</ele><time>2026-05-03T07:57:50Z</time></trkpt><trkpt lat="45.06560533236103" lon="8.054564339418203"><ele>301.42857142857144</ele><time>2026-05-03T07:57:55Z</time></trkpt><trkpt lat="45.06556567829636" lon="8.054493932454193"><ele>305.1428571428571</ele><time>2026-05-03T07:57:59Z</time></trkpt><trkpt lat="45.06552836887757" lon="8.05440186281563"><ele>308.8571428571429</ele><time>2026-05-03T07:58:03.999Z</time></trkpt><trkpt lat="45.065498158885696" lon="8.05430312806101"><ele>312.57142857142856</ele><time>2026-05-03T07:58:08.999Z</time></trkpt><trkpt lat="45.06546083474515" lon="8.054224451351383"><ele>316.2857142857143</ele><time>2026-05-03T07:58:14.999Z</time></trkpt><trkpt lat="45.065433027955486" lon="8.054110904173548"><ele>320.0</ele><time>2026-05-03T07:58:19.999Z</time></trkpt><trkpt lat="45.06540643933707" lon="8.054011749812652"><ele>320.1666666666667</ele><time>2026-05-03T07:58:23.999Z</time></trkpt><trkpt lat="45.06537705186739" lon="8.053918981530078"><ele>320.33333333333337</ele><time>2026-05-03T07:58:28.999Z</time></trkpt><trkpt lat="45.0653426238268" lon="8.053837653584141"><ele>320.5</ele><time>2026-05-03T07:58:33.999Z</time></trkpt><trkpt lat="45.065313369568415" lon="8.05373054505316"><ele>320.6666666666667</ele><time>2026-05-03T07:58:39.999Z</time></trkpt><trkpt lat="45.065279587238564" lon="8.053636023137154"><ele>320.8333333333333</ele><time>2026-05-03T07:58:44.999Z</time></trkpt><trkpt lat="45.065224565389165" lon="8.053540568826985"><ele>321.0</ele><time>2026-05-03T07:58:49.999Z</time></trkpt><trkpt lat="45.065177157953755" lon="8.053427458135985"><ele>320.99999999999994</ele><time>2026-05-03T07:58:53.999Z</time></trkpt><trkpt lat="45.065129164075536" lon="8.053360564376845"><ele>321.0</ele><time>2026-05-03T07:58:59Z</time></trkpt><trkpt lat="45.06508094022963" lon="8.05327615448156"><ele>321.0</ele><time>2026-05-03T07:59:05Z</time></trkpt><trkpt lat="45.065043721893254" lon="8.053203593605629"><ele>321.0</ele><time>2026-05-03T07:59:09Z</time></trkpt><trkpt lat="45.06499180756349" lon="8.053147134990207"><ele>321.0</ele><time>2026-05-03T07:59:14Z</time></trkpt><trkpt lat="45.064937607026366" lon="8.053073861583796"><ele>320.99999999999994</ele><time>2026-05-03T07:59:20Z</time></trkpt><trkpt lat="45.064890611861074" lon="8.053009179678886"><ele>321.0</ele><time>2026-05-03T07:59:27Z</time></trkpt><trkpt lat="45.06483358634771" lon="8.052946295297405"><ele>318.85714285714283</ele><time>2026-05-03T07:59:34Z</time></trkpt><trkpt lat="45.064776483102705" lon="8.052873677009925"><ele>316.7142857142857</ele><time>2026-05-03T07:59:41Z</time></trkpt><trkpt lat="45.064727654179215" lon="8.052802217201279"><ele>314.57142857142856</ele><time>2026-05-03T07:59:47Z</time></trkpt><trkpt lat="45.06472128712788" lon="8.052707573196907"><ele>312.42857142857144</ele><time>2026-05-03T07:59:53Z</time></trkpt><trkpt lat="45.06477113511767" lon="8.052633678058784"><ele>310.2857142857143</ele><time>2026-05-03T07:59:58Z</time></trkpt><trkpt lat="45.06481801579359" lon="8.052553672840846"><ele>308.1428571428571</ele><time>2026-05-03T08:00:03Z</time></trkpt><trkpt lat="45.06485702010554" lon="8.052470716674872"><ele>306.0</ele><time>2026-05-03T08:00:07.999Z</time></trkpt><trkpt lat="45.06487961419649" lon="8.052378446418228"><ele>305.1428571428571</ele><time>2026-05-03T08:00:12.999Z</time></trkpt><trkpt lat="45.06490121972611" lon="8.05227456410749"><ele>304.2857142857143</ele><time>2026-05-03T08:00:18.999Z</time></trkpt><trkpt lat="45.06490591971774" lon="8.052172396885977"><ele>303.42857142857144</ele><time>2026-05-03T08:00:24.999Z</time></trkpt><trkpt lat="45.064908155060316" lon="8.052074431000703"><ele>302.57142857142856</ele><time>2026-05-03T08:00:29.999Z</time></trkpt><trkpt lat="45.06490903270537" lon="8.051976396417658"><ele>301.7142857142857</ele><time>2026-05-03T08:00:34.999Z</time></trkpt><trkpt lat="45.06490678481432" lon="8.051870231710257"><ele>300.85714285714283</ele><time>2026-05-03T08:00:39.999Z</time></trkpt><trkpt lat="45.06490298967859" lon="8.051776764879333"><ele>300.0</ele><time>2026-05-03T08:00:44.999Z</time></trkpt><trkpt lat="45.06489405305852" lon="8.051668501977682"><ele>299.99999999999994</ele><time>2026-05-03T08:00:49.999Z</time></trkpt><trkpt lat="45.06488403949056" lon="8.051568473308485"><ele>300.0</ele><time>2026-05-03T08:00:54.999Z</time></trkpt><trkpt lat="45.06487146788201" lon="8.0514760077027"><ele>300.0</ele><time>2026-05-03T08:00:59.999Z</time></trkpt><trkpt lat="45.064866094728785" lon="8.051380776512335"><ele>300.0</ele><time>2026-05-03T08:01:05Z</time></trkpt><trkpt lat="45.064856606901614" lon="8.05128563871227"><ele>300.0</ele><time>2026-05-03T08:01:10Z</time></trkpt><trkpt lat="45.06484323397661" lon="8.051193964027137"><ele>299.99999999999994</ele><time>2026-05-03T08:01:14Z</time></trkpt><trkpt lat="45.06483223751828" lon="8.051091814578278"><ele>300.0</ele><time>2026-05-03T08:01:20Z</time></trkpt><trkpt lat="45.064794052904006" lon="8.050973213465484"><ele>299.99999999999994</ele><time>2026-05-03T08:01:26Z</time></trkpt><trkpt lat="45.06477175758315" lon="8.0508890844643"><ele>300.0</ele><time>2026-05-03T08:01:31Z</time></trkpt><trkpt lat="45.06472735729198" lon="8.050802603154477"><ele>300.0</ele><time>2026-05-03T08:01:36Z</time></trkpt><trkpt lat="45.06468165758331" lon="8.050732119857601"><ele>300.0</ele><time>2026-05-03T08:01:41Z</time></trkpt><trkpt lat="45.06463442289019" lon="8.050671774625226"><ele>300.0</ele><time>2026-05-03T08:01:46Z</time></trkpt><trkpt lat="45.06457843067565" lon="8.05061758319733"><ele>299.99999999999994</ele><time>2026-05-03T08:01:51Z</time></trkpt><trkpt lat="45.064518820611646" lon="8.050567851041661"><ele>300.0</ele><time>2026-05-03T08:01:56Z</time></trkpt><trkpt lat="45.06445761965086" lon="8.050512666863831"><ele>300.2857142857143</ele><time>2026-05-03T08:02:01Z</time></trkpt><trkpt lat="45.06439568233668" lon="8.050475009899321"><ele>300.57142857142856</ele><time>2026-05-03T08:02:06Z</time></trkpt><trkpt lat="45.06433552247235" lon="8.050428811066501"><ele>300.8571428571429</ele><time>2026-05-03T08:02:10.999Z</time></trkpt><trkpt lat="45.064269182233396" lon="8.050368094300717"><ele>301.1428571428571</ele><time>2026-05-03T08:02:16.999Z</time></trkpt><trkpt lat="45.0642146828019" lon="8.050319179956057"><ele>301.42857142857144</ele><time>2026-05-03T08:02:21.999Z</time></trkpt><trkpt lat="45.06416890725231" lon="8.050235729449865"><ele>301.7142857142857</ele><time>2026-05-03T08:02:26.999Z</time></trkpt><trkpt lat="45.06412694925366" lon="8.050155273420659"><ele>302.0</ele><time>2026-05-03T08:02:31.999Z</time></trkpt><trkpt lat="45.06409372784371" lon="8.05006950279864"><ele>301.8571428571429</ele><time>2026-05-03T08:02:36.999Z</time></trkpt><trkpt lat="45.064075237224756" lon="8.049979529518092"><ele>301.7142857142857</ele><time>2026-05-03T08:02:41.999Z</time></trkpt><trkpt lat="45.06405934902861" lon="8.049886103165173"><ele>301.57142857142856</ele><time>2026-05-03T08:02:46.999Z</time></trkpt><trkpt lat="45.06405679807359" lon="8.049785545174405"><ele>301.42857142857144</ele><time>2026-05-03T08:02:51.999Z</time></trkpt><trkpt lat="45.06406877269258" lon="8.04968810200124"><ele>301.2857142857143</ele><time>2026-05-03T08:02:55.999Z</time></trkpt><trkpt lat="45.06408666011281" lon="8.049576085619123"><ele>301.14285714285717</ele><time>2026-05-03T08:03:00.999Z</time></trkpt><trkpt lat="45.06413025196232" lon="8.049494813911657"><ele>301.0</ele><time>2026-05-03T08:03:05.999Z</time></trkpt><trkpt lat="45.06416438706794" lon="8.049407148172232"><ele>301.0</ele><time>2026-05-03T08:03:11Z</time></trkpt><trkpt lat="45.06419478942955" lon="8.049317548007421"><ele>301.0</ele><time>2026-05-03T08:03:16Z</time></trkpt><trkpt lat="45.064214731016556" lon="8.049221367689274"><ele>301.0</ele><time>2026-05-03T08:03:22Z</time></trkpt><trkpt lat="45.064234662683994" lon="8.049132689105733"><ele>301.0</ele><time>2026-05-03T08:03:28Z</time></trkpt><trkpt lat="45.06425501521574" lon="8.049045158279013"><ele>301.0</ele><time>2026-05-03T08:03:33Z</time></trkpt><trkpt lat="45.06426470518929" lon="8.048952056366828"><ele>301.0</ele><time>2026-05-03T08:03:38Z</time></trkpt><trkpt lat="45.06429164337591" lon="8.048861783838868"><ele>301.0</ele><time>2026-05-03T08:03:44Z</time></trkpt><trkpt lat="45.06429921449413" lon="8.048758596456581"><ele>299.57142857142856</ele><time>2026-05-03T08:03:49Z</time></trkpt><trkpt lat="45.064304589400535" lon="8.048665993860098"><ele>298.1428571428571</ele><time>2026-05-03T08:03:54Z</time></trkpt><trkpt lat="45.06430709405267" lon="8.048576099498941"><ele>296.7142857142857</ele><time>2026-05-03T08:03:59Z</time></trkpt><trkpt lat="45.0642970977073" lon="8.048487769267473"><ele>295.2857142857143</ele><time>2026-05-03T08:04:04Z</time></trkpt><trkpt lat="45.06428248705237" lon="8.048394272027855"><ele>293.85714285714283</ele><time>2026-05-03T08:04:09Z</time></trkpt><trkpt lat="45.06427078801506" lon="8.048296434048773"><ele>292.42857142857144</ele><time>2026-05-03T08:04:14Z</time></trkpt><trkpt lat="45.06426677787844" lon="8.048199557403095"><ele>291.0</ele><time>2026-05-03T08:04:18.999Z</time></trkpt><trkpt lat="45.064268850215" lon="8.048088929820867"><ele>290.42857142857144</ele><time>2026-05-03T08:04:24.999Z</time></trkpt><trkpt lat="45.0642819942203" lon="8.047986648436424"><ele>289.85714285714283</ele><time>2026-05-03T08:04:29.999Z</time></trkpt><trkpt lat="45.064294579661905" lon="8.047889619471047"><ele>289.2857142857143</ele><time>2026-05-03T08:04:34.999Z</time></trkpt><trkpt lat="45.064312750710734" lon="8.04779600158655"><ele>288.7142857142857</ele><time>2026-05-03T08:04:39.999Z</time></trkpt><trkpt lat="45.06433530429217" lon="8.047689203959616"><ele>288.1428571428571</ele><time>2026-05-03T08:04:44.999Z</time></trkpt><trkpt lat="45.06435049129567" lon="8.047587656344685"><ele>287.57142857142856</ele><time>2026-05-03T08:04:49.999Z</time></trkpt><trkpt lat="45.06436340138928" lon="8.047492203345014"><ele>287.0</ele><time>2026-05-03T08:04:54.999Z</time></trkpt><trkpt lat="45.0643713367594" lon="8.047379628619764"><ele>287.0</ele><time>2026-05-03T08:04:59.999Z</time></trkpt><trkpt lat="45.06437406761496" lon="8.047284680510169"><ele>287.0</ele><time>2026-05-03T08:05:04.999Z</time></trkpt><trkpt lat="45.06436825451155" lon="8.047172483777912"><ele>287.0</ele><time>2026-05-03T08:05:09.999Z</time></trkpt><trkpt lat="45.06436588776292" lon="8.047072045729434"><ele>287.0</ele><time>2026-05-03T08:05:15Z</time></trkpt><trkpt lat="45.064360387509076" lon="8.046971098537206"><ele>287.0</ele><time>2026-05-03T08:05:20Z</time></trkpt><trkpt lat="45.06433995749798" lon="8.046886686579622"><ele>287.0</ele><time>2026-05-03T08:05:24Z</time></trkpt><trkpt lat="45.064302434069006" lon="8.046794529286508"><ele>287.0</ele><time>2026-05-03T08:05:29Z</time></trkpt><trkpt lat="45.064267297731504" lon="8.046705708709808"><ele>286.57142857142856</ele><time>2026-05-03T08:05:34Z</time></trkpt><trkpt lat="45.064216095464324" lon="8.046627800958746"><ele>286.1428571428571</ele><time>2026-05-03T08:05:39Z</time></trkpt><trkpt lat="45.06417876195539" lon="8.046550863716684"><ele>285.7142857142857</ele><time>2026-05-03T08:05:43Z</time></trkpt><trkpt lat="45.06411767342501" lon="8.046476794210356"><ele>285.2857142857143</ele><time>2026-05-03T08:05:48Z</time></trkpt><trkpt lat="45.06405641376816" lon="8.046412522380564"><ele>284.85714285714283</ele><time>2026-05-03T08:05:53Z</time></trkpt><trkpt lat="45.06400285790404" lon="8.046334733611463"><ele>284.42857142857144</ele><time>2026-05-03T08:05:58Z</time></trkpt><trkpt lat="45.06395046296934" lon="8.046284172987662"><ele>284.0</ele><time>2026-05-03T08:06:02Z</time></trkpt><trkpt lat="45.063886284516386" lon="8.046231326596883"><ele>284.0</ele><time>2026-05-03T08:06:07Z</time></trkpt><trkpt lat="45.06382026689416" lon="8.04617936677041"><ele>284.0</ele><time>2026-05-03T08:06:13Z</time></trkpt><trkpt lat="45.06375954514514" lon="8.046128578554931"><ele>284.0</ele><time>2026-05-03T08:06:18Z</time></trkpt><trkpt lat="45.06369895842873" lon="8.04609649047674"><ele>284.0</ele><time>2026-05-03T08:06:23Z</time></trkpt><trkpt lat="45.06361943260086" lon="8.046084856373277"><ele>284.0</ele><time>2026-05-03T08:06:28.999Z</time></trkpt><trkpt lat="45.06354922592671" lon="8.046069078855716"><ele>284.0</ele><time>2026-05-03T08:06:34.999Z</time></trkpt><trkpt lat="45.06347674276916" lon="8.0460684694724"><ele>284.0</ele><time>2026-05-03T08:06:39.999Z</time></trkpt><trkpt lat="45.063409139372084" lon="8.046067130783237"><ele>284.0</ele><time>2026-05-03T08:06:44.999Z</time></trkpt><trkpt lat="45.06333856238041" lon="8.046051265500314"><ele>284.0</ele><time>2026-05-03T08:06:49.999Z</time></trkpt><trkpt lat="45.063274221257736" lon="8.04602485236057"><ele>284.0</ele><time>2026-05-03T08:06:54.999Z</time></trkpt><trkpt lat="45.06321472845115" lon="8.045981525844562"><ele>284.0</ele><time>2026-05-03T08:07:00.999Z</time></trkpt><trkpt lat="45.063155505082605" lon="8.04591399752678"><ele>284.0</ele><time>2026-05-03T08:07:05.999Z</time></trkpt><trkpt lat="45.063109520076836" lon="8.045852179937027"><ele>284.0</ele><time>2026-05-03T08:07:10.999Z</time></trkpt><trkpt lat="45.06305856484404" lon="8.045781391007441"><ele>284.0</ele><time>2026-05-03T08:07:15.999Z</time></trkpt><trkpt lat="45.06301266428696" lon="8.045710679921749"><ele>284.7142857142857</ele><time>2026-05-03T08:07:21Z</time></trkpt><trkpt lat="45.06296270241614" lon="8.045638113767644"><ele>285.4285714285714</ele><time>2026-05-03T08:07:26Z</time></trkpt><trkpt lat="45.062908273220685" lon="8.045573166013657"><ele>286.1428571428571</ele><time>2026-05-03T08:07:31Z</time></trkpt><trkpt lat="45.06285249728167" lon="8.04550842696468"><ele>286.85714285714283</ele><time>2026-05-03T08:07:36Z</time></trkpt><trkpt lat="45.06278400054796" lon="8.045478854965753"><ele>287.57142857142856</ele><time>2026-05-03T08:07:40Z</time></trkpt><trkpt lat="45.06271196105794" lon="8.045448272929733"><ele>288.2857142857143</ele><time>2026-05-03T08:07:45Z</time></trkpt><trkpt lat="45.06264250243379" lon="8.045449439990831"><ele>289.0</ele><time>2026-05-03T08:07:49Z</time></trkpt><trkpt lat="45.06257648789336" lon="8.045427626082468"><ele>289.0</ele><time>2026-05-03T08:07:53Z</time></trkpt><trkpt lat="45.06250188715254" lon="8.045411341402444"><ele>289.0</ele><time>2026-05-03T08:07:58Z</time></trkpt><trkpt lat="45.06243363416367" lon="8.045393351889611"><ele>289.0</ele><time>2026-05-03T08:08:02Z</time></trkpt><trkpt lat="45.06236060295884" lon="8.045379597985438"><ele>289.0</ele><time>2026-05-03T08:08:07Z</time></trkpt><trkpt lat="45.062301108288814" lon="8.04534402705821"><ele>289.0</ele><time>2026-05-03T08:08:11Z</time></trkpt><trkpt lat="45.062234578066686" lon="8.04530439543662"><ele>289.0</ele><time>2026-05-03T08:08:16Z</time></trkpt><trkpt lat="45.062181836860184" lon="8.045248350726379"><ele>289.0</ele><time>2026-05-03T08:08:20Z</time></trkpt><trkpt lat="45.062131371478316" lon="8.045167167726946"><ele>289.0</ele><time>2026-05-03T08:08:25Z</time></trkpt><trkpt lat="45.06208130348584" lon="8.045090793775234"><ele>289.0</ele><time>2026-05-03T08:08:29.999Z</time></trkpt><trkpt lat="45.062043684648906" lon="8.045016106458602"><ele>289.0</ele><time>2026-05-03T08:08:33.999Z</time></trkpt><trkpt lat="45.062005073393124" lon="8.044941967744016"><ele>289.0</ele><time>2026-05-03T08:08:37.999Z</time></trkpt><trkpt lat="45.06196407453456" lon="8.044862574100101"><ele>289.0</ele><time>2026-05-03T08:08:41.999Z</time></trkpt><trkpt lat="45.06190964697945" lon="8.044790835324207"><ele>289.0</ele><time>2026-05-03T08:08:45.999Z</time></trkpt><trkpt lat="45.06186168932212" lon="8.04472725540908"><ele>289.0</ele><time>2026-05-03T08:08:48.999Z</time></trkpt><trkpt lat="45.06180369743666" lon="8.044675094145916"><ele>289.14285714285717</ele><time>2026-05-03T08:08:52.999Z</time></trkpt><trkpt lat="45.06173651801005" lon="8.044651483752181"><ele>289.2857142857143</ele><time>2026-05-03T08:08:56.999Z</time></trkpt><trkpt lat="45.0616691608011" lon="8.044649644121426"><ele>289.42857142857144</ele><time>2026-05-03T08:09:00.999Z</time></trkpt><trkpt lat="45.06160434282814" lon="8.044684231345261"><ele>289.57142857142856</ele><time>2026-05-03T08:09:05.999Z</time></trkpt><trkpt lat="45.06153290042091" lon="8.04469487634659"><ele>289.7142857142857</ele><time>2026-05-03T08:09:10.999Z</time></trkpt><trkpt lat="45.061457598526495" lon="8.044689818399036"><ele>289.8571428571429</ele><time>2026-05-03T08:09:15.999Z</time></trkpt><trkpt lat="45.0613883389437" lon="8.04470000582508"><ele>290.0</ele><time>2026-05-03T08:09:20.999Z</time></trkpt><trkpt lat="45.06131361393138" lon="8.04469697127536"><ele>290.0</ele><time>2026-05-03T08:09:27Z</time></trkpt><trkpt lat="45.06124560774091" lon="8.044698405318863"><ele>290.0</ele><time>2026-05-03T08:09:32Z</time></trkpt><trkpt lat="45.06117132827719" lon="8.044695834014767"><ele>290.0</ele><time>2026-05-03T08:09:37Z</time></trkpt><trkpt lat="45.06110713628237" lon="8.044694225470012"><ele>290.0</ele><time>2026-05-03T08:09:42Z</time></trkpt><trkpt lat="45.06103986080104" lon="8.04469656980473"><ele>290.0</ele><time>2026-05-03T08:09:47Z</time></trkpt><trkpt lat="45.060973787876314" lon="8.04470378276331"><ele>290.0</ele><time>2026-05-03T08:09:52Z</time></trkpt><trkpt lat="45.06090381034167" lon="8.044703131033652"><ele>290.0</ele><time>2026-05-03T08:09:57Z</time></trkpt><trkpt lat="45.060833944801246" lon="8.044715338754973"><ele>290.8571428571429</ele><time>2026-05-03T08:10:03Z</time></trkpt><trkpt lat="45.06077412428037" lon="8.044653037162444"><ele>291.7142857142857</ele><time>2026-05-03T08:10:09Z</time></trkpt><trkpt lat="45.060715399566945" lon="8.044607884148503"><ele>292.57142857142856</ele><time>2026-05-03T08:10:15Z</time></trkpt><trkpt lat="45.06066514415447" lon="8.04453714523048"><ele>293.42857142857144</ele><time>2026-05-03T08:10:20Z</time></trkpt><trkpt lat="45.06062922628389" lon="8.044462646519062"><ele>294.2857142857143</ele><time>2026-05-03T08:10:25Z</time></trkpt><trkpt lat="45.06057548790307" lon="8.044400932725626"><ele>295.14285714285717</ele><time>2026-05-03T08:10:30Z</time></trkpt><trkpt lat="45.06051416426521" lon="8.044359799876732"><ele>296.0</ele><time>2026-05-03T08:10:34.999Z</time></trkpt><trkpt lat="45.060449427677746" lon="8.044315990074072"><ele>296.0</ele><time>2026-05-03T08:10:39.999Z</time></trkpt><trkpt lat="45.06039033669368" lon="8.044255082050407"><ele>296.0</ele><time>2026-05-03T08:10:44.999Z</time></trkpt><trkpt lat="45.060338712570214" lon="8.04417993120773"><ele>296.0</ele><time>2026-05-03T08:10:48.999Z</time></trkpt><trkpt lat="45.06028720605148" lon="8.044118935644697"><ele>296.0</ele><time>2026-05-03T08:10:52.999Z</time></trkpt><trkpt lat="45.060215166932444" lon="8.04406377096816"><ele>296.0</ele><time>2026-05-03T08:10:57.999Z</time></trkpt><trkpt lat="45.06016556092279" lon="8.044003927276297"><ele>296.0</ele><time>2026-05-03T08:11:02.999Z</time></trkpt><trkpt lat="45.06009923396994" lon="8.043964392591684"><ele>296.0</ele><time>2026-05-03T08:11:07.999Z</time></trkpt><trkpt lat="45.0600336917567" lon="8.043925007566942"><ele>293.14285714285717</ele><time>2026-05-03T08:11:12.999Z</time></trkpt><trkpt lat="45.05995460658344" lon="8.043905813005932"><ele>290.2857142857143</ele><time>2026-05-03T08:11:18.999Z</time></trkpt><trkpt lat="45.05987576897486" lon="8.043889337747082"><ele>287.42857142857144</ele><time>2026-05-03T08:11:23.999Z</time></trkpt><trkpt lat="45.05980831490925" lon="8.043888072950478"><ele>284.57142857142856</ele><time>2026-05-03T08:11:27.999Z</time></trkpt><trkpt lat="45.059737241338155" lon="8.043876419056826"><ele>281.7142857142857</ele><time>2026-05-03T08:11:33Z</time></trkpt><trkpt lat="45.05966674134771" lon="8.043894023377844"><ele>278.8571428571429</ele><time>2026-05-03T08:11:39Z</time></trkpt><trkpt lat="45.05960480281069" lon="8.043912816523346"><ele>276.0</ele><time>2026-05-03T08:11:45Z</time></trkpt><trkpt lat="45.05953134306015" lon="8.043942262195358"><ele>276.0</ele><time>2026-05-03T08:11:52Z</time></trkpt><trkpt lat="45.059470755160994" lon="8.043975595149464"><ele>276.0</ele><time>2026-05-03T08:11:58Z</time></trkpt><trkpt lat="45.059401811896116" lon="8.044019791011818"><ele>276.0</ele><time>2026-05-03T08:12:04Z</time></trkpt><trkpt lat="45.05933894765558" lon="8.044057871117117"><ele>276.0</ele><time>2026-05-03T08:12:11Z</time></trkpt><trkpt lat="45.05927993994635" lon="8.044096002594543"><ele>276.0</ele><time>2026-05-03T08:12:16Z</time></trkpt><trkpt lat="45.05920615983476" lon="8.044107939569233"><ele>276.0</ele><time>2026-05-03T08:12:22Z</time></trkpt><trkpt lat="45.05914570883727" lon="8.044142437283606"><ele>276.0</ele><time>2026-05-03T08:12:27Z</time></trkpt><trkpt lat="45.059085228803134" lon="8.044172046769646"><ele>276.7142857142857</ele><time>2026-05-03T08:12:32Z</time></trkpt><trkpt lat="45.05901673658089" lon="8.044191900303902"><ele>277.42857142857144</ele><time>2026-05-03T08:12:37.999Z</time></trkpt><trkpt lat="45.058951067205435" lon="8.044190677420449"><ele>278.14285714285717</ele><time>2026-05-03T08:12:41.999Z</time></trkpt><trkpt lat="45.05888066441793" lon="8.044226261258558"><ele>278.8571428571429</ele><time>2026-05-03T08:12:47.999Z</time></trkpt><trkpt lat="45.05880672999745" lon="8.04425067480694"><ele>279.57142857142856</ele><time>2026-05-03T08:12:53.999Z</time></trkpt><trkpt lat="45.05875103284317" lon="8.04429970144614"><ele>280.28571428571433</ele><time>2026-05-03T08:12:59.999Z</time></trkpt><trkpt lat="45.058678581998144" lon="8.044323660410496"><ele>281.0</ele><time>2026-05-03T08:13:05.999Z</time></trkpt><trkpt lat="45.058616530292056" lon="8.044347086120428"><ele>281.00000000000006</ele><time>2026-05-03T08:13:10.999Z</time></trkpt><trkpt lat="45.0585481731884" lon="8.044377409710508"><ele>281.0</ele><time>2026-05-03T08:13:15.999Z</time></trkpt><trkpt lat="45.05848354623698" lon="8.044422094829654"><ele>281.0</ele><time>2026-05-03T08:13:20.999Z</time></trkpt><trkpt lat="45.05841959749537" lon="8.044461550045797"><ele>281.0</ele><time>2026-05-03T08:13:25.999Z</time></trkpt><trkpt lat="45.058343090004236" lon="8.04450184546355"><ele>281.0</ele><time>2026-05-03T08:13:31.999Z</time></trkpt><trkpt lat="45.058289123520396" lon="8.044547973337151"><ele>281.00000000000006</ele><time>2026-05-03T08:13:36.999Z</time></trkpt><trkpt lat="45.05822421917256" lon="8.044591177843376"><ele>281.0</ele><time>2026-05-03T08:13:43Z</time></trkpt><trkpt lat="45.05816469737171" lon="8.04462038980875"><ele>279.7142857142857</ele><time>2026-05-03T08:13:48Z</time></trkpt><trkpt lat="45.05809822335588" lon="8.044649315615997"><ele>278.42857142857144</ele><time>2026-05-03T08:13:53Z</time></trkpt><trkpt lat="45.05802812917467" lon="8.044675693571236"><ele>277.1428571428571</ele><time>2026-05-03T08:13:59Z</time></trkpt><trkpt lat="45.057954903800905" lon="8.04467989271538"><ele>275.8571428571429</ele><time>2026-05-03T08:14:05Z</time></trkpt><trkpt lat="45.057890879762695" lon="8.04466824000248"><ele>274.57142857142856</ele><time>2026-05-03T08:14:11Z</time></trkpt><trkpt lat="45.05782334022507" lon="8.044653674447645"><ele>273.2857142857143</ele><time>2026-05-03T08:14:16Z</time></trkpt><trkpt lat="45.05775258930569" lon="8.044653253820227"><ele>272.0</ele><time>2026-05-03T08:14:22Z</time></trkpt><trkpt lat="45.05775948764396" lon="8.04455602560408"><ele>271.99999999999994</ele><time>2026-05-03T08:14:31Z</time></trkpt><trkpt lat="45.05780521804218" lon="8.044489078598982"><ele>272.0</ele><time>2026-05-03T08:14:36Z</time></trkpt><trkpt lat="45.057861129106335" lon="8.04443433568162"><ele>272.0</ele><time>2026-05-03T08:14:41Z</time></trkpt><trkpt lat="45.057908040376915" lon="8.044361942026919"><ele>272.0</ele><time>2026-05-03T08:14:45.999Z</time></trkpt><trkpt lat="45.057968997309864" lon="8.044300400644694"><ele>272.0</ele><time>2026-05-03T08:14:50.999Z</time></trkpt><trkpt lat="45.05802121561251" lon="8.044222944002993"><ele>271.99999999999994</ele><time>2026-05-03T08:14:55.999Z</time></trkpt><trkpt lat="45.05806990364766" lon="8.044147119791951"><ele>272.0</ele><time>2026-05-03T08:15:00.999Z</time></trkpt><trkpt lat="45.058132753457464" lon="8.044083143811845"><ele>270.99999999999994</ele><time>2026-05-03T08:15:05.999Z</time></trkpt><trkpt lat="45.0581848964577" lon="8.044025975248779"><ele>270.0</ele><time>2026-05-03T08:15:10.999Z</time></trkpt><trkpt lat="45.058225308245305" lon="8.043956902784535"><ele>269.0</ele><time>2026-05-03T08:15:14.999Z</time></trkpt><trkpt lat="45.05827316886273" lon="8.043884302741466"><ele>268.0</ele><time>2026-05-03T08:15:19.999Z</time></trkpt><trkpt lat="45.05832651660585" lon="8.043818380370382"><ele>267.0</ele><time>2026-05-03T08:15:25.999Z</time></trkpt><trkpt lat="45.058375470124545" lon="8.043753200232157"><ele>265.99999999999994</ele><time>2026-05-03T08:15:30.999Z</time></trkpt><trkpt lat="45.05838237375027" lon="8.043648104362871"><ele>265.0</ele><time>2026-05-03T08:15:37.999Z</time></trkpt><trkpt lat="45.058429350787286" lon="8.043583753561824"><ele>264.99999999999994</ele><time>2026-05-03T08:15:42.999Z</time></trkpt><trkpt lat="45.05847449468119" lon="8.043507363256415"><ele>265.0</ele><time>2026-05-03T08:15:48Z</time></trkpt><trkpt lat="45.058500536776904" lon="8.043418342934658"><ele>265.0</ele><time>2026-05-03T08:15:55Z</time></trkpt><trkpt lat="45.05851295101475" lon="8.043311608559517"><ele>265.0</ele><time>2026-05-03T08:16:00Z</time></trkpt><trkpt lat="45.05851448177695" lon="8.043218727458266"><ele>265.0</ele><time>2026-05-03T08:16:06Z</time></trkpt><trkpt lat="45.058502885173944" lon="8.043123308988164"><ele>264.99999999999994</ele><time>2026-05-03T08:16:11Z</time></trkpt><trkpt lat="45.058490069399895" lon="8.043025128641784"><ele>265.0</ele><time>2026-05-03T08:16:18Z</time></trkpt><trkpt lat="45.05848337644609" lon="8.042936103707998"><ele>263.57142857142856</ele><time>2026-05-03T08:16:23Z</time></trkpt><trkpt lat="45.05847143972797" lon="8.042836685524943"><ele>262.1428571428571</ele><time>2026-05-03T08:16:30Z</time></trkpt><trkpt lat="45.05846661805643" lon="8.042735444238945"><ele>260.7142857142857</ele><time>2026-05-03T08:16:36Z</time></trkpt><trkpt lat="45.0584649260175" lon="8.042635259259923"><ele>259.2857142857143</ele><time>2026-05-03T08:16:43Z</time></trkpt><trkpt lat="45.05846159771542" lon="8.042539202198402"><ele>257.8571428571429</ele><time>2026-05-03T08:16:50Z</time></trkpt><trkpt lat="45.05845371728653" lon="8.042450408722468"><ele>256.42857142857144</ele><time>2026-05-03T08:16:55.999Z</time></trkpt><trkpt lat="45.05846278959788" lon="8.042356602607182"><ele>255.0</ele><time>2026-05-03T08:17:02.999Z</time></trkpt><trkpt lat="45.05846815538599" lon="8.042263802751345"><ele>253.71428571428572</ele><time>2026-05-03T08:17:10.999Z</time></trkpt><trkpt lat="45.058472812581655" lon="8.042166272564257"><ele>252.42857142857144</ele><time>2026-05-03T08:17:15.999Z</time></trkpt><trkpt lat="45.058486404444636" lon="8.042069783215751"><ele>251.14285714285717</ele><time>2026-05-03T08:17:22.999Z</time></trkpt><trkpt lat="45.05850195246907" lon="8.04197461268596"><ele>249.8571428571429</ele><time>2026-05-03T08:17:28.999Z</time></trkpt><trkpt lat="45.05850325860007" lon="8.041877016030382"><ele>248.57142857142858</ele><time>2026-05-03T08:17:33.999Z</time></trkpt><trkpt lat="45.05849669084447" lon="8.041785245614717"><ele>247.28571428571433</ele><time>2026-05-03T08:17:38.999Z</time></trkpt><trkpt lat="45.05849952798631" lon="8.041691447316326"><ele>246.00000000000003</ele><time>2026-05-03T08:17:45.999Z</time></trkpt><trkpt lat="45.05851005924813" lon="8.041582481836107"><ele>244.28571428571433</ele><time>2026-05-03T08:17:52Z</time></trkpt><trkpt lat="45.05850420257507" lon="8.041492295044788"><ele>242.57142857142858</ele><time>2026-05-03T08:17:58Z</time></trkpt><trkpt lat="45.058506521671205" lon="8.041400779807045"><ele>240.8571428571429</ele><time>2026-05-03T08:18:05Z</time></trkpt><trkpt lat="45.05850219880513" lon="8.041311597498671"><ele>239.14285714285717</ele><time>2026-05-03T08:18:11Z</time></trkpt><trkpt lat="45.058476317644406" lon="8.04119808856077"><ele>237.42857142857144</ele><time>2026-05-03T08:18:17Z</time></trkpt><trkpt lat="45.058473723755434" lon="8.04109492545327"><ele>235.71428571428572</ele><time>2026-05-03T08:18:24Z</time></trkpt><trkpt lat="45.05845287434196" lon="8.04100198107223"><ele>234.0</ele><time>2026-05-03T08:18:29Z</time></trkpt><trkpt lat="45.05844251103159" lon="8.040907077592193"><ele>234.0</ele><time>2026-05-03T08:18:34Z</time></trkpt><trkpt lat="45.058421013810246" lon="8.0408181700142"><ele>234.00000000000003</ele><time>2026-05-03T08:18:42Z</time></trkpt><trkpt lat="45.0583744763959" lon="8.040757234402154"><ele>234.0</ele><time>2026-05-03T08:18:46Z</time></trkpt><trkpt lat="45.05833861086368" lon="8.040681435045837"><ele>234.0</ele><time>2026-05-03T08:18:52Z</time></trkpt><trkpt lat="45.058303749544656" lon="8.040594359488324"><ele>234.00000000000003</ele><time>2026-05-03T08:18:58Z</time></trkpt><trkpt lat="45.05827046682488" lon="8.040517665998372"><ele>234.0</ele><time>2026-05-03T08:19:02.999Z</time></trkpt><trkpt lat="45.05823390125613" lon="8.040433518502168"><ele>234.0</ele><time>2026-05-03T08:19:08.999Z</time></trkpt><trkpt lat="45.05821788756956" lon="8.04034214994567"><ele>233.2857142857143</ele><time>2026-05-03T08:19:13.999Z</time></trkpt><trkpt lat="45.05819404330375" lon="8.04024637232318"><ele>232.5714285714286</ele><time>2026-05-03T08:19:19.999Z</time></trkpt><trkpt lat="45.05816305022317" lon="8.040157237174238"><ele>231.85714285714286</ele><time>2026-05-03T08:19:25.999Z</time></trkpt><trkpt lat="45.05812296482946" lon="8.040076631915603"><ele>231.14285714285717</ele><time>2026-05-03T08:19:34.999Z</time></trkpt><trkpt lat="45.05805625973724" lon="8.040054037482001"><ele>230.42857142857144</ele><time>2026-05-03T08:19:38.999Z</time></trkpt><trkpt lat="45.05802127392837" lon="8.039972079154888"><ele>229.71428571428572</ele><time>2026-05-03T08:19:44.999Z</time></trkpt><trkpt lat="45.05799244737695" lon="8.039883429032619"><ele>229.0</ele><time>2026-05-03T08:19:49.999Z</time></trkpt><trkpt lat="45.05796237817146" lon="8.03978578947152"><ele>228.49999999999997</ele><time>2026-05-03T08:19:54.999Z</time></trkpt><trkpt lat="45.05792788984164" lon="8.0397062035573"><ele>228.0</ele><time>2026-05-03T08:19:59Z</time></trkpt><trkpt lat="45.05788306442311" lon="8.039617492982147"><ele>227.5</ele><time>2026-05-03T08:20:04Z</time></trkpt><trkpt lat="45.05785210756084" lon="8.039521128247372"><ele>227.0</ele><time>2026-05-03T08:20:09Z</time></trkpt><trkpt lat="45.05781878534112" lon="8.039425310519436"><ele>226.49999999999997</ele><time>2026-05-03T08:20:14Z</time></trkpt><trkpt lat="45.05778063282747" lon="8.039330949018801"><ele>226.0</ele><time>2026-05-03T08:20:19Z</time></trkpt><trkpt lat="45.05773427588215" lon="8.03923747975999"><ele>225.99999999999997</ele><time>2026-05-03T08:20:24Z</time></trkpt><trkpt lat="45.05768455695526" lon="8.03914149839415"><ele>226.0</ele><time>2026-05-03T08:20:29Z</time></trkpt><trkpt lat="45.05764351348209" lon="8.03904887570689"><ele>226.0</ele><time>2026-05-03T08:20:34Z</time></trkpt><trkpt lat="45.05760030250971" lon="8.038959708752136"><ele>226.0</ele><time>2026-05-03T08:20:39Z</time></trkpt><trkpt lat="45.057559419755904" lon="8.038872687267931"><ele>225.99999999999997</ele><time>2026-05-03T08:20:44Z</time></trkpt><trkpt lat="45.05751574770076" lon="8.038784271381806"><ele>226.0</ele><time>2026-05-03T08:20:49Z</time></trkpt><trkpt lat="45.05747013391777" lon="8.038702262253093"><ele>226.28571428571428</ele><time>2026-05-03T08:20:54Z</time></trkpt><trkpt lat="45.057431784130635" lon="8.038620295708759"><ele>226.57142857142856</ele><time>2026-05-03T08:20:59Z</time></trkpt><trkpt lat="45.05738620821243" lon="8.038538875457695"><ele>226.85714285714283</ele><time>2026-05-03T08:21:04Z</time></trkpt><trkpt lat="45.057341742642166" lon="8.038456964610905"><ele>227.14285714285714</ele><time>2026-05-03T08:21:08.999Z</time></trkpt><trkpt lat="45.05731004882781" lon="8.038367372443796"><ele>227.4285714285714</ele><time>2026-05-03T08:21:13.999Z</time></trkpt><trkpt lat="45.057276290976795" lon="8.038272456761947"><ele>227.7142857142857</ele><time>2026-05-03T08:21:18.999Z</time></trkpt><trkpt lat="45.05730013843383" lon="8.038177845192823"><ele>228.0</ele><time>2026-05-03T08:21:22.999Z</time></trkpt><trkpt lat="45.05736951796147" lon="8.038164200497192"><ele>228.42857142857142</ele><time>2026-05-03T08:21:26.999Z</time></trkpt><trkpt lat="45.05742949803515" lon="8.038117753233626"><ele>228.85714285714283</ele><time>2026-05-03T08:21:31.999Z</time></trkpt><trkpt lat="45.05748825645015" lon="8.03808236573474"><ele>229.28571428571428</ele><time>2026-05-03T08:21:35.999Z</time></trkpt><trkpt lat="45.0575572523838" lon="8.038048808485588"><ele>229.71428571428572</ele><time>2026-05-03T08:21:40.999Z</time></trkpt><trkpt lat="45.05762556917776" lon="8.038073883350155"><ele>230.14285714285714</ele><time>2026-05-03T08:21:44.999Z</time></trkpt><trkpt lat="45.05769492244802" lon="8.038082708111775"><ele>230.57142857142856</ele><time>2026-05-03T08:21:49.999Z</time></trkpt><trkpt lat="45.05777471721387" lon="8.038113003911276"><ele>231.0</ele><time>2026-05-03T08:21:54.999Z</time></trkpt><trkpt lat="45.05783976304948" lon="8.038094450209007"><ele>231.28571428571428</ele><time>2026-05-03T08:21:58.999Z</time></trkpt><trkpt lat="45.057907104882254" lon="8.038044640018228"><ele>231.57142857142856</ele><time>2026-05-03T08:22:04Z</time></trkpt><trkpt lat="45.05798057806987" lon="8.038025951133694"><ele>231.85714285714286</ele><time>2026-05-03T08:22:08Z</time></trkpt><trkpt lat="45.05805201489006" lon="8.038012235453833"><ele>232.14285714285714</ele><time>2026-05-03T08:22:13Z</time></trkpt><trkpt lat="45.05812089404718" lon="8.03799539139651"><ele>232.42857142857142</ele><time>2026-05-03T08:22:18Z</time></trkpt><trkpt lat="45.058185654252824" lon="8.037956103535352"><ele>232.71428571428572</ele><time>2026-05-03T08:22:23Z</time></trkpt><trkpt lat="45.05825707869814" lon="8.037942076512849"><ele>233.0</ele><time>2026-05-03T08:22:27Z</time></trkpt><trkpt lat="45.058318151488066" lon="8.037919623268733"><ele>232.00000000000003</ele><time>2026-05-03T08:22:31Z</time></trkpt><trkpt lat="45.05839055656311" lon="8.03788690841743"><ele>231.0</ele><time>2026-05-03T08:22:36Z</time></trkpt><trkpt lat="45.0584624343002" lon="8.037878017032071"><ele>230.0</ele><time>2026-05-03T08:22:40Z</time></trkpt><trkpt lat="45.05853731222346" lon="8.03786402392213"><ele>229.0</ele><time>2026-05-03T08:22:45Z</time></trkpt><trkpt lat="45.05861016512955" lon="8.037832186489938"><ele>228.00000000000003</ele><time>2026-05-03T08:22:50Z</time></trkpt><trkpt lat="45.058687681488415" lon="8.03780048591066"><ele>227.0</ele><time>2026-05-03T08:22:55Z</time></trkpt><trkpt lat="45.05876007295115" lon="8.03777124477998"><ele>227.0</ele><time>2026-05-03T08:23:00Z</time></trkpt><trkpt lat="45.05881983237427" lon="8.037742313255855"><ele>227.00000000000003</ele><time>2026-05-03T08:23:04Z</time></trkpt><trkpt lat="45.05887996598302" lon="8.037710783872726"><ele>227.0</ele><time>2026-05-03T08:23:08Z</time></trkpt><trkpt lat="45.05893835800591" lon="8.03767717515194"><ele>227.0</ele><time>2026-05-03T08:23:11.999Z</time></trkpt><trkpt lat="45.05901209222866" lon="8.037645044601119"><ele>227.00000000000003</ele><time>2026-05-03T08:23:16.999Z</time></trkpt><trkpt lat="45.05908338792845" lon="8.037604245925554"><ele>227.0</ele><time>2026-05-03T08:23:21.999Z</time></trkpt><trkpt lat="45.05915115711927" lon="8.037565583532542"><ele>227.0</ele><time>2026-05-03T08:23:26.999Z</time></trkpt><trkpt lat="45.05922086397126" lon="8.037513845320813"><ele>226.57142857142858</ele><time>2026-05-03T08:23:32.999Z</time></trkpt><trkpt lat="45.059284533539135" lon="8.037496205813389"><ele>226.14285714285717</ele><time>2026-05-03T08:23:36.999Z</time></trkpt><trkpt lat="45.05935574218524" lon="8.037478358450464"><ele>225.71428571428572</ele><time>2026-05-03T08:23:40.999Z</time></trkpt><trkpt lat="45.05943389556373" lon="8.03746432932598"><ele>225.28571428571428</ele><time>2026-05-03T08:23:44.999Z</time></trkpt><trkpt lat="45.05949500996717" lon="8.037418478434686"><ele>224.85714285714286</ele><time>2026-05-03T08:23:48.999Z</time></trkpt><trkpt lat="45.05957091830944" lon="8.03738373313862"><ele>224.42857142857144</ele><time>2026-05-03T08:23:53.999Z</time></trkpt><trkpt lat="45.059638612158274" lon="8.037376459533297"><ele>224.0</ele><time>2026-05-03T08:23:57.999Z</time></trkpt><trkpt lat="45.05971640954163" lon="8.037359153993314"><ele>225.14285714285714</ele><time>2026-05-03T08:24:02.999Z</time></trkpt><trkpt lat="45.05979017793752" lon="8.037361306786643"><ele>226.28571428571428</ele><time>2026-05-03T08:24:08Z</time></trkpt><trkpt lat="45.05985497252104" lon="8.037372320656258"><ele>227.42857142857144</ele><time>2026-05-03T08:24:12Z</time></trkpt><trkpt lat="45.05992619782207" lon="8.037375443509594"><ele>228.57142857142858</ele><time>2026-05-03T08:24:16Z</time></trkpt><trkpt lat="45.05999854401022" lon="8.037376497209687"><ele>229.71428571428572</ele><time>2026-05-03T08:24:20Z</time></trkpt><trkpt lat="45.06007021606924" lon="8.037368580200448"><ele>230.8571428571429</ele><time>2026-05-03T08:24:25Z</time></trkpt><trkpt lat="45.06014613937748" lon="8.03736421526451"><ele>232.00000000000003</ele><time>2026-05-03T08:24:30Z</time></trkpt><trkpt lat="45.060210969240565" lon="8.037369863422342"><ele>232.00000000000003</ele><time>2026-05-03T08:24:34Z</time></trkpt><trkpt lat="45.06027363933309" lon="8.037356359355284"><ele>232.0</ele><time>2026-05-03T08:24:38Z</time></trkpt><trkpt lat="45.06035198887856" lon="8.03734897535"><ele>232.00000000000003</ele><time>2026-05-03T08:24:44Z</time></trkpt><trkpt lat="45.060423854592116" lon="8.037330132246929"><ele>232.00000000000003</ele><time>2026-05-03T08:24:48Z</time></trkpt><trkpt lat="45.0605048419254" lon="8.037321760281193"><ele>232.0</ele><time>2026-05-03T08:24:53Z</time></trkpt><trkpt lat="45.06058053204033" lon="8.037279853152977"><ele>232.00000000000003</ele><time>2026-05-03T08:24:58Z</time></trkpt><trkpt lat="45.0606443877447" lon="8.037287634371266"><ele>232.00000000000003</ele><time>2026-05-03T08:25:01Z</time></trkpt><trkpt lat="45.060725928871065" lon="8.037278969699837"><ele>232.00000000000003</ele><time>2026-05-03T08:25:06Z</time></trkpt><trkpt lat="45.06078753659736" lon="8.037326692692892"><ele>232.0</ele><time>2026-05-03T08:25:12Z</time></trkpt><trkpt lat="45.0608529016412" lon="8.03735069486932"><ele>232.00000000000003</ele><time>2026-05-03T08:25:17Z</time></trkpt><trkpt lat="45.060918568319345" lon="8.037378402286354"><ele>232.00000000000003</ele><time>2026-05-03T08:25:20.999Z</time></trkpt><trkpt lat="45.060982595384075" lon="8.037432891567958"><ele>232.0</ele><time>2026-05-03T08:25:24.999Z</time></trkpt><trkpt lat="45.0610551797177" lon="8.037418914506999"><ele>232.00000000000003</ele><time>2026-05-03T08:25:28.999Z</time></trkpt><trkpt lat="45.06110614515167" lon="8.037366038069061"><ele>232.00000000000003</ele><time>2026-05-03T08:25:32.999Z</time></trkpt><trkpt lat="45.06117348946206" lon="8.037317280955241"><ele>232.00000000000003</ele><time>2026-05-03T08:25:36.999Z</time></trkpt><trkpt lat="45.06122505576259" lon="8.037254725515275"><ele>232.0</ele><time>2026-05-03T08:25:40.999Z</time></trkpt><trkpt lat="45.06127437403396" lon="8.037190308869647"><ele>232.00000000000003</ele><time>2026-05-03T08:25:44.999Z</time></trkpt><trkpt lat="45.06133591337752" lon="8.037124706428083"><ele>232.00000000000003</ele><time>2026-05-03T08:25:49.999Z</time></trkpt><trkpt lat="45.06139691960304" lon="8.03706523272411"><ele>232.0</ele><time>2026-05-03T08:25:54.999Z</time></trkpt><trkpt lat="45.06145540799266" lon="8.037001419884321"><ele>232.00000000000003</ele><time>2026-05-03T08:25:59.999Z</time></trkpt><trkpt lat="45.061527762952984" lon="8.036944695501807"><ele>232.00000000000003</ele><time>2026-05-03T08:26:04.999Z</time></trkpt><trkpt lat="45.06159221935538" lon="8.036877977451717"><ele>232.14285714285717</ele><time>2026-05-03T08:26:09.999Z</time></trkpt><trkpt lat="45.06162559620382" lon="8.036801113037024"><ele>232.28571428571428</ele><time>2026-05-03T08:26:14Z</time></trkpt><trkpt lat="45.061678191939244" lon="8.036723770589198"><ele>232.42857142857144</ele><time>2026-05-03T08:26:18Z</time></trkpt><trkpt lat="45.0617417704402" lon="8.036691989408016"><ele>232.57142857142858</ele><time>2026-05-03T08:26:22Z</time></trkpt><trkpt lat="45.061812645493525" lon="8.036658675418394"><ele>232.71428571428572</ele><time>2026-05-03T08:26:27Z</time></trkpt><trkpt lat="45.06187497387119" lon="8.03663583945445"><ele>232.85714285714286</ele><time>2026-05-03T08:26:31Z</time></trkpt><trkpt lat="45.06193810687365" lon="8.036635160812262"><ele>233.0</ele><time>2026-05-03T08:26:35Z</time></trkpt><trkpt lat="45.06201515760773" lon="8.036635080995454"><ele>233.0</ele><time>2026-05-03T08:26:40Z</time></trkpt><trkpt lat="45.062080075000374" lon="8.036645836505572"><ele>233.0</ele><time>2026-05-03T08:26:44Z</time></trkpt><trkpt lat="45.06214030231376" lon="8.036673431314012"><ele>233.0</ele><time>2026-05-03T08:26:48Z</time></trkpt><trkpt lat="45.06220469942943" lon="8.036671984939735"><ele>233.0</ele><time>2026-05-03T08:26:52Z</time></trkpt><trkpt lat="45.062282056411334" lon="8.03664880874428"><ele>233.0</ele><time>2026-05-03T08:26:57Z</time></trkpt><trkpt lat="45.06234652321171" lon="8.036623558659382"><ele>233.0</ele><time>2026-05-03T08:27:01Z</time></trkpt><trkpt lat="45.06240893408359" lon="8.036597163223927"><ele>233.0</ele><time>2026-05-03T08:27:05Z</time></trkpt><trkpt lat="45.06246884459151" lon="8.036560995297169"><ele>232.85714285714286</ele><time>2026-05-03T08:27:09Z</time></trkpt><trkpt lat="45.06252324147146" lon="8.036507096733526"><ele>232.71428571428572</ele><time>2026-05-03T08:27:13Z</time></trkpt><trkpt lat="45.062570295732236" lon="8.036423838950848"><ele>232.57142857142858</ele><time>2026-05-03T08:27:18Z</time></trkpt><trkpt lat="45.06260002071822" lon="8.036331062183505"><ele>232.42857142857144</ele><time>2026-05-03T08:27:23Z</time></trkpt><trkpt lat="45.06261521283509" lon="8.036230548923383"><ele>232.28571428571428</ele><time>2026-05-03T08:27:27.999Z</time></trkpt><trkpt lat="45.06266071961642" lon="8.03616779101928"><ele>232.14285714285717</ele><time>2026-05-03T08:27:31.999Z</time></trkpt><trkpt lat="45.06271512926904" lon="8.036094804766035"><ele>232.00000000000003</ele><time>2026-05-03T08:27:36.999Z</time></trkpt><trkpt lat="45.0627487606104" lon="8.036013416378175"><ele>232.00000000000003</ele><time>2026-05-03T08:27:40.999Z</time></trkpt><trkpt lat="45.062735768439765" lon="8.035916869229643"><ele>232.0</ele><time>2026-05-03T08:27:44.999Z</time></trkpt><trkpt lat="45.06268163920913" lon="8.03586864742116"><ele>232.00000000000003</ele><time>2026-05-03T08:27:47.999Z</time></trkpt><trkpt lat="45.062651254822846" lon="8.035769478484376"><ele>232.00000000000003</ele><time>2026-05-03T08:27:51.999Z</time></trkpt><trkpt lat="45.06264455960697" lon="8.035680130654992"><ele>232.0</ele><time>2026-05-03T08:27:54.999Z</time></trkpt><trkpt lat="45.06258945909193" lon="8.035588790242052"><ele>232.00000000000003</ele><time>2026-05-03T08:27:57.999Z</time></trkpt><trkpt lat="45.0625447273783" lon="8.035492354458183"><ele>232.00000000000003</ele><time>2026-05-03T08:27:59.999Z</time></trkpt><trkpt lat="45.062504631107736" lon="8.035408445064288"><ele>233.49999999999997</ele><time>2026-05-03T08:28:00.999Z</time></trkpt><trkpt lat="45.06247854954425" lon="8.035327177645325"><ele>235.0</ele><time>2026-05-03T08:28:03.999Z</time></trkpt><trkpt lat="45.062453042839856" lon="8.035208535106838"><ele>236.5</ele><time>2026-05-03T08:28:05.999Z</time></trkpt><trkpt lat="45.062473403231806" lon="8.035112394579286"><ele>238.0</ele><time>2026-05-03T08:28:07.999Z</time></trkpt><trkpt lat="45.06248037393465" lon="8.034983476312917"><ele>239.49999999999997</ele><time>2026-05-03T08:28:09.999Z</time></trkpt><trkpt lat="45.06251667094546" lon="8.034875577723644"><ele>241.0</ele><time>2026-05-03T08:28:11.999Z</time></trkpt><trkpt lat="45.06254549727229" lon="8.034752972126936"><ele>242.33333333333331</ele><time>2026-05-03T08:28:13.999Z</time></trkpt><trkpt lat="45.06254304632817" lon="8.034627582370064"><ele>243.66666666666666</ele><time>2026-05-03T08:28:16.999Z</time></trkpt><trkpt lat="45.06252018560292" lon="8.034506980749326"><ele>245.0</ele><time>2026-05-03T08:28:20Z</time></trkpt><trkpt lat="45.06248203058972" lon="8.034396667202229"><ele>246.33333333333331</ele><time>2026-05-03T08:28:23Z</time></trkpt><trkpt lat="45.062476571212635" lon="8.034289212222317"><ele>247.66666666666666</ele><time>2026-05-03T08:28:26Z</time></trkpt><trkpt lat="45.06245697235931" lon="8.034170717136135"><ele>249.0</ele><time>2026-05-03T08:28:29Z</time></trkpt><trkpt lat="45.0624540729455" lon="8.034050993806622"><ele>250.66666666666666</ele><time>2026-05-03T08:28:32Z</time></trkpt><trkpt lat="45.06248706166456" lon="8.033967979256781"><ele>252.33333333333331</ele><time>2026-05-03T08:28:35Z</time></trkpt><trkpt lat="45.0625319657995" lon="8.033878081040047"><ele>254.0</ele><time>2026-05-03T08:28:39Z</time></trkpt><trkpt lat="45.062586494418895" lon="8.033797035056693"><ele>255.66666666666666</ele><time>2026-05-03T08:28:44Z</time></trkpt><trkpt lat="45.062663124149616" lon="8.033750932612445"><ele>257.3333333333333</ele><time>2026-05-03T08:29:28.999Z</time></trkpt><trkpt lat="45.06272959285102" lon="8.033707173445674"><ele>259.0</ele><time>2026-05-03T08:29:33.999Z</time></trkpt><trkpt lat="45.06280392830848" lon="8.033680783958314"><ele>259.0</ele><time>2026-05-03T08:29:38.999Z</time></trkpt><trkpt lat="45.06285951492118" lon="8.033630118503432"><ele>259.0</ele><time>2026-05-03T08:29:43.999Z</time></trkpt><trkpt lat="45.0629103349286" lon="8.03356699915826"><ele>259.0</ele><time>2026-05-03T08:29:48.999Z</time></trkpt><trkpt lat="45.06296722071343" lon="8.03349731771369"><ele>259.0</ele><time>2026-05-03T08:29:53.999Z</time></trkpt><trkpt lat="45.06301945267488" lon="8.03344448931294"><ele>259.0</ele><time>2026-05-03T08:29:57.999Z</time></trkpt><trkpt lat="45.06306726385446" lon="8.033369627033403"><ele>259.0</ele><time>2026-05-03T08:30:02.999Z</time></trkpt><trkpt lat="45.06311986628375" lon="8.03329812204157"><ele>259.0</ele><time>2026-05-03T08:30:07.999Z</time></trkpt><trkpt lat="45.063158823327065" lon="8.033218893301887"><ele>260.57142857142856</ele><time>2026-05-03T08:30:12.999Z</time></trkpt><trkpt lat="45.063195659474346" lon="8.033136670970247"><ele>262.1428571428571</ele><time>2026-05-03T08:30:16.999Z</time></trkpt><trkpt lat="45.06323169838333" lon="8.03305990830774"><ele>263.7142857142857</ele><time>2026-05-03T08:30:20.999Z</time></trkpt><trkpt lat="45.06324030618149" lon="8.032967680629335"><ele>265.2857142857143</ele><time>2026-05-03T08:30:24.999Z</time></trkpt><trkpt lat="45.06322921212185" lon="8.032859832044174"><ele>266.85714285714283</ele><time>2026-05-03T08:30:30Z</time></trkpt><trkpt lat="45.06320096127477" lon="8.032776579459764"><ele>268.42857142857144</ele><time>2026-05-03T08:30:34Z</time></trkpt><trkpt lat="45.06316631749702" lon="8.032694487188577"><ele>270.0</ele><time>2026-05-03T08:30:38Z</time></trkpt><trkpt lat="45.063129207201165" lon="8.032598385366347"><ele>270.0</ele><time>2026-05-03T08:30:43Z</time></trkpt><trkpt lat="45.063087146950224" lon="8.032509134434484"><ele>270.0</ele><time>2026-05-03T08:30:48Z</time></trkpt><trkpt lat="45.06307567855731" lon="8.032415709968856"><ele>270.0</ele><time>2026-05-03T08:30:52Z</time></trkpt><trkpt lat="45.063047951501574" lon="8.032335338444987"><ele>270.0</ele><time>2026-05-03T08:30:56Z</time></trkpt><trkpt lat="45.06303381616018" lon="8.032228780526717"><ele>270.0</ele><time>2026-05-03T08:31:01Z</time></trkpt><trkpt lat="45.06300955494924" lon="8.032141707537868"><ele>270.0</ele><time>2026-05-03T08:31:05Z</time></trkpt><trkpt lat="45.06297267000388" lon="8.032057116604099"><ele>270.0</ele><time>2026-05-03T08:31:09Z</time></trkpt><trkpt lat="45.06294222824414" lon="8.031977216906167"><ele>271.1428571428571</ele><time>2026-05-03T08:31:13Z</time></trkpt><trkpt lat="45.06293890118916" lon="8.031884150573209"><ele>272.2857142857143</ele><time>2026-05-03T08:31:17Z</time></trkpt><trkpt lat="45.0629235704997" lon="8.031767913869974"><ele>273.42857142857144</ele><time>2026-05-03T08:31:22Z</time></trkpt><trkpt lat="45.062903141341415" lon="8.031671578580307"><ele>274.57142857142856</ele><time>2026-05-03T08:31:26Z</time></trkpt><trkpt lat="45.06288429765266" lon="8.031571684473409"><ele>275.7142857142857</ele><time>2026-05-03T08:31:30Z</time></trkpt><trkpt lat="45.06286944484512" lon="8.03147961542094"><ele>276.85714285714283</ele><time>2026-05-03T08:31:34Z</time></trkpt><trkpt lat="45.0628539696202" lon="8.031375327669856"><ele>278.0</ele><time>2026-05-03T08:31:38.999Z</time></trkpt><trkpt lat="45.062820173970906" lon="8.03127642346231"><ele>279.1428571428571</ele><time>2026-05-03T08:31:44.999Z</time></trkpt><trkpt lat="45.062786829148806" lon="8.031195109628197"><ele>280.2857142857143</ele><time>2026-05-03T08:31:48.999Z</time></trkpt><trkpt lat="45.062741912085336" lon="8.031121997721133"><ele>281.42857142857144</ele><time>2026-05-03T08:31:52.999Z</time></trkpt><trkpt lat="45.06266458007259" lon="8.031096606045645"><ele>282.57142857142856</ele><time>2026-05-03T08:31:57.999Z</time></trkpt><trkpt lat="45.06259217935063" lon="8.03108354031107"><ele>283.7142857142857</ele><time>2026-05-03T08:32:02.999Z</time></trkpt><trkpt lat="45.06252840536229" lon="8.031109963905493"><ele>284.85714285714283</ele><time>2026-05-03T08:32:06.999Z</time></trkpt><trkpt lat="45.062455163882596" lon="8.031130174444458"><ele>286.0</ele><time>2026-05-03T08:32:11.999Z</time></trkpt><trkpt lat="45.06238221139686" lon="8.031168021037708"><ele>287.4285714285714</ele><time>2026-05-03T08:32:16.999Z</time></trkpt><trkpt lat="45.06231305703781" lon="8.031194347813823"><ele>288.85714285714283</ele><time>2026-05-03T08:32:21.999Z</time></trkpt><trkpt lat="45.06223941003458" lon="8.031219118938534"><ele>290.2857142857143</ele><time>2026-05-03T08:32:26.999Z</time></trkpt><trkpt lat="45.06217795669993" lon="8.031264330473352"><ele>291.71428571428567</ele><time>2026-05-03T08:32:30.999Z</time></trkpt><trkpt lat="45.062116812974665" lon="8.03129275897722"><ele>293.1428571428571</ele><time>2026-05-03T08:32:35Z</time></trkpt><trkpt lat="45.06205418960648" lon="8.031319420179454"><ele>294.57142857142856</ele><time>2026-05-03T08:32:39Z</time></trkpt><trkpt lat="45.06198556905978" lon="8.031346441632298"><ele>296.0</ele><time>2026-05-03T08:32:43Z</time></trkpt><trkpt lat="45.06191200638699" lon="8.03137950716171"><ele>296.0</ele><time>2026-05-03T08:32:48Z</time></trkpt><trkpt lat="45.06184651582364" lon="8.031418165496795"><ele>296.0</ele><time>2026-05-03T08:32:53Z</time></trkpt><trkpt lat="45.06178824350335" lon="8.031458130513036"><ele>296.0</ele><time>2026-05-03T08:32:57Z</time></trkpt><trkpt lat="45.061711941321576" lon="8.031470797759058"><ele>296.0</ele><time>2026-05-03T08:33:02Z</time></trkpt><trkpt lat="45.061647174452986" lon="8.031495792614706"><ele>296.0</ele><time>2026-05-03T08:33:06Z</time></trkpt><trkpt lat="45.061578583762426" lon="8.031518479687575"><ele>296.0</ele><time>2026-05-03T08:33:10Z</time></trkpt><trkpt lat="45.06151219975508" lon="8.031565620740334"><ele>296.0</ele><time>2026-05-03T08:33:15Z</time></trkpt><trkpt lat="45.06145597293614" lon="8.031624547231251"><ele>295.8571428571429</ele><time>2026-05-03T08:33:19Z</time></trkpt><trkpt lat="45.061403343047516" lon="8.031691628282132"><ele>295.7142857142857</ele><time>2026-05-03T08:33:24Z</time></trkpt><trkpt lat="45.06133771289238" lon="8.031740232342516"><ele>295.57142857142856</ele><time>2026-05-03T08:33:29Z</time></trkpt><trkpt lat="45.06127655762747" lon="8.031799280969462"><ele>295.42857142857144</ele><time>2026-05-03T08:33:34Z</time></trkpt><trkpt lat="45.061210409394356" lon="8.031854197478657"><ele>295.2857142857143</ele><time>2026-05-03T08:33:39Z</time></trkpt><trkpt lat="45.06113799328069" lon="8.03190315465931"><ele>295.14285714285717</ele><time>2026-05-03T08:33:43.999Z</time></trkpt><trkpt lat="45.061075114901264" lon="8.031954424117037"><ele>295.0</ele><time>2026-05-03T08:33:48.999Z</time></trkpt><trkpt lat="45.06100443869704" lon="8.032001872779283"><ele>295.00000000000006</ele><time>2026-05-03T08:33:53.999Z</time></trkpt><trkpt lat="45.06093112936456" lon="8.032018482924101"><ele>295.0</ele><time>2026-05-03T08:33:58.999Z</time></trkpt><trkpt lat="45.060858595858626" lon="8.031979733728244"><ele>295.0</ele><time>2026-05-03T08:34:03.999Z</time></trkpt><trkpt lat="45.060803173933" lon="8.03189896145438"><ele>295.0</ele><time>2026-05-03T08:34:08.999Z</time></trkpt><trkpt lat="45.06080273566637" lon="8.031806355526431"><ele>295.0</ele><time>2026-05-03T08:34:15.999Z</time></trkpt><trkpt lat="45.06086172014922" lon="8.03175977194468"><ele>295.00000000000006</ele><time>2026-05-03T08:34:19.999Z</time></trkpt><trkpt lat="45.06091736287305" lon="8.031686079637172"><ele>295.0</ele><time>2026-05-03T08:34:26.999Z</time></trkpt><trkpt lat="45.06099594041301" lon="8.031647412304126"><ele>297.28571428571433</ele><time>2026-05-03T08:34:30.999Z</time></trkpt><trkpt lat="45.061057744257994" lon="8.031601266865616"><ele>299.57142857142856</ele><time>2026-05-03T08:34:35.999Z</time></trkpt><trkpt lat="45.06110695036312" lon="8.031539260318516"><ele>301.8571428571429</ele><time>2026-05-03T08:34:40Z</time></trkpt><trkpt lat="45.061166655572016" lon="8.031482130158"><ele>304.14285714285717</ele><time>2026-05-03T08:34:45Z</time></trkpt><trkpt lat="45.06122271710293" lon="8.031438088739598"><ele>306.42857142857144</ele><time>2026-05-03T08:34:49Z</time></trkpt><trkpt lat="45.06128040315738" lon="8.031369966220536"><ele>308.7142857142857</ele><time>2026-05-03T08:34:54Z</time></trkpt><trkpt lat="45.0613314777447" lon="8.031316277106807"><ele>311.0</ele><time>2026-05-03T08:34:58Z</time></trkpt><trkpt lat="45.06139778280877" lon="8.031259014733674"><ele>311.0</ele><time>2026-05-03T08:35:03Z</time></trkpt><trkpt lat="45.061458460900916" lon="8.031210463251169"><ele>311.0</ele><time>2026-05-03T08:35:08Z</time></trkpt><trkpt lat="45.0615081234047" lon="8.031154444146958"><ele>311.0</ele><time>2026-05-03T08:35:12Z</time></trkpt><trkpt lat="45.061483446177135" lon="8.031072151064665"><ele>311.0</ele><time>2026-05-03T08:35:16Z</time></trkpt><trkpt lat="45.06142627866356" lon="8.030999714728209"><ele>311.0</ele><time>2026-05-03T08:35:21Z</time></trkpt><trkpt lat="45.061389915941426" lon="8.030916366435925"><ele>311.0</ele><time>2026-05-03T08:35:25Z</time></trkpt><trkpt lat="45.06135015718452" lon="8.030830254757477"><ele>311.0</ele><time>2026-05-03T08:35:30Z</time></trkpt><trkpt lat="45.06129629132453" lon="8.030758452345736"><ele>313.2857142857143</ele><time>2026-05-03T08:35:35Z</time></trkpt><trkpt lat="45.06125828331414" lon="8.030685580005455"><ele>315.5714285714286</ele><time>2026-05-03T08:35:39Z</time></trkpt><trkpt lat="45.0612264735202" lon="8.030588212403968"><ele>317.8571428571429</ele><time>2026-05-03T08:35:45Z</time></trkpt><trkpt lat="45.06118516455277" lon="8.030506564949404"><ele>320.1428571428571</ele><time>2026-05-03T08:35:50Z</time></trkpt><trkpt lat="45.061147419555475" lon="8.030430706659294"><ele>322.42857142857144</ele><time>2026-05-03T08:35:54.999Z</time></trkpt><trkpt lat="45.0610972794981" lon="8.030356375577119"><ele>324.7142857142857</ele><time>2026-05-03T08:35:58.999Z</time></trkpt><trkpt lat="45.06107021477796" lon="8.030275215089775"><ele>327.0</ele><time>2026-05-03T08:36:02.999Z</time></trkpt><trkpt lat="45.06101753517396" lon="8.030226238412324"><ele>327.0</ele><time>2026-05-03T08:36:07.999Z</time></trkpt><trkpt lat="45.0609541351561" lon="8.030256887347335"><ele>327.0</ele><time>2026-05-03T08:36:13.999Z</time></trkpt><trkpt lat="45.06088894752983" lon="8.030292891393321"><ele>327.0</ele><time>2026-05-03T08:36:17.999Z</time></trkpt><trkpt lat="45.0609397902741" lon="8.03022621192166"><ele>327.0</ele><time>2026-05-03T08:36:25.999Z</time></trkpt><trkpt lat="45.061004095528354" lon="8.030193010601154"><ele>327.0</ele><time>2026-05-03T08:36:29.999Z</time></trkpt><trkpt lat="45.06105899225643" lon="8.030119675312053"><ele>327.0</ele><time>2026-05-03T08:36:35.999Z</time></trkpt><trkpt lat="45.061123455835165" lon="8.030082450870452"><ele>327.0</ele><time>2026-05-03T08:36:40.999Z</time></trkpt><trkpt lat="45.06118154332702" lon="8.030014483642766"><ele>327.1428571428571</ele><time>2026-05-03T08:36:46Z</time></trkpt><trkpt lat="45.06124727328322" lon="8.02995627995965"><ele>327.2857142857143</ele><time>2026-05-03T08:36:52Z</time></trkpt><trkpt lat="45.06130574116805" lon="8.029896477411748"><ele>327.42857142857144</ele><time>2026-05-03T08:36:57Z</time></trkpt><trkpt lat="45.061359467330206" lon="8.02984073988865"><ele>327.57142857142856</ele><time>2026-05-03T08:37:02Z</time></trkpt><trkpt lat="45.061412457578506" lon="8.029775413503186"><ele>327.7142857142857</ele><time>2026-05-03T08:37:08Z</time></trkpt><trkpt lat="45.06145734380169" lon="8.029692357327"><ele>327.85714285714283</ele><time>2026-05-03T08:37:14Z</time></trkpt><trkpt lat="45.061501201615364" lon="8.02962423072961"><ele>328.0</ele><time>2026-05-03T08:37:19Z</time></trkpt><trkpt lat="45.061554114380954" lon="8.029573577137002"><ele>327.99999999999994</ele><time>2026-05-03T08:37:24Z</time></trkpt><trkpt lat="45.06160176461612" lon="8.029486496556979"><ele>328.0</ele><time>2026-05-03T08:37:30Z</time></trkpt><trkpt lat="45.061648602956105" lon="8.02940867629756"><ele>328.0</ele><time>2026-05-03T08:37:35Z</time></trkpt><trkpt lat="45.06163708210957" lon="8.029312798713512"><ele>328.0</ele><time>2026-05-03T08:37:40Z</time></trkpt><trkpt lat="45.061603207229844" lon="8.02920635207763"><ele>328.0</ele><time>2026-05-03T08:37:45Z</time></trkpt><trkpt lat="45.06157096990781" lon="8.029103795258067"><ele>327.99999999999994</ele><time>2026-05-03T08:37:51Z</time></trkpt><trkpt lat="45.06154210054187" lon="8.029016339728946"><ele>328.0</ele><time>2026-05-03T08:37:55Z</time></trkpt><trkpt lat="45.06148738392912" lon="8.028936773237104"><ele>327.4285714285714</ele><time>2026-05-03T08:37:57.999Z</time></trkpt><trkpt lat="45.06146054717979" lon="8.02885308386757"><ele>326.85714285714283</ele><time>2026-05-03T08:38:01.999Z</time></trkpt><trkpt lat="45.06140713727411" lon="8.02880233843528"><ele>326.2857142857143</ele><time>2026-05-03T08:38:05.999Z</time></trkpt><trkpt lat="45.06136734478298" lon="8.028710903647285"><ele>325.71428571428567</ele><time>2026-05-03T08:38:10.999Z</time></trkpt><trkpt lat="45.061315543062406" lon="8.028651466363101"><ele>325.1428571428571</ele><time>2026-05-03T08:38:16.999Z</time></trkpt><trkpt lat="45.061263672916745" lon="8.028596923307378"><ele>324.57142857142856</ele><time>2026-05-03T08:38:22.999Z</time></trkpt><trkpt lat="45.061210543116935" lon="8.028534964324328"><ele>324.0</ele><time>2026-05-03T08:38:29.999Z</time></trkpt><trkpt lat="45.06115533291632" lon="8.02848903673579"><ele>324.0</ele><time>2026-05-03T08:38:36.999Z</time></trkpt><trkpt lat="45.06107920881464" lon="8.028457005614813"><ele>324.0</ele><time>2026-05-03T08:38:44.999Z</time></trkpt><trkpt lat="45.0610118534302" lon="8.028474375286933"><ele>324.0</ele><time>2026-05-03T08:38:51Z</time></trkpt><trkpt lat="45.06095365432148" lon="8.028521838503112"><ele>324.0</ele><time>2026-05-03T08:38:56Z</time></trkpt><trkpt lat="45.06088876868962" lon="8.02856985319031"><ele>324.0</ele><time>2026-05-03T08:39:02Z</time></trkpt><trkpt lat="45.06082292888519" lon="8.028603393701733"><ele>324.0</ele><time>2026-05-03T08:39:07Z</time></trkpt><trkpt lat="45.06076058593517" lon="8.028586536025797"><ele>324.0</ele><time>2026-05-03T08:39:12Z</time></trkpt><trkpt lat="45.06070882315863" lon="8.02851221775644"><ele>324.57142857142856</ele><time>2026-05-03T08:39:18Z</time></trkpt><trkpt lat="45.060663223521075" lon="8.028430757018574"><ele>325.1428571428571</ele><time>2026-05-03T08:39:23Z</time></trkpt><trkpt lat="45.06061731329912" lon="8.028334138531024"><ele>325.71428571428567</ele><time>2026-05-03T08:39:28Z</time></trkpt><trkpt lat="45.06057732310041" lon="8.028247722196008"><ele>326.2857142857143</ele><time>2026-05-03T08:39:33Z</time></trkpt><trkpt lat="45.060551413735766" lon="8.02816536400179"><ele>326.85714285714283</ele><time>2026-05-03T08:39:37Z</time></trkpt><trkpt lat="45.06052282745696" lon="8.028075236293843"><ele>327.4285714285714</ele><time>2026-05-03T08:39:42Z</time></trkpt><trkpt lat="45.06051710553419" lon="8.027982324893296"><ele>328.0</ele><time>2026-05-03T08:39:47Z</time></trkpt><trkpt lat="45.060541357006365" lon="8.02788094909989"><ele>327.99999999999994</ele><time>2026-05-03T08:39:52Z</time></trkpt><trkpt lat="45.060573964254374" lon="8.027800685460399"><ele>328.0</ele><time>2026-05-03T08:39:57Z</time></trkpt><trkpt lat="45.060601916332736" lon="8.027711218635586"><ele>328.0</ele><time>2026-05-03T08:40:01.999Z</time></trkpt><trkpt lat="45.06065575683625" lon="8.027641731675066"><ele>328.0</ele><time>2026-05-03T08:40:06.999Z</time></trkpt><trkpt lat="45.0606676041862" lon="8.027538105367345"><ele>328.0</ele><time>2026-05-03T08:40:11.999Z</time></trkpt><trkpt lat="45.060622856720315" lon="8.027454988690153"><ele>327.99999999999994</ele><time>2026-05-03T08:40:16.999Z</time></trkpt><trkpt lat="45.06055347356107" lon="8.027423639625312"><ele>328.0</ele><time>2026-05-03T08:40:21.999Z</time></trkpt><trkpt lat="45.060487976197315" lon="8.027382114526958"><ele>330.71428571428567</ele><time>2026-05-03T08:40:26.999Z</time></trkpt><trkpt lat="45.06041430645109" lon="8.027349444775275"><ele>333.42857142857144</ele><time>2026-05-03T08:40:32.999Z</time></trkpt><trkpt lat="45.060348749196905" lon="8.027313928556863"><ele>336.1428571428571</ele><time>2026-05-03T08:40:37.999Z</time></trkpt><trkpt lat="45.06028999944287" lon="8.027254736629901"><ele>338.85714285714283</ele><time>2026-05-03T08:40:42.999Z</time></trkpt><trkpt lat="45.06021793066837" lon="8.027198906159464"><ele>341.57142857142856</ele><time>2026-05-03T08:40:49.999Z</time></trkpt><trkpt lat="45.060150474654776" lon="8.027138973814159"><ele>344.2857142857143</ele><time>2026-05-03T08:40:54.999Z</time></trkpt><trkpt lat="45.06008904888383" lon="8.02710401645346"><ele>347.0</ele><time>2026-05-03T08:41:00Z</time></trkpt><trkpt lat="45.06002909908144" lon="8.02704789943812"><ele>347.0</ele><time>2026-05-03T08:41:05Z</time></trkpt><trkpt lat="45.0599649582935" lon="8.027001523244294"><ele>347.0</ele><time>2026-05-03T08:41:10Z</time></trkpt><trkpt lat="45.0599010751989" lon="8.026955347175496"><ele>347.0</ele><time>2026-05-03T08:41:16Z</time></trkpt><trkpt lat="45.0598338236049" lon="8.02688261815587"><ele>347.0</ele><time>2026-05-03T08:41:22Z</time></trkpt><trkpt lat="45.059769727051446" lon="8.026848056180349"><ele>347.0</ele><time>2026-05-03T08:41:27Z</time></trkpt><trkpt lat="45.059695042043856" lon="8.026834732623572"><ele>347.0</ele><time>2026-05-03T08:41:32Z</time></trkpt><trkpt lat="45.05963579937126" lon="8.026878251745787"><ele>347.0</ele><time>2026-05-03T08:41:36Z</time></trkpt><trkpt lat="45.059582835149705" lon="8.026927940701245"><ele>348.0</ele><time>2026-05-03T08:41:40Z</time></trkpt><trkpt lat="45.05955457556622" lon="8.02701421925364"><ele>349.0</ele><time>2026-05-03T08:41:44Z</time></trkpt><trkpt lat="45.05951944914265" lon="8.027099075241122"><ele>350.0</ele><time>2026-05-03T08:41:49Z</time></trkpt><trkpt lat="45.059468217378374" lon="8.027155795953934"><ele>351.0</ele><time>2026-05-03T08:41:53Z</time></trkpt><trkpt lat="45.05940959988869" lon="8.027217026470247"><ele>352.0</ele><time>2026-05-03T08:41:58Z</time></trkpt><trkpt lat="45.0593644360939" lon="8.027282806252254"><ele>353.0</ele><time>2026-05-03T08:42:03Z</time></trkpt><trkpt lat="45.0593080236089" lon="8.027333473310915"><ele>354.0</ele><time>2026-05-03T08:42:06.999Z</time></trkpt><trkpt lat="45.05923549721631" lon="8.027375754236285"><ele>354.0</ele><time>2026-05-03T08:42:11.999Z</time></trkpt><trkpt lat="45.05917050444616" lon="8.027385055564338"><ele>354.0</ele><time>2026-05-03T08:42:16.999Z</time></trkpt><trkpt lat="45.059105378686354" lon="8.027396997328767"><ele>354.0</ele><time>2026-05-03T08:42:20.999Z</time></trkpt><trkpt lat="45.059038340136055" lon="8.027405954246015"><ele>354.0</ele><time>2026-05-03T08:42:25.999Z</time></trkpt><trkpt lat="45.05896920695694" lon="8.02742358012487"><ele>354.0</ele><time>2026-05-03T08:42:30.999Z</time></trkpt><trkpt lat="45.058898837763984" lon="8.02742330548583"><ele>354.0</ele><time>2026-05-03T08:42:35.999Z</time></trkpt><trkpt lat="45.05883569467812" lon="8.02742826933459"><ele>354.0</ele><time>2026-05-03T08:42:41.999Z</time></trkpt><trkpt lat="45.05880894280867" lon="8.02732072778034"><ele>353.0</ele><time>2026-05-03T08:42:44.999Z</time></trkpt><trkpt lat="45.05873663536369" lon="8.027322586846687"><ele>352.0</ele><time>2026-05-03T08:42:45.999Z</time></trkpt><trkpt lat="45.0587195934992" lon="8.0272367139723"><ele>351.0</ele><time>2026-05-03T08:42:51.999Z</time></trkpt><trkpt lat="45.0586546136993" lon="8.027179568462552"><ele>350.0</ele><time>2026-05-03T08:42:55.999Z</time></trkpt><trkpt lat="45.058612338182336" lon="8.027102058967571"><ele>349.0</ele><time>2026-05-03T08:43:00.999Z</time></trkpt><trkpt lat="45.0585691004489" lon="8.027036300252504"><ele>348.0</ele><time>2026-05-03T08:43:05Z</time></trkpt><trkpt lat="45.05851187814028" lon="8.02696679466117"><ele>347.0</ele><time>2026-05-03T08:43:10Z</time></trkpt><trkpt lat="45.05844641806279" lon="8.026914907431669"><ele>347.0</ele><time>2026-05-03T08:43:15Z</time></trkpt><trkpt lat="45.05837889009342" lon="8.026892836138416"><ele>347.0</ele><time>2026-05-03T08:43:19Z</time></trkpt><trkpt lat="45.058314280996754" lon="8.026843289569007"><ele>347.0</ele><time>2026-05-03T08:43:25Z</time></trkpt><trkpt lat="45.058258681896696" lon="8.0267966079035"><ele>347.0</ele><time>2026-05-03T08:43:30Z</time></trkpt><trkpt lat="45.05820195275056" lon="8.026756146014057"><ele>347.0</ele><time>2026-05-03T08:43:36Z</time></trkpt><trkpt lat="45.05813892106743" lon="8.026703317138447"><ele>347.0</ele><time>2026-05-03T08:43:43Z</time></trkpt><trkpt lat="45.058085603504644" lon="8.026650502567179"><ele>347.0</ele><time>2026-05-03T08:43:48Z</time></trkpt><trkpt lat="45.05803401844048" lon="8.026587874301496"><ele>345.0</ele><time>2026-05-03T08:43:54Z</time></trkpt><trkpt lat="45.057971013063415" lon="8.026541371651634"><ele>343.0</ele><time>2026-05-03T08:44:00Z</time></trkpt><trkpt lat="45.05790974139202" lon="8.02651743092561"><ele>341.0</ele><time>2026-05-03T08:44:07Z</time></trkpt><trkpt lat="45.05784336411828" lon="8.026499710336086"><ele>339.0</ele><time>2026-05-03T08:44:14Z</time></trkpt><trkpt lat="45.05778162255103" lon="8.026463598560703"><ele>337.0</ele><time>2026-05-03T08:44:20.999Z</time></trkpt><trkpt lat="45.05771705357824" lon="8.02643591099676"><ele>335.0</ele><time>2026-05-03T08:44:27.999Z</time></trkpt><trkpt lat="45.05765064011234" lon="8.026415736163342"><ele>333.0</ele><time>2026-05-03T08:44:32.999Z</time></trkpt><trkpt lat="45.05758897615455" lon="8.026397259447654"><ele>333.0</ele><time>2026-05-03T08:44:38.999Z</time></trkpt><trkpt lat="45.05751992268383" lon="8.026374321728241"><ele>333.0</ele><time>2026-05-03T08:44:44.999Z</time></trkpt><trkpt lat="45.05745513463981" lon="8.026357627347439"><ele>333.0</ele><time>2026-05-03T08:44:50.999Z</time></trkpt><trkpt lat="45.05740231492559" lon="8.02630268551328"><ele>333.0</ele><time>2026-05-03T08:44:56.999Z</time></trkpt><trkpt lat="45.057354332725865" lon="8.02622828757866"><ele>333.0</ele><time>2026-05-03T08:45:02.999Z</time></trkpt><trkpt lat="45.05730234342658" lon="8.02617701457263"><ele>333.0</ele><time>2026-05-03T08:45:08Z</time></trkpt><trkpt lat="45.05725337918458" lon="8.026101635580181"><ele>333.0</ele><time>2026-05-03T08:45:14Z</time></trkpt><trkpt lat="45.05720049259756" lon="8.02604127519707"><ele>332.5714285714286</ele><time>2026-05-03T08:45:19Z</time></trkpt><trkpt lat="45.05714344371328" lon="8.025982112236395"><ele>332.1428571428571</ele><time>2026-05-03T08:45:25Z</time></trkpt><trkpt lat="45.05707799411273" lon="8.025932321213045"><ele>331.7142857142857</ele><time>2026-05-03T08:45:30Z</time></trkpt><trkpt lat="45.057016716633065" lon="8.025906263688254"><ele>331.28571428571433</ele><time>2026-05-03T08:45:34Z</time></trkpt><trkpt lat="45.05695390652805" lon="8.025881563018459"><ele>330.8571428571429</ele><time>2026-05-03T08:45:38Z</time></trkpt><trkpt lat="45.05688935974174" lon="8.025881103490358"><ele>330.42857142857144</ele><time>2026-05-03T08:45:43Z</time></trkpt><trkpt lat="45.05682345361613" lon="8.025880276458123"><ele>330.0</ele><time>2026-05-03T08:45:49Z</time></trkpt><trkpt lat="45.05675177052029" lon="8.025896394284267"><ele>330.00000000000006</ele><time>2026-05-03T08:45:52Z</time></trkpt><trkpt lat="45.05668523312958" lon="8.025880651762957"><ele>330.0</ele><time>2026-05-03T08:45:57Z</time></trkpt><trkpt lat="45.05660623462354" lon="8.02587269778245"><ele>330.0</ele><time>2026-05-03T08:46:01Z</time></trkpt><trkpt lat="45.0565374163274" lon="8.025863950728032"><ele>330.0</ele><time>2026-05-03T08:46:06Z</time></trkpt><trkpt lat="45.05647050866624" lon="8.025896572964601"><ele>330.0</ele><time>2026-05-03T08:46:11Z</time></trkpt><trkpt lat="45.056408237002444" lon="8.02594452449403"><ele>330.00000000000006</ele><time>2026-05-03T08:46:15.999Z</time></trkpt><trkpt lat="45.05635549507454" lon="8.026028329806152"><ele>330.0</ele><time>2026-05-03T08:46:20.999Z</time></trkpt><trkpt lat="45.0563117224135" lon="8.026097740972958"><ele>329.14285714285717</ele><time>2026-05-03T08:46:24.999Z</time></trkpt><trkpt lat="45.05624852146954" lon="8.02611905494114"><ele>328.2857142857143</ele><time>2026-05-03T08:46:28.999Z</time></trkpt><trkpt lat="45.05619078776269" lon="8.026175772767063"><ele>327.42857142857144</ele><time>2026-05-03T08:46:33.999Z</time></trkpt><trkpt lat="45.05613332970602" lon="8.02621693592297"><ele>326.57142857142856</ele><time>2026-05-03T08:46:38.999Z</time></trkpt><trkpt lat="45.05606304708471" lon="8.02623204943626"><ele>325.7142857142857</ele><time>2026-05-03T08:46:43.999Z</time></trkpt><trkpt lat="45.056004284543995" lon="8.026264325565561"><ele>324.8571428571429</ele><time>2026-05-03T08:46:50.999Z</time></trkpt><trkpt lat="45.055937297752635" lon="8.026301157251924"><ele>324.0</ele><time>2026-05-03T08:46:56.999Z</time></trkpt><trkpt lat="45.055871158730646" lon="8.02632398901914"><ele>324.0</ele><time>2026-05-03T08:47:02.999Z</time></trkpt><trkpt lat="45.0558168188525" lon="8.0263969865434"><ele>324.0</ele><time>2026-05-03T08:47:08.999Z</time></trkpt><trkpt lat="45.05581849943397" lon="8.026505307326019"><ele>324.0</ele><time>2026-05-03T08:47:14Z</time></trkpt><trkpt lat="45.055808473306406" lon="8.026603383651294"><ele>324.0</ele><time>2026-05-03T08:47:18Z</time></trkpt><trkpt lat="45.05577173152542" lon="8.026684497278778"><ele>324.0</ele><time>2026-05-03T08:47:23Z</time></trkpt><trkpt lat="45.05574861460704" lon="8.026785204595976"><ele>324.0</ele><time>2026-05-03T08:47:28Z</time></trkpt><trkpt lat="45.05571261182245" lon="8.026860822681432"><ele>324.0</ele><time>2026-05-03T08:47:33Z</time></trkpt><trkpt lat="45.05567509569403" lon="8.026943759701815"><ele>322.57142857142856</ele><time>2026-05-03T08:47:38Z</time></trkpt><trkpt lat="45.055642031157696" lon="8.027035041477847"><ele>321.1428571428571</ele><time>2026-05-03T08:47:44Z</time></trkpt><trkpt lat="45.055616378569496" lon="8.027118526524115"><ele>319.71428571428567</ele><time>2026-05-03T08:47:49Z</time></trkpt><trkpt lat="45.055592188328475" lon="8.027205800252686"><ele>318.2857142857143</ele><time>2026-05-03T08:47:54Z</time></trkpt><trkpt lat="45.05558261668474" lon="8.027306765244495"><ele>316.85714285714283</ele><time>2026-05-03T08:47:59Z</time></trkpt><trkpt lat="45.05556102258987" lon="8.027393089699371"><ele>315.4285714285714</ele><time>2026-05-03T08:48:04Z</time></trkpt><trkpt lat="45.0555202697672" lon="8.027482857214718"><ele>314.0</ele><time>2026-05-03T08:48:10Z</time></trkpt><trkpt lat="45.05549394549109" lon="8.02756393573495"><ele>313.99999999999994</ele><time>2026-05-03T08:48:15Z</time></trkpt><trkpt lat="45.05547969999589" lon="8.027653065087561"><ele>314.0</ele><time>2026-05-03T08:48:20Z</time></trkpt><trkpt lat="45.05544218065441" lon="8.027734288941657"><ele>314.0</ele><time>2026-05-03T08:48:24.999Z</time></trkpt><trkpt lat="45.05542443212533" lon="8.027837055769114"><ele>314.0</ele><time>2026-05-03T08:48:29.999Z</time></trkpt><trkpt lat="45.05538587032833" lon="8.027922586131785"><ele>314.0</ele><time>2026-05-03T08:48:35.999Z</time></trkpt><trkpt lat="45.05535440035447" lon="8.028016504005334"><ele>313.99999999999994</ele><time>2026-05-03T08:48:40.999Z</time></trkpt><trkpt lat="45.05530069300035" lon="8.028079848937608"><ele>314.0</ele><time>2026-05-03T08:48:46.999Z</time></trkpt><trkpt lat="45.0552495668519" lon="8.02814861780581"><ele>313.99999999999994</ele><time>2026-05-03T08:48:51.999Z</time></trkpt><trkpt lat="45.05518409734141" lon="8.028151926108963"><ele>314.0</ele><time>2026-05-03T08:48:55.999Z</time></trkpt><trkpt lat="45.05511363091066" lon="8.028160837847832"><ele>314.0</ele><time>2026-05-03T08:49:01.999Z</time></trkpt><trkpt lat="45.05505438880564" lon="8.028089722391076"><ele>314.0</ele><time>2026-05-03T08:49:06.999Z</time></trkpt><trkpt lat="45.055000543125836" lon="8.028020331921496"><ele>314.0</ele><time>2026-05-03T08:49:11.999Z</time></trkpt><trkpt lat="45.054976297868265" lon="8.027931186328267"><ele>313.99999999999994</ele><time>2026-05-03T08:49:14.999Z</time></trkpt><trkpt lat="45.05494221277447" lon="8.027845767479466"><ele>314.0</ele><time>2026-05-03T08:49:18.999Z</time></trkpt><trkpt lat="45.05490628704256" lon="8.027760523422529"><ele>311.99999999999994</ele><time>2026-05-03T08:49:23Z</time></trkpt><trkpt lat="45.05488615212214" lon="8.027669953776407"><ele>310.0</ele><time>2026-05-03T08:49:29Z</time></trkpt><trkpt lat="45.054889290112506" lon="8.027573712937473"><ele>308.0</ele><time>2026-05-03T08:49:33Z</time></trkpt><trkpt lat="45.05491077636879" lon="8.027484153689207"><ele>306.0</ele><time>2026-05-03T08:49:39Z</time></trkpt><trkpt lat="45.05493382876608" lon="8.027385595415799"><ele>304.0</ele><time>2026-05-03T08:49:45Z</time></trkpt><trkpt lat="45.054937127348424" lon="8.027282431401558"><ele>301.99999999999994</ele><time>2026-05-03T08:49:51Z</time></trkpt><trkpt lat="45.05489817935241" lon="8.027208758562143"><ele>300.0</ele><time>2026-05-03T08:49:56Z</time></trkpt><trkpt lat="45.05483348348955" lon="8.027211693105313"><ele>298.99999999999994</ele><time>2026-05-03T08:50:05Z</time></trkpt><trkpt lat="45.054771848027414" lon="8.027282357039402"><ele>298.0</ele><time>2026-05-03T08:50:09Z</time></trkpt><trkpt lat="45.05470886882175" lon="8.027336854063666"><ele>297.0</ele><time>2026-05-03T08:50:14Z</time></trkpt><trkpt lat="45.05465149130289" lon="8.027381913554201"><ele>296.0</ele><time>2026-05-03T08:50:19Z</time></trkpt><trkpt lat="45.05459313240674" lon="8.027346406339452"><ele>295.0</ele><time>2026-05-03T08:50:27Z</time></trkpt><trkpt lat="45.05462157998917" lon="8.027256364653864"><ele>293.99999999999994</ele><time>2026-05-03T08:50:33.999Z</time></trkpt><trkpt lat="45.05466551723291" lon="8.027174641367859"><ele>293.0</ele><time>2026-05-03T08:50:41.999Z</time></trkpt><trkpt lat="45.05471012459637" lon="8.027104193805108"><ele>292.99999999999994</ele><time>2026-05-03T08:50:47.999Z</time></trkpt><trkpt lat="45.05476785109963" lon="8.027052221238561"><ele>293.0</ele><time>2026-05-03T08:50:55.999Z</time></trkpt><trkpt lat="45.0548179807888" lon="8.026974628931471"><ele>293.0</ele><time>2026-05-03T08:51:03.999Z</time></trkpt><trkpt lat="45.05486894412336" lon="8.02691514051328"><ele>293.0</ele><time>2026-05-03T08:51:08.999Z</time></trkpt><trkpt lat="45.05489059232515" lon="8.026797541564532"><ele>293.0</ele><time>2026-05-03T08:51:13.999Z</time></trkpt><trkpt lat="45.05487242925171" lon="8.026699116109235"><ele>292.99999999999994</ele><time>2026-05-03T08:51:18.999Z</time></trkpt><trkpt lat="45.05481258450486" lon="8.026661818679566"><ele>293.0</ele><time>2026-05-03T08:51:24.999Z</time></trkpt><trkpt lat="45.054749271891346" lon="8.026691934724825"><ele>292.99999999999994</ele><time>2026-05-03T08:51:30Z</time></trkpt><trkpt lat="45.05468958287701" lon="8.02673806008598"><ele>293.0</ele><time>2026-05-03T08:51:36Z</time></trkpt><trkpt lat="45.054617709213446" lon="8.026775915821236"><ele>293.0</ele><time>2026-05-03T08:51:43Z</time></trkpt><trkpt lat="45.054554286434296" lon="8.026788490065599"><ele>293.0</ele><time>2026-05-03T08:51:48Z</time></trkpt><trkpt lat="45.05448402641637" lon="8.026806367691762"><ele>293.0</ele><time>2026-05-03T08:51:54Z</time></trkpt><trkpt lat="45.05439976733393" lon="8.026809353439385"><ele>292.99999999999994</ele><time>2026-05-03T08:52:00Z</time></trkpt><trkpt lat="45.054331460858414" lon="8.02679664302562"><ele>293.0</ele><time>2026-05-03T08:52:06Z</time></trkpt><trkpt lat="45.05427011386475" lon="8.026833351989039"><ele>292.99999999999994</ele><time>2026-05-03T08:52:12Z</time></trkpt><trkpt lat="45.05420386462743" lon="8.026864788326309"><ele>293.0</ele><time>2026-05-03T08:52:17Z</time></trkpt><trkpt lat="45.054126453981404" lon="8.026843042848261"><ele>293.0</ele><time>2026-05-03T08:52:22Z</time></trkpt><trkpt lat="45.05406669212661" lon="8.026796760530361"><ele>293.0</ele><time>2026-05-03T08:52:27Z</time></trkpt><trkpt lat="45.054007226366544" lon="8.02673520058041"><ele>293.0</ele><time>2026-05-03T08:52:32Z</time></trkpt><trkpt lat="45.053942789960146" lon="8.02674001325131"><ele>292.99999999999994</ele><time>2026-05-03T08:52:37.999Z</time></trkpt><trkpt lat="45.053874682309086" lon="8.0267625565513"><ele>293.0</ele><time>2026-05-03T08:52:43.999Z</time></trkpt><trkpt lat="45.05380437866683" lon="8.026749419049487"><ele>290.71428571428567</ele><time>2026-05-03T08:52:49.999Z</time></trkpt><trkpt lat="45.053733728881404" lon="8.02674195325307"><ele>288.42857142857144</ele><time>2026-05-03T08:52:55.999Z</time></trkpt><trkpt lat="45.053670323357444" lon="8.026761446814847"><ele>286.1428571428571</ele><time>2026-05-03T08:53:00.999Z</time></trkpt><trkpt lat="45.05360635023317" lon="8.026782368270814"><ele>283.85714285714283</ele><time>2026-05-03T08:53:06.999Z</time></trkpt><trkpt lat="45.05354436527268" lon="8.026823712225026"><ele>281.57142857142856</ele><time>2026-05-03T08:53:12.999Z</time></trkpt><trkpt lat="45.05347199372559" lon="8.026838552257338"><ele>279.2857142857143</ele><time>2026-05-03T08:53:18.999Z</time></trkpt><trkpt lat="45.0533984359322" lon="8.026847488179335"><ele>277.0</ele><time>2026-05-03T08:53:24.999Z</time></trkpt><trkpt lat="45.05332187549882" lon="8.026853795517647"><ele>275.1428571428571</ele><time>2026-05-03T08:53:30.999Z</time></trkpt><trkpt lat="45.0532594393295" lon="8.026880830224155"><ele>273.2857142857143</ele><time>2026-05-03T08:53:35Z</time></trkpt><trkpt lat="45.053191360175326" lon="8.026914727930318"><ele>271.42857142857144</ele><time>2026-05-03T08:53:40Z</time></trkpt><trkpt lat="45.053133066880385" lon="8.026957585371724"><ele>269.57142857142856</ele><time>2026-05-03T08:53:46Z</time></trkpt><trkpt lat="45.05306825178723" lon="8.026983226741216"><ele>267.7142857142857</ele><time>2026-05-03T08:53:51Z</time></trkpt><trkpt lat="45.05301813031383" lon="8.027039791031223"><ele>265.85714285714283</ele><time>2026-05-03T08:53:59Z</time></trkpt><trkpt lat="45.0529566226895" lon="8.027068289468174"><ele>264.0</ele><time>2026-05-03T08:54:04Z</time></trkpt><trkpt lat="45.05288805486143" lon="8.027090957842839"><ele>264.0</ele><time>2026-05-03T08:54:09Z</time></trkpt><trkpt lat="45.05282680701011" lon="8.027115653774592"><ele>264.0</ele><time>2026-05-03T08:54:14Z</time></trkpt><trkpt lat="45.05275687496432" lon="8.02712112435904"><ele>264.0</ele><time>2026-05-03T08:54:20Z</time></trkpt><trkpt lat="45.05269649053665" lon="8.027092441058247"><ele>264.0</ele><time>2026-05-03T08:54:25Z</time></trkpt><trkpt lat="45.05262295266448" lon="8.02706858324768"><ele>264.0</ele><time>2026-05-03T08:54:31Z</time></trkpt><trkpt lat="45.052557587850146" lon="8.027086941291286"><ele>264.0</ele><time>2026-05-03T08:54:38Z</time></trkpt><trkpt lat="45.05250228298626" lon="8.027131708363907"><ele>264.0</ele><time>2026-05-03T08:54:44.999Z</time></trkpt><trkpt lat="45.05243687004653" lon="8.027142572353142"><ele>263.57142857142856</ele><time>2026-05-03T08:54:50.999Z</time></trkpt><trkpt lat="45.052357578198546" lon="8.027152363373947"><ele>263.14285714285717</ele><time>2026-05-03T08:54:57.999Z</time></trkpt><trkpt lat="45.05228725183436" lon="8.027121677072788"><ele>262.7142857142857</ele><time>2026-05-03T08:55:03.999Z</time></trkpt><trkpt lat="45.05221785182328" lon="8.027083233197251"><ele>262.2857142857143</ele><time>2026-05-03T08:55:08.999Z</time></trkpt><trkpt lat="45.052144421601554" lon="8.027078860259401"><ele>261.85714285714283</ele><time>2026-05-03T08:55:13.999Z</time></trkpt><trkpt lat="45.05207803421242" lon="8.027060010722977"><ele>261.42857142857144</ele><time>2026-05-03T08:55:19.999Z</time></trkpt><trkpt lat="45.052011843548904" lon="8.027027665316169"><ele>261.0</ele><time>2026-05-03T08:55:24.999Z</time></trkpt><trkpt lat="45.05194147310389" lon="8.026993703848571"><ele>261.0</ele><time>2026-05-03T08:55:29.999Z</time></trkpt><trkpt lat="45.051871553847775" lon="8.026965296544141"><ele>261.0</ele><time>2026-05-03T08:55:34.999Z</time></trkpt><trkpt lat="45.051803779775305" lon="8.026944811130814"><ele>261.0</ele><time>2026-05-03T08:55:40Z</time></trkpt><trkpt lat="45.05173798986766" lon="8.02692233033863"><ele>261.0</ele><time>2026-05-03T08:55:45Z</time></trkpt><trkpt lat="45.051667724407295" lon="8.026883503646406"><ele>261.0</ele><time>2026-05-03T08:55:50Z</time></trkpt><trkpt lat="45.05159961666753" lon="8.026858584612437"><ele>261.0</ele><time>2026-05-03T08:55:55Z</time></trkpt><trkpt lat="45.05153042886211" lon="8.026819767526238"><ele>261.0</ele><time>2026-05-03T08:56:00Z</time></trkpt><trkpt lat="45.05145278636165" lon="8.026800029956275"><ele>261.0</ele><time>2026-05-03T08:56:05Z</time></trkpt><trkpt lat="45.05138359551016" lon="8.0267755913899"><ele>261.0</ele><time>2026-05-03T08:56:10Z</time></trkpt><trkpt lat="45.05130989663776" lon="8.026749078579973"><ele>261.0</ele><time>2026-05-03T08:56:15Z</time></trkpt><trkpt lat="45.0512381065689" lon="8.026715010403091"><ele>261.0</ele><time>2026-05-03T08:56:20Z</time></trkpt><trkpt lat="45.05116443014585" lon="8.026685243529455"><ele>261.0</ele><time>2026-05-03T08:56:25Z</time></trkpt><trkpt lat="45.05109311003417" lon="8.026662379977527"><ele>261.0</ele><time>2026-05-03T08:56:30Z</time></trkpt><trkpt lat="45.051021747858044" lon="8.026644384731872"><ele>261.0</ele><time>2026-05-03T08:56:35Z</time></trkpt><trkpt lat="45.05094145616761" lon="8.026635352708384"><ele>261.0</ele><time>2026-05-03T08:56:40Z</time></trkpt><trkpt lat="45.05087592414275" lon="8.02662152105261"><ele>261.0</ele><time>2026-05-03T08:56:44Z</time></trkpt><trkpt lat="45.05081218176511" lon="8.02660230230339"><ele>261.0</ele><time>2026-05-03T08:56:47.999Z</time></trkpt><trkpt lat="45.05074259877039" lon="8.026600035352926"><ele>261.0</ele><time>2026-05-03T08:56:52.999Z</time></trkpt><trkpt lat="45.05067555825718" lon="8.026593432321546"><ele>261.0</ele><time>2026-05-03T08:56:56.999Z</time></trkpt><trkpt lat="45.05059888297991" lon="8.026571450973503"><ele>261.0</ele><time>2026-05-03T08:57:01.999Z</time></trkpt><trkpt lat="45.050525394085476" lon="8.02656782180689"><ele>261.0</ele><time>2026-05-03T08:57:07.999Z</time></trkpt><trkpt lat="45.050463907995706" lon="8.026538650430199"><ele>260.8571428571429</ele><time>2026-05-03T08:57:11.999Z</time></trkpt><trkpt lat="45.05040048345467" lon="8.026506698617135"><ele>260.7142857142857</ele><time>2026-05-03T08:57:15.999Z</time></trkpt><trkpt lat="45.05033755141188" lon="8.026488907445708"><ele>260.57142857142856</ele><time>2026-05-03T08:57:19.999Z</time></trkpt><trkpt lat="45.0502753562365" lon="8.026474625062939"><ele>260.42857142857144</ele><time>2026-05-03T08:57:23.999Z</time></trkpt><trkpt lat="45.05020038394185" lon="8.026432798147445"><ele>260.2857142857143</ele><time>2026-05-03T08:57:27.999Z</time></trkpt><trkpt lat="45.050140430831135" lon="8.02640013509322"><ele>260.14285714285717</ele><time>2026-05-03T08:57:30.999Z</time></trkpt><trkpt lat="45.05007634379005" lon="8.026373662060603"><ele>260.0</ele><time>2026-05-03T08:57:33.999Z</time></trkpt><trkpt lat="45.04999815877048" lon="8.026330006923594"><ele>258.5</ele><time>2026-05-03T08:57:37.999Z</time></trkpt><trkpt lat="45.04992907028179" lon="8.026297573644015"><ele>257.0</ele><time>2026-05-03T08:57:40.999Z</time></trkpt><trkpt lat="45.049836827138485" lon="8.026271346899657"><ele>255.5</ele><time>2026-05-03T08:57:45Z</time></trkpt><trkpt lat="45.04975932306488" lon="8.026225878631555"><ele>254.0</ele><time>2026-05-03T08:57:48Z</time></trkpt><trkpt lat="45.049683432168955" lon="8.02619794115302"><ele>252.50000000000003</ele><time>2026-05-03T08:57:51Z</time></trkpt><trkpt lat="45.04961086414183" lon="8.026142692795574"><ele>251.0</ele><time>2026-05-03T08:57:54Z</time></trkpt><trkpt lat="45.04955389971765" lon="8.026094338861736"><ele>251.00000000000003</ele><time>2026-05-03T08:57:57Z</time></trkpt><trkpt lat="45.04950662160899" lon="8.026031412669306"><ele>251.0</ele><time>2026-05-03T08:58:06Z</time></trkpt><trkpt lat="45.049424657936754" lon="8.026015785916734"><ele>251.0</ele><time>2026-05-03T08:58:12Z</time></trkpt><trkpt lat="45.0493367834697" lon="8.026023253303958"><ele>251.0</ele><time>2026-05-03T08:58:15Z</time></trkpt><trkpt lat="45.04925190070186" lon="8.02601170772959"><ele>251.00000000000003</ele><time>2026-05-03T08:58:17Z</time></trkpt><trkpt lat="45.04919050034918" lon="8.025986294417075"><ele>251.0</ele><time>2026-05-03T08:58:18Z</time></trkpt><trkpt lat="45.04912472302767" lon="8.025998043092796"><ele>250.33333333333334</ele><time>2026-05-03T08:58:20Z</time></trkpt><trkpt lat="45.049046149549504" lon="8.025949702948669"><ele>249.66666666666669</ele><time>2026-05-03T08:58:23Z</time></trkpt><trkpt lat="45.04898082732161" lon="8.025924832365147"><ele>249.0</ele><time>2026-05-03T08:58:25Z</time></trkpt><trkpt lat="45.0488991841491" lon="8.02589602197615"><ele>248.33333333333331</ele><time>2026-05-03T08:58:28Z</time></trkpt><trkpt lat="45.04881318557973" lon="8.02586680403981"><ele>247.66666666666666</ele><time>2026-05-03T08:58:31Z</time></trkpt><trkpt lat="45.04870931739599" lon="8.025796464902635"><ele>247.0</ele><time>2026-05-03T08:58:34Z</time></trkpt><trkpt lat="45.048654187305914" lon="8.02572995936824"><ele>246.57142857142858</ele><time>2026-05-03T08:58:36Z</time></trkpt><trkpt lat="45.048604680923255" lon="8.025660336771953"><ele>246.1428571428571</ele><time>2026-05-03T08:58:38Z</time></trkpt><trkpt lat="45.04853252691552" lon="8.025633247295627"><ele>245.7142857142857</ele><time>2026-05-03T08:58:41Z</time></trkpt><trkpt lat="45.04846888501044" lon="8.025611534996715"><ele>245.28571428571428</ele><time>2026-05-03T08:58:44Z</time></trkpt><trkpt lat="45.04839676042284" lon="8.025602760837224"><ele>244.85714285714283</ele><time>2026-05-03T08:58:47Z</time></trkpt><trkpt lat="45.048322336684585" lon="8.025546349120784"><ele>244.4285714285714</ele><time>2026-05-03T08:58:50Z</time></trkpt><trkpt lat="45.048255266302405" lon="8.025514043898424"><ele>243.99999999999997</ele><time>2026-05-03T08:58:53Z</time></trkpt><trkpt lat="45.04819274804546" lon="8.025492533791175"><ele>243.83333333333331</ele><time>2026-05-03T08:58:54.999Z</time></trkpt><trkpt lat="45.048127630692186" lon="8.025460815363838"><ele>243.66666666666666</ele><time>2026-05-03T08:58:56.999Z</time></trkpt><trkpt lat="45.048041061557335" lon="8.025426393178979"><ele>243.5</ele><time>2026-05-03T08:58:58.999Z</time></trkpt><trkpt lat="45.0479879031558" lon="8.025361691586816"><ele>243.33333333333331</ele><time>2026-05-03T08:59:00.999Z</time></trkpt><trkpt lat="45.04791887476571" lon="8.025286008874673"><ele>243.16666666666666</ele><time>2026-05-03T08:59:02.999Z</time></trkpt><trkpt lat="45.04785072901992" lon="8.025247333483563"><ele>243.0</ele><time>2026-05-03T08:59:04.999Z</time></trkpt><trkpt lat="45.04778516286488" lon="8.025199778632203"><ele>243.0</ele><time>2026-05-03T08:59:06.999Z</time></trkpt><trkpt lat="45.04772060173303" lon="8.025123865838484"><ele>243.0</ele><time>2026-05-03T08:59:08.999Z</time></trkpt><trkpt lat="45.0476571193304" lon="8.025051295681726"><ele>243.0</ele><time>2026-05-03T08:59:11.999Z</time></trkpt><trkpt lat="45.04758246763317" lon="8.025032430943126"><ele>243.0</ele><time>2026-05-03T08:59:14.999Z</time></trkpt><trkpt lat="45.047519278238184" lon="8.025001553508933"><ele>243.0</ele><time>2026-05-03T08:59:17.999Z</time></trkpt><trkpt lat="45.04745184414073" lon="8.024957292569923"><ele>243.0</ele><time>2026-05-03T08:59:20.999Z</time></trkpt><trkpt lat="45.047372957476455" lon="8.024898009819491"><ele>243.28571428571428</ele><time>2026-05-03T08:59:23.999Z</time></trkpt><trkpt lat="45.04729416238209" lon="8.024907970934724"><ele>243.57142857142858</ele><time>2026-05-03T08:59:26.999Z</time></trkpt><trkpt lat="45.04723203118739" lon="8.02488729776644"><ele>243.85714285714286</ele><time>2026-05-03T08:59:28.999Z</time></trkpt><trkpt lat="45.047155485465545" lon="8.024855917300556"><ele>244.14285714285714</ele><time>2026-05-03T08:59:31.999Z</time></trkpt><trkpt lat="45.047095144794234" lon="8.024800074653875"><ele>244.42857142857144</ele><time>2026-05-03T08:59:34.999Z</time></trkpt><trkpt lat="45.047021844355115" lon="8.024781711658568"><ele>244.71428571428572</ele><time>2026-05-03T08:59:37.999Z</time></trkpt><trkpt lat="45.0469513487852" lon="8.02474345695768"><ele>245.0</ele><time>2026-05-03T08:59:40.999Z</time></trkpt><trkpt lat="45.04688382721163" lon="8.024714903362394"><ele>245.0</ele><time>2026-05-03T08:59:43.999Z</time></trkpt><trkpt lat="45.046825018064865" lon="8.024751462269158"><ele>245.0</ele><time>2026-05-03T08:59:46.999Z</time></trkpt><trkpt lat="45.04677974880752" lon="8.02481938499597"><ele>245.0</ele><time>2026-05-03T08:59:50Z</time></trkpt><trkpt lat="45.04673372671157" lon="8.024887043235498"><ele>245.0</ele><time>2026-05-03T08:59:53Z</time></trkpt><trkpt lat="45.04668572688923" lon="8.024959119627288"><ele>245.0</ele><time>2026-05-03T08:59:56Z</time></trkpt><trkpt lat="45.04664413996992" lon="8.025055874188418"><ele>245.0</ele><time>2026-05-03T09:00:00Z</time></trkpt><trkpt lat="45.046588413684276" lon="8.025114042163104"><ele>245.0</ele><time>2026-05-03T09:00:04Z</time></trkpt><trkpt lat="45.0465672666969" lon="8.02521124608224"><ele>243.28571428571428</ele><time>2026-05-03T09:00:09Z</time></trkpt><trkpt lat="45.0465043294071" lon="8.025244756966968"><ele>241.57142857142856</ele><time>2026-05-03T09:00:12Z</time></trkpt><trkpt lat="45.046444834074016" lon="8.025297676571922"><ele>239.85714285714286</ele><time>2026-05-03T09:00:16Z</time></trkpt><trkpt lat="45.04637837033315" lon="8.025323757883548"><ele>238.14285714285714</ele><time>2026-05-03T09:00:20Z</time></trkpt><trkpt lat="45.04632192349728" lon="8.025381650050829"><ele>236.42857142857142</ele><time>2026-05-03T09:00:24Z</time></trkpt><trkpt lat="45.04626359667816" lon="8.025429314405308"><ele>234.71428571428572</ele><time>2026-05-03T09:00:28Z</time></trkpt><trkpt lat="45.046205327953246" lon="8.025472438075862"><ele>233.0</ele><time>2026-05-03T09:00:32Z</time></trkpt><trkpt lat="45.04614328373114" lon="8.025514996436062"><ele>233.0</ele><time>2026-05-03T09:00:36Z</time></trkpt><trkpt lat="45.04607955329841" lon="8.02554014284063"><ele>233.0</ele><time>2026-05-03T09:00:40Z</time></trkpt><trkpt lat="45.04601973824636" lon="8.025586903253425"><ele>233.0</ele><time>2026-05-03T09:00:44Z</time></trkpt><trkpt lat="45.04596654622214" lon="8.025640984373146"><ele>233.0</ele><time>2026-05-03T09:00:48Z</time></trkpt><trkpt lat="45.04589762597016" lon="8.025685822360964"><ele>233.0</ele><time>2026-05-03T09:00:53Z</time></trkpt><trkpt lat="45.04584373312584" lon="8.025744632404596"><ele>233.0</ele><time>2026-05-03T09:00:57Z</time></trkpt><trkpt lat="45.04577199962193" lon="8.025771298169065"><ele>233.0</ele><time>2026-05-03T09:01:00.999Z</time></trkpt><trkpt lat="45.04571518144438" lon="8.025822371548085"><ele>232.28571428571428</ele><time>2026-05-03T09:01:04.999Z</time></trkpt><trkpt lat="45.04564871834756" lon="8.02583779638203"><ele>231.57142857142856</ele><time>2026-05-03T09:01:08.999Z</time></trkpt><trkpt lat="45.04558544952942" lon="8.025859875094088"><ele>230.85714285714283</ele><time>2026-05-03T09:01:12.999Z</time></trkpt><trkpt lat="45.04550359800646" lon="8.025881813336047"><ele>230.14285714285714</ele><time>2026-05-03T09:01:17.999Z</time></trkpt><trkpt lat="45.04545168999222" lon="8.02594407112343"><ele>229.4285714285714</ele><time>2026-05-03T09:01:21.999Z</time></trkpt><trkpt lat="45.04538402013666" lon="8.025979551837223"><ele>228.7142857142857</ele><time>2026-05-03T09:01:25.999Z</time></trkpt><trkpt lat="45.04532098371041" lon="8.026017313029698"><ele>228.0</ele><time>2026-05-03T09:01:29.999Z</time></trkpt><trkpt lat="45.0452527142033" lon="8.02604537201178"><ele>228.0</ele><time>2026-05-03T09:01:33.999Z</time></trkpt><trkpt lat="45.04519184220587" lon="8.026093700794071"><ele>227.99999999999997</ele><time>2026-05-03T09:01:37.999Z</time></trkpt><trkpt lat="45.04512319992822" lon="8.02612241384979"><ele>228.0</ele><time>2026-05-03T09:01:41.999Z</time></trkpt><trkpt lat="45.0450665628918" lon="8.026177858137135"><ele>228.0</ele><time>2026-05-03T09:01:45.999Z</time></trkpt><trkpt lat="45.045019546789824" lon="8.026239456792895"><ele>227.99999999999997</ele><time>2026-05-03T09:01:48.999Z</time></trkpt><trkpt lat="45.044987554029646" lon="8.026329548141971"><ele>228.0</ele><time>2026-05-03T09:01:53.999Z</time></trkpt><trkpt lat="45.04493996052152" lon="8.026394154804048"><ele>228.0</ele><time>2026-05-03T09:01:57Z</time></trkpt><trkpt lat="45.044884772463575" lon="8.026463530773654"><ele>228.0</ele><time>2026-05-03T09:02:01Z</time></trkpt><trkpt lat="45.04483148455013" lon="8.026544599267885"><ele>227.99999999999997</ele><time>2026-05-03T09:02:05Z</time></trkpt><trkpt lat="45.04478460897996" lon="8.026605485934544"><ele>228.0</ele><time>2026-05-03T09:02:09Z</time></trkpt><trkpt lat="45.044725941296875" lon="8.026661973573663"><ele>228.0</ele><time>2026-05-03T09:02:15Z</time></trkpt><trkpt lat="45.044677266198704" lon="8.026722103845279"><ele>227.99999999999997</ele><time>2026-05-03T09:02:19Z</time></trkpt><trkpt lat="45.04462381925899" lon="8.026786353835963"><ele>228.0</ele><time>2026-05-03T09:02:23Z</time></trkpt><trkpt lat="45.04456733717189" lon="8.026851102986438"><ele>228.0</ele><time>2026-05-03T09:02:26Z</time></trkpt><trkpt lat="45.044521128188194" lon="8.026912679058658"><ele>227.42857142857142</ele><time>2026-05-03T09:02:30Z</time></trkpt><trkpt lat="45.04446639680603" lon="8.026984023866197"><ele>226.85714285714283</ele><time>2026-05-03T09:02:34Z</time></trkpt><trkpt lat="45.044402867506825" lon="8.02703075778625"><ele>226.28571428571428</ele><time>2026-05-03T09:02:37Z</time></trkpt><trkpt lat="45.04434038542787" lon="8.02708204897012"><ele>225.71428571428572</ele><time>2026-05-03T09:02:41Z</time></trkpt><trkpt lat="45.044267951940995" lon="8.027130962893576"><ele>225.14285714285714</ele><time>2026-05-03T09:02:46Z</time></trkpt><trkpt lat="45.044210067187755" lon="8.027177474177199"><ele>224.57142857142856</ele><time>2026-05-03T09:02:52Z</time></trkpt><trkpt lat="45.04414095540483" lon="8.027239772107318"><ele>224.0</ele><time>2026-05-03T09:02:57Z</time></trkpt><trkpt lat="45.04407112473515" lon="8.027264470469943"><ele>223.71428571428572</ele><time>2026-05-03T09:03:00Z</time></trkpt><trkpt lat="45.0440102791844" lon="8.027312462881474"><ele>223.42857142857144</ele><time>2026-05-03T09:03:04Z</time></trkpt><trkpt lat="45.043952092396296" lon="8.027348592692684"><ele>223.14285714285714</ele><time>2026-05-03T09:03:06.999Z</time></trkpt><trkpt lat="45.043874843103595" lon="8.027310163514667"><ele>222.85714285714286</ele><time>2026-05-03T09:03:10.999Z</time></trkpt><trkpt lat="45.043817834417794" lon="8.027271653665391"><ele>222.57142857142858</ele><time>2026-05-03T09:03:13.999Z</time></trkpt><trkpt lat="45.0437424260856" lon="8.027251278546004"><ele>222.28571428571428</ele><time>2026-05-03T09:03:16.999Z</time></trkpt><trkpt lat="45.04367024046027" lon="8.027234955188508"><ele>222.0</ele><time>2026-05-03T09:03:20.999Z</time></trkpt><trkpt lat="45.04358434548969" lon="8.027241257399707"><ele>222.0</ele><time>2026-05-03T09:03:26.999Z</time></trkpt><trkpt lat="45.04351355955348" lon="8.0272367652655"><ele>222.0</ele><time>2026-05-03T09:03:29.999Z</time></trkpt><trkpt lat="45.043437730533334" lon="8.02728228400094"><ele>222.0</ele><time>2026-05-03T09:03:33.999Z</time></trkpt><trkpt lat="45.04337432180999" lon="8.027355637647569"><ele>222.0</ele><time>2026-05-03T09:03:36.999Z</time></trkpt><trkpt lat="45.043303661980666" lon="8.027389011685008"><ele>222.0</ele><time>2026-05-03T09:03:38.999Z</time></trkpt><trkpt lat="45.043251230158354" lon="8.027479432449656"><ele>222.0</ele><time>2026-05-03T09:03:40.999Z</time></trkpt><trkpt lat="45.04319836321132" lon="8.02756748428712"><ele>222.5</ele><time>2026-05-03T09:03:42.999Z</time></trkpt><trkpt lat="45.04312007067128" lon="8.027632465226095"><ele>223.0</ele><time>2026-05-03T09:03:44.999Z</time></trkpt><trkpt lat="45.04304828938982" lon="8.027679614389486"><ele>223.5</ele><time>2026-05-03T09:03:46.999Z</time></trkpt><trkpt lat="45.04297932192067" lon="8.027747895629833"><ele>224.0</ele><time>2026-05-03T09:03:48.999Z</time></trkpt><trkpt lat="45.04291208916649" lon="8.027798286524067"><ele>224.5</ele><time>2026-05-03T09:03:50.999Z</time></trkpt><trkpt lat="45.042853325267096" lon="8.027869993959925"><ele>225.0</ele><time>2026-05-03T09:03:52.999Z</time></trkpt><trkpt lat="45.0428001494786" lon="8.027948837264415"><ele>225.0</ele><time>2026-05-03T09:03:54.999Z</time></trkpt><trkpt lat="45.04273612700453" lon="8.0280331238828"><ele>225.0</ele><time>2026-05-03T09:03:56.999Z</time></trkpt><trkpt lat="45.04267200551563" lon="8.028117164858143"><ele>225.0</ele><time>2026-05-03T09:03:58.999Z</time></trkpt><trkpt lat="45.04261078499388" lon="8.028200083169981"><ele>225.0</ele><time>2026-05-03T09:04:02Z</time></trkpt><trkpt lat="45.04254242242149" lon="8.028244136131974"><ele>225.0</ele><time>2026-05-03T09:04:04Z</time></trkpt><trkpt lat="45.04247916160517" lon="8.02832618058842"><ele>225.0</ele><time>2026-05-03T09:04:07Z</time></trkpt><trkpt lat="45.04241419250256" lon="8.02836951132588"><ele>223.5</ele><time>2026-05-03T09:04:09Z</time></trkpt><trkpt lat="45.04235678756201" lon="8.028438265089543"><ele>222.0</ele><time>2026-05-03T09:04:11Z</time></trkpt><trkpt lat="45.042284174339116" lon="8.02848990123349"><ele>220.5</ele><time>2026-05-03T09:04:13Z</time></trkpt><trkpt lat="45.042194333271915" lon="8.028519835089012"><ele>219.0</ele><time>2026-05-03T09:04:15Z</time></trkpt><trkpt lat="45.0421256174547" lon="8.028576431829672"><ele>217.5</ele><time>2026-05-03T09:04:17Z</time></trkpt><trkpt lat="45.042079566129686" lon="8.02864176832431"><ele>216.0</ele><time>2026-05-03T09:04:19Z</time></trkpt><trkpt lat="45.04200946620478" lon="8.028700258818708"><ele>216.0</ele><time>2026-05-03T09:04:21Z</time></trkpt><trkpt lat="45.04192974156369" lon="8.028747183044821"><ele>216.00000000000003</ele><time>2026-05-03T09:04:23Z</time></trkpt><trkpt lat="45.04184050126097" lon="8.028861021598134"><ele>216.00000000000003</ele><time>2026-05-03T09:04:25Z</time></trkpt><trkpt lat="45.04177667981066" lon="8.028883559491723"><ele>216.0</ele><time>2026-05-03T09:04:26Z</time></trkpt><trkpt lat="45.04170435418664" lon="8.028927188532528"><ele>216.0</ele><time>2026-05-03T09:04:28Z</time></trkpt><trkpt lat="45.04158670141912" lon="8.028926090914268"><ele>216.0</ele><time>2026-05-03T09:04:30Z</time></trkpt><trkpt lat="45.041509655822075" lon="8.028939293269435"><ele>216.0</ele><time>2026-05-03T09:04:31Z</time></trkpt><trkpt lat="45.04144314521936" lon="8.028962823169888"><ele>216.0</ele><time>2026-05-03T09:04:32Z</time></trkpt><trkpt lat="45.04138165930721" lon="8.028988675107739"><ele>216.0</ele><time>2026-05-03T09:04:33Z</time></trkpt><trkpt lat="45.04132206646331" lon="8.029025652126784"><ele>216.0</ele><time>2026-05-03T09:04:34Z</time></trkpt><trkpt lat="45.04126422121847" lon="8.029063769977448"><ele>216.0</ele><time>2026-05-03T09:04:35Z</time></trkpt><trkpt lat="45.04115869179902" lon="8.029158994798834"><ele>216.0</ele><time>2026-05-03T09:04:37Z</time></trkpt><trkpt lat="45.04104641368867" lon="8.029239152333112"><ele>216.00000000000003</ele><time>2026-05-03T09:04:39Z</time></trkpt><trkpt lat="45.040986500171485" lon="8.029289495642455"><ele>216.00000000000003</ele><time>2026-05-03T09:04:40Z</time></trkpt><trkpt lat="45.040916142596544" lon="8.029366337770396"><ele>216.0</ele><time>2026-05-03T09:04:42Z</time></trkpt><trkpt lat="45.04084371693152" lon="8.029437807169202"><ele>216.0</ele><time>2026-05-03T09:04:44Z</time></trkpt><trkpt lat="45.040745426852666" lon="8.02949898555587"><ele>216.0</ele><time>2026-05-03T09:04:46Z</time></trkpt><trkpt lat="45.040653469539464" lon="8.029542672162302"><ele>216.0</ele><time>2026-05-03T09:04:48Z</time></trkpt><trkpt lat="45.0405815703864" lon="8.029593463410453"><ele>216.0</ele><time>2026-05-03T09:04:50Z</time></trkpt><trkpt lat="45.04051947218922" lon="8.029611656144334"><ele>216.0</ele><time>2026-05-03T09:04:51Z</time></trkpt><trkpt lat="45.04043517937712" lon="8.029633235054899"><ele>216.0</ele><time>2026-05-03T09:04:53Z</time></trkpt><trkpt lat="45.04036902787042" lon="8.029645065330465"><ele>216.0</ele><time>2026-05-03T09:04:55Z</time></trkpt><trkpt lat="45.04028076399729" lon="8.029681196111296"><ele>216.0</ele><time>2026-05-03T09:04:58Z</time></trkpt><trkpt lat="45.04021731672207" lon="8.029676730962537"><ele>216.0</ele><time>2026-05-03T09:05:00Z</time></trkpt><trkpt lat="45.0401507800287" lon="8.029689850836812"><ele>216.0</ele><time>2026-05-03T09:05:02Z</time></trkpt><trkpt lat="45.04008050378981" lon="8.029701855644497"><ele>216.0</ele><time>2026-05-03T09:05:04Z</time></trkpt><trkpt lat="45.04000778797115" lon="8.029700068960205"><ele>216.0</ele><time>2026-05-03T09:05:06Z</time></trkpt><trkpt lat="45.03994202853703" lon="8.029700654560125"><ele>216.0</ele><time>2026-05-03T09:05:08Z</time></trkpt><trkpt lat="45.039863519902184" lon="8.029712113153042"><ele>216.0</ele><time>2026-05-03T09:05:11Z</time></trkpt><trkpt lat="45.03978767147782" lon="8.029743150049443"><ele>215.71428571428572</ele><time>2026-05-03T09:05:13.999Z</time></trkpt><trkpt lat="45.03974414946537" lon="8.029824394872387"><ele>215.42857142857142</ele><time>2026-05-03T09:05:17.999Z</time></trkpt><trkpt lat="45.0397239671014" lon="8.029909299217918"><ele>215.14285714285717</ele><time>2026-05-03T09:05:20.999Z</time></trkpt><trkpt lat="45.03974404753164" lon="8.03000463423646"><ele>214.85714285714286</ele><time>2026-05-03T09:05:24.999Z</time></trkpt><trkpt lat="45.03968295328609" lon="8.03006858293446"><ele>214.57142857142858</ele><time>2026-05-03T09:05:28.999Z</time></trkpt><trkpt lat="45.03961190552585" lon="8.03010149762314"><ele>214.2857142857143</ele><time>2026-05-03T09:05:33.999Z</time></trkpt><trkpt lat="45.03953699640291" lon="8.030100762216824"><ele>214.0</ele><time>2026-05-03T09:05:37.999Z</time></trkpt><trkpt lat="45.039469841067486" lon="8.03014695051289"><ele>214.00000000000003</ele><time>2026-05-03T09:05:42.999Z</time></trkpt><trkpt lat="45.03940380996165" lon="8.030174027710762"><ele>214.0</ele><time>2026-05-03T09:05:46.999Z</time></trkpt><trkpt lat="45.03933649876406" lon="8.030200246153028"><ele>214.0</ele><time>2026-05-03T09:05:50.999Z</time></trkpt><trkpt lat="45.03926608065407" lon="8.030239073114759"><ele>214.0</ele><time>2026-05-03T09:05:54.999Z</time></trkpt><trkpt lat="45.03919466428057" lon="8.030253252445345"><ele>214.0</ele><time>2026-05-03T09:05:58.999Z</time></trkpt><trkpt lat="45.03913298247453" lon="8.030276037574831"><ele>214.00000000000003</ele><time>2026-05-03T09:06:03.999Z</time></trkpt><trkpt lat="45.03906249217507" lon="8.030295810718824"><ele>214.0</ele><time>2026-05-03T09:06:10Z</time></trkpt><trkpt lat="45.03904621465124" lon="8.030402164865878"><ele>214.00000000000003</ele><time>2026-05-03T09:06:19Z</time></trkpt><trkpt lat="45.03908122311701" lon="8.030514479146264"><ele>214.0</ele><time>2026-05-03T09:06:23Z</time></trkpt><trkpt lat="45.03909851815145" lon="8.030613360246399"><ele>214.0</ele><time>2026-05-03T09:06:28Z</time></trkpt><trkpt lat="45.03912047805987" lon="8.030699014657035"><ele>214.0</ele><time>2026-05-03T09:06:32Z</time></trkpt><trkpt lat="45.039159436283015" lon="8.030781774621026"><ele>214.0</ele><time>2026-05-03T09:06:36Z</time></trkpt><trkpt lat="45.03921183022855" lon="8.030850907080596"><ele>214.00000000000003</ele><time>2026-05-03T09:06:40Z</time></trkpt><trkpt lat="45.03925723178029" lon="8.030928583399659"><ele>214.0</ele><time>2026-05-03T09:06:44Z</time></trkpt><trkpt lat="45.039308810203146" lon="8.030979781416582"><ele>214.2857142857143</ele><time>2026-05-03T09:06:48Z</time></trkpt><trkpt lat="45.03935492663438" lon="8.031050977220549"><ele>214.57142857142858</ele><time>2026-05-03T09:06:52Z</time></trkpt><trkpt lat="45.03939367996968" lon="8.031139396995636"><ele>214.85714285714286</ele><time>2026-05-03T09:06:56Z</time></trkpt><trkpt lat="45.03943059636266" lon="8.031216596281256"><ele>215.14285714285717</ele><time>2026-05-03T09:07:00Z</time></trkpt><trkpt lat="45.039471209376764" lon="8.031290263255132"><ele>215.42857142857142</ele><time>2026-05-03T09:07:04Z</time></trkpt><trkpt lat="45.03950891621074" lon="8.031367434014644"><ele>215.71428571428572</ele><time>2026-05-03T09:07:08Z</time></trkpt><trkpt lat="45.039552230307656" lon="8.031434856744747"><ele>216.0</ele><time>2026-05-03T09:07:12Z</time></trkpt><trkpt lat="45.03959590571028" lon="8.031524944072522"><ele>216.0</ele><time>2026-05-03T09:07:17Z</time></trkpt><trkpt lat="45.03963253536835" lon="8.031607275915487"><ele>216.0</ele><time>2026-05-03T09:07:21Z</time></trkpt><trkpt lat="45.03968968330712" lon="8.031683450587751"><ele>216.0</ele><time>2026-05-03T09:07:25.999Z</time></trkpt><trkpt lat="45.03973796914709" lon="8.03175159728474"><ele>216.0</ele><time>2026-05-03T09:07:29.999Z</time></trkpt><trkpt lat="45.039782956466375" lon="8.03182922900918"><ele>216.0</ele><time>2026-05-03T09:07:34.999Z</time></trkpt><trkpt lat="45.03982790626142" lon="8.031917773538666"><ele>216.0</ele><time>2026-05-03T09:07:39.999Z</time></trkpt><trkpt lat="45.039877094526624" lon="8.031997974519143"><ele>216.0</ele><time>2026-05-03T09:07:44.999Z</time></trkpt><trkpt lat="45.0399203574549" lon="8.03206749173109"><ele>215.85714285714286</ele><time>2026-05-03T09:07:48.999Z</time></trkpt><trkpt lat="45.039960251177554" lon="8.032136696908296"><ele>215.71428571428572</ele><time>2026-05-03T09:07:52.999Z</time></trkpt><trkpt lat="45.040013161384074" lon="8.032212812041264"><ele>215.57142857142856</ele><time>2026-05-03T09:07:57.999Z</time></trkpt><trkpt lat="45.0400522445321" lon="8.032285769745016"><ele>215.42857142857144</ele><time>2026-05-03T09:08:01.999Z</time></trkpt><trkpt lat="45.04010016819003" lon="8.032363469405379"><ele>215.2857142857143</ele><time>2026-05-03T09:08:06.999Z</time></trkpt><trkpt lat="45.040143968603644" lon="8.032451043143656"><ele>215.14285714285714</ele><time>2026-05-03T09:08:11.999Z</time></trkpt><trkpt lat="45.04018389474067" lon="8.032532975183019"><ele>215.0</ele><time>2026-05-03T09:08:16Z</time></trkpt><trkpt lat="45.04023287972246" lon="8.03261129396356"><ele>215.57142857142856</ele><time>2026-05-03T09:08:20Z</time></trkpt><trkpt lat="45.04027363277506" lon="8.032683119437582"><ele>216.14285714285717</ele><time>2026-05-03T09:08:24Z</time></trkpt><trkpt lat="45.04031401222768" lon="8.032761549350234"><ele>216.71428571428572</ele><time>2026-05-03T09:08:28Z</time></trkpt><trkpt lat="45.0403575297724" lon="8.032833142219635"><ele>217.28571428571428</ele><time>2026-05-03T09:08:32Z</time></trkpt><trkpt lat="45.04040027672405" lon="8.032903639408277"><ele>217.85714285714283</ele><time>2026-05-03T09:08:36Z</time></trkpt><trkpt lat="45.040438869988506" lon="8.032977647042177"><ele>218.42857142857144</ele><time>2026-05-03T09:08:40Z</time></trkpt><trkpt lat="45.04048699213477" lon="8.033065716217466"><ele>219.0</ele><time>2026-05-03T09:08:45Z</time></trkpt><trkpt lat="45.04053660336304" lon="8.033153055750594"><ele>219.0</ele><time>2026-05-03T09:08:50Z</time></trkpt><trkpt lat="45.04057553763944" lon="8.033223073638595"><ele>219.0</ele><time>2026-05-03T09:08:54Z</time></trkpt><trkpt lat="45.0406124504611" lon="8.03329739198736"><ele>219.0</ele><time>2026-05-03T09:08:58Z</time></trkpt><trkpt lat="45.0406515615422" lon="8.033375113929626"><ele>219.0</ele><time>2026-05-03T09:09:02Z</time></trkpt><trkpt lat="45.040691502904984" lon="8.033452920148338"><ele>219.0</ele><time>2026-05-03T09:09:06Z</time></trkpt><trkpt lat="45.04072705945773" lon="8.033533911796782"><ele>219.0</ele><time>2026-05-03T09:09:10Z</time></trkpt><trkpt lat="45.04077076111116" lon="8.033607017568947"><ele>219.0</ele><time>2026-05-03T09:09:14Z</time></trkpt><trkpt lat="45.040819520785874" lon="8.033694731580287"><ele>219.42857142857144</ele><time>2026-05-03T09:09:19Z</time></trkpt><trkpt lat="45.04086111244766" lon="8.033777434366385"><ele>219.85714285714283</ele><time>2026-05-03T09:09:23Z</time></trkpt><trkpt lat="45.04090568628723" lon="8.03385619963982"><ele>220.28571428571428</ele><time>2026-05-03T09:09:26.999Z</time></trkpt><trkpt lat="45.04095948823871" lon="8.033924657144485"><ele>220.71428571428572</ele><time>2026-05-03T09:09:31.999Z</time></trkpt><trkpt lat="45.04100576036783" lon="8.033997433990459"><ele>221.14285714285717</ele><time>2026-05-03T09:09:35.999Z</time></trkpt><trkpt lat="45.04104802521996" lon="8.034081961233928"><ele>221.57142857142856</ele><time>2026-05-03T09:09:39.999Z</time></trkpt><trkpt lat="45.041092401279734" lon="8.034157349007572"><ele>222.0</ele><time>2026-05-03T09:09:43.999Z</time></trkpt><trkpt lat="45.04113444094021" lon="8.03423109194229"><ele>220.85714285714286</ele><time>2026-05-03T09:09:47.999Z</time></trkpt><trkpt lat="45.04117276266672" lon="8.034306355948228"><ele>219.71428571428572</ele><time>2026-05-03T09:09:51.999Z</time></trkpt><trkpt lat="45.0412105190079" lon="8.03438616603917"><ele>218.57142857142858</ele><time>2026-05-03T09:09:55.999Z</time></trkpt><trkpt lat="45.04126967828237" lon="8.034461546247513"><ele>217.42857142857144</ele><time>2026-05-03T09:10:00.999Z</time></trkpt><trkpt lat="45.041297164233285" lon="8.034562445819198"><ele>216.28571428571428</ele><time>2026-05-03T09:10:04.999Z</time></trkpt><trkpt lat="45.0413200191561" lon="8.034657730283547"><ele>215.14285714285717</ele><time>2026-05-03T09:10:08.999Z</time></trkpt><trkpt lat="45.041340050918194" lon="8.034760078147318"><ele>214.0</ele><time>2026-05-03T09:10:12.999Z</time></trkpt><trkpt lat="45.041343096837444" lon="8.034876263845131"><ele>214.00000000000003</ele><time>2026-05-03T09:10:16.999Z</time></trkpt><trkpt lat="45.04134872024177" lon="8.034975633686024"><ele>214.0</ele><time>2026-05-03T09:10:21Z</time></trkpt><trkpt lat="45.041348682700125" lon="8.035074371084097"><ele>214.0</ele><time>2026-05-03T09:10:25Z</time></trkpt><trkpt lat="45.041336965050135" lon="8.035183749306558"><ele>214.0</ele><time>2026-05-03T09:10:30Z</time></trkpt><trkpt lat="45.041332351739584" lon="8.035283998379164"><ele>214.0</ele><time>2026-05-03T09:10:33Z</time></trkpt><trkpt lat="45.04130718096331" lon="8.035400025759989"><ele>214.00000000000003</ele><time>2026-05-03T09:10:36Z</time></trkpt><trkpt lat="45.04128963683997" lon="8.035500880149083"><ele>214.0</ele><time>2026-05-03T09:10:39Z</time></trkpt><trkpt lat="45.041246901827066" lon="8.035599854506064"><ele>213.99999999999997</ele><time>2026-05-03T09:10:41Z</time></trkpt><trkpt lat="45.04123151394528" lon="8.035702306266863"><ele>214.0</ele><time>2026-05-03T09:10:43Z</time></trkpt><trkpt lat="45.04120593377721" lon="8.035830572624947"><ele>214.0</ele><time>2026-05-03T09:10:45Z</time></trkpt><trkpt lat="45.04118275220859" lon="8.035942216121459"><ele>214.0</ele><time>2026-05-03T09:10:47Z</time></trkpt><trkpt lat="45.0411671392337" lon="8.036054400282032"><ele>213.99999999999997</ele><time>2026-05-03T09:10:49Z</time></trkpt><trkpt lat="45.04115301121793" lon="8.036158220600697"><ele>214.0</ele><time>2026-05-03T09:10:51Z</time></trkpt><trkpt lat="45.041162100844794" lon="8.036250193454359"><ele>214.16666666666666</ele><time>2026-05-03T09:10:53Z</time></trkpt><trkpt lat="45.04115004923169" lon="8.036353305991868"><ele>214.33333333333331</ele><time>2026-05-03T09:10:56Z</time></trkpt><trkpt lat="45.04112863889282" lon="8.03647771974014"><ele>214.5</ele><time>2026-05-03T09:11:01Z</time></trkpt><trkpt lat="45.04114474523042" lon="8.036575148516828"><ele>214.66666666666669</ele><time>2026-05-03T09:11:06Z</time></trkpt><trkpt lat="45.04107114367188" lon="8.036582636614463"><ele>214.83333333333334</ele><time>2026-05-03T09:11:20Z</time></trkpt><trkpt lat="45.04099635672431" lon="8.036591287715218"><ele>215.0</ele><time>2026-05-03T09:11:23Z</time></trkpt><trkpt lat="45.04092351795938" lon="8.036571739696521"><ele>215.0</ele><time>2026-05-03T09:11:28Z</time></trkpt><trkpt lat="45.04085887755087" lon="8.036572136025367"><ele>215.0</ele><time>2026-05-03T09:11:31.999Z</time></trkpt><trkpt lat="45.04078858178114" lon="8.036538465160081"><ele>215.0</ele><time>2026-05-03T09:11:35.999Z</time></trkpt><trkpt lat="45.040723394314895" lon="8.036533551378566"><ele>215.0</ele><time>2026-05-03T09:11:39.999Z</time></trkpt><trkpt lat="45.040640673979254" lon="8.03651804174911"><ele>215.0</ele><time>2026-05-03T09:11:44.999Z</time></trkpt><trkpt lat="45.04057517989545" lon="8.03650403167693"><ele>215.0</ele><time>2026-05-03T09:11:48.999Z</time></trkpt><trkpt lat="45.040501942079665" lon="8.036478516810652"><ele>215.0</ele><time>2026-05-03T09:11:52.999Z</time></trkpt><trkpt lat="45.040426831377644" lon="8.036433003594217"><ele>215.28571428571428</ele><time>2026-05-03T09:11:57.999Z</time></trkpt><trkpt lat="45.040362908034766" lon="8.03642517196962"><ele>215.57142857142858</ele><time>2026-05-03T09:12:01.999Z</time></trkpt><trkpt lat="45.04029962755718" lon="8.036426912633772"><ele>215.85714285714286</ele><time>2026-05-03T09:12:06.999Z</time></trkpt><trkpt lat="45.040234326130665" lon="8.036414298702732"><ele>216.14285714285714</ele><time>2026-05-03T09:12:11.999Z</time></trkpt><trkpt lat="45.04018102012148" lon="8.036365708556088"><ele>216.42857142857144</ele><time>2026-05-03T09:12:14.999Z</time></trkpt><trkpt lat="45.04011259094456" lon="8.036359217457363"><ele>216.71428571428572</ele><time>2026-05-03T09:12:18.999Z</time></trkpt><trkpt lat="45.0400501484371" lon="8.036342148160564"><ele>217.0</ele><time>2026-05-03T09:12:22.999Z</time></trkpt><trkpt lat="45.0399778968791" lon="8.03629669590668"><ele>217.42857142857142</ele><time>2026-05-03T09:12:27Z</time></trkpt><trkpt lat="45.03990826776445" lon="8.036266191565705"><ele>217.85714285714286</ele><time>2026-05-03T09:12:31Z</time></trkpt><trkpt lat="45.03984303651137" lon="8.0362474296557"><ele>218.28571428571428</ele><time>2026-05-03T09:12:35Z</time></trkpt><trkpt lat="45.039777200984794" lon="8.036232705888446"><ele>218.71428571428572</ele><time>2026-05-03T09:12:39Z</time></trkpt><trkpt lat="45.039714432623" lon="8.036214392175701"><ele>219.14285714285714</ele><time>2026-05-03T09:12:42Z</time></trkpt><trkpt lat="45.03964176250251" lon="8.036206697910602"><ele>219.57142857142856</ele><time>2026-05-03T09:12:46Z</time></trkpt><trkpt lat="45.03956975581121" lon="8.03623528663948"><ele>220.0</ele><time>2026-05-03T09:12:50Z</time></trkpt><trkpt lat="45.039493545731254" lon="8.036242622893072"><ele>219.99999999999997</ele><time>2026-05-03T09:12:54Z</time></trkpt><trkpt lat="45.03942175592773" lon="8.036280728376433"><ele>220.0</ele><time>2026-05-03T09:12:58Z</time></trkpt><trkpt lat="45.03935150251714" lon="8.036289389392724"><ele>220.0</ele><time>2026-05-03T09:13:02Z</time></trkpt><trkpt lat="45.0392868710087" lon="8.036326640190227"><ele>220.0</ele><time>2026-05-03T09:13:06Z</time></trkpt><trkpt lat="45.03921588145524" lon="8.036344186673746"><ele>220.0</ele><time>2026-05-03T09:13:10Z</time></trkpt><trkpt lat="45.03914122972927" lon="8.03635895811447"><ele>219.99999999999997</ele><time>2026-05-03T09:13:15Z</time></trkpt><trkpt lat="45.039072540960035" lon="8.036319538368065"><ele>220.0</ele><time>2026-05-03T09:14:01.999Z</time></trkpt><trkpt lat="45.03903007752636" lon="8.036400427075574"><ele>219.85714285714283</ele><time>2026-05-03T09:14:08.999Z</time></trkpt><trkpt lat="45.03896455481718" lon="8.036424323538581"><ele>219.71428571428572</ele><time>2026-05-03T09:14:13.999Z</time></trkpt><trkpt lat="45.038909317750836" lon="8.036477174768354"><ele>219.57142857142856</ele><time>2026-05-03T09:14:18.999Z</time></trkpt><trkpt lat="45.03883793906423" lon="8.036492292093968"><ele>219.42857142857142</ele><time>2026-05-03T09:14:23.999Z</time></trkpt><trkpt lat="45.03876837078576" lon="8.036513667393525"><ele>219.28571428571428</ele><time>2026-05-03T09:14:28.999Z</time></trkpt><trkpt lat="45.03869317483654" lon="8.036514039045697"><ele>219.14285714285714</ele><time>2026-05-03T09:14:34Z</time></trkpt><trkpt lat="45.038616626016115" lon="8.036519617731757"><ele>219.0</ele><time>2026-05-03T09:14:39Z</time></trkpt><trkpt lat="45.038551430784466" lon="8.03655639016571"><ele>219.0</ele><time>2026-05-03T09:14:44Z</time></trkpt><trkpt lat="45.03847927139968" lon="8.036549618248925"><ele>219.0</ele><time>2026-05-03T09:14:49Z</time></trkpt><trkpt lat="45.038410692943195" lon="8.036570089764153"><ele>219.0</ele><time>2026-05-03T09:14:57Z</time></trkpt><trkpt lat="45.03834282996278" lon="8.036603960476008"><ele>219.0</ele><time>2026-05-03T09:15:03Z</time></trkpt><trkpt lat="45.038270013232626" lon="8.036547537978072"><ele>219.0</ele><time>2026-05-03T09:15:07Z</time></trkpt><trkpt lat="45.03819309562801" lon="8.036476005868861"><ele>219.0</ele><time>2026-05-03T09:15:10Z</time></trkpt><trkpt lat="45.03812327977493" lon="8.03644346478754"><ele>219.42857142857144</ele><time>2026-05-03T09:15:14Z</time></trkpt><trkpt lat="45.03806190015519" lon="8.036416102919256"><ele>219.85714285714283</ele><time>2026-05-03T09:15:18Z</time></trkpt><trkpt lat="45.03799977095372" lon="8.036392327534752"><ele>220.28571428571428</ele><time>2026-05-03T09:15:23Z</time></trkpt><trkpt lat="45.03793440227665" lon="8.03636659315776"><ele>220.71428571428572</ele><time>2026-05-03T09:15:28Z</time></trkpt><trkpt lat="45.03786783332533" lon="8.03632300842143"><ele>221.14285714285717</ele><time>2026-05-03T09:15:33Z</time></trkpt><trkpt lat="45.03779562685181" lon="8.03629565822936"><ele>221.57142857142856</ele><time>2026-05-03T09:15:39Z</time></trkpt><trkpt lat="45.037738081877066" lon="8.03624536877125"><ele>222.0</ele><time>2026-05-03T09:15:42.999Z</time></trkpt><trkpt lat="45.03767084880503" lon="8.036224583957656"><ele>222.0</ele><time>2026-05-03T09:15:48.999Z</time></trkpt><trkpt lat="45.037605180406466" lon="8.036194437837441"><ele>222.0</ele><time>2026-05-03T09:15:54.999Z</time></trkpt><trkpt lat="45.03754591529022" lon="8.036163019349141"><ele>222.0</ele><time>2026-05-03T09:15:58.999Z</time></trkpt><trkpt lat="45.037473851757106" lon="8.036136395376301"><ele>222.0</ele><time>2026-05-03T09:16:03.999Z</time></trkpt><trkpt lat="45.03741849875885" lon="8.036080593049052"><ele>222.0</ele><time>2026-05-03T09:16:07.999Z</time></trkpt><trkpt lat="45.03735614196703" lon="8.03604425075363"><ele>222.0</ele><time>2026-05-03T09:16:12.999Z</time></trkpt><trkpt lat="45.037290180314464" lon="8.036005946547798"><ele>222.0</ele><time>2026-05-03T09:16:17.999Z</time></trkpt><trkpt lat="45.0372166584473" lon="8.035978191530937"><ele>221.42857142857142</ele><time>2026-05-03T09:16:23.999Z</time></trkpt><trkpt lat="45.03714719197439" lon="8.035940130615336"><ele>220.85714285714286</ele><time>2026-05-03T09:16:28.999Z</time></trkpt><trkpt lat="45.03708681166772" lon="8.035906957045222"><ele>220.28571428571428</ele><time>2026-05-03T09:16:33.999Z</time></trkpt><trkpt lat="45.037018370838304" lon="8.03585409738112"><ele>219.71428571428572</ele><time>2026-05-03T09:16:39Z</time></trkpt><trkpt lat="45.03695789720946" lon="8.035812235691807"><ele>219.14285714285717</ele><time>2026-05-03T09:16:43Z</time></trkpt><trkpt lat="45.03690124261178" lon="8.035758030832774"><ele>218.57142857142858</ele><time>2026-05-03T09:16:47Z</time></trkpt><trkpt lat="45.03684210105556" lon="8.03569953973261"><ele>218.0</ele><time>2026-05-03T09:16:52Z</time></trkpt><trkpt lat="45.03678658284039" lon="8.035645563219054"><ele>218.0</ele><time>2026-05-03T09:16:56Z</time></trkpt><trkpt lat="45.03674401852161" lon="8.035536719990723"><ele>218.0</ele><time>2026-05-03T09:17:00Z</time></trkpt><trkpt lat="45.036678514098085" lon="8.03548047924446"><ele>218.0</ele><time>2026-05-03T09:17:05Z</time></trkpt><trkpt lat="45.03661919356719" lon="8.035436700127322"><ele>218.0</ele><time>2026-05-03T09:17:10Z</time></trkpt><trkpt lat="45.03655946208193" lon="8.03540167068505"><ele>218.0</ele><time>2026-05-03T09:17:14Z</time></trkpt><trkpt lat="45.03651868732392" lon="8.035333281796982"><ele>218.0</ele><time>2026-05-03T09:17:20Z</time></trkpt><trkpt lat="45.03645657573331" lon="8.035265466585855"><ele>218.0</ele><time>2026-05-03T09:17:25Z</time></trkpt><trkpt lat="45.036403238131555" lon="8.035211280808339"><ele>217.85714285714286</ele><time>2026-05-03T09:17:29Z</time></trkpt><trkpt lat="45.03636304219984" lon="8.03513580398744"><ele>217.71428571428572</ele><time>2026-05-03T09:17:33Z</time></trkpt><trkpt lat="45.036324476618425" lon="8.035051749891325"><ele>217.57142857142856</ele><time>2026-05-03T09:17:38Z</time></trkpt><trkpt lat="45.036263926834316" lon="8.035021620051252"><ele>217.42857142857144</ele><time>2026-05-03T09:17:42Z</time></trkpt><trkpt lat="45.03619736488251" lon="8.034968081181887"><ele>217.28571428571428</ele><time>2026-05-03T09:17:47Z</time></trkpt><trkpt lat="45.03613955359127" lon="8.034898537364331"><ele>217.14285714285714</ele><time>2026-05-03T09:17:51.999Z</time></trkpt><trkpt lat="45.03607798024859" lon="8.034865172525116"><ele>217.0</ele><time>2026-05-03T09:17:55.999Z</time></trkpt><trkpt lat="45.03600936694152" lon="8.034864622491195"><ele>217.0</ele><time>2026-05-03T09:17:59.999Z</time></trkpt><trkpt lat="45.03594513905408" lon="8.034854080410224"><ele>217.0</ele><time>2026-05-03T09:18:03.999Z</time></trkpt><trkpt lat="45.03586985155081" lon="8.034861550377327"><ele>217.0</ele><time>2026-05-03T09:18:08.999Z</time></trkpt><trkpt lat="45.035799270556815" lon="8.03489818789705"><ele>217.0</ele><time>2026-05-03T09:18:12.999Z</time></trkpt><trkpt lat="45.03572989591638" lon="8.034924236300537"><ele>217.0</ele><time>2026-05-03T09:18:16.999Z</time></trkpt><trkpt lat="45.03566920541597" lon="8.034950147497945"><ele>217.0</ele><time>2026-05-03T09:18:20.999Z</time></trkpt><trkpt lat="45.035609184997114" lon="8.034983226226307"><ele>217.0</ele><time>2026-05-03T09:18:24.999Z</time></trkpt><trkpt lat="45.03553516608019" lon="8.034998131360892"><ele>218.57142857142856</ele><time>2026-05-03T09:18:29.999Z</time></trkpt><trkpt lat="45.035473064535836" lon="8.035038709787488"><ele>220.14285714285714</ele><time>2026-05-03T09:18:34.999Z</time></trkpt><trkpt lat="45.0354044153089" lon="8.03507671392729"><ele>221.71428571428572</ele><time>2026-05-03T09:18:39.999Z</time></trkpt><trkpt lat="45.035352437213575" lon="8.035136319421607"><ele>223.28571428571428</ele><time>2026-05-03T09:18:44Z</time></trkpt><trkpt lat="45.03529305784948" lon="8.035193036378812"><ele>224.85714285714283</ele><time>2026-05-03T09:18:48Z</time></trkpt><trkpt lat="45.03526295932003" lon="8.035300140438766"><ele>226.42857142857142</ele><time>2026-05-03T09:18:53Z</time></trkpt><trkpt lat="45.035204484802684" lon="8.035338697030792"><ele>228.0</ele><time>2026-05-03T09:18:57Z</time></trkpt><trkpt lat="45.03515209397554" lon="8.03539647790011"><ele>228.0</ele><time>2026-05-03T09:19:01Z</time></trkpt><trkpt lat="45.0351201682404" lon="8.03549401351225"><ele>227.99999999999997</ele><time>2026-05-03T09:19:06Z</time></trkpt><trkpt lat="45.03509536889332" lon="8.03557777665541"><ele>228.0</ele><time>2026-05-03T09:19:10Z</time></trkpt><trkpt lat="45.035061343094036" lon="8.035664338594461"><ele>228.0</ele><time>2026-05-03T09:19:14Z</time></trkpt><trkpt lat="45.03501135322381" lon="8.03571963317225"><ele>227.99999999999997</ele><time>2026-05-03T09:19:17Z</time></trkpt><trkpt lat="45.03493425836827" lon="8.035746755434932"><ele>228.0</ele><time>2026-05-03T09:19:21Z</time></trkpt><trkpt lat="45.03485802627015" lon="8.035764454425985"><ele>228.0</ele><time>2026-05-03T09:19:25Z</time></trkpt><trkpt lat="45.03478395735811" lon="8.035758143178864"><ele>228.42857142857142</ele><time>2026-05-03T09:19:29Z</time></trkpt><trkpt lat="45.034719562425046" lon="8.035731761462898"><ele>228.85714285714283</ele><time>2026-05-03T09:19:33Z</time></trkpt><trkpt lat="45.03465342823" lon="8.035679198754428"><ele>229.28571428571428</ele><time>2026-05-03T09:19:43Z</time></trkpt><trkpt lat="45.0346090967157" lon="8.035608213522277"><ele>229.71428571428572</ele><time>2026-05-03T09:19:47Z</time></trkpt><trkpt lat="45.03456597903263" lon="8.035538358417766"><ele>230.14285714285714</ele><time>2026-05-03T09:19:51Z</time></trkpt><trkpt lat="45.03452169969887" lon="8.03545764372273"><ele>230.57142857142856</ele><time>2026-05-03T09:19:55Z</time></trkpt><trkpt lat="45.0344678621936" lon="8.03537863906482"><ele>231.0</ele><time>2026-05-03T09:19:59.999Z</time></trkpt><trkpt lat="45.03441783181725" lon="8.035320664577453"><ele>231.0</ele><time>2026-05-03T09:20:03.999Z</time></trkpt><trkpt lat="45.0343704629355" lon="8.035235473831118"><ele>231.0</ele><time>2026-05-03T09:20:08.999Z</time></trkpt><trkpt lat="45.034310590929174" lon="8.035186074152925"><ele>231.0</ele><time>2026-05-03T09:20:12.999Z</time></trkpt><trkpt lat="45.03425750313259" lon="8.035127915672977"><ele>231.0</ele><time>2026-05-03T09:20:16.999Z</time></trkpt><trkpt lat="45.03420143880431" lon="8.03507133040481"><ele>231.0</ele><time>2026-05-03T09:20:20.999Z</time></trkpt><trkpt lat="45.0341485694649" lon="8.035013751845781"><ele>231.0</ele><time>2026-05-03T09:20:24.999Z</time></trkpt><trkpt lat="45.03408641639435" lon="8.034971615189946"><ele>231.0</ele><time>2026-05-03T09:20:29.999Z</time></trkpt><trkpt lat="45.03403706594593" lon="8.034910775239478"><ele>229.28571428571428</ele><time>2026-05-03T09:20:34.999Z</time></trkpt><trkpt lat="45.03397069313658" lon="8.034860145364894"><ele>227.57142857142856</ele><time>2026-05-03T09:20:38.999Z</time></trkpt><trkpt lat="45.033909921182534" lon="8.034813172288493"><ele>225.85714285714286</ele><time>2026-05-03T09:20:42.999Z</time></trkpt><trkpt lat="45.03384971530707" lon="8.03476953300244"><ele>224.14285714285714</ele><time>2026-05-03T09:20:46.999Z</time></trkpt><trkpt lat="45.033784934628265" lon="8.03474394454588"><ele>222.42857142857142</ele><time>2026-05-03T09:20:52Z</time></trkpt><trkpt lat="45.033714197759814" lon="8.034708544227573"><ele>220.71428571428572</ele><time>2026-05-03T09:20:57Z</time></trkpt><trkpt lat="45.03364402934226" lon="8.034658761952704"><ele>219.0</ele><time>2026-05-03T09:21:02Z</time></trkpt><trkpt lat="45.03357212621407" lon="8.034626015595165"><ele>219.0</ele><time>2026-05-03T09:21:07Z</time></trkpt><trkpt lat="45.03351643521468" lon="8.034583373929138"><ele>219.0</ele><time>2026-05-03T09:21:11Z</time></trkpt><trkpt lat="45.03345917596834" lon="8.034537747597481"><ele>219.0</ele><time>2026-05-03T09:21:15Z</time></trkpt><trkpt lat="45.0334011961674" lon="8.03449319897194"><ele>219.0</ele><time>2026-05-03T09:21:19Z</time></trkpt><trkpt lat="45.0333468379623" lon="8.034431693641633"><ele>219.0</ele><time>2026-05-03T09:21:23Z</time></trkpt><trkpt lat="45.03329471314543" lon="8.034353925195877"><ele>219.0</ele><time>2026-05-03T09:21:28Z</time></trkpt><trkpt lat="45.03324833092354" lon="8.034293066882173"><ele>219.0</ele><time>2026-05-03T09:21:32Z</time></trkpt><trkpt lat="45.03320085141728" lon="8.034222288182885"><ele>219.42857142857144</ele><time>2026-05-03T09:21:37Z</time></trkpt><trkpt lat="45.0331453189433" lon="8.03417330223874"><ele>219.85714285714283</ele><time>2026-05-03T09:21:41Z</time></trkpt><trkpt lat="45.033094515209704" lon="8.034092756317321"><ele>220.28571428571428</ele><time>2026-05-03T09:21:45Z</time></trkpt><trkpt lat="45.0330531842621" lon="8.034016385904685"><ele>220.71428571428572</ele><time>2026-05-03T09:21:49Z</time></trkpt><trkpt lat="45.033001196284" lon="8.033933057066301"><ele>221.14285714285717</ele><time>2026-05-03T09:21:54Z</time></trkpt><trkpt lat="45.03294354126354" lon="8.033860925283435"><ele>221.57142857142856</ele><time>2026-05-03T09:21:58.999Z</time></trkpt><trkpt lat="45.03287685862829" lon="8.033802177467853"><ele>222.0</ele><time>2026-05-03T09:22:03.999Z</time></trkpt><trkpt lat="45.032817223258235" lon="8.033733394704747"><ele>222.0</ele><time>2026-05-03T09:22:08.999Z</time></trkpt><trkpt lat="45.03275653457111" lon="8.03370026029653"><ele>222.0</ele><time>2026-05-03T09:22:12.999Z</time></trkpt><trkpt lat="45.03273182163083" lon="8.03361296349865"><ele>222.0</ele><time>2026-05-03T09:22:15.999Z</time></trkpt><trkpt lat="45.032672777010845" lon="8.033552195144319"><ele>222.0</ele><time>2026-05-03T09:22:19.999Z</time></trkpt><trkpt lat="45.032628332512026" lon="8.03346292683235"><ele>222.0</ele><time>2026-05-03T09:22:23.999Z</time></trkpt><trkpt lat="45.0325811364536" lon="8.033400236233506"><ele>222.0</ele><time>2026-05-03T09:22:28.999Z</time></trkpt><trkpt lat="45.03252783990668" lon="8.033328082419061"><ele>222.0</ele><time>2026-05-03T09:22:33.999Z</time></trkpt><trkpt lat="45.03248798170942" lon="8.033256878484918"><ele>222.57142857142856</ele><time>2026-05-03T09:22:37.999Z</time></trkpt><trkpt lat="45.03243732019754" lon="8.033181331277065"><ele>223.14285714285717</ele><time>2026-05-03T09:22:42.999Z</time></trkpt><trkpt lat="45.03239202646122" lon="8.03311232592907"><ele>223.71428571428572</ele><time>2026-05-03T09:22:47.999Z</time></trkpt><trkpt lat="45.03235201539992" lon="8.033039079188228"><ele>224.28571428571428</ele><time>2026-05-03T09:22:52.999Z</time></trkpt><trkpt lat="45.032303535012545" lon="8.032955074567914"><ele>224.85714285714283</ele><time>2026-05-03T09:22:58Z</time></trkpt><trkpt lat="45.03225435681797" lon="8.032895945203752"><ele>225.42857142857144</ele><time>2026-05-03T09:23:02Z</time></trkpt><trkpt lat="45.03219348626381" lon="8.032843649611163"><ele>226.0</ele><time>2026-05-03T09:23:06Z</time></trkpt><trkpt lat="45.032146311126816" lon="8.032770364870384"><ele>226.0</ele><time>2026-05-03T09:23:10Z</time></trkpt><trkpt lat="45.03211174662513" lon="8.032694755622463"><ele>226.0</ele><time>2026-05-03T09:23:13Z</time></trkpt><trkpt lat="45.03203947982756" lon="8.032618649509491"><ele>226.0</ele><time>2026-05-03T09:23:18Z</time></trkpt><trkpt lat="45.03199637530338" lon="8.03254823927833"><ele>226.0</ele><time>2026-05-03T09:23:22Z</time></trkpt><trkpt lat="45.03194956719106" lon="8.032487813276411"><ele>226.0</ele><time>2026-05-03T09:23:26Z</time></trkpt><trkpt lat="45.03190324692276" lon="8.03241926644842"><ele>226.0</ele><time>2026-05-03T09:23:30Z</time></trkpt><trkpt lat="45.03183139604099" lon="8.032387034579"><ele>226.0</ele><time>2026-05-03T09:23:34Z</time></trkpt><trkpt lat="45.031773222306306" lon="8.032323702022659"><ele>225.71428571428572</ele><time>2026-05-03T09:23:38Z</time></trkpt><trkpt lat="45.03171806392964" lon="8.032277002433233"><ele>225.42857142857142</ele><time>2026-05-03T09:23:42Z</time></trkpt><trkpt lat="45.03166979271945" lon="8.032197977137868"><ele>225.14285714285714</ele><time>2026-05-03T09:23:47Z</time></trkpt><trkpt lat="45.03160622012687" lon="8.032133824514986"><ele>224.85714285714286</ele><time>2026-05-03T09:23:51Z</time></trkpt><trkpt lat="45.031542450309736" lon="8.032075852365756"><ele>224.57142857142856</ele><time>2026-05-03T09:23:55Z</time></trkpt><trkpt lat="45.03149495450488" lon="8.032011648876265"><ele>224.28571428571428</ele><time>2026-05-03T09:23:58Z</time></trkpt><trkpt lat="45.031422642073125" lon="8.031975784182329"><ele>224.0</ele><time>2026-05-03T09:24:02.999Z</time></trkpt><trkpt lat="45.03135749135013" lon="8.031911619800795"><ele>224.0</ele><time>2026-05-03T09:24:07.999Z</time></trkpt><trkpt lat="45.031309560719706" lon="8.03183959000674"><ele>224.0</ele><time>2026-05-03T09:24:12.999Z</time></trkpt><trkpt lat="45.031257051550675" lon="8.031767817317146"><ele>224.0</ele><time>2026-05-03T09:24:16.999Z</time></trkpt><trkpt lat="45.03119262219921" lon="8.031723463612312"><ele>224.0</ele><time>2026-05-03T09:24:20.999Z</time></trkpt><trkpt lat="45.03112432435771" lon="8.031691392375631"><ele>224.0</ele><time>2026-05-03T09:24:25.999Z</time></trkpt><trkpt lat="45.03104603822886" lon="8.031665400543865"><ele>224.0</ele><time>2026-05-03T09:24:30.999Z</time></trkpt><trkpt lat="45.030982856565394" lon="8.031637918860099"><ele>224.0</ele><time>2026-05-03T09:24:34.999Z</time></trkpt><trkpt lat="45.030919213813675" lon="8.031617722463134"><ele>223.71428571428572</ele><time>2026-05-03T09:24:38.999Z</time></trkpt><trkpt lat="45.03085055338336" lon="8.03161769541088"><ele>223.42857142857144</ele><time>2026-05-03T09:24:42.999Z</time></trkpt><trkpt lat="45.03078054350712" lon="8.031622956858262"><ele>223.14285714285714</ele><time>2026-05-03T09:24:46.999Z</time></trkpt><trkpt lat="45.030706558795586" lon="8.031650798277287"><ele>222.85714285714286</ele><time>2026-05-03T09:24:51.999Z</time></trkpt><trkpt lat="45.0306398070712" lon="8.031660466820533"><ele>222.57142857142858</ele><time>2026-05-03T09:24:55.999Z</time></trkpt><trkpt lat="45.03057733695908" lon="8.031691678884348"><ele>222.28571428571428</ele><time>2026-05-03T09:24:59.999Z</time></trkpt><trkpt lat="45.03050891098166" lon="8.031704127184598"><ele>222.0</ele><time>2026-05-03T09:25:04Z</time></trkpt><trkpt lat="45.03044201105739" lon="8.03172287660753"><ele>222.0</ele><time>2026-05-03T09:25:08Z</time></trkpt><trkpt lat="45.030375623234775" lon="8.031730652061903"><ele>222.0</ele><time>2026-05-03T09:25:12Z</time></trkpt><trkpt lat="45.03029613571001" lon="8.031741341272207"><ele>222.0</ele><time>2026-05-03T09:25:17Z</time></trkpt><trkpt lat="45.03022654137682" lon="8.03177059294913"><ele>222.0</ele><time>2026-05-03T09:25:21Z</time></trkpt><trkpt lat="45.030162311512214" lon="8.031799199523968"><ele>222.0</ele><time>2026-05-03T09:25:25Z</time></trkpt><trkpt lat="45.03009568861651" lon="8.031808614177411"><ele>222.0</ele><time>2026-05-03T09:25:30Z</time></trkpt><trkpt lat="45.030020246524316" lon="8.031839046944732"><ele>222.0</ele><time>2026-05-03T09:25:35Z</time></trkpt><trkpt lat="45.02995705666067" lon="8.031857849269647"><ele>222.71428571428572</ele><time>2026-05-03T09:25:39Z</time></trkpt><trkpt lat="45.02988051144318" lon="8.031868267294612"><ele>223.42857142857144</ele><time>2026-05-03T09:25:43Z</time></trkpt><trkpt lat="45.02981587843567" lon="8.0318804653635"><ele>224.14285714285717</ele><time>2026-05-03T09:25:47Z</time></trkpt><trkpt lat="45.02974371902969" lon="8.031871655443094"><ele>224.85714285714286</ele><time>2026-05-03T09:25:51Z</time></trkpt><trkpt lat="45.02967527158181" lon="8.03185462946224"><ele>225.5714285714286</ele><time>2026-05-03T09:25:55Z</time></trkpt><trkpt lat="45.029612780716086" lon="8.031817697388364"><ele>226.2857142857143</ele><time>2026-05-03T09:25:59Z</time></trkpt><trkpt lat="45.029546122694626" lon="8.031785823529475"><ele>227.0</ele><time>2026-05-03T09:26:03Z</time></trkpt><trkpt lat="45.02948310473865" lon="8.031737108987626"><ele>227.0</ele><time>2026-05-03T09:26:07Z</time></trkpt><trkpt lat="45.029415649346774" lon="8.031702278518399"><ele>227.00000000000003</ele><time>2026-05-03T09:26:10.999Z</time></trkpt><trkpt lat="45.02935252180331" lon="8.031638309489887"><ele>227.0</ele><time>2026-05-03T09:26:14.999Z</time></trkpt><trkpt lat="45.02928044994783" lon="8.0316271060461"><ele>227.0</ele><time>2026-05-03T09:26:19.999Z</time></trkpt><trkpt lat="45.0292283247376" lon="8.03157367633578"><ele>227.00000000000003</ele><time>2026-05-03T09:26:22.999Z</time></trkpt><trkpt lat="45.029175252034484" lon="8.03149191883654"><ele>227.0</ele><time>2026-05-03T09:26:26.999Z</time></trkpt><trkpt lat="45.02912945974133" lon="8.031418861400745"><ele>227.0</ele><time>2026-05-03T09:26:29.999Z</time></trkpt><trkpt lat="45.029068896686404" lon="8.031368796507065"><ele>225.42857142857144</ele><time>2026-05-03T09:26:33.999Z</time></trkpt><trkpt lat="45.0290100861123" lon="8.031328029768849"><ele>223.8571428571429</ele><time>2026-05-03T09:26:37.999Z</time></trkpt><trkpt lat="45.02894789601121" lon="8.031280667487742"><ele>222.28571428571428</ele><time>2026-05-03T09:26:42.999Z</time></trkpt><trkpt lat="45.028880943178486" lon="8.031227819208809"><ele>220.71428571428572</ele><time>2026-05-03T09:26:47.999Z</time></trkpt><trkpt lat="45.02881545052601" lon="8.031176036020026"><ele>219.14285714285714</ele><time>2026-05-03T09:26:52.999Z</time></trkpt><trkpt lat="45.02875557991322" lon="8.031143154169435"><ele>217.57142857142856</ele><time>2026-05-03T09:26:56.999Z</time></trkpt><trkpt lat="45.02869448134982" lon="8.031110791903199"><ele>216.0</ele><time>2026-05-03T09:27:00.999Z</time></trkpt><trkpt lat="45.028632321717744" lon="8.031093688548294"><ele>216.0</ele><time>2026-05-03T09:27:04.999Z</time></trkpt><trkpt lat="45.02856961274773" lon="8.031076010597106"><ele>216.0</ele><time>2026-05-03T09:27:09Z</time></trkpt><trkpt lat="45.02850568978579" lon="8.031060360937625"><ele>216.0</ele><time>2026-05-03T09:27:13Z</time></trkpt><trkpt lat="45.0284370823156" lon="8.031054583815049"><ele>216.0</ele><time>2026-05-03T09:27:17Z</time></trkpt><trkpt lat="45.02836794524894" lon="8.031061755700346"><ele>216.0</ele><time>2026-05-03T09:27:21Z</time></trkpt><trkpt lat="45.02829256980616" lon="8.031059389613256"><ele>216.0</ele><time>2026-05-03T09:27:26Z</time></trkpt><trkpt lat="45.028223473019004" lon="8.031105307666422"><ele>216.0</ele><time>2026-05-03T09:27:31Z</time></trkpt><trkpt lat="45.028161867162616" lon="8.031126104430124"><ele>215.71428571428572</ele><time>2026-05-03T09:27:36Z</time></trkpt><trkpt lat="45.028103901963604" lon="8.031168385952727"><ele>215.42857142857142</ele><time>2026-05-03T09:28:51.999Z</time></trkpt><trkpt lat="45.02805504292959" lon="8.031234151743234"><ele>215.14285714285717</ele><time>2026-05-03T09:28:55.999Z</time></trkpt><trkpt lat="45.02800021662009" lon="8.031278933947188"><ele>214.85714285714286</ele><time>2026-05-03T09:28:59.999Z</time></trkpt><trkpt lat="45.027960567307375" lon="8.031378972473219"><ele>214.57142857142858</ele><time>2026-05-03T09:29:05.999Z</time></trkpt><trkpt lat="45.02796045780115" lon="8.031476641163952"><ele>214.2857142857143</ele><time>2026-05-03T09:29:11.999Z</time></trkpt><trkpt lat="45.02794260787607" lon="8.031576936924544"><ele>214.0</ele><time>2026-05-03T09:29:17Z</time></trkpt><trkpt lat="45.027961646576856" lon="8.031690817674473"><ele>213.85714285714286</ele><time>2026-05-03T09:29:23Z</time></trkpt><trkpt lat="45.02798648549307" lon="8.031794775556842"><ele>213.71428571428572</ele><time>2026-05-03T09:29:28Z</time></trkpt><trkpt lat="45.028011822023494" lon="8.031897943173497"><ele>213.57142857142856</ele><time>2026-05-03T09:29:33Z</time></trkpt><trkpt lat="45.028056652165084" lon="8.031981908355359"><ele>213.42857142857144</ele><time>2026-05-03T09:29:37Z</time></trkpt><trkpt lat="45.028100474250095" lon="8.032063154720415"><ele>213.28571428571428</ele><time>2026-05-03T09:29:42Z</time></trkpt><trkpt lat="45.02815883152122" lon="8.032124226170081"><ele>213.14285714285714</ele><time>2026-05-03T09:29:46Z</time></trkpt><trkpt lat="45.02819743976571" lon="8.03221598545612"><ele>213.0</ele><time>2026-05-03T09:29:50Z</time></trkpt><trkpt lat="45.02823958459328" lon="8.032305804864492"><ele>213.0</ele><time>2026-05-03T09:29:54Z</time></trkpt><trkpt lat="45.028288814072276" lon="8.032402425972766"><ele>213.0</ele><time>2026-05-03T09:29:58Z</time></trkpt><trkpt lat="45.0283237742136" lon="8.032499384860673"><ele>213.0</ele><time>2026-05-03T09:30:03Z</time></trkpt><trkpt lat="45.02835830832664" lon="8.032575718009642"><ele>213.0</ele><time>2026-05-03T09:30:07Z</time></trkpt><trkpt lat="45.0284088658411" lon="8.032658878155738"><ele>213.0</ele><time>2026-05-03T09:30:12Z</time></trkpt><trkpt lat="45.02846212347841" lon="8.03274698418433"><ele>213.0</ele><time>2026-05-03T09:30:17Z</time></trkpt><trkpt lat="45.02849128441991" lon="8.032832991779193"><ele>213.7142857142857</ele><time>2026-05-03T09:30:21Z</time></trkpt><trkpt lat="45.02854555121285" lon="8.03288818553141"><ele>214.42857142857142</ele><time>2026-05-03T09:30:25Z</time></trkpt><trkpt lat="45.02858741017093" lon="8.032965731103952"><ele>215.14285714285714</ele><time>2026-05-03T09:30:28.999Z</time></trkpt><trkpt lat="45.028631269288795" lon="8.033041351205702"><ele>215.85714285714283</ele><time>2026-05-03T09:30:32.999Z</time></trkpt><trkpt lat="45.028689148474555" lon="8.033119534260996"><ele>216.57142857142858</ele><time>2026-05-03T09:30:37.999Z</time></trkpt><trkpt lat="45.02873894626438" lon="8.0331752746175"><ele>217.28571428571428</ele><time>2026-05-03T09:30:41.999Z</time></trkpt><trkpt lat="45.0287960547819" lon="8.033241403232175"><ele>218.0</ele><time>2026-05-03T09:30:46.999Z</time></trkpt><trkpt lat="45.02881836045619" lon="8.033326279589504"><ele>218.0</ele><time>2026-05-03T09:30:50.999Z</time></trkpt><trkpt lat="45.02884148997296" lon="8.033409475885126"><ele>218.0</ele><time>2026-05-03T09:30:54.999Z</time></trkpt><trkpt lat="45.02884882192191" lon="8.03350301693737"><ele>218.0</ele><time>2026-05-03T09:30:58.999Z</time></trkpt><trkpt lat="45.02887720511523" lon="8.03359226406619"><ele>218.0</ele><time>2026-05-03T09:31:02.999Z</time></trkpt><trkpt lat="45.028926803771895" lon="8.033662785014771"><ele>218.0</ele><time>2026-05-03T09:31:06.999Z</time></trkpt><trkpt lat="45.02897573907517" lon="8.033721577876674"><ele>218.0</ele><time>2026-05-03T09:31:10.999Z</time></trkpt><trkpt lat="45.0290279255006" lon="8.03378376092574"><ele>218.0</ele><time>2026-05-03T09:31:16.999Z</time></trkpt><trkpt lat="45.02905513254248" lon="8.033874523370502"><ele>218.0</ele><time>2026-05-03T09:31:21Z</time></trkpt><trkpt lat="45.02905426059959" lon="8.033984937715324"><ele>218.0</ele><time>2026-05-03T09:31:26Z</time></trkpt><trkpt lat="45.02901632475879" lon="8.034079602187179"><ele>218.0</ele><time>2026-05-03T09:31:31Z</time></trkpt><trkpt lat="45.02897599683841" lon="8.034171391266147"><ele>218.0</ele><time>2026-05-03T09:31:36Z</time></trkpt><trkpt lat="45.02892047498545" lon="8.034243387474646"><ele>218.0</ele><time>2026-05-03T09:31:41Z</time></trkpt><trkpt lat="45.02887894855449" lon="8.034313620329142"><ele>218.0</ele><time>2026-05-03T09:31:45Z</time></trkpt><trkpt lat="45.02884252885398" lon="8.034391097559439"><ele>218.0</ele><time>2026-05-03T09:31:49Z</time></trkpt><trkpt lat="45.02880613551623" lon="8.034470519603946"><ele>218.85714285714286</ele><time>2026-05-03T09:31:53Z</time></trkpt><trkpt lat="45.02880234801512" lon="8.03457258327882"><ele>219.71428571428572</ele><time>2026-05-03T09:31:57Z</time></trkpt><trkpt lat="45.0288393839707" lon="8.034654799171575"><ele>220.57142857142856</ele><time>2026-05-03T09:32:01Z</time></trkpt><trkpt lat="45.02889224090399" lon="8.034708336053708"><ele>221.42857142857144</ele><time>2026-05-03T09:32:05Z</time></trkpt><trkpt lat="45.02895190120201" lon="8.034751513776875"><ele>222.28571428571428</ele><time>2026-05-03T09:32:09Z</time></trkpt><trkpt lat="45.029017213173766" lon="8.034796294596816"><ele>223.14285714285714</ele><time>2026-05-03T09:32:13Z</time></trkpt><trkpt lat="45.02908144485228" lon="8.034840162356273"><ele>224.0</ele><time>2026-05-03T09:32:17Z</time></trkpt><trkpt lat="45.02913734429675" lon="8.034884499191223"><ele>224.0</ele><time>2026-05-03T09:32:21Z</time></trkpt><trkpt lat="45.02921351486541" lon="8.03492863276642"><ele>224.0</ele><time>2026-05-03T09:32:26Z</time></trkpt><trkpt lat="45.02927615491997" lon="8.034989091653499"><ele>224.0</ele><time>2026-05-03T09:32:31Z</time></trkpt><trkpt lat="45.02933392477151" lon="8.034944343714274"><ele>224.0</ele><time>2026-05-03T09:32:35Z</time></trkpt><trkpt lat="45.029396127508626" lon="8.034914065639345"><ele>224.0</ele><time>2026-05-03T09:32:39.999Z</time></trkpt><trkpt lat="45.02944886167046" lon="8.034864041660496"><ele>224.0</ele><time>2026-05-03T09:32:42.999Z</time></trkpt><trkpt lat="45.0295146996814" lon="8.034829875641178"><ele>224.0</ele><time>2026-05-03T09:32:46.999Z</time></trkpt><trkpt lat="45.02957442766764" lon="8.034799141069316"><ele>224.0</ele><time>2026-05-03T09:32:50.999Z</time></trkpt><trkpt lat="45.02964834241597" lon="8.034797921159349"><ele>224.0</ele><time>2026-05-03T09:32:54.999Z</time></trkpt><trkpt lat="45.02972057852903" lon="8.034806315648302"><ele>224.0</ele><time>2026-05-03T09:32:58.999Z</time></trkpt><trkpt lat="45.02978630131551" lon="8.034834237430164"><ele>224.0</ele><time>2026-05-03T09:33:02.999Z</time></trkpt><trkpt lat="45.02984505514734" lon="8.034871199336541"><ele>224.0</ele><time>2026-05-03T09:33:06.999Z</time></trkpt><trkpt lat="45.02991143374373" lon="8.034895271561979"><ele>224.0</ele><time>2026-05-03T09:33:10.999Z</time></trkpt><trkpt lat="45.0299781694664" lon="8.034894235234807"><ele>224.0</ele><time>2026-05-03T09:33:14.999Z</time></trkpt><trkpt lat="45.03005538492887" lon="8.034916913879204"><ele>224.14285714285714</ele><time>2026-05-03T09:33:19.999Z</time></trkpt><trkpt lat="45.030117710052416" lon="8.03494322737507"><ele>224.28571428571428</ele><time>2026-05-03T09:33:23.999Z</time></trkpt><trkpt lat="45.03018631031644" lon="8.034982930794733"><ele>224.42857142857144</ele><time>2026-05-03T09:33:29Z</time></trkpt><trkpt lat="45.030254761741695" lon="8.03501581505998"><ele>224.57142857142858</ele><time>2026-05-03T09:33:34Z</time></trkpt><trkpt lat="45.030327773530615" lon="8.035057677419472"><ele>224.71428571428572</ele><time>2026-05-03T09:33:39Z</time></trkpt><trkpt lat="45.03039798274747" lon="8.03508762124076"><ele>224.8571428571429</ele><time>2026-05-03T09:33:43Z</time></trkpt><trkpt lat="45.03046807435635" lon="8.03513765221343"><ele>225.00000000000003</ele><time>2026-05-03T09:33:48Z</time></trkpt><trkpt lat="45.03052372053376" lon="8.035184624921502"><ele>225.00000000000003</ele><time>2026-05-03T09:33:52Z</time></trkpt><trkpt lat="45.03058797667585" lon="8.035242747935381"><ele>225.0</ele><time>2026-05-03T09:33:57Z</time></trkpt><trkpt lat="45.030633709829125" lon="8.035304095768137"><ele>225.00000000000003</ele><time>2026-05-03T09:34:01Z</time></trkpt><trkpt lat="45.03068850381563" lon="8.035352191160413"><ele>225.00000000000003</ele><time>2026-05-03T09:34:05Z</time></trkpt><trkpt lat="45.030762426105156" lon="8.035333108151036"><ele>225.0</ele><time>2026-05-03T09:34:10Z</time></trkpt><trkpt lat="45.03081462010099" lon="8.035264163780266"><ele>225.00000000000003</ele><time>2026-05-03T09:34:15Z</time></trkpt><trkpt lat="45.03086067948834" lon="8.035181020963204"><ele>225.00000000000003</ele><time>2026-05-03T09:34:20Z</time></trkpt><trkpt lat="45.03091243220246" lon="8.035122209344832"><ele>224.71428571428575</ele><time>2026-05-03T09:34:24Z</time></trkpt><trkpt lat="45.03096176878976" lon="8.035065672120712"><ele>224.42857142857144</ele><time>2026-05-03T09:34:28Z</time></trkpt><trkpt lat="45.03100641123574" lon="8.034972534415258"><ele>224.14285714285717</ele><time>2026-05-03T09:34:33Z</time></trkpt><trkpt lat="45.03105589061053" lon="8.034894198713982"><ele>223.8571428571429</ele><time>2026-05-03T09:34:38Z</time></trkpt><trkpt lat="45.03110653829796" lon="8.03495838192679"><ele>223.57142857142856</ele><time>2026-05-03T09:34:42.999Z</time></trkpt><trkpt lat="45.031152735108805" lon="8.035023143363317"><ele>223.28571428571428</ele><time>2026-05-03T09:34:46.999Z</time></trkpt><trkpt lat="45.03118836056736" lon="8.035097615400968"><ele>223.0</ele><time>2026-05-03T09:34:50.999Z</time></trkpt><trkpt lat="45.031237962636204" lon="8.035165601797203"><ele>223.0</ele><time>2026-05-03T09:34:54.999Z</time></trkpt><trkpt lat="45.0312815330523" lon="8.035231939710316"><ele>223.0</ele><time>2026-05-03T09:34:58.999Z</time></trkpt><trkpt lat="45.03132844338978" lon="8.035292419391656"><ele>223.0</ele><time>2026-05-03T09:35:02.999Z</time></trkpt><trkpt lat="45.03137152659166" lon="8.035358528103455"><ele>223.0</ele><time>2026-05-03T09:35:06.999Z</time></trkpt><trkpt lat="45.031410676259256" lon="8.035444755347084"><ele>223.0</ele><time>2026-05-03T09:35:10.999Z</time></trkpt><trkpt lat="45.03144952904242" lon="8.035540576993837"><ele>223.0</ele><time>2026-05-03T09:35:14.999Z</time></trkpt><trkpt lat="45.031513537892394" lon="8.035595977612095"><ele>223.0</ele><time>2026-05-03T09:35:19.999Z</time></trkpt><trkpt lat="45.0315610586016" lon="8.035668990154521"><ele>223.0</ele><time>2026-05-03T09:35:24.999Z</time></trkpt><trkpt lat="45.031595627549116" lon="8.035746313711028"><ele>223.0</ele><time>2026-05-03T09:35:28.999Z</time></trkpt><trkpt lat="45.031658859552245" lon="8.035805162458963"><ele>223.0</ele><time>2026-05-03T09:35:34Z</time></trkpt><trkpt lat="45.031714936296055" lon="8.035882442091435"><ele>223.0</ele><time>2026-05-03T09:35:39Z</time></trkpt><trkpt lat="45.031760199866795" lon="8.03594616868495"><ele>223.0</ele><time>2026-05-03T09:35:43Z</time></trkpt><trkpt lat="45.031805597768184" lon="8.03602190306339"><ele>223.0</ele><time>2026-05-03T09:35:47Z</time></trkpt><trkpt lat="45.031857178277704" lon="8.036079144361366"><ele>223.0</ele><time>2026-05-03T09:35:51Z</time></trkpt><trkpt lat="45.03191160824959" lon="8.036147574691187"><ele>222.85714285714286</ele><time>2026-05-03T09:35:56Z</time></trkpt><trkpt lat="45.03196947766956" lon="8.03618527815898"><ele>222.71428571428572</ele><time>2026-05-03T09:36:00Z</time></trkpt><trkpt lat="45.03202083954726" lon="8.036256184747696"><ele>222.57142857142856</ele><time>2026-05-03T09:36:05Z</time></trkpt><trkpt lat="45.032039495741806" lon="8.036352714217914"><ele>222.42857142857144</ele><time>2026-05-03T09:36:10Z</time></trkpt><trkpt lat="45.03211564579812" lon="8.036413799614158"><ele>222.2857142857143</ele><time>2026-05-03T09:36:52.999Z</time></trkpt><trkpt lat="45.03218482323772" lon="8.03644460815391"><ele>222.14285714285714</ele><time>2026-05-03T09:36:59.999Z</time></trkpt><trkpt lat="45.032231553145586" lon="8.036510597006496"><ele>222.0</ele><time>2026-05-03T09:37:11.999Z</time></trkpt><trkpt lat="45.03227708288188" lon="8.036587472945355"><ele>222.0</ele><time>2026-05-03T09:38:33Z</time></trkpt><trkpt lat="45.032350848615515" lon="8.036504690679092"><ele>222.0</ele><time>2026-05-03T09:38:50Z</time></trkpt><trkpt lat="45.03234564807991" lon="8.036596293084955"><ele>222.0</ele><time>2026-05-03T09:39:01.999Z</time></trkpt><trkpt lat="45.03241748902165" lon="8.036647080680018"><ele>222.0</ele><time>2026-05-03T09:39:06.999Z</time></trkpt><trkpt lat="45.03246329055087" lon="8.036708296006198"><ele>222.0</ele><time>2026-05-03T09:39:12.999Z</time></trkpt><trkpt lat="45.032509738825006" lon="8.036783055047428"><ele>222.0</ele><time>2026-05-03T09:39:17.999Z</time></trkpt><trkpt lat="45.032555008991494" lon="8.036848545064078"><ele>222.0</ele><time>2026-05-03T09:39:22.999Z</time></trkpt><trkpt lat="45.03261330486813" lon="8.036913490870838"><ele>222.14285714285714</ele><time>2026-05-03T09:39:28.999Z</time></trkpt><trkpt lat="45.03267041508314" lon="8.036971497187196"><ele>222.2857142857143</ele><time>2026-05-03T09:39:35.999Z</time></trkpt><trkpt lat="45.032724615116535" lon="8.037046918518717"><ele>222.42857142857144</ele><time>2026-05-03T09:39:41.999Z</time></trkpt><trkpt lat="45.03277660853696" lon="8.037108335812574"><ele>222.57142857142856</ele><time>2026-05-03T09:39:48Z</time></trkpt><trkpt lat="45.032818419914676" lon="8.037189448341008"><ele>222.71428571428572</ele><time>2026-05-03T09:39:53Z</time></trkpt><trkpt lat="45.03282084544186" lon="8.03728185584963"><ele>222.85714285714286</ele><time>2026-05-03T09:39:58Z</time></trkpt><trkpt lat="45.03287212229401" lon="8.037377630447525"><ele>223.0</ele><time>2026-05-03T09:40:04Z</time></trkpt><trkpt lat="45.03290369273042" lon="8.037468500755034"><ele>223.0</ele><time>2026-05-03T09:40:08Z</time></trkpt><trkpt lat="45.032932401996426" lon="8.03755520049661"><ele>223.0</ele><time>2026-05-03T09:40:12Z</time></trkpt><trkpt lat="45.03296378981257" lon="8.037638042204195"><ele>223.0</ele><time>2026-05-03T09:40:16Z</time></trkpt><trkpt lat="45.032999200105536" lon="8.037712845372578"><ele>223.0</ele><time>2026-05-03T09:40:20Z</time></trkpt><trkpt lat="45.03303642648443" lon="8.037799858837303"><ele>223.0</ele><time>2026-05-03T09:40:25Z</time></trkpt><trkpt lat="45.033091710078956" lon="8.037869352200959"><ele>223.0</ele><time>2026-05-03T09:40:30Z</time></trkpt><trkpt lat="45.033142247075126" lon="8.037951445616683"><ele>223.0</ele><time>2026-05-03T09:40:35Z</time></trkpt><trkpt lat="45.033185692322334" lon="8.038028918247713"><ele>223.0</ele><time>2026-05-03T09:40:40Z</time></trkpt><trkpt lat="45.03322334527975" lon="8.038115510349824"><ele>223.0</ele><time>2026-05-03T09:40:45Z</time></trkpt><trkpt lat="45.03326913680476" lon="8.038201901931561"><ele>223.0</ele><time>2026-05-03T09:40:50Z</time></trkpt><trkpt lat="45.03329838617528" lon="8.038289308339321"><ele>223.0</ele><time>2026-05-03T09:40:54Z</time></trkpt><trkpt lat="45.03333986064376" lon="8.038369500579178"><ele>223.0</ele><time>2026-05-03T09:40:58Z</time></trkpt><trkpt lat="45.033370022863835" lon="8.038450637081517"><ele>223.0</ele><time>2026-05-03T09:41:01.999Z</time></trkpt><trkpt lat="45.03338995648993" lon="8.03853739455957"><ele>223.0</ele><time>2026-05-03T09:41:04.999Z</time></trkpt><trkpt lat="45.03342265607251" lon="8.038629320585382"><ele>223.42857142857142</ele><time>2026-05-03T09:41:09.999Z</time></trkpt><trkpt lat="45.03344325058097" lon="8.03872895548665"><ele>223.85714285714283</ele><time>2026-05-03T09:41:13.999Z</time></trkpt><trkpt lat="45.03347709453508" lon="8.038807227465956"><ele>224.28571428571428</ele><time>2026-05-03T09:41:17.999Z</time></trkpt><trkpt lat="45.03352183511628" lon="8.038883993820198"><ele>224.71428571428572</ele><time>2026-05-03T09:41:22.999Z</time></trkpt><trkpt lat="45.03356959191084" lon="8.038954865703474"><ele>225.14285714285714</ele><time>2026-05-03T09:41:26.999Z</time></trkpt><trkpt lat="45.03361892674053" lon="8.039024613108355"><ele>225.57142857142858</ele><time>2026-05-03T09:41:31.999Z</time></trkpt><trkpt lat="45.03366434624349" lon="8.039091817235267"><ele>226.0</ele><time>2026-05-03T09:41:35.999Z</time></trkpt><trkpt lat="45.033696997128025" lon="8.039173359454782"><ele>226.16666666666666</ele><time>2026-05-03T09:41:39.999Z</time></trkpt><trkpt lat="45.03373799045898" lon="8.039247272923259"><ele>226.33333333333331</ele><time>2026-05-03T09:41:43.999Z</time></trkpt><trkpt lat="45.033803989532124" lon="8.039300964976134"><ele>226.5</ele><time>2026-05-03T09:41:47.999Z</time></trkpt><trkpt lat="45.03384034307469" lon="8.039402194497345"><ele>226.66666666666669</ele><time>2026-05-03T09:41:52Z</time></trkpt><trkpt lat="45.03389730753108" lon="8.039470831791698"><ele>226.83333333333334</ele><time>2026-05-03T09:41:56Z</time></trkpt><trkpt lat="45.03396069112188" lon="8.039527012548533"><ele>227.0</ele><time>2026-05-03T09:42:01Z</time></trkpt><trkpt lat="45.03400178604614" lon="8.039619405566702"><ele>227.0</ele><time>2026-05-03T09:42:06Z</time></trkpt><trkpt lat="45.034029937499966" lon="8.039704591894077"><ele>227.00000000000003</ele><time>2026-05-03T09:42:10Z</time></trkpt><trkpt lat="45.0340600514373" lon="8.039788897195278"><ele>227.0</ele><time>2026-05-03T09:42:15Z</time></trkpt><trkpt lat="45.03407441522264" lon="8.039879895963859"><ele>227.0</ele><time>2026-05-03T09:42:19Z</time></trkpt><trkpt lat="45.03413954402602" lon="8.039894379331603"><ele>227.00000000000003</ele><time>2026-05-03T09:42:27Z</time></trkpt><trkpt lat="45.034197380935964" lon="8.039937347049687"><ele>227.0</ele><time>2026-05-03T09:42:33Z</time></trkpt><trkpt lat="45.0342303428233" lon="8.040032087074012"><ele>227.0</ele><time>2026-05-03T09:42:38Z</time></trkpt><trkpt lat="45.03424850576469" lon="8.040119526837742"><ele>227.2857142857143</ele><time>2026-05-03T09:42:44Z</time></trkpt><trkpt lat="45.03426242282204" lon="8.040217836786573"><ele>227.5714285714286</ele><time>2026-05-03T09:42:48Z</time></trkpt><trkpt lat="45.03421328299482" lon="8.040274478846161"><ele>227.85714285714286</ele><time>2026-05-03T09:42:57Z</time></trkpt><trkpt lat="45.03423555725491" lon="8.040384803067935"><ele>228.14285714285717</ele><time>2026-05-03T09:43:02.999Z</time></trkpt><trkpt lat="45.0342740269628" lon="8.04045548398442"><ele>228.42857142857144</ele><time>2026-05-03T09:43:06.999Z</time></trkpt><trkpt lat="45.03426383642015" lon="8.040551699022663"><ele>228.71428571428572</ele><time>2026-05-03T09:43:10.999Z</time></trkpt><trkpt lat="45.03427479108822" lon="8.040648786148973"><ele>229.0</ele><time>2026-05-03T09:43:14.999Z</time></trkpt><trkpt lat="45.03430090371653" lon="8.040732691118896"><ele>229.0</ele><time>2026-05-03T09:43:18.999Z</time></trkpt><trkpt lat="45.03435878804567" lon="8.040773569082388"><ele>229.0</ele><time>2026-05-03T09:43:22.999Z</time></trkpt><trkpt lat="45.034420546317826" lon="8.040826717287386"><ele>229.0</ele><time>2026-05-03T09:43:27.999Z</time></trkpt><trkpt lat="45.034466692651115" lon="8.040890524665864"><ele>229.0</ele><time>2026-05-03T09:43:32.999Z</time></trkpt><trkpt lat="45.03451810349895" lon="8.040983655810388"><ele>229.0</ele><time>2026-05-03T09:43:37.999Z</time></trkpt><trkpt lat="45.034574253330156" lon="8.041052195149271"><ele>229.0</ele><time>2026-05-03T09:43:42.999Z</time></trkpt><trkpt lat="45.03461719478521" lon="8.041131929355277"><ele>229.0</ele><time>2026-05-03T09:43:48.999Z</time></trkpt><trkpt lat="45.034621364551484" lon="8.041031907795041"><ele>229.0</ele><time>2026-05-03T09:44:28Z</time></trkpt><trkpt lat="45.034567906011084" lon="8.040965999812949"><ele>229.0</ele><time>2026-05-03T09:44:32Z</time></trkpt><trkpt lat="45.034522123368696" lon="8.040884595281682"><ele>229.0</ele><time>2026-05-03T09:44:35Z</time></trkpt><trkpt lat="45.0344609758997" lon="8.04080541453174"><ele>229.0</ele><time>2026-05-03T09:44:39Z</time></trkpt><trkpt lat="45.03440773837922" lon="8.040742961377044"><ele>229.0</ele><time>2026-05-03T09:44:42Z</time></trkpt><trkpt lat="45.034349569746794" lon="8.040700094719504"><ele>229.0</ele><time>2026-05-03T09:44:46Z</time></trkpt><trkpt lat="45.03427900452507" lon="8.04073672209946"><ele>229.0</ele><time>2026-05-03T09:44:52Z</time></trkpt><trkpt lat="45.03424199728264" lon="8.040810311984242"><ele>229.0</ele><time>2026-05-03T09:44:56Z</time></trkpt><trkpt lat="45.03419592306759" lon="8.040895662195553"><ele>229.0</ele><time>2026-05-03T09:45:01Z</time></trkpt><trkpt lat="45.03416834481522" lon="8.04099457500992"><ele>229.0</ele><time>2026-05-03T09:45:06Z</time></trkpt><trkpt lat="45.03416410018531" lon="8.041089413908722"><ele>229.0</ele><time>2026-05-03T09:45:10.999Z</time></trkpt><trkpt lat="45.03413124385671" lon="8.041173348149739"><ele>229.0</ele><time>2026-05-03T09:45:16.999Z</time></trkpt><trkpt lat="45.03407325011628" lon="8.041217678265472"><ele>229.0</ele><time>2026-05-03T09:45:21.999Z</time></trkpt><trkpt lat="45.0340202935428" lon="8.041294228311257"><ele>229.0</ele><time>2026-05-03T09:45:26.999Z</time></trkpt><trkpt lat="45.03398600341026" lon="8.041372163758092"><ele>229.0</ele><time>2026-05-03T09:45:31.999Z</time></trkpt><trkpt lat="45.03396973949062" lon="8.041474177110427"><ele>229.0</ele><time>2026-05-03T09:45:35.999Z</time></trkpt><trkpt lat="45.03395038221682" lon="8.04156042003657"><ele>229.0</ele><time>2026-05-03T09:45:39.999Z</time></trkpt><trkpt lat="45.03392770977203" lon="8.041664950412152"><ele>229.0</ele><time>2026-05-03T09:45:44.999Z</time></trkpt><trkpt lat="45.033908525534585" lon="8.04175366716125"><ele>229.0</ele><time>2026-05-03T09:45:48.999Z</time></trkpt><trkpt lat="45.033892979406055" lon="8.041857607792602"><ele>229.0</ele><time>2026-05-03T09:45:53.999Z</time></trkpt><trkpt lat="45.03387390901607" lon="8.041943815575765"><ele>229.0</ele><time>2026-05-03T09:45:57.999Z</time></trkpt><trkpt lat="45.03384424531652" lon="8.042031289631478"><ele>230.14285714285714</ele><time>2026-05-03T09:46:02Z</time></trkpt><trkpt lat="45.033851322831325" lon="8.04212971333887"><ele>231.28571428571428</ele><time>2026-05-03T09:46:06Z</time></trkpt><trkpt lat="45.033815241789085" lon="8.042211323708456"><ele>232.42857142857142</ele><time>2026-05-03T09:46:10Z</time></trkpt><trkpt lat="45.03378568621225" lon="8.042305479288297"><ele>233.57142857142856</ele><time>2026-05-03T09:46:15Z</time></trkpt><trkpt lat="45.03375078281455" lon="8.04238312620505"><ele>234.71428571428572</ele><time>2026-05-03T09:46:19Z</time></trkpt><trkpt lat="45.033692416332336" lon="8.04245845487497"><ele>235.85714285714283</ele><time>2026-05-03T09:46:24Z</time></trkpt><trkpt lat="45.0336278927723" lon="8.042506482168697"><ele>236.99999999999997</ele><time>2026-05-03T09:46:28Z</time></trkpt><trkpt lat="45.03355309829283" lon="8.042557824310164"><ele>238.99999999999997</ele><time>2026-05-03T09:46:33Z</time></trkpt><trkpt lat="45.0335056446305" lon="8.042635553889632"><ele>241.0</ele><time>2026-05-03T09:46:37Z</time></trkpt><trkpt lat="45.03345633620588" lon="8.042714674525534"><ele>242.99999999999997</ele><time>2026-05-03T09:46:42Z</time></trkpt><trkpt lat="45.03341000676856" lon="8.042802183896296"><ele>244.99999999999997</ele><time>2026-05-03T09:46:47Z</time></trkpt><trkpt lat="45.033346820808504" lon="8.042871052371177"><ele>247.0</ele><time>2026-05-03T09:46:51Z</time></trkpt><trkpt lat="45.03329360252473" lon="8.042925545138846"><ele>248.99999999999997</ele><time>2026-05-03T09:46:55Z</time></trkpt><trkpt lat="45.03323760998124" lon="8.042996150106264"><ele>250.99999999999997</ele><time>2026-05-03T09:47:00Z</time></trkpt><trkpt lat="45.03317828369339" lon="8.043048707622166"><ele>252.28571428571425</ele><time>2026-05-03T09:47:05Z</time></trkpt><trkpt lat="45.033107951162606" lon="8.043070401475294"><ele>253.57142857142856</ele><time>2026-05-03T09:47:10Z</time></trkpt><trkpt lat="45.03304599480595" lon="8.043131718995207"><ele>254.85714285714286</ele><time>2026-05-03T09:47:15.999Z</time></trkpt><trkpt lat="45.03300196948757" lon="8.043202861079974"><ele>256.1428571428571</ele><time>2026-05-03T09:47:20.999Z</time></trkpt><trkpt lat="45.03294233462131" lon="8.04324479237384"><ele>257.42857142857144</ele><time>2026-05-03T09:47:24.999Z</time></trkpt><trkpt lat="45.032888556033534" lon="8.04330172193131"><ele>258.7142857142857</ele><time>2026-05-03T09:47:28.999Z</time></trkpt><trkpt lat="45.03282494851623" lon="8.04332914974632"><ele>260.0</ele><time>2026-05-03T09:47:33.999Z</time></trkpt><trkpt lat="45.032807037103375" lon="8.043423191686644"><ele>260.42857142857144</ele><time>2026-05-03T09:47:37.999Z</time></trkpt><trkpt lat="45.03279915345238" lon="8.043526049900985"><ele>260.8571428571429</ele><time>2026-05-03T09:47:42.999Z</time></trkpt><trkpt lat="45.03279103093422" lon="8.043624155279726"><ele>261.2857142857143</ele><time>2026-05-03T09:47:46.999Z</time></trkpt><trkpt lat="45.03281486814264" lon="8.04371274630615"><ele>261.7142857142857</ele><time>2026-05-03T09:47:50.999Z</time></trkpt><trkpt lat="45.03283666037458" lon="8.0438071682079"><ele>262.1428571428571</ele><time>2026-05-03T09:47:54.999Z</time></trkpt><trkpt lat="45.032851486950634" lon="8.043899791467013"><ele>262.57142857142856</ele><time>2026-05-03T09:47:58.999Z</time></trkpt><trkpt lat="45.03292728128239" lon="8.04386838380557"><ele>263.0</ele><time>2026-05-03T09:48:03.999Z</time></trkpt><trkpt lat="45.03296028399017" lon="8.043781614100649"><ele>263.0</ele><time>2026-05-03T09:48:08Z</time></trkpt><trkpt lat="45.032991353284835" lon="8.043678493229283"><ele>263.0</ele><time>2026-05-03T09:48:12Z</time></trkpt><trkpt lat="45.03304038620595" lon="8.04358684489994"><ele>263.0</ele><time>2026-05-03T09:48:19Z</time></trkpt><trkpt lat="45.033124297767365" lon="8.043599149087205"><ele>263.0</ele><time>2026-05-03T09:48:23Z</time></trkpt><trkpt lat="45.03319057378787" lon="8.043605779347956"><ele>263.0</ele><time>2026-05-03T09:48:26Z</time></trkpt><trkpt lat="45.033266419511754" lon="8.043615083559402"><ele>263.0</ele><time>2026-05-03T09:48:29Z</time></trkpt><trkpt lat="45.03333513766329" lon="8.043651540646612"><ele>263.0</ele><time>2026-05-03T09:48:34Z</time></trkpt><trkpt lat="45.03341074373972" lon="8.043704017394624"><ele>263.0</ele><time>2026-05-03T09:48:37Z</time></trkpt><trkpt lat="45.03337356239728" lon="8.043812553937983"><ele>263.0</ele><time>2026-05-03T09:48:43Z</time></trkpt><trkpt lat="45.0333305392933" lon="8.04389577545823"><ele>263.0</ele><time>2026-05-03T09:48:48Z</time></trkpt><trkpt lat="45.03329275558124" lon="8.044010327066212"><ele>263.0</ele><time>2026-05-03T09:49:12Z</time></trkpt><trkpt lat="45.0332518290362" lon="8.044082223230715"><ele>263.0</ele><time>2026-05-03T09:49:16Z</time></trkpt><trkpt lat="45.03321590673116" lon="8.044157876633799"><ele>264.1428571428571</ele><time>2026-05-03T09:49:19.999Z</time></trkpt><trkpt lat="45.033213969946466" lon="8.044255987375028"><ele>265.2857142857143</ele><time>2026-05-03T09:49:24.999Z</time></trkpt><trkpt lat="45.0332045265116" lon="8.044350656626415"><ele>266.42857142857144</ele><time>2026-05-03T09:49:28.999Z</time></trkpt><trkpt lat="45.0332082827554" lon="8.044440338257054"><ele>267.57142857142856</ele><time>2026-05-03T09:49:36.999Z</time></trkpt><trkpt lat="45.03321246711183" lon="8.044530765636004"><ele>268.7142857142857</ele><time>2026-05-03T09:49:44.999Z</time></trkpt><trkpt lat="45.03325701011113" lon="8.044596156276453"><ele>269.85714285714283</ele><time>2026-05-03T09:50:05.999Z</time></trkpt><trkpt lat="45.03318702557438" lon="8.044646794222587"><ele>271.0</ele><time>2026-05-03T09:50:07.999Z</time></trkpt><trkpt lat="45.03316088651728" lon="8.044760036715923"><ele>271.0</ele><time>2026-05-03T09:50:12.999Z</time></trkpt><trkpt lat="45.033202987333155" lon="8.044857960268137"><ele>271.0</ele><time>2026-05-03T09:50:19Z</time></trkpt><trkpt lat="45.03324701570982" lon="8.044950147716854"><ele>271.0</ele><time>2026-05-03T09:50:24Z</time></trkpt><trkpt lat="45.033291217283214" lon="8.045036765430662"><ele>271.0</ele><time>2026-05-03T09:50:28Z</time></trkpt><trkpt lat="45.03335711552577" lon="8.045105296742154"><ele>271.0</ele><time>2026-05-03T09:50:35Z</time></trkpt><trkpt lat="45.0333865926623" lon="8.045194734668543"><ele>271.0</ele><time>2026-05-03T09:50:40Z</time></trkpt><trkpt lat="45.03343482029882" lon="8.045283117513465"><ele>271.2857142857143</ele><time>2026-05-03T09:50:45Z</time></trkpt><trkpt lat="45.03341691032647" lon="8.045389809751168"><ele>271.57142857142856</ele><time>2026-05-03T09:50:50Z</time></trkpt><trkpt lat="45.03339361581282" lon="8.045476220010498"><ele>271.8571428571429</ele><time>2026-05-03T09:50:55Z</time></trkpt><trkpt lat="45.033374299877366" lon="8.045569142906382"><ele>272.1428571428571</ele><time>2026-05-03T09:51:00Z</time></trkpt><trkpt lat="45.03331083102309" lon="8.045579809122001"><ele>272.42857142857144</ele><time>2026-05-03T09:51:15Z</time></trkpt><trkpt lat="45.033241133704365" lon="8.04555726899148"><ele>272.7142857142857</ele><time>2026-05-03T09:51:22Z</time></trkpt><trkpt lat="45.0331520352624" lon="8.04551517767605"><ele>273.0</ele><time>2026-05-03T09:51:29.999Z</time></trkpt><trkpt lat="45.033080100181095" lon="8.045512693509368"><ele>273.0</ele><time>2026-05-03T09:51:35.999Z</time></trkpt><trkpt lat="45.03300234244614" lon="8.045503092297949"><ele>273.0</ele><time>2026-05-03T09:51:40.999Z</time></trkpt><trkpt lat="45.03292566041586" lon="8.045478266608002"><ele>273.0</ele><time>2026-05-03T09:51:44.999Z</time></trkpt><trkpt lat="45.032852012998106" lon="8.045439486868203"><ele>273.0</ele><time>2026-05-03T09:51:49.999Z</time></trkpt><trkpt lat="45.03277474160341" lon="8.04543476368707"><ele>273.0</ele><time>2026-05-03T09:51:53.999Z</time></trkpt><trkpt lat="45.03270482976274" lon="8.045425512753829"><ele>273.0</ele><time>2026-05-03T09:51:57.999Z</time></trkpt><trkpt lat="45.0326457719555" lon="8.0453930165994"><ele>273.0</ele><time>2026-05-03T09:52:01.999Z</time></trkpt><trkpt lat="45.03258045862425" lon="8.045325438107334"><ele>273.0</ele><time>2026-05-03T09:52:05.999Z</time></trkpt><trkpt lat="45.0325130428251" lon="8.045268694611474"><ele>273.0</ele><time>2026-05-03T09:52:09.999Z</time></trkpt><trkpt lat="45.03245659159043" lon="8.045204767569945"><ele>273.0</ele><time>2026-05-03T09:52:13.999Z</time></trkpt><trkpt lat="45.0324029510879" lon="8.045135461923"><ele>273.0</ele><time>2026-05-03T09:52:17.999Z</time></trkpt><trkpt lat="45.03236574910825" lon="8.045055803638817"><ele>273.0</ele><time>2026-05-03T09:52:21Z</time></trkpt><trkpt lat="45.03232316108471" lon="8.044982816607225"><ele>273.0</ele><time>2026-05-03T09:52:23Z</time></trkpt><trkpt lat="45.03225434343322" lon="8.044863712510306"><ele>271.3333333333333</ele><time>2026-05-03T09:52:25Z</time></trkpt><trkpt lat="45.03222583287311" lon="8.044729445840273"><ele>269.6666666666667</ele><time>2026-05-03T09:52:27Z</time></trkpt><trkpt lat="45.03222422652497" lon="8.044633993145833"><ele>268.0</ele><time>2026-05-03T09:52:29Z</time></trkpt><trkpt lat="45.03222698323428" lon="8.044489933639678"><ele>266.33333333333337</ele><time>2026-05-03T09:52:31Z</time></trkpt><trkpt lat="45.03222736739025" lon="8.044359264750655"><ele>264.6666666666667</ele><time>2026-05-03T09:52:33Z</time></trkpt><trkpt lat="45.032219045063506" lon="8.044244379873742"><ele>263.0</ele><time>2026-05-03T09:52:35Z</time></trkpt><trkpt lat="45.03222460613295" lon="8.044153861870084"><ele>265.0</ele><time>2026-05-03T09:52:36Z</time></trkpt><trkpt lat="45.03222541050259" lon="8.044055510819627"><ele>267.0</ele><time>2026-05-03T09:52:38Z</time></trkpt><trkpt lat="45.03224315980699" lon="8.04396309349764"><ele>269.0</ele><time>2026-05-03T09:52:40Z</time></trkpt><trkpt lat="45.03223298257069" lon="8.043831823976838"><ele>271.0</ele><time>2026-05-03T09:52:42Z</time></trkpt><trkpt lat="45.03219889564395" lon="8.043693860457894"><ele>273.0</ele><time>2026-05-03T09:52:44Z</time></trkpt><trkpt lat="45.03216652400781" lon="8.04357268416246"><ele>275.0</ele><time>2026-05-03T09:52:46Z</time></trkpt><trkpt lat="45.03215653984752" lon="8.043444955348132"><ele>275.0</ele><time>2026-05-03T09:52:48Z</time></trkpt><trkpt lat="45.03208152163385" lon="8.043398518828557"><ele>275.0</ele><time>2026-05-03T09:52:50Z</time></trkpt><trkpt lat="45.03201232889772" lon="8.043374780588204"><ele>275.0</ele><time>2026-05-03T09:52:52Z</time></trkpt><trkpt lat="45.03193734787888" lon="8.043364010760849"><ele>275.0</ele><time>2026-05-03T09:52:54Z</time></trkpt><trkpt lat="45.031845501217035" lon="8.043371046766442"><ele>275.0</ele><time>2026-05-03T09:52:56Z</time></trkpt><trkpt lat="45.03174875023787" lon="8.043346185868474"><ele>275.0</ele><time>2026-05-03T09:52:58Z</time></trkpt><trkpt lat="45.03165285052339" lon="8.043336134840711"><ele>275.6666666666667</ele><time>2026-05-03T09:53:00Z</time></trkpt><trkpt lat="45.03154386984947" lon="8.043296233516754"><ele>276.33333333333337</ele><time>2026-05-03T09:53:02Z</time></trkpt><trkpt lat="45.03144552488496" lon="8.043261796188817"><ele>277.0</ele><time>2026-05-03T09:53:04Z</time></trkpt><trkpt lat="45.031395428102975" lon="8.043327595035855"><ele>277.6666666666667</ele><time>2026-05-03T09:53:07Z</time></trkpt><trkpt lat="45.03138795848684" lon="8.043431259775094"><ele>278.3333333333333</ele><time>2026-05-03T09:53:11Z</time></trkpt><trkpt lat="45.03143067255147" lon="8.043318877294388"><ele>279.0</ele><time>2026-05-03T09:53:16Z</time></trkpt><trkpt lat="45.03149559232316" lon="8.043289999297231"><ele>279.0</ele><time>2026-05-03T09:53:19Z</time></trkpt><trkpt lat="45.03156917951652" lon="8.043278322415393"><ele>279.0</ele><time>2026-05-03T09:53:22Z</time></trkpt><trkpt lat="45.03163650220331" lon="8.043252987631659"><ele>279.0</ele><time>2026-05-03T09:53:26Z</time></trkpt><trkpt lat="45.03155470661823" lon="8.043271089422921"><ele>279.0</ele><time>2026-05-03T09:53:31.999Z</time></trkpt><trkpt lat="45.03145762347764" lon="8.043267306358944"><ele>279.0</ele><time>2026-05-03T09:53:34.999Z</time></trkpt><trkpt lat="45.031389916769946" lon="8.043289648867653"><ele>279.0</ele><time>2026-05-03T09:53:36.999Z</time></trkpt><trkpt lat="45.031324909796666" lon="8.043348455369705"><ele>279.0</ele><time>2026-05-03T09:53:38.999Z</time></trkpt><trkpt lat="45.03124067096428" lon="8.043369134820983"><ele>279.0</ele><time>2026-05-03T09:53:41.999Z</time></trkpt><trkpt lat="45.03118026677391" lon="8.043324825556542"><ele>279.0</ele><time>2026-05-03T09:53:43.999Z</time></trkpt><trkpt lat="45.03109988875307" lon="8.043335382978137"><ele>279.0</ele><time>2026-05-03T09:53:45.999Z</time></trkpt><trkpt lat="45.03103053188294" lon="8.04325539256794"><ele>279.0</ele><time>2026-05-03T09:53:47.999Z</time></trkpt><trkpt lat="45.03097010964279" lon="8.04318074366346"><ele>279.0</ele><time>2026-05-03T09:53:49.999Z</time></trkpt><trkpt lat="45.030896544935786" lon="8.043106647341286"><ele>275.2</ele><time>2026-05-03T09:53:51.999Z</time></trkpt><trkpt lat="45.03078832513041" lon="8.043088326027467"><ele>271.4</ele><time>2026-05-03T09:53:53.999Z</time></trkpt><trkpt lat="45.030668684208436" lon="8.043046895644336"><ele>267.6</ele><time>2026-05-03T09:53:55.999Z</time></trkpt><trkpt lat="45.03055846631838" lon="8.043008018480698"><ele>263.8</ele><time>2026-05-03T09:53:57.999Z</time></trkpt><trkpt lat="45.030496004783735" lon="8.042965846395607"><ele>260.0</ele><time>2026-05-03T09:53:58.999Z</time></trkpt><trkpt lat="45.03038094484333" lon="8.042946374209237"><ele>260.0</ele><time>2026-05-03T09:54:00.999Z</time></trkpt><trkpt lat="45.030282123671434" lon="8.042922568328546"><ele>260.0</ele><time>2026-05-03T09:54:02.999Z</time></trkpt><trkpt lat="45.03021028831291" lon="8.042929476726933"><ele>260.0</ele><time>2026-05-03T09:54:04.999Z</time></trkpt><trkpt lat="45.03015243063285" lon="8.042894078446178"><ele>260.0</ele><time>2026-05-03T09:54:06.999Z</time></trkpt><trkpt lat="45.030079734655835" lon="8.042912398798979"><ele>260.0</ele><time>2026-05-03T09:54:09.999Z</time></trkpt><trkpt lat="45.02999550980716" lon="8.042964671880943"><ele>260.0</ele><time>2026-05-03T09:54:12.999Z</time></trkpt><trkpt lat="45.0299315561803" lon="8.04306988787049"><ele>260.83333333333337</ele><time>2026-05-03T09:54:15.999Z</time></trkpt><trkpt lat="45.02987429613899" lon="8.04314354631225"><ele>261.6666666666667</ele><time>2026-05-03T09:54:17.999Z</time></trkpt><trkpt lat="45.02980033046941" lon="8.043173924178026"><ele>262.5</ele><time>2026-05-03T09:54:19.999Z</time></trkpt><trkpt lat="45.029714055595264" lon="8.043211220423322"><ele>263.3333333333333</ele><time>2026-05-03T09:54:21.999Z</time></trkpt><trkpt lat="45.029640580760756" lon="8.043213816867604"><ele>264.16666666666663</ele><time>2026-05-03T09:54:23.999Z</time></trkpt><trkpt lat="45.02956670054171" lon="8.043252214992805"><ele>265.0</ele><time>2026-05-03T09:54:27Z</time></trkpt><trkpt lat="45.02950328035856" lon="8.043258789517628"><ele>265.0</ele><time>2026-05-03T09:54:29Z</time></trkpt><trkpt lat="45.02941323226543" lon="8.043254019110428"><ele>265.0</ele><time>2026-05-03T09:54:32Z</time></trkpt><trkpt lat="45.02933766384872" lon="8.043213688817186"><ele>265.0</ele><time>2026-05-03T09:54:34Z</time></trkpt><trkpt lat="45.02924925354594" lon="8.043176578154517"><ele>265.0</ele><time>2026-05-03T09:54:36Z</time></trkpt><trkpt lat="45.029187555807795" lon="8.043135749339182"><ele>265.0</ele><time>2026-05-03T09:54:37Z</time></trkpt><trkpt lat="45.029088816906714" lon="8.043104551927183"><ele>265.0</ele><time>2026-05-03T09:54:39Z</time></trkpt><trkpt lat="45.02900182391832" lon="8.043013670353249"><ele>266.4</ele><time>2026-05-03T09:54:41Z</time></trkpt><trkpt lat="45.02888611175354" lon="8.04295368564168"><ele>267.8</ele><time>2026-05-03T09:54:43Z</time></trkpt><trkpt lat="45.02882350796696" lon="8.042938317480912"><ele>269.2</ele><time>2026-05-03T09:54:44Z</time></trkpt><trkpt lat="45.02869959099545" lon="8.042896173094297"><ele>270.6</ele><time>2026-05-03T09:54:46Z</time></trkpt><trkpt lat="45.02863353572186" lon="8.042852260171665"><ele>272.0</ele><time>2026-05-03T09:54:47Z</time></trkpt><trkpt lat="45.028570367897366" lon="8.042826121461838"><ele>272.0</ele><time>2026-05-03T09:54:48Z</time></trkpt><trkpt lat="45.028503195049524" lon="8.042802393796812"><ele>272.0</ele><time>2026-05-03T09:54:49Z</time></trkpt><trkpt lat="45.02839667737903" lon="8.042716264691398"><ele>272.0</ele><time>2026-05-03T09:54:51Z</time></trkpt><trkpt lat="45.02833050072812" lon="8.042704023183125"><ele>272.0</ele><time>2026-05-03T09:54:52Z</time></trkpt><trkpt lat="45.02826018664296" lon="8.042678586432226"><ele>272.0</ele><time>2026-05-03T09:54:54Z</time></trkpt><trkpt lat="45.02818751058444" lon="8.042646723217553"><ele>272.0</ele><time>2026-05-03T09:54:56Z</time></trkpt><trkpt lat="45.02811985105437" lon="8.04264752610058"><ele>270.1666666666667</ele><time>2026-05-03T09:54:58Z</time></trkpt><trkpt lat="45.02805120667474" lon="8.042654644001725"><ele>268.33333333333337</ele><time>2026-05-03T09:55:01Z</time></trkpt><trkpt lat="45.0279798952225" lon="8.04272466976435"><ele>266.5</ele><time>2026-05-03T09:55:04Z</time></trkpt><trkpt lat="45.02792635595361" lon="8.042791193063806"><ele>264.6666666666667</ele><time>2026-05-03T09:55:07Z</time></trkpt><trkpt lat="45.027869327625666" lon="8.04285391702948"><ele>262.8333333333333</ele><time>2026-05-03T09:55:10Z</time></trkpt><trkpt lat="45.02782307708273" lon="8.04295982744265"><ele>261.0</ele><time>2026-05-03T09:55:13Z</time></trkpt><trkpt lat="45.027762735600945" lon="8.043030124980037"><ele>261.0</ele><time>2026-05-03T09:55:15Z</time></trkpt><trkpt lat="45.02770448607257" lon="8.043097065567883"><ele>261.0</ele><time>2026-05-03T09:55:17Z</time></trkpt><trkpt lat="45.027621437645465" lon="8.043198471648905"><ele>261.0</ele><time>2026-05-03T09:55:19Z</time></trkpt><trkpt lat="45.02751641734727" lon="8.043261864815616"><ele>261.0</ele><time>2026-05-03T09:55:21Z</time></trkpt><trkpt lat="45.027422884062524" lon="8.043296666169681"><ele>261.0</ele><time>2026-05-03T09:55:23Z</time></trkpt><trkpt lat="45.02734496837655" lon="8.043330454799936"><ele>261.3333333333333</ele><time>2026-05-03T09:55:25Z</time></trkpt><trkpt lat="45.027277389982615" lon="8.043346155588326"><ele>261.6666666666667</ele><time>2026-05-03T09:55:27Z</time></trkpt><trkpt lat="45.02720100675471" lon="8.043344990769006"><ele>262.0</ele><time>2026-05-03T09:55:29Z</time></trkpt><trkpt lat="45.02710468918356" lon="8.04331945631455"><ele>262.33333333333337</ele><time>2026-05-03T09:55:31Z</time></trkpt><trkpt lat="45.027014866877096" lon="8.043313665185062"><ele>262.6666666666667</ele><time>2026-05-03T09:55:33Z</time></trkpt><trkpt lat="45.026941735361326" lon="8.04328546321361"><ele>263.0</ele><time>2026-05-03T09:55:35Z</time></trkpt><trkpt lat="45.02683789503713" lon="8.043272604198746"><ele>263.83333333333337</ele><time>2026-05-03T09:55:37.999Z</time></trkpt><trkpt lat="45.026742686725456" lon="8.043234866676677"><ele>264.6666666666667</ele><time>2026-05-03T09:55:39.999Z</time></trkpt><trkpt lat="45.026664123798994" lon="8.043210048536476"><ele>265.5</ele><time>2026-05-03T09:55:41.999Z</time></trkpt><trkpt lat="45.02658662236812" lon="8.043215222154643"><ele>266.3333333333333</ele><time>2026-05-03T09:55:43.999Z</time></trkpt><trkpt lat="45.02652828475929" lon="8.043253293632494"><ele>267.16666666666663</ele><time>2026-05-03T09:55:45.999Z</time></trkpt><trkpt lat="45.02645924289496" lon="8.043271525224947"><ele>268.0</ele><time>2026-05-03T09:55:47.999Z</time></trkpt><trkpt lat="45.026381352904096" lon="8.043249385937557"><ele>269.8</ele><time>2026-05-03T09:55:49.999Z</time></trkpt><trkpt lat="45.026323323116614" lon="8.043213557393042"><ele>271.6</ele><time>2026-05-03T09:55:51.999Z</time></trkpt><trkpt lat="45.026219413686476" lon="8.043176894942466"><ele>273.4</ele><time>2026-05-03T09:55:54.999Z</time></trkpt><trkpt lat="45.02613908832921" lon="8.043294514195777"><ele>275.2</ele><time>2026-05-03T09:55:56.999Z</time></trkpt><trkpt lat="45.026054906482656" lon="8.043408188989222"><ele>277.0</ele><time>2026-05-03T09:55:58.999Z</time></trkpt><trkpt lat="45.02600068879783" lon="8.043473155594542"><ele>277.0</ele><time>2026-05-03T09:56:01.999Z</time></trkpt><trkpt lat="45.02592753201877" lon="8.043536307842784"><ele>277.0</ele><time>2026-05-03T09:56:03.999Z</time></trkpt><trkpt lat="45.02585528940549" lon="8.043588524380736"><ele>277.0</ele><time>2026-05-03T09:56:05.999Z</time></trkpt><trkpt lat="45.02575822775977" lon="8.043630695378408"><ele>277.0</ele><time>2026-05-03T09:56:07.999Z</time></trkpt><trkpt lat="45.025684654778054" lon="8.043659866661743"><ele>277.0</ele><time>2026-05-03T09:56:09.999Z</time></trkpt><trkpt lat="45.02560281971237" lon="8.043628506343806"><ele>277.0</ele><time>2026-05-03T09:56:11.999Z</time></trkpt><trkpt lat="45.02553102248451" lon="8.043564653758775"><ele>276.16666666666663</ele><time>2026-05-03T09:56:14.999Z</time></trkpt><trkpt lat="45.02548044781884" lon="8.04349976705121"><ele>275.3333333333333</ele><time>2026-05-03T09:56:16.999Z</time></trkpt><trkpt lat="45.025426798772976" lon="8.043424582687209"><ele>274.5</ele><time>2026-05-03T09:56:18.999Z</time></trkpt><trkpt lat="45.02533865925657" lon="8.043420984384493"><ele>273.6666666666667</ele><time>2026-05-03T09:56:21.999Z</time></trkpt><trkpt lat="45.02524164496922" lon="8.043307136738433"><ele>272.83333333333337</ele><time>2026-05-03T09:56:23.999Z</time></trkpt><trkpt lat="45.025164002609685" lon="8.043258375195018"><ele>272.0</ele><time>2026-05-03T09:56:25.999Z</time></trkpt><trkpt lat="45.025118914431374" lon="8.04318959970419"><ele>271.99999999999994</ele><time>2026-05-03T09:56:27.999Z</time></trkpt><trkpt lat="45.02506230861624" lon="8.043144556850834"><ele>272.0</ele><time>2026-05-03T09:56:29.999Z</time></trkpt><trkpt lat="45.025006587082856" lon="8.043080192872104"><ele>272.0</ele><time>2026-05-03T09:56:34Z</time></trkpt><trkpt lat="45.02494975503721" lon="8.043038922697386"><ele>272.0</ele><time>2026-05-03T09:56:40Z</time></trkpt><trkpt lat="45.024934120362126" lon="8.042951499379377"><ele>272.0</ele><time>2026-05-03T09:57:02Z</time></trkpt><trkpt lat="45.02486083173027" lon="8.0429630008139"><ele>271.99999999999994</ele><time>2026-05-03T09:57:33Z</time></trkpt><trkpt lat="45.024796185814644" lon="8.042995757985683"><ele>272.0</ele><time>2026-05-03T09:57:38Z</time></trkpt><trkpt lat="45.024726840284636" lon="8.043016503657753"><ele>272.57142857142856</ele><time>2026-05-03T09:57:42Z</time></trkpt><trkpt lat="45.02466087169825" lon="8.043034798024026"><ele>273.1428571428571</ele><time>2026-05-03T09:57:45.999Z</time></trkpt><trkpt lat="45.0245929961648" lon="8.043041398387786"><ele>273.7142857142857</ele><time>2026-05-03T09:57:49.999Z</time></trkpt><trkpt lat="45.024525843525495" lon="8.043028804643862"><ele>274.2857142857143</ele><time>2026-05-03T09:57:52.999Z</time></trkpt><trkpt lat="45.02446169073192" lon="8.04304099501559"><ele>274.8571428571429</ele><time>2026-05-03T09:57:56.999Z</time></trkpt><trkpt lat="45.0243883485012" lon="8.043044766286947"><ele>275.42857142857144</ele><time>2026-05-03T09:58:01.999Z</time></trkpt><trkpt lat="45.02431945714531" lon="8.04298889576196"><ele>276.0</ele><time>2026-05-03T09:58:06.999Z</time></trkpt><trkpt lat="45.02430598103006" lon="8.042894634409006"><ele>276.0</ele><time>2026-05-03T09:58:09.999Z</time></trkpt><trkpt lat="45.02428345309369" lon="8.04279768041114"><ele>276.0</ele><time>2026-05-03T09:58:13.999Z</time></trkpt><trkpt lat="45.02425898157206" lon="8.042714050681681"><ele>276.0</ele><time>2026-05-03T09:58:17.999Z</time></trkpt><trkpt lat="45.02423663369292" lon="8.042623035684338"><ele>276.0</ele><time>2026-05-03T09:58:21.999Z</time></trkpt><trkpt lat="45.02423884009419" lon="8.042527238609171"><ele>276.0</ele><time>2026-05-03T09:58:25.999Z</time></trkpt><trkpt lat="45.024233465001345" lon="8.042421242269487"><ele>276.0</ele><time>2026-05-03T09:58:30.999Z</time></trkpt><trkpt lat="45.02422171466353" lon="8.04231831562143"><ele>276.0</ele><time>2026-05-03T09:58:34.999Z</time></trkpt><trkpt lat="45.024213875069066" lon="8.042222017667463"><ele>276.42857142857144</ele><time>2026-05-03T09:58:39Z</time></trkpt><trkpt lat="45.02419497861041" lon="8.042127515657114"><ele>276.8571428571429</ele><time>2026-05-03T09:58:43Z</time></trkpt><trkpt lat="45.02415690097782" lon="8.042048450033597"><ele>277.2857142857143</ele><time>2026-05-03T09:58:47Z</time></trkpt><trkpt lat="45.024096281729236" lon="8.04197205461865"><ele>277.7142857142857</ele><time>2026-05-03T09:58:51Z</time></trkpt><trkpt lat="45.02403228430478" lon="8.041938065838282"><ele>278.1428571428571</ele><time>2026-05-03T09:58:55Z</time></trkpt><trkpt lat="45.023969543910184" lon="8.04192717310092"><ele>278.57142857142856</ele><time>2026-05-03T09:58:59Z</time></trkpt><trkpt lat="45.023893694030434" lon="8.041898504377036"><ele>279.0</ele><time>2026-05-03T09:59:03Z</time></trkpt><trkpt lat="45.02382363128949" lon="8.041901352951912"><ele>278.99999999999994</ele><time>2026-05-03T09:59:07Z</time></trkpt><trkpt lat="45.02376365588986" lon="8.041934711281819"><ele>279.0</ele><time>2026-05-03T09:59:11Z</time></trkpt><trkpt lat="45.02368975456453" lon="8.041905669158087"><ele>279.0</ele><time>2026-05-03T09:59:15Z</time></trkpt><trkpt lat="45.023622941105934" lon="8.04188672174709"><ele>279.0</ele><time>2026-05-03T09:59:19Z</time></trkpt><trkpt lat="45.02355164739243" lon="8.041852520915908"><ele>279.0</ele><time>2026-05-03T09:59:23Z</time></trkpt><trkpt lat="45.02348990289743" lon="8.041788672647057"><ele>278.99999999999994</ele><time>2026-05-03T09:59:27Z</time></trkpt><trkpt lat="45.023461310437376" lon="8.041704668152281"><ele>279.0</ele><time>2026-05-03T09:59:31Z</time></trkpt><trkpt lat="45.023408122423135" lon="8.041632536698499"><ele>277.4285714285714</ele><time>2026-05-03T09:59:36Z</time></trkpt><trkpt lat="45.02335921418961" lon="8.041570460918122"><ele>275.85714285714283</ele><time>2026-05-03T09:59:44Z</time></trkpt><trkpt lat="45.02334500440355" lon="8.041471793492898"><ele>274.2857142857143</ele><time>2026-05-03T09:59:50Z</time></trkpt><trkpt lat="45.02333701931825" lon="8.04137899546151"><ele>272.71428571428567</ele><time>2026-05-03T09:59:53.999Z</time></trkpt><trkpt lat="45.02332392708804" lon="8.041287896677883"><ele>271.1428571428571</ele><time>2026-05-03T09:59:58.999Z</time></trkpt><trkpt lat="45.02328389597493" lon="8.041201812976308"><ele>269.57142857142856</ele><time>2026-05-03T10:00:02.999Z</time></trkpt><trkpt lat="45.02322573390784" lon="8.041158999611307"><ele>268.0</ele><time>2026-05-03T10:00:06.999Z</time></trkpt><trkpt lat="45.02315747576698" lon="8.041176604732073"><ele>266.57142857142856</ele><time>2026-05-03T10:00:10.999Z</time></trkpt><trkpt lat="45.02308974665314" lon="8.041197698676566"><ele>265.1428571428571</ele><time>2026-05-03T10:00:14.999Z</time></trkpt><trkpt lat="45.02302455864478" lon="8.041248655131785"><ele>263.71428571428567</ele><time>2026-05-03T10:00:19.999Z</time></trkpt><trkpt lat="45.022971294737026" lon="8.04132802442718"><ele>262.2857142857143</ele><time>2026-05-03T10:00:24.999Z</time></trkpt><trkpt lat="45.02292424077678" lon="8.04138887661777"><ele>260.85714285714283</ele><time>2026-05-03T10:00:28.999Z</time></trkpt><trkpt lat="45.02286574332814" lon="8.041447504528268"><ele>259.4285714285714</ele><time>2026-05-03T10:00:33.999Z</time></trkpt><trkpt lat="45.02280684797315" lon="8.041495724644719"><ele>258.0</ele><time>2026-05-03T10:00:39.999Z</time></trkpt><trkpt lat="45.02275152036417" lon="8.041545513069082"><ele>257.99999999999994</ele><time>2026-05-03T10:00:45Z</time></trkpt><trkpt lat="45.02270892157987" lon="8.04163044519994"><ele>258.0</ele><time>2026-05-03T10:00:51Z</time></trkpt><trkpt lat="45.022667831535564" lon="8.041718053770195"><ele>258.0</ele><time>2026-05-03T10:00:56Z</time></trkpt><trkpt lat="45.02260161285386" lon="8.041766518812553"><ele>258.0</ele><time>2026-05-03T10:01:01Z</time></trkpt><trkpt lat="45.02253769120813" lon="8.041816848202913"><ele>258.0</ele><time>2026-05-03T10:01:06Z</time></trkpt><trkpt lat="45.02247466568838" lon="8.04180817132829"><ele>257.99999999999994</ele><time>2026-05-03T10:01:10Z</time></trkpt><trkpt lat="45.02241121745133" lon="8.041797786727162"><ele>258.0</ele><time>2026-05-03T10:01:15Z</time></trkpt><trkpt lat="45.02234284254613" lon="8.041779921262421"><ele>257.1428571428571</ele><time>2026-05-03T10:01:20Z</time></trkpt><trkpt lat="45.02228269154791" lon="8.041717421204261"><ele>256.2857142857143</ele><time>2026-05-03T10:01:26Z</time></trkpt><trkpt lat="45.02223812292871" lon="8.041636321903034"><ele>255.42857142857142</ele><time>2026-05-03T10:01:32Z</time></trkpt><trkpt lat="45.02219340173755" lon="8.041572768774753"><ele>254.57142857142856</ele><time>2026-05-03T10:01:37Z</time></trkpt><trkpt lat="45.022146756963224" lon="8.041507263750386"><ele>253.71428571428572</ele><time>2026-05-03T10:01:46Z</time></trkpt><trkpt lat="45.022127041412695" lon="8.041415452794165"><ele>252.85714285714286</ele><time>2026-05-03T10:01:52Z</time></trkpt><trkpt lat="45.02206515261438" lon="8.041349055953066"><ele>252.0</ele><time>2026-05-03T10:01:57.999Z</time></trkpt><trkpt lat="45.02203376830656" lon="8.041267821709647"><ele>252.0</ele><time>2026-05-03T10:02:02.999Z</time></trkpt><trkpt lat="45.022019166869924" lon="8.041180176524247"><ele>252.0</ele><time>2026-05-03T10:02:06.999Z</time></trkpt><trkpt lat="45.02199466433679" lon="8.041090198804547"><ele>252.0</ele><time>2026-05-03T10:02:10.999Z</time></trkpt><trkpt lat="45.02196047278799" lon="8.04099989372109"><ele>252.0</ele><time>2026-05-03T10:02:15.999Z</time></trkpt><trkpt lat="45.0219349728755" lon="8.04090204258037"><ele>252.0</ele><time>2026-05-03T10:02:34.999Z</time></trkpt><trkpt lat="45.02187598206168" lon="8.040838996853314"><ele>252.0</ele><time>2026-05-03T10:02:40.999Z</time></trkpt><trkpt lat="45.02181469152638" lon="8.040778630008202"><ele>252.0</ele><time>2026-05-03T10:02:45.999Z</time></trkpt><trkpt lat="45.021751309642696" lon="8.040785111369093"><ele>252.0</ele><time>2026-05-03T10:02:53Z</time></trkpt><trkpt lat="45.02167591573924" lon="8.040815514682626"><ele>252.0</ele><time>2026-05-03T10:02:59Z</time></trkpt><trkpt lat="45.021630210533154" lon="8.040887747433016"><ele>252.0</ele><time>2026-05-03T10:03:04Z</time></trkpt><trkpt lat="45.021620313198305" lon="8.041000072327902"><ele>252.0</ele><time>2026-05-03T10:03:20Z</time></trkpt><trkpt lat="45.02158860448121" lon="8.041101475424343"><ele>252.0</ele><time>2026-05-03T10:03:25Z</time></trkpt><trkpt lat="45.02156525467182" lon="8.041187208383597"><ele>252.0</ele><time>2026-05-03T10:03:27Z</time></trkpt><trkpt lat="45.02152970943559" lon="8.041277404088808"><ele>252.0</ele><time>2026-05-03T10:03:32Z</time></trkpt><trkpt lat="45.02147855976062" lon="8.041345694801631"><ele>253.57142857142856</ele><time>2026-05-03T10:03:36Z</time></trkpt><trkpt lat="45.021423931310835" lon="8.041403969272604"><ele>255.14285714285714</ele><time>2026-05-03T10:03:41Z</time></trkpt><trkpt lat="45.02140201668982" lon="8.04149263190385"><ele>256.7142857142857</ele><time>2026-05-03T10:03:45Z</time></trkpt><trkpt lat="45.02134347006732" lon="8.041547092438131"><ele>258.2857142857143</ele><time>2026-05-03T10:03:51Z</time></trkpt><trkpt lat="45.02128307470987" lon="8.041616503401581"><ele>259.85714285714283</ele><time>2026-05-03T10:03:56Z</time></trkpt><trkpt lat="45.021215651925395" lon="8.041625638375253"><ele>261.42857142857144</ele><time>2026-05-03T10:04:01Z</time></trkpt><trkpt lat="45.02115034117138" lon="8.041593162766432"><ele>263.0</ele><time>2026-05-03T10:04:04.999Z</time></trkpt><trkpt lat="45.02108412502098" lon="8.041579519559633"><ele>263.0</ele><time>2026-05-03T10:04:08.999Z</time></trkpt><trkpt lat="45.021014891592834" lon="8.041584962645778"><ele>263.0</ele><time>2026-05-03T10:04:13.999Z</time></trkpt><trkpt lat="45.020959576481296" lon="8.041650519032931"><ele>263.0</ele><time>2026-05-03T10:04:18.999Z</time></trkpt><trkpt lat="45.02090144864366" lon="8.041715119928979"><ele>263.0</ele><time>2026-05-03T10:04:23.999Z</time></trkpt><trkpt lat="45.02084107503544" lon="8.041772106524048"><ele>263.0</ele><time>2026-05-03T10:04:28.999Z</time></trkpt><trkpt lat="45.02077846186787" lon="8.04181003076505"><ele>263.0</ele><time>2026-05-03T10:04:33.999Z</time></trkpt><trkpt lat="45.020711690226996" lon="8.04183778438356"><ele>263.0</ele><time>2026-05-03T10:04:38.999Z</time></trkpt><trkpt lat="45.020635525014015" lon="8.041840540062886"><ele>260.57142857142856</ele><time>2026-05-03T10:04:43.999Z</time></trkpt><trkpt lat="45.0205595028826" lon="8.041828702801295"><ele>258.1428571428571</ele><time>2026-05-03T10:04:48.999Z</time></trkpt><trkpt lat="45.02048430643324" lon="8.041838103320755"><ele>255.71428571428572</ele><time>2026-05-03T10:04:53.999Z</time></trkpt><trkpt lat="45.02041995024909" lon="8.041847039034028"><ele>253.28571428571428</ele><time>2026-05-03T10:04:59Z</time></trkpt><trkpt lat="45.02034888267325" lon="8.041857184106739"><ele>250.85714285714286</ele><time>2026-05-03T10:05:04Z</time></trkpt><trkpt lat="45.02028643005958" lon="8.04192210680462"><ele>248.42857142857144</ele><time>2026-05-03T10:05:09Z</time></trkpt><trkpt lat="45.020229196176146" lon="8.041965563920868"><ele>246.00000000000003</ele><time>2026-05-03T10:05:13Z</time></trkpt><trkpt lat="45.020157347937186" lon="8.041970377170168"><ele>246.0</ele><time>2026-05-03T10:05:17Z</time></trkpt><trkpt lat="45.0200855011205" lon="8.041970439858014"><ele>246.0</ele><time>2026-05-03T10:05:21Z</time></trkpt><trkpt lat="45.02000807357186" lon="8.04196901285039"><ele>246.0</ele><time>2026-05-03T10:05:25Z</time></trkpt><trkpt lat="45.01993703225179" lon="8.041956541300564"><ele>246.0</ele><time>2026-05-03T10:05:28Z</time></trkpt><trkpt lat="45.01985099020648" lon="8.04195386807087"><ele>246.0</ele><time>2026-05-03T10:05:32Z</time></trkpt><trkpt lat="45.019766760973724" lon="8.041915034176439"><ele>246.0</ele><time>2026-05-03T10:05:34Z</time></trkpt><trkpt lat="45.019690048699026" lon="8.041899501333775"><ele>245.16666666666666</ele><time>2026-05-03T10:05:37Z</time></trkpt><trkpt lat="45.01960975097654" lon="8.041910533077928"><ele>244.33333333333331</ele><time>2026-05-03T10:05:39Z</time></trkpt><trkpt lat="45.01954030286916" lon="8.041895619807736"><ele>243.5</ele><time>2026-05-03T10:05:41Z</time></trkpt><trkpt lat="45.01947384331706" lon="8.041859979847183"><ele>242.66666666666666</ele><time>2026-05-03T10:05:43Z</time></trkpt><trkpt lat="45.01940373327659" lon="8.041863072663718"><ele>241.83333333333331</ele><time>2026-05-03T10:05:45Z</time></trkpt><trkpt lat="45.019289068983234" lon="8.041861444717055"><ele>241.0</ele><time>2026-05-03T10:05:48Z</time></trkpt><trkpt lat="45.019184274536485" lon="8.041835451406307"><ele>240.4</ele><time>2026-05-03T10:05:50Z</time></trkpt><trkpt lat="45.019080312146166" lon="8.041852003682846"><ele>239.8</ele><time>2026-05-03T10:05:52Z</time></trkpt><trkpt lat="45.019002161877864" lon="8.041851922370197"><ele>239.20000000000002</ele><time>2026-05-03T10:05:53Z</time></trkpt><trkpt lat="45.01891400663829" lon="8.041887298225715"><ele>238.60000000000002</ele><time>2026-05-03T10:05:55Z</time></trkpt><trkpt lat="45.01882702893095" lon="8.041910334806204"><ele>238.0</ele><time>2026-05-03T10:05:57Z</time></trkpt><trkpt lat="45.018717369903186" lon="8.041856498924602"><ele>237.99999999999997</ele><time>2026-05-03T10:05:59Z</time></trkpt><trkpt lat="45.018628089441776" lon="8.041853147046798"><ele>238.0</ele><time>2026-05-03T10:06:01Z</time></trkpt><trkpt lat="45.01855165610145" lon="8.041844322352647"><ele>238.0</ele><time>2026-05-03T10:06:02.999Z</time></trkpt><trkpt lat="45.018463206678376" lon="8.041843357648894"><ele>238.0</ele><time>2026-05-03T10:06:04.999Z</time></trkpt><trkpt lat="45.0183886532908" lon="8.041818108247085"><ele>237.99999999999997</ele><time>2026-05-03T10:06:06.999Z</time></trkpt><trkpt lat="45.0182970730389" lon="8.04179937650743"><ele>238.0</ele><time>2026-05-03T10:06:09.999Z</time></trkpt><trkpt lat="45.018229013000635" lon="8.04175761858704"><ele>240.33333333333331</ele><time>2026-05-03T10:06:12.999Z</time></trkpt><trkpt lat="45.01815217433219" lon="8.041747536962408"><ele>242.66666666666666</ele><time>2026-05-03T10:06:16.999Z</time></trkpt><trkpt lat="45.018118800705764" lon="8.04184947719933"><ele>245.0</ele><time>2026-05-03T10:06:21.999Z</time></trkpt><trkpt lat="45.01813903329632" lon="8.041976866630584"><ele>247.33333333333331</ele><time>2026-05-03T10:06:25.999Z</time></trkpt><trkpt lat="45.018145101994804" lon="8.042078594326906"><ele>249.66666666666666</ele><time>2026-05-03T10:06:43.999Z</time></trkpt><trkpt lat="45.0181027152334" lon="8.042160150207048"><ele>252.0</ele><time>2026-05-03T10:06:46.999Z</time></trkpt><trkpt lat="45.01807799907141" lon="8.042245699261366"><ele>252.0</ele><time>2026-05-03T10:06:51.999Z</time></trkpt><trkpt lat="45.01804067431627" lon="8.042323125700225"><ele>252.0</ele><time>2026-05-03T10:06:54.999Z</time></trkpt><trkpt lat="45.01799940332124" lon="8.042412816259878"><ele>252.0</ele><time>2026-05-03T10:06:55.999Z</time></trkpt><trkpt lat="45.01796429632252" lon="8.042490698813891"><ele>252.0</ele><time>2026-05-03T10:06:56.999Z</time></trkpt><trkpt lat="45.01793061733387" lon="8.042571245650299"><ele>252.0</ele><time>2026-05-03T10:06:57.999Z</time></trkpt><trkpt lat="45.01789198541388" lon="8.0426833770123"><ele>252.0</ele><time>2026-05-03T10:06:59.999Z</time></trkpt><trkpt lat="45.017856131007925" lon="8.04276108740202"><ele>252.0</ele><time>2026-05-03T10:07:00.999Z</time></trkpt><trkpt lat="45.017787191310184" lon="8.042897681053079"><ele>253.0</ele><time>2026-05-03T10:07:03Z</time></trkpt><trkpt lat="45.01775439669622" lon="8.04297589126049"><ele>254.0</ele><time>2026-05-03T10:07:04Z</time></trkpt><trkpt lat="45.01774286142624" lon="8.043065508925592"><ele>255.0</ele><time>2026-05-03T10:07:05Z</time></trkpt><trkpt lat="45.01770654905833" lon="8.043221157929104"><ele>256.0</ele><time>2026-05-03T10:07:07Z</time></trkpt><trkpt lat="45.01767174756466" lon="8.043337174319491"><ele>257.0</ele><time>2026-05-03T10:07:09Z</time></trkpt><trkpt lat="45.01767103345362" lon="8.043431374929995"><ele>258.0</ele><time>2026-05-03T10:07:11Z</time></trkpt><trkpt lat="45.01764157698915" lon="8.043522351463542"><ele>258.0</ele><time>2026-05-03T10:07:12Z</time></trkpt><trkpt lat="45.01765352373464" lon="8.043624378535604"><ele>258.0</ele><time>2026-05-03T10:07:13Z</time></trkpt><trkpt lat="45.017611629311936" lon="8.04370857247738"><ele>258.0</ele><time>2026-05-03T10:07:15Z</time></trkpt><trkpt lat="45.01759812648738" lon="8.043811622660659"><ele>258.0</ele><time>2026-05-03T10:07:17Z</time></trkpt><trkpt lat="45.017584819776665" lon="8.0439644209387"><ele>258.0</ele><time>2026-05-03T10:07:19Z</time></trkpt><trkpt lat="45.0175544092378" lon="8.044084029346566"><ele>258.0</ele><time>2026-05-03T10:07:21Z</time></trkpt><trkpt lat="45.01754039421284" lon="8.044171321216583"><ele>257.3333333333333</ele><time>2026-05-03T10:07:22Z</time></trkpt><trkpt lat="45.01751532936535" lon="8.044357715941238"><ele>256.6666666666667</ele><time>2026-05-03T10:07:24Z</time></trkpt><trkpt lat="45.01753405348316" lon="8.044492695669405"><ele>256.0</ele><time>2026-05-03T10:07:26Z</time></trkpt><trkpt lat="45.01757643290356" lon="8.04458993333808"><ele>255.33333333333334</ele><time>2026-05-03T10:07:28Z</time></trkpt><trkpt lat="45.017579854530474" lon="8.044686842563513"><ele>254.66666666666669</ele><time>2026-05-03T10:07:29Z</time></trkpt><trkpt lat="45.01762968657854" lon="8.04475117194536"><ele>254.0</ele><time>2026-05-03T10:07:30Z</time></trkpt><trkpt lat="45.01766746389603" lon="8.044840865776708"><ele>254.0</ele><time>2026-05-03T10:07:31Z</time></trkpt><trkpt lat="45.01774059534015" lon="8.044943771634514"><ele>253.99999999999997</ele><time>2026-05-03T10:07:33Z</time></trkpt><trkpt lat="45.01783006489343" lon="8.044974969055389"><ele>253.99999999999997</ele><time>2026-05-03T10:07:35Z</time></trkpt><trkpt lat="45.01786146513964" lon="8.045054398383266"><ele>254.0</ele><time>2026-05-03T10:07:36Z</time></trkpt><trkpt lat="45.017953563532096" lon="8.0451680366417"><ele>254.0</ele><time>2026-05-03T10:07:38Z</time></trkpt><trkpt lat="45.01798162564547" lon="8.04532385029105"><ele>253.79999999999998</ele><time>2026-05-03T10:07:40Z</time></trkpt><trkpt lat="45.01796082087682" lon="8.045472765916372"><ele>253.59999999999997</ele><time>2026-05-03T10:07:42Z</time></trkpt><trkpt lat="45.0178551058721" lon="8.045566706735164"><ele>253.4</ele><time>2026-05-03T10:07:44Z</time></trkpt><trkpt lat="45.01777640225072" lon="8.045572053189089"><ele>253.2</ele><time>2026-05-03T10:07:45Z</time></trkpt><trkpt lat="45.01767420077272" lon="8.04554585390363"><ele>253.0</ele><time>2026-05-03T10:07:47Z</time></trkpt><trkpt lat="45.017573093368014" lon="8.045543421141387"><ele>252.99999999999997</ele><time>2026-05-03T10:07:49Z</time></trkpt><trkpt lat="45.01751302675458" lon="8.04560696255895"><ele>253.0</ele><time>2026-05-03T10:07:51Z</time></trkpt><trkpt lat="45.0174619156623" lon="8.045742141766425"><ele>253.0</ele><time>2026-05-03T10:07:54Z</time></trkpt><trkpt lat="45.0174341803519" lon="8.045849440518092"><ele>253.0</ele><time>2026-05-03T10:07:56Z</time></trkpt><trkpt lat="45.017408581470896" lon="8.045957721926953"><ele>252.99999999999997</ele><time>2026-05-03T10:07:58Z</time></trkpt><trkpt lat="45.01738980800132" lon="8.046078484276952"><ele>253.0</ele><time>2026-05-03T10:08:01Z</time></trkpt><trkpt lat="45.01737103534441" lon="8.046185962812833"><ele>255.49999999999997</ele><time>2026-05-03T10:08:04Z</time></trkpt><trkpt lat="45.01732773209671" lon="8.046260076789128"><ele>258.0</ele><time>2026-05-03T10:08:06Z</time></trkpt><trkpt lat="45.01727874220337" lon="8.046361819958998"><ele>260.5</ele><time>2026-05-03T10:08:09Z</time></trkpt><trkpt lat="45.017265675467" lon="8.046479594088035"><ele>263.0</ele><time>2026-05-03T10:08:11.999Z</time></trkpt><trkpt lat="45.01727041787979" lon="8.04659122388066"><ele>265.5</ele><time>2026-05-03T10:08:14.999Z</time></trkpt><trkpt lat="45.01728534588919" lon="8.046686778651237"><ele>268.0</ele><time>2026-05-03T10:08:16.999Z</time></trkpt><trkpt lat="45.01731264536396" lon="8.046801156880234"><ele>268.0</ele><time>2026-05-03T10:08:19.999Z</time></trkpt><trkpt lat="45.017323297361585" lon="8.046927380658271"><ele>268.0</ele><time>2026-05-03T10:08:22.999Z</time></trkpt><trkpt lat="45.01730041383672" lon="8.047044856484572"><ele>268.0</ele><time>2026-05-03T10:08:25.999Z</time></trkpt><trkpt lat="45.01727121658319" lon="8.04714204459244"><ele>268.0</ele><time>2026-05-03T10:08:28.999Z</time></trkpt><trkpt lat="45.01723741844427" lon="8.047230270991758"><ele>268.0</ele><time>2026-05-03T10:08:31.999Z</time></trkpt><trkpt lat="45.01719154054674" lon="8.047332133284261"><ele>268.0</ele><time>2026-05-03T10:08:34.999Z</time></trkpt><trkpt lat="45.017136732677166" lon="8.047414473759053"><ele>267.14285714285717</ele><time>2026-05-03T10:08:37.999Z</time></trkpt><trkpt lat="45.01707819610011" lon="8.047479630239355"><ele>266.2857142857143</ele><time>2026-05-03T10:08:40.999Z</time></trkpt><trkpt lat="45.017014047608036" lon="8.04754339040189"><ele>265.42857142857144</ele><time>2026-05-03T10:08:44.999Z</time></trkpt><trkpt lat="45.01696248420897" lon="8.047594769306956"><ele>264.57142857142856</ele><time>2026-05-03T10:08:47.999Z</time></trkpt><trkpt lat="45.01691471011573" lon="8.04766397985148"><ele>263.7142857142857</ele><time>2026-05-03T10:08:51.999Z</time></trkpt><trkpt lat="45.01686433724786" lon="8.047731923379905"><ele>262.8571428571429</ele><time>2026-05-03T10:08:55.999Z</time></trkpt><trkpt lat="45.01681992794529" lon="8.047813512915216"><ele>262.0</ele><time>2026-05-03T10:08:59.999Z</time></trkpt><trkpt lat="45.01679481832877" lon="8.047916357527832"><ele>262.0</ele><time>2026-05-03T10:09:04.999Z</time></trkpt><trkpt lat="45.0168187610041" lon="8.04781943925332"><ele>262.0</ele><time>2026-05-03T10:09:28Z</time></trkpt><trkpt lat="45.016859521710934" lon="8.047739675320882"><ele>262.0</ele><time>2026-05-03T10:09:32Z</time></trkpt><trkpt lat="45.01691403621764" lon="8.047660021852906"><ele>262.0</ele><time>2026-05-03T10:09:36Z</time></trkpt><trkpt lat="45.016975063962526" lon="8.047592625129207"><ele>262.0</ele><time>2026-05-03T10:09:39Z</time></trkpt><trkpt lat="45.01703384385276" lon="8.047529814048696"><ele>262.0</ele><time>2026-05-03T10:09:43Z</time></trkpt><trkpt lat="45.017086785734946" lon="8.04747455001232"><ele>262.0</ele><time>2026-05-03T10:09:47Z</time></trkpt><trkpt lat="45.017140186513814" lon="8.047405494993919"><ele>262.8571428571429</ele><time>2026-05-03T10:09:52Z</time></trkpt><trkpt lat="45.017190492956004" lon="8.047351267555666"><ele>263.7142857142857</ele><time>2026-05-03T10:09:57Z</time></trkpt><trkpt lat="45.01723923018591" lon="8.047267603574932"><ele>264.57142857142856</ele><time>2026-05-03T10:10:02Z</time></trkpt><trkpt lat="45.017276199019605" lon="8.047193576222105"><ele>265.42857142857144</ele><time>2026-05-03T10:10:06Z</time></trkpt><trkpt lat="45.017302197333414" lon="8.04710701297452"><ele>266.2857142857143</ele><time>2026-05-03T10:10:10Z</time></trkpt><trkpt lat="45.01731217360973" lon="8.046999359268215"><ele>267.14285714285717</ele><time>2026-05-03T10:10:15Z</time></trkpt><trkpt lat="45.01730139112001" lon="8.04691037262477"><ele>268.0</ele><time>2026-05-03T10:10:19Z</time></trkpt><trkpt lat="45.01727124791805" lon="8.046826493286583"><ele>268.0</ele><time>2026-05-03T10:10:22.999Z</time></trkpt><trkpt lat="45.017249550534764" lon="8.046742292848343"><ele>268.0</ele><time>2026-05-03T10:10:26.999Z</time></trkpt><trkpt lat="45.01724341272173" lon="8.046652127038003"><ele>268.0</ele><time>2026-05-03T10:10:30.999Z</time></trkpt><trkpt lat="45.01723967953246" lon="8.04655583798622"><ele>268.0</ele><time>2026-05-03T10:10:34.999Z</time></trkpt><trkpt lat="45.01724023779262" lon="8.046459475058395"><ele>268.0</ele><time>2026-05-03T10:10:38.999Z</time></trkpt><trkpt lat="45.01727020373099" lon="8.046371431225134"><ele>268.0</ele><time>2026-05-03T10:10:42.999Z</time></trkpt><trkpt lat="45.01730836640548" lon="8.046291891485762"><ele>268.0</ele><time>2026-05-03T10:10:46.999Z</time></trkpt><trkpt lat="45.01734353802225" lon="8.046212687502916"><ele>267.8571428571429</ele><time>2026-05-03T10:10:50.999Z</time></trkpt><trkpt lat="45.01736445662464" lon="8.046114378441692"><ele>267.7142857142857</ele><time>2026-05-03T10:10:54.999Z</time></trkpt><trkpt lat="45.017380391347345" lon="8.04602429785261"><ele>267.57142857142856</ele><time>2026-05-03T10:10:58.999Z</time></trkpt><trkpt lat="45.01738748145501" lon="8.045931365622945"><ele>267.42857142857144</ele><time>2026-05-03T10:11:02.999Z</time></trkpt><trkpt lat="45.01740413045818" lon="8.045832897375385"><ele>267.2857142857143</ele><time>2026-05-03T10:11:06.999Z</time></trkpt><trkpt lat="45.01742374412101" lon="8.045744234443097"><ele>267.14285714285717</ele><time>2026-05-03T10:11:10.999Z</time></trkpt><trkpt lat="45.01744707780093" lon="8.045646202403038"><ele>267.0</ele><time>2026-05-03T10:11:15Z</time></trkpt><trkpt lat="45.017485405418064" lon="8.045562230939387"><ele>265.00000000000006</ele><time>2026-05-03T10:11:19Z</time></trkpt><trkpt lat="45.01754271989151" lon="8.045516598061324"><ele>263.0</ele><time>2026-05-03T10:11:23Z</time></trkpt><trkpt lat="45.01760576632804" lon="8.045494581361115"><ele>261.0</ele><time>2026-05-03T10:11:27Z</time></trkpt><trkpt lat="45.017678662998904" lon="8.045521748696611"><ele>259.0</ele><time>2026-05-03T10:11:31Z</time></trkpt><trkpt lat="45.01774186666611" lon="8.045546728279925"><ele>257.0</ele><time>2026-05-03T10:11:35Z</time></trkpt><trkpt lat="45.01781258187323" lon="8.045566499463483"><ele>255.00000000000003</ele><time>2026-05-03T10:11:39Z</time></trkpt><trkpt lat="45.01788137489876" lon="8.04556808612112"><ele>253.00000000000003</ele><time>2026-05-03T10:11:43Z</time></trkpt><trkpt lat="45.01793617143538" lon="8.04550054963915"><ele>253.00000000000003</ele><time>2026-05-03T10:11:47Z</time></trkpt><trkpt lat="45.01798682733334" lon="8.045443023812565"><ele>253.0</ele><time>2026-05-03T10:11:51Z</time></trkpt><trkpt lat="45.01804212049595" lon="8.045398108219777"><ele>253.00000000000003</ele><time>2026-05-03T10:11:55Z</time></trkpt><trkpt lat="45.018107758037" lon="8.04544579679188"><ele>253.00000000000003</ele><time>2026-05-03T10:11:59Z</time></trkpt><trkpt lat="45.01816488603565" lon="8.045531167075042"><ele>253.0</ele><time>2026-05-03T10:12:03Z</time></trkpt><trkpt lat="45.01815104833163" lon="8.045646145186062"><ele>253.00000000000003</ele><time>2026-05-03T10:12:06Z</time></trkpt><trkpt lat="45.018133899372486" lon="8.045740747870612"><ele>253.00000000000003</ele><time>2026-05-03T10:12:24.999Z</time></trkpt><trkpt lat="45.01813867436617" lon="8.045836811597265"><ele>254.5714285714286</ele><time>2026-05-03T10:12:32.999Z</time></trkpt><trkpt lat="45.018099660736645" lon="8.045931256294299"><ele>256.14285714285717</ele><time>2026-05-03T10:12:37.999Z</time></trkpt><trkpt lat="45.01807354744298" lon="8.046021323210448"><ele>257.7142857142857</ele><time>2026-05-03T10:12:41.999Z</time></trkpt><trkpt lat="45.01802981479779" lon="8.046116981470844"><ele>259.28571428571433</ele><time>2026-05-03T10:12:46.999Z</time></trkpt><trkpt lat="45.01798340670062" lon="8.046181546756502"><ele>260.8571428571429</ele><time>2026-05-03T10:12:51.999Z</time></trkpt><trkpt lat="45.017954446235684" lon="8.046271530017647"><ele>262.42857142857144</ele><time>2026-05-03T10:12:55.999Z</time></trkpt><trkpt lat="45.01793388883115" lon="8.046365771217154"><ele>264.0</ele><time>2026-05-03T10:12:59.999Z</time></trkpt><trkpt lat="45.01790857194052" lon="8.046457929231186"><ele>264.0</ele><time>2026-05-03T10:13:03.999Z</time></trkpt><trkpt lat="45.0178394179348" lon="8.046500829764117"><ele>264.0</ele><time>2026-05-03T10:13:07.999Z</time></trkpt><trkpt lat="45.01778053140515" lon="8.046550830956"><ele>264.0</ele><time>2026-05-03T10:13:13.999Z</time></trkpt><trkpt lat="45.01778403783353" lon="8.046646002062149"><ele>264.0</ele><time>2026-05-03T10:13:16.999Z</time></trkpt><trkpt lat="45.017796290444814" lon="8.046756500680852"><ele>264.0</ele><time>2026-05-03T10:13:21Z</time></trkpt><trkpt lat="45.01782552909061" lon="8.046869261632716"><ele>264.0</ele><time>2026-05-03T10:13:25Z</time></trkpt><trkpt lat="45.01783853976766" lon="8.04696427196443"><ele>264.0</ele><time>2026-05-03T10:13:30Z</time></trkpt><trkpt lat="45.017857449338926" lon="8.047052655356953"><ele>264.0</ele><time>2026-05-03T10:13:34Z</time></trkpt><trkpt lat="45.01787027229728" lon="8.047164588422124"><ele>264.0</ele><time>2026-05-03T10:13:39Z</time></trkpt><trkpt lat="45.017857038785095" lon="8.04726041018019"><ele>264.0</ele><time>2026-05-03T10:13:43Z</time></trkpt><trkpt lat="45.01784075956633" lon="8.047357702881696"><ele>264.0</ele><time>2026-05-03T10:13:47Z</time></trkpt><trkpt lat="45.017835939121696" lon="8.047454576620812"><ele>264.0</ele><time>2026-05-03T10:13:53Z</time></trkpt><trkpt lat="45.017862276332124" lon="8.047340368807856"><ele>264.0</ele><time>2026-05-03T10:14:10Z</time></trkpt><trkpt lat="45.017917694510096" lon="8.047400104639134"><ele>264.0</ele><time>2026-05-03T10:14:14Z</time></trkpt><trkpt lat="45.01794931001122" lon="8.047490839291795"><ele>264.0</ele><time>2026-05-03T10:14:19Z</time></trkpt><trkpt lat="45.01789761790918" lon="8.047439375718357"><ele>264.0</ele><time>2026-05-03T10:14:44.999Z</time></trkpt><trkpt lat="45.01785764487298" lon="8.047368010781481"><ele>264.0</ele><time>2026-05-03T10:14:49.999Z</time></trkpt><trkpt lat="45.01782363800979" lon="8.04746689589798"><ele>264.0</ele><time>2026-05-03T10:14:56.999Z</time></trkpt><trkpt lat="45.01781348301266" lon="8.047568848944298"><ele>264.0</ele><time>2026-05-03T10:15:01.999Z</time></trkpt><trkpt lat="45.01780455594695" lon="8.047660968512895"><ele>264.0</ele><time>2026-05-03T10:15:05.999Z</time></trkpt><trkpt lat="45.017791450184994" lon="8.047757105371067"><ele>264.0</ele><time>2026-05-03T10:15:11.999Z</time></trkpt><trkpt lat="45.01777244114665" lon="8.047854611860478"><ele>263.1428571428571</ele><time>2026-05-03T10:15:16.999Z</time></trkpt><trkpt lat="45.017757828972705" lon="8.047964872736104"><ele>262.2857142857143</ele><time>2026-05-03T10:15:21.999Z</time></trkpt><trkpt lat="45.017746243748014" lon="8.048071841143326"><ele>261.42857142857144</ele><time>2026-05-03T10:15:27Z</time></trkpt><trkpt lat="45.0177333316806" lon="8.048160770369387"><ele>260.57142857142856</ele><time>2026-05-03T10:15:31Z</time></trkpt><trkpt lat="45.0177088714657" lon="8.048245964275411"><ele>259.7142857142857</ele><time>2026-05-03T10:15:35Z</time></trkpt><trkpt lat="45.0176847125055" lon="8.04835453079868"><ele>258.85714285714283</ele><time>2026-05-03T10:15:40Z</time></trkpt><trkpt lat="45.017671386534374" lon="8.048443282370968"><ele>258.0</ele><time>2026-05-03T10:15:44Z</time></trkpt><trkpt lat="45.01764520489739" lon="8.048528543279756"><ele>256.99999999999994</ele><time>2026-05-03T10:15:48Z</time></trkpt><trkpt lat="45.01762760400302" lon="8.048628366516919"><ele>256.0</ele><time>2026-05-03T10:15:52Z</time></trkpt><trkpt lat="45.017620404980946" lon="8.048720826526612"><ele>254.99999999999997</ele><time>2026-05-03T10:15:56Z</time></trkpt><trkpt lat="45.01761242143164" lon="8.048815196629807"><ele>253.99999999999997</ele><time>2026-05-03T10:16:00Z</time></trkpt><trkpt lat="45.017606229887555" lon="8.048904173878876"><ele>253.0</ele><time>2026-05-03T10:16:04Z</time></trkpt><trkpt lat="45.01758908491442" lon="8.049011710021846"><ele>251.99999999999997</ele><time>2026-05-03T10:16:09Z</time></trkpt><trkpt lat="45.01758588298492" lon="8.049106663559263"><ele>250.99999999999997</ele><time>2026-05-03T10:16:13Z</time></trkpt><trkpt lat="45.017581503100246" lon="8.049206268737562"><ele>250.1428571428571</ele><time>2026-05-03T10:16:17Z</time></trkpt><trkpt lat="45.017574680242014" lon="8.049296844089854"><ele>249.28571428571428</ele><time>2026-05-03T10:16:21Z</time></trkpt><trkpt lat="45.01756912901458" lon="8.049390362448182"><ele>248.42857142857142</ele><time>2026-05-03T10:16:25Z</time></trkpt><trkpt lat="45.01756659698864" lon="8.049485299255906"><ele>247.57142857142856</ele><time>2026-05-03T10:16:29Z</time></trkpt><trkpt lat="45.01755773517493" lon="8.049576685335586"><ele>246.71428571428572</ele><time>2026-05-03T10:16:33Z</time></trkpt><trkpt lat="45.017544867794264" lon="8.049664315335239"><ele>245.85714285714286</ele><time>2026-05-03T10:16:36Z</time></trkpt><trkpt lat="45.01755306160267" lon="8.049756096340333"><ele>245.0</ele><time>2026-05-03T10:16:40Z</time></trkpt><trkpt lat="45.01754556997664" lon="8.049849398794024"><ele>245.0</ele><time>2026-05-03T10:16:44Z</time></trkpt><trkpt lat="45.01753281659621" lon="8.049952487608367"><ele>245.0</ele><time>2026-05-03T10:16:48Z</time></trkpt><trkpt lat="45.01752776111982" lon="8.05004961968131"><ele>245.0</ele><time>2026-05-03T10:16:51.999Z</time></trkpt><trkpt lat="45.01752134998279" lon="8.050140593021249"><ele>245.0</ele><time>2026-05-03T10:16:55.999Z</time></trkpt><trkpt lat="45.017510541419284" lon="8.050228939629507"><ele>245.0</ele><time>2026-05-03T10:16:59.999Z</time></trkpt><trkpt lat="45.017489510776265" lon="8.050335012320174"><ele>245.0</ele><time>2026-05-03T10:17:04.999Z</time></trkpt><trkpt lat="45.01749833757057" lon="8.050444941754558"><ele>245.0</ele><time>2026-05-03T10:17:08.999Z</time></trkpt><trkpt lat="45.01749966283397" lon="8.050549504736708"><ele>244.14285714285714</ele><time>2026-05-03T10:17:12.999Z</time></trkpt><trkpt lat="45.017524489569084" lon="8.050650934500037"><ele>243.28571428571428</ele><time>2026-05-03T10:17:17.999Z</time></trkpt><trkpt lat="45.017553193038005" lon="8.050752720533024"><ele>242.42857142857144</ele><time>2026-05-03T10:17:22.999Z</time></trkpt><trkpt lat="45.01756481843618" lon="8.050858134940768"><ele>241.57142857142858</ele><time>2026-05-03T10:17:27.999Z</time></trkpt><trkpt lat="45.01756712268588" lon="8.050951664858463"><ele>240.71428571428572</ele><time>2026-05-03T10:17:32Z</time></trkpt><trkpt lat="45.017579506493696" lon="8.05104433374659"><ele>239.8571428571429</ele><time>2026-05-03T10:17:36Z</time></trkpt><trkpt lat="45.017574613830824" lon="8.051136327066367"><ele>239.00000000000003</ele><time>2026-05-03T10:17:40Z</time></trkpt><trkpt lat="45.017581086760615" lon="8.051230400916005"><ele>238.5714285714286</ele><time>2026-05-03T10:17:44Z</time></trkpt><trkpt lat="45.01759386648652" lon="8.05132134639338"><ele>238.14285714285717</ele><time>2026-05-03T10:17:48Z</time></trkpt><trkpt lat="45.01760249416392" lon="8.051409649740783"><ele>237.71428571428572</ele><time>2026-05-03T10:17:52Z</time></trkpt><trkpt lat="45.01761037567569" lon="8.051503621905832"><ele>237.2857142857143</ele><time>2026-05-03T10:17:56Z</time></trkpt><trkpt lat="45.01763877431667" lon="8.05159317825097"><ele>236.8571428571429</ele><time>2026-05-03T10:18:00Z</time></trkpt><trkpt lat="45.01768020567503" lon="8.051666348467158"><ele>236.42857142857142</ele><time>2026-05-03T10:18:04Z</time></trkpt><trkpt lat="45.01772826489675" lon="8.051754539738706"><ele>236.0</ele><time>2026-05-03T10:18:09Z</time></trkpt><trkpt lat="45.017710236834134" lon="8.051844543619245"><ele>235.71428571428572</ele><time>2026-05-03T10:18:12Z</time></trkpt><trkpt lat="45.01767249314928" lon="8.051926541415275"><ele>235.42857142857144</ele><time>2026-05-03T10:18:16Z</time></trkpt><trkpt lat="45.01764457654749" lon="8.052020703342064"><ele>235.14285714285717</ele><time>2026-05-03T10:18:20Z</time></trkpt><trkpt lat="45.01762350807669" lon="8.05212279769791"><ele>234.85714285714286</ele><time>2026-05-03T10:18:25Z</time></trkpt><trkpt lat="45.01761084971485" lon="8.052230776608965"><ele>234.5714285714286</ele><time>2026-05-03T10:18:30Z</time></trkpt><trkpt lat="45.017587757091164" lon="8.052320827062324"><ele>234.2857142857143</ele><time>2026-05-03T10:18:34Z</time></trkpt><trkpt lat="45.017579249454684" lon="8.05241090899997"><ele>234.0</ele><time>2026-05-03T10:18:38Z</time></trkpt><trkpt lat="45.01759688284372" lon="8.052504489608145"><ele>233.71428571428572</ele><time>2026-05-03T10:18:42Z</time></trkpt><trkpt lat="45.01760914719867" lon="8.052600492539831"><ele>233.42857142857144</ele><time>2026-05-03T10:18:46Z</time></trkpt><trkpt lat="45.01761299740941" lon="8.052690165849459"><ele>233.14285714285717</ele><time>2026-05-03T10:18:50Z</time></trkpt><trkpt lat="45.017616261159446" lon="8.052791881066874"><ele>232.8571428571429</ele><time>2026-05-03T10:18:54Z</time></trkpt><trkpt lat="45.01762783867419" lon="8.052898410580555"><ele>232.57142857142858</ele><time>2026-05-03T10:18:57.999Z</time></trkpt><trkpt lat="45.01764353139456" lon="8.052992368786287"><ele>232.28571428571433</ele><time>2026-05-03T10:19:01.999Z</time></trkpt><trkpt lat="45.01768257386888" lon="8.053080972152905"><ele>232.00000000000003</ele><time>2026-05-03T10:19:05.999Z</time></trkpt><trkpt lat="45.01772391519418" lon="8.053152916351335"><ele>231.99999999999997</ele><time>2026-05-03T10:19:09.999Z</time></trkpt><trkpt lat="45.01775616244224" lon="8.053239893967364"><ele>232.0</ele><time>2026-05-03T10:19:14.999Z</time></trkpt><trkpt lat="45.01773587158597" lon="8.053341822288987"><ele>232.0</ele><time>2026-05-03T10:19:19.999Z</time></trkpt><trkpt lat="45.01769336162669" lon="8.053467810698987"><ele>232.0</ele><time>2026-05-03T10:19:24.999Z</time></trkpt><trkpt lat="45.01767856749443" lon="8.053572203522206"><ele>231.99999999999997</ele><time>2026-05-03T10:19:28.999Z</time></trkpt><trkpt lat="45.01766609018332" lon="8.053676661610888"><ele>232.0</ele><time>2026-05-03T10:19:33.999Z</time></trkpt><trkpt lat="45.01764950306767" lon="8.053779653376749"><ele>231.71428571428575</ele><time>2026-05-03T10:19:39Z</time></trkpt><trkpt lat="45.01767035017351" lon="8.053877613452222"><ele>231.42857142857144</ele><time>2026-05-03T10:19:44Z</time></trkpt><trkpt lat="45.01766266794507" lon="8.053967198915277"><ele>231.14285714285714</ele><time>2026-05-03T10:19:49Z</time></trkpt><trkpt lat="45.01762968854911" lon="8.05407035159207"><ele>230.85714285714286</ele><time>2026-05-03T10:19:53Z</time></trkpt><trkpt lat="45.017599048161166" lon="8.054152403120105"><ele>230.57142857142856</ele><time>2026-05-03T10:19:57Z</time></trkpt><trkpt lat="45.01756433914545" lon="8.054252614264023"><ele>230.28571428571425</ele><time>2026-05-03T10:20:02Z</time></trkpt><trkpt lat="45.01754825974723" lon="8.05435685386216"><ele>229.99999999999997</ele><time>2026-05-03T10:20:07Z</time></trkpt><trkpt lat="45.017530134344014" lon="8.054457860475777"><ele>229.4285714285714</ele><time>2026-05-03T10:20:12Z</time></trkpt><trkpt lat="45.01751446919623" lon="8.054552692261396"><ele>228.85714285714283</ele><time>2026-05-03T10:20:16Z</time></trkpt><trkpt lat="45.01749645625281" lon="8.054661736827585"><ele>228.28571428571428</ele><time>2026-05-03T10:20:21Z</time></trkpt><trkpt lat="45.01748490868574" lon="8.054754287836575"><ele>227.7142857142857</ele><time>2026-05-03T10:20:25Z</time></trkpt><trkpt lat="45.01746325127163" lon="8.054873479630464"><ele>227.1428571428571</ele><time>2026-05-03T10:20:30Z</time></trkpt><trkpt lat="45.01745808024672" lon="8.054963326507142"><ele>226.57142857142858</ele><time>2026-05-03T10:20:34Z</time></trkpt><trkpt lat="45.0174380962139" lon="8.05504849179655"><ele>226.0</ele><time>2026-05-03T10:20:37Z</time></trkpt><trkpt lat="45.01743287804761" lon="8.055138637077421"><ele>227.14285714285717</ele><time>2026-05-03T10:20:41Z</time></trkpt><trkpt lat="45.01742367370972" lon="8.055241950608336"><ele>228.28571428571428</ele><time>2026-05-03T10:20:45Z</time></trkpt><trkpt lat="45.01741481875249" lon="8.055342235871553"><ele>229.42857142857144</ele><time>2026-05-03T10:20:49Z</time></trkpt><trkpt lat="45.01739951947137" lon="8.055439936395233"><ele>230.57142857142858</ele><time>2026-05-03T10:20:53Z</time></trkpt><trkpt lat="45.01739369031325" lon="8.055556773600033"><ele>231.71428571428572</ele><time>2026-05-03T10:20:57Z</time></trkpt><trkpt lat="45.01739165871474" lon="8.055660527997475"><ele>232.85714285714286</ele><time>2026-05-03T10:21:00Z</time></trkpt><trkpt lat="45.01739050100145" lon="8.055754667962644"><ele>234.0</ele><time>2026-05-03T10:21:03Z</time></trkpt><trkpt lat="45.017390501003206" lon="8.055862962946627"><ele>234.0</ele><time>2026-05-03T10:21:07Z</time></trkpt><trkpt lat="45.017390967528" lon="8.055957751642735"><ele>234.00000000000003</ele><time>2026-05-03T10:21:10.999Z</time></trkpt><trkpt lat="45.01739270011336" lon="8.056058452322922"><ele>234.0</ele><time>2026-05-03T10:21:14.999Z</time></trkpt><trkpt lat="45.01740014236983" lon="8.056149514940318"><ele>234.0</ele><time>2026-05-03T10:21:18.999Z</time></trkpt><trkpt lat="45.01741077162221" lon="8.056246830945526"><ele>234.00000000000003</ele><time>2026-05-03T10:21:22.999Z</time></trkpt><trkpt lat="45.01741963302849" lon="8.056336408037227"><ele>234.0</ele><time>2026-05-03T10:21:26.999Z</time></trkpt><trkpt lat="45.01743523309219" lon="8.056435114343905"><ele>234.0</ele><time>2026-05-03T10:21:30.999Z</time></trkpt><trkpt lat="45.01745120362129" lon="8.056525056723954"><ele>234.0</ele><time>2026-05-03T10:21:34.999Z</time></trkpt><trkpt lat="45.017470065372564" lon="8.05661688370602"><ele>234.0</ele><time>2026-05-03T10:21:38.999Z</time></trkpt><trkpt lat="45.017486002324596" lon="8.056711001062371"><ele>234.0</ele><time>2026-05-03T10:21:42.999Z</time></trkpt><trkpt lat="45.01752010530606" lon="8.056823698256151"><ele>234.0</ele><time>2026-05-03T10:21:48Z</time></trkpt><trkpt lat="45.017545532334125" lon="8.056923874039008"><ele>234.0</ele><time>2026-05-03T10:21:52Z</time></trkpt><trkpt lat="45.01757412631217" lon="8.05703177065574"><ele>234.0</ele><time>2026-05-03T10:21:56Z</time></trkpt><trkpt lat="45.017603745310254" lon="8.057142390506316"><ele>232.0</ele><time>2026-05-03T10:22:01Z</time></trkpt><trkpt lat="45.01762920646079" lon="8.057246822383302"><ele>230.0</ele><time>2026-05-03T10:22:05Z</time></trkpt><trkpt lat="45.01765254290801" lon="8.057330190505683"><ele>228.0</ele><time>2026-05-03T10:22:08Z</time></trkpt><trkpt lat="45.0176831404157" lon="8.057426649134836"><ele>226.0</ele><time>2026-05-03T10:22:12Z</time></trkpt><trkpt lat="45.01772721402224" lon="8.057537847731371"><ele>224.0</ele><time>2026-05-03T10:22:17Z</time></trkpt><trkpt lat="45.01777170667463" lon="8.057624198247554"><ele>222.0</ele><time>2026-05-03T10:22:21Z</time></trkpt><trkpt lat="45.01782574396922" lon="8.057703598641051"><ele>222.0</ele><time>2026-05-03T10:22:25Z</time></trkpt><trkpt lat="45.01787161139906" lon="8.057781755883221"><ele>222.0</ele><time>2026-05-03T10:22:29Z</time></trkpt><trkpt lat="45.01791861605535" lon="8.057853685867745"><ele>222.0</ele><time>2026-05-03T10:22:33Z</time></trkpt><trkpt lat="45.01796585316896" lon="8.05792065094923"><ele>222.0</ele><time>2026-05-03T10:22:37Z</time></trkpt><trkpt lat="45.01801119471913" lon="8.057997778495041"><ele>222.0</ele><time>2026-05-03T10:22:41Z</time></trkpt><trkpt lat="45.01805926787098" lon="8.05807260121354"><ele>222.0</ele><time>2026-05-03T10:22:45Z</time></trkpt><trkpt lat="45.0181134251459" lon="8.058153445715478"><ele>222.0</ele><time>2026-05-03T10:22:49Z</time></trkpt><trkpt lat="45.018165549969936" lon="8.058230464670745"><ele>223.14285714285714</ele><time>2026-05-03T10:22:53Z</time></trkpt><trkpt lat="45.018212909248774" lon="8.058305022558255"><ele>224.28571428571428</ele><time>2026-05-03T10:22:57Z</time></trkpt><trkpt lat="45.01826164172306" lon="8.058374070089998"><ele>225.42857142857142</ele><time>2026-05-03T10:23:01Z</time></trkpt><trkpt lat="45.018316494707854" lon="8.058449739583356"><ele>226.57142857142856</ele><time>2026-05-03T10:23:05Z</time></trkpt><trkpt lat="45.01836710826781" lon="8.0585136480115"><ele>227.71428571428572</ele><time>2026-05-03T10:23:09Z</time></trkpt><trkpt lat="45.01841953228405" lon="8.058571607221158"><ele>228.85714285714283</ele><time>2026-05-03T10:23:13Z</time></trkpt><trkpt lat="45.01846917598469" lon="8.058643185612928"><ele>229.99999999999997</ele><time>2026-05-03T10:23:16.999Z</time></trkpt><trkpt lat="45.018522530494394" lon="8.058704719789603"><ele>227.00000000000003</ele><time>2026-05-03T10:23:20.999Z</time></trkpt><trkpt lat="45.018570956966215" lon="8.058766119948018"><ele>224.0</ele><time>2026-05-03T10:23:24.999Z</time></trkpt><trkpt lat="45.01862402817022" lon="8.058835314746686"><ele>221.0</ele><time>2026-05-03T10:23:29.999Z</time></trkpt><trkpt lat="45.018663191691104" lon="8.058730625955983"><ele>218.0</ele><time>2026-05-03T10:23:51Z</time></trkpt><trkpt lat="45.01871862976109" lon="8.058620436073529"><ele>215.00000000000003</ele><time>2026-05-03T10:23:54Z</time></trkpt><trkpt lat="45.018769306220435" lon="8.058533321919162"><ele>212.0</ele><time>2026-05-03T10:23:56Z</time></trkpt><trkpt lat="45.0188103179654" lon="8.05844813154653"><ele>212.0</ele><time>2026-05-03T10:24:00Z</time></trkpt><trkpt lat="45.018860926781166" lon="8.058386883599074"><ele>212.0</ele><time>2026-05-03T10:24:04Z</time></trkpt><trkpt lat="45.018919861537945" lon="8.058335570859679"><ele>212.0</ele><time>2026-05-03T10:24:08Z</time></trkpt><trkpt lat="45.018976142565805" lon="8.058289724625734"><ele>212.0</ele><time>2026-05-03T10:24:12Z</time></trkpt><trkpt lat="45.01904263053363" lon="8.05826537864959"><ele>212.0</ele><time>2026-05-03T10:24:16Z</time></trkpt><trkpt lat="45.01910690309221" lon="8.058245743216242"><ele>212.0</ele><time>2026-05-03T10:24:20Z</time></trkpt><trkpt lat="45.01918579531729" lon="8.058234668517356"><ele>212.0</ele><time>2026-05-03T10:24:25Z</time></trkpt><trkpt lat="45.019260165125" lon="8.058244026485973"><ele>211.71428571428572</ele><time>2026-05-03T10:24:29Z</time></trkpt><trkpt lat="45.01931605489351" lon="8.058289690949072"><ele>211.42857142857142</ele><time>2026-05-03T10:24:33Z</time></trkpt><trkpt lat="45.019336050050185" lon="8.058378032719693"><ele>211.14285714285714</ele><time>2026-05-03T10:24:37Z</time></trkpt><trkpt lat="45.01935671216214" lon="8.058466929256788"><ele>210.85714285714286</ele><time>2026-05-03T10:24:41Z</time></trkpt><trkpt lat="45.01938211221679" lon="8.05856578351384"><ele>210.57142857142856</ele><time>2026-05-03T10:24:46Z</time></trkpt><trkpt lat="45.01942384531925" lon="8.05865045387756"><ele>210.28571428571428</ele><time>2026-05-03T10:24:51Z</time></trkpt><trkpt lat="45.01947060328807" lon="8.058731907473184"><ele>210.0</ele><time>2026-05-03T10:24:56Z</time></trkpt><trkpt lat="45.01952123890898" lon="8.058807184000925"><ele>210.0</ele><time>2026-05-03T10:25:01Z</time></trkpt><trkpt lat="45.019577960915115" lon="8.058883364881973"><ele>210.0</ele><time>2026-05-03T10:25:06Z</time></trkpt><trkpt lat="45.01962497981267" lon="8.058946979702887"><ele>210.0</ele><time>2026-05-03T10:25:10Z</time></trkpt><trkpt lat="45.019666018950936" lon="8.059021493714312"><ele>210.0</ele><time>2026-05-03T10:25:14Z</time></trkpt><trkpt lat="45.019703333989284" lon="8.059093397429958"><ele>210.0</ele><time>2026-05-03T10:25:18Z</time></trkpt><trkpt lat="45.01972538768708" lon="8.059000633708902"><ele>210.0</ele><time>2026-05-03T10:25:23Z</time></trkpt><trkpt lat="45.019764040257485" lon="8.058924189750796"><ele>210.0</ele><time>2026-05-03T10:25:25.999Z</time></trkpt><trkpt lat="45.01980545278492" lon="8.058836650514282"><ele>210.0</ele><time>2026-05-03T10:25:29.999Z</time></trkpt><trkpt lat="45.019840751599844" lon="8.05873516888147"><ele>210.0</ele><time>2026-05-03T10:25:34.999Z</time></trkpt><trkpt lat="45.019873556404576" lon="8.058658972355238"><ele>210.0</ele><time>2026-05-03T10:25:38.999Z</time></trkpt><trkpt lat="45.01990371107553" lon="8.05857707005167"><ele>210.0</ele><time>2026-05-03T10:25:42.999Z</time></trkpt><trkpt lat="45.01994109780094" lon="8.058471206698199"><ele>210.0</ele><time>2026-05-03T10:25:47.999Z</time></trkpt><trkpt lat="45.019956127887404" lon="8.058384125005926"><ele>210.0</ele><time>2026-05-03T10:25:50.999Z</time></trkpt><trkpt lat="45.019979851695645" lon="8.058294963392253"><ele>210.0</ele><time>2026-05-03T10:25:53.999Z</time></trkpt><trkpt lat="45.02001661212278" lon="8.058216825285545"><ele>212.28571428571428</ele><time>2026-05-03T10:25:57Z</time></trkpt><trkpt lat="45.02005455446152" lon="8.058131819952674"><ele>214.57142857142856</ele><time>2026-05-03T10:26:01Z</time></trkpt><trkpt lat="45.02008907246263" lon="8.058042666797476"><ele>216.85714285714286</ele><time>2026-05-03T10:26:05Z</time></trkpt><trkpt lat="45.02012475021722" lon="8.057950707411484"><ele>219.14285714285714</ele><time>2026-05-03T10:26:09Z</time></trkpt><trkpt lat="45.02015758765574" lon="8.05785025951288"><ele>221.42857142857142</ele><time>2026-05-03T10:26:13Z</time></trkpt><trkpt lat="45.020198133992174" lon="8.057771978982316"><ele>223.71428571428572</ele><time>2026-05-03T10:26:16Z</time></trkpt><trkpt lat="45.02020655242985" lon="8.057673567055938"><ele>226.0</ele><time>2026-05-03T10:26:22Z</time></trkpt><trkpt lat="45.02016590748732" lon="8.05759362847162"><ele>226.0</ele><time>2026-05-03T10:26:28Z</time></trkpt><trkpt lat="45.020081595603614" lon="8.057576097004969"><ele>226.0</ele><time>2026-05-03T10:26:32Z</time></trkpt><trkpt lat="45.01998695652516" lon="8.057593786572129"><ele>226.0</ele><time>2026-05-03T10:26:35Z</time></trkpt><trkpt lat="45.01991863591952" lon="8.057579502410686"><ele>226.0</ele><time>2026-05-03T10:26:42Z</time></trkpt><trkpt lat="45.01985291342971" lon="8.057573784133018"><ele>226.0</ele><time>2026-05-03T10:26:46Z</time></trkpt><trkpt lat="45.01980952278007" lon="8.057505630717367"><ele>226.0</ele><time>2026-05-03T10:26:50Z</time></trkpt><trkpt lat="45.01980939080212" lon="8.057412370675664"><ele>226.0</ele><time>2026-05-03T10:26:57Z</time></trkpt><trkpt lat="45.019776237605825" lon="8.057332524458403"><ele>226.99999999999997</ele><time>2026-05-03T10:28:06Z</time></trkpt><trkpt lat="45.01981302178288" lon="8.057254850588297"><ele>228.0</ele><time>2026-05-03T10:28:09Z</time></trkpt><trkpt lat="45.01987720563049" lon="8.057168267844345"><ele>229.0</ele><time>2026-05-03T10:28:13Z</time></trkpt><trkpt lat="45.01986313551093" lon="8.05707289961249"><ele>230.0</ele><time>2026-05-03T10:28:18Z</time></trkpt><trkpt lat="45.019833995546065" lon="8.056967163244195"><ele>230.99999999999997</ele><time>2026-05-03T10:28:22Z</time></trkpt><trkpt lat="45.019819587021274" lon="8.056874074561481"><ele>232.0</ele><time>2026-05-03T10:28:28Z</time></trkpt><trkpt lat="45.01984660492078" lon="8.056768793675737"><ele>232.00000000000003</ele><time>2026-05-03T10:28:33Z</time></trkpt><trkpt lat="45.01989869982405" lon="8.056694298384597"><ele>232.0</ele><time>2026-05-03T10:28:38Z</time></trkpt><trkpt lat="45.01994302635286" lon="8.056615023740818"><ele>232.00000000000003</ele><time>2026-05-03T10:28:44Z</time></trkpt><trkpt lat="45.01999945896025" lon="8.056540374626012"><ele>232.00000000000003</ele><time>2026-05-03T10:28:49Z</time></trkpt><trkpt lat="45.020066413555526" lon="8.05649220290588"><ele>232.0</ele><time>2026-05-03T10:28:56Z</time></trkpt><trkpt lat="45.02013321608648" lon="8.056461677934251"><ele>232.00000000000003</ele><time>2026-05-03T10:29:02Z</time></trkpt><trkpt lat="45.02019732252307" lon="8.056410559597317"><ele>232.00000000000003</ele><time>2026-05-03T10:29:08Z</time></trkpt><trkpt lat="45.02026485629026" lon="8.056357516165276"><ele>233.28571428571433</ele><time>2026-05-03T10:29:13Z</time></trkpt><trkpt lat="45.02031448753938" lon="8.05629734679261"><ele>234.57142857142858</ele><time>2026-05-03T10:29:17Z</time></trkpt><trkpt lat="45.02036291003245" lon="8.05622710451247"><ele>235.8571428571429</ele><time>2026-05-03T10:29:21Z</time></trkpt><trkpt lat="45.02038327812921" lon="8.056125655244081"><ele>237.14285714285717</ele><time>2026-05-03T10:29:26Z</time></trkpt><trkpt lat="45.02039771211401" lon="8.056012602229625"><ele>238.42857142857144</ele><time>2026-05-03T10:29:35.999Z</time></trkpt><trkpt lat="45.02042297895336" lon="8.05591799290359"><ele>239.71428571428572</ele><time>2026-05-03T10:29:41.999Z</time></trkpt><trkpt lat="45.020443336986744" lon="8.05583109184481"><ele>241.0</ele><time>2026-05-03T10:29:46.999Z</time></trkpt><trkpt lat="45.02047713017819" lon="8.055748326334607"><ele>243.2857142857143</ele><time>2026-05-03T10:30:43Z</time></trkpt><trkpt lat="45.02049787606345" lon="8.05560579765769"><ele>245.5714285714286</ele><time>2026-05-03T10:30:53Z</time></trkpt><trkpt lat="45.02053984188353" lon="8.055531869571146"><ele>247.85714285714286</ele><time>2026-05-03T10:30:59Z</time></trkpt><trkpt lat="45.02052151036248" lon="8.055435644983328"><ele>250.14285714285717</ele><time>2026-05-03T10:31:07Z</time></trkpt><trkpt lat="45.02050711409133" lon="8.055348829268516"><ele>252.42857142857144</ele><time>2026-05-03T10:31:11Z</time></trkpt><trkpt lat="45.020519408026985" lon="8.055248888429446"><ele>254.71428571428572</ele><time>2026-05-03T10:31:35.999Z</time></trkpt><trkpt lat="45.02045085911608" lon="8.055248609703998"><ele>257.0</ele><time>2026-05-03T10:32:52Z</time></trkpt><trkpt lat="45.02048023405515" lon="8.055361039274283"><ele>257.0</ele><time>2026-05-03T10:33:28Z</time></trkpt><trkpt lat="45.0204953132209" lon="8.055456563647374"><ele>257.0</ele><time>2026-05-03T10:33:39.999Z</time></trkpt><trkpt lat="45.02049110332772" lon="8.05554869366742"><ele>257.0</ele><time>2026-05-03T10:33:44.999Z</time></trkpt><trkpt lat="45.02047698588217" lon="8.055645892076857"><ele>257.0</ele><time>2026-05-03T10:33:51.999Z</time></trkpt><trkpt lat="45.02044979521006" lon="8.055738185157656"><ele>257.0</ele><time>2026-05-03T10:33:57.999Z</time></trkpt><trkpt lat="45.02043276211877" lon="8.055835168724263"><ele>257.0</ele><time>2026-05-03T10:34:05.999Z</time></trkpt><trkpt lat="45.02043324373353" lon="8.055941586553738"><ele>257.0</ele><time>2026-05-03T10:34:12.999Z</time></trkpt><trkpt lat="45.02040843997275" lon="8.05602655055314"><ele>254.71428571428572</ele><time>2026-05-03T10:34:18.999Z</time></trkpt><trkpt lat="45.02038655421924" lon="8.056113608926134"><ele>252.42857142857144</ele><time>2026-05-03T10:34:23Z</time></trkpt><trkpt lat="45.02036043847934" lon="8.056199790867186"><ele>250.14285714285717</ele><time>2026-05-03T10:34:33Z</time></trkpt><trkpt lat="45.0203358227923" lon="8.056288325462734"><ele>247.85714285714286</ele><time>2026-05-03T10:34:37Z</time></trkpt><trkpt lat="45.020296247413654" lon="8.056358138865667"><ele>245.5714285714286</ele><time>2026-05-03T10:34:45Z</time></trkpt><trkpt lat="45.02023602872535" lon="8.056394798933937"><ele>243.2857142857143</ele><time>2026-05-03T10:34:50Z</time></trkpt><trkpt lat="45.02017459802184" lon="8.056429779714671"><ele>241.0</ele><time>2026-05-03T10:34:57Z</time></trkpt><trkpt lat="45.0201164681111" lon="8.056465521800416"><ele>241.0</ele><time>2026-05-03T10:35:03Z</time></trkpt><trkpt lat="45.02005827941198" lon="8.05651528834641"><ele>241.00000000000003</ele><time>2026-05-03T10:35:10Z</time></trkpt><trkpt lat="45.020001674506354" lon="8.056561321076286"><ele>241.0</ele><time>2026-05-03T10:35:16Z</time></trkpt><trkpt lat="45.019941914306294" lon="8.056611097649384"><ele>241.0</ele><time>2026-05-03T10:35:22Z</time></trkpt><trkpt lat="45.01987764615485" lon="8.056675108899375"><ele>241.00000000000003</ele><time>2026-05-03T10:35:28Z</time></trkpt><trkpt lat="45.01983573643643" lon="8.056762615956577"><ele>241.0</ele><time>2026-05-03T10:35:35.999Z</time></trkpt><trkpt lat="45.01982752049142" lon="8.056853721802701"><ele>241.0</ele><time>2026-05-03T10:35:42.999Z</time></trkpt><trkpt lat="45.01981572615153" lon="8.056943791473094"><ele>239.71428571428572</ele><time>2026-05-03T10:35:47.999Z</time></trkpt><trkpt lat="45.01982079223175" lon="8.05705353520582"><ele>238.42857142857144</ele><time>2026-05-03T10:35:55.999Z</time></trkpt><trkpt lat="45.01982168026389" lon="8.057143496735593"><ele>237.14285714285717</ele><time>2026-05-03T10:36:01.999Z</time></trkpt><trkpt lat="45.01981885348109" lon="8.057249491417414"><ele>235.8571428571429</ele><time>2026-05-03T10:36:09.999Z</time></trkpt><trkpt lat="45.019809073142234" lon="8.057341581729395"><ele>234.57142857142858</ele><time>2026-05-03T10:36:15.999Z</time></trkpt><trkpt lat="45.019802276893074" lon="8.057432094996322"><ele>233.28571428571433</ele><time>2026-05-03T10:36:22.999Z</time></trkpt><trkpt lat="45.019792290765494" lon="8.057530167562572"><ele>232.00000000000003</ele><time>2026-05-03T10:36:29Z</time></trkpt><trkpt lat="45.019827401253906" lon="8.057622905815562"><ele>230.99999999999997</ele><time>2026-05-03T10:36:37Z</time></trkpt><trkpt lat="45.019905574669394" lon="8.05762282180084"><ele>230.0</ele><time>2026-05-03T10:36:45Z</time></trkpt><trkpt lat="45.01995399646443" lon="8.057548992872823"><ele>229.0</ele><time>2026-05-03T10:37:09Z</time></trkpt><trkpt lat="45.020021440638274" lon="8.057595627923728"><ele>228.0</ele><time>2026-05-03T10:37:37Z</time></trkpt><trkpt lat="45.02010885508152" lon="8.057577558326123"><ele>226.99999999999997</ele><time>2026-05-03T10:37:44.999Z</time></trkpt><trkpt lat="45.02017440289863" lon="8.057563205889373"><ele>226.0</ele><time>2026-05-03T10:37:47.999Z</time></trkpt><trkpt lat="45.02023499151962" lon="8.057628302444932"><ele>226.0</ele><time>2026-05-03T10:37:55.999Z</time></trkpt><trkpt lat="45.02024766480774" lon="8.057728290034854"><ele>226.0</ele><time>2026-05-03T10:38:00.999Z</time></trkpt><trkpt lat="45.02022536196442" lon="8.057813874840635"><ele>226.0</ele><time>2026-05-03T10:38:06.999Z</time></trkpt><trkpt lat="45.02017940351431" lon="8.05787736995186"><ele>226.0</ele><time>2026-05-03T10:38:10.999Z</time></trkpt><trkpt lat="45.02015357684021" lon="8.057968609201058"><ele>226.0</ele><time>2026-05-03T10:38:16.999Z</time></trkpt><trkpt lat="45.020113605623045" lon="8.058072419729335"><ele>226.0</ele><time>2026-05-03T10:38:21.999Z</time></trkpt><trkpt lat="45.02005951691325" lon="8.05816316840651"><ele>226.0</ele><time>2026-05-03T10:38:34Z</time></trkpt><trkpt lat="45.020023227601314" lon="8.058256047388264"><ele>224.2857142857143</ele><time>2026-05-03T10:38:38Z</time></trkpt><trkpt lat="45.01998756071796" lon="8.058331030866318"><ele>222.57142857142856</ele><time>2026-05-03T10:38:47Z</time></trkpt><trkpt lat="45.019964427221716" lon="8.058419834825425"><ele>220.85714285714286</ele><time>2026-05-03T10:38:52Z</time></trkpt><trkpt lat="45.01992798339662" lon="8.05851440075593"><ele>219.14285714285717</ele><time>2026-05-03T10:38:59Z</time></trkpt><trkpt lat="45.019910522448804" lon="8.058604042290394"><ele>217.42857142857144</ele><time>2026-05-03T10:39:04Z</time></trkpt><trkpt lat="45.01988602374567" lon="8.058694527084912"><ele>215.71428571428572</ele><time>2026-05-03T10:39:12Z</time></trkpt><trkpt lat="45.01983554776388" lon="8.058789982835187"><ele>214.0</ele><time>2026-05-03T10:39:20Z</time></trkpt><trkpt lat="45.019803890606866" lon="8.058873328256896"><ele>214.00000000000003</ele><time>2026-05-03T10:39:27Z</time></trkpt><trkpt lat="45.01984909280194" lon="8.058937174687161"><ele>214.0</ele><time>2026-05-03T10:42:12.999Z</time></trkpt><trkpt lat="45.01990852648146" lon="8.05889818609581"><ele>214.0</ele><time>2026-05-03T10:42:18.999Z</time></trkpt><trkpt lat="45.019959239118855" lon="8.05883891336363"><ele>214.0</ele><time>2026-05-03T10:42:23.999Z</time></trkpt><trkpt lat="45.02000410354311" lon="8.058751238863032"><ele>214.0</ele><time>2026-05-03T10:42:41.999Z</time></trkpt><trkpt lat="45.02005318721479" lon="8.05869051659273"><ele>214.00000000000003</ele><time>2026-05-03T10:42:47Z</time></trkpt><trkpt lat="45.020103934283824" lon="8.058621113985957"><ele>214.0</ele><time>2026-05-03T10:42:52Z</time></trkpt><trkpt lat="45.02015661053619" lon="8.058557069423703"><ele>214.00000000000003</ele><time>2026-05-03T10:42:57Z</time></trkpt><trkpt lat="45.02021439561038" lon="8.058516098415902"><ele>214.0</ele><time>2026-05-03T10:43:01Z</time></trkpt><trkpt lat="45.02028402426949" lon="8.058465905369383"><ele>214.0</ele><time>2026-05-03T10:43:06Z</time></trkpt><trkpt lat="45.0203495425624" lon="8.058407763453724"><ele>214.0</ele><time>2026-05-03T10:43:11Z</time></trkpt><trkpt lat="45.02041212523537" lon="8.058364892887056"><ele>214.0</ele><time>2026-05-03T10:43:16Z</time></trkpt><trkpt lat="45.02046926628817" lon="8.058302439879183"><ele>214.00000000000003</ele><time>2026-05-03T10:43:21Z</time></trkpt><trkpt lat="45.02052585635541" lon="8.058243241544918"><ele>214.0</ele><time>2026-05-03T10:43:26Z</time></trkpt><trkpt lat="45.02057586204077" lon="8.05816285902094"><ele>213.85714285714286</ele><time>2026-05-03T10:43:31Z</time></trkpt><trkpt lat="45.02063580281995" lon="8.058092999415019"><ele>213.71428571428572</ele><time>2026-05-03T10:43:36Z</time></trkpt><trkpt lat="45.02069189868326" lon="8.058022579190665"><ele>213.57142857142856</ele><time>2026-05-03T10:43:41Z</time></trkpt><trkpt lat="45.02074699881013" lon="8.057945198685612"><ele>213.42857142857144</ele><time>2026-05-03T10:43:46Z</time></trkpt><trkpt lat="45.020793173526556" lon="8.057882884172642"><ele>213.28571428571428</ele><time>2026-05-03T10:43:50Z</time></trkpt><trkpt lat="45.02084735297453" lon="8.057805558505585"><ele>213.14285714285714</ele><time>2026-05-03T10:43:55Z</time></trkpt><trkpt lat="45.02090128848424" lon="8.057735589840215"><ele>213.0</ele><time>2026-05-03T10:43:59.999Z</time></trkpt><trkpt lat="45.02094968169252" lon="8.057657392262362"><ele>212.99999999999997</ele><time>2026-05-03T10:44:04.999Z</time></trkpt><trkpt lat="45.02100071683439" lon="8.05759715171847"><ele>213.0</ele><time>2026-05-03T10:44:08.999Z</time></trkpt><trkpt lat="45.021053721164876" lon="8.057530047541773"><ele>213.0</ele><time>2026-05-03T10:44:12.999Z</time></trkpt><trkpt lat="45.02110478308448" lon="8.05747052837827"><ele>213.0</ele><time>2026-05-03T10:44:16.999Z</time></trkpt><trkpt lat="45.02115144413704" lon="8.057403067740191"><ele>213.0</ele><time>2026-05-03T10:44:20.999Z</time></trkpt><trkpt lat="45.021203918556786" lon="8.057322752734986"><ele>212.99999999999997</ele><time>2026-05-03T10:44:25.999Z</time></trkpt><trkpt lat="45.02124365950984" lon="8.057247083223624"><ele>213.0</ele><time>2026-05-03T10:44:29.999Z</time></trkpt><trkpt lat="45.02128382720307" lon="8.057169954556828"><ele>215.1428571428571</ele><time>2026-05-03T10:44:33.999Z</time></trkpt><trkpt lat="45.02132632980928" lon="8.05710040775117"><ele>217.28571428571428</ele><time>2026-05-03T10:44:37.999Z</time></trkpt><trkpt lat="45.02134990746215" lon="8.057017277371815"><ele>219.42857142857142</ele><time>2026-05-03T10:44:41.999Z</time></trkpt><trkpt lat="45.021381727862504" lon="8.056932595314386"><ele>221.57142857142856</ele><time>2026-05-03T10:44:45.999Z</time></trkpt><trkpt lat="45.02141967602666" lon="8.056837109999387"><ele>223.7142857142857</ele><time>2026-05-03T10:44:51Z</time></trkpt><trkpt lat="45.02145902956164" lon="8.0567565659425"><ele>225.85714285714283</ele><time>2026-05-03T10:44:55Z</time></trkpt><trkpt lat="45.021498489931524" lon="8.056684390480175"><ele>228.0</ele><time>2026-05-03T10:44:59Z</time></trkpt><trkpt lat="45.0215375474262" lon="8.056610265123473"><ele>227.14285714285714</ele><time>2026-05-03T10:45:03Z</time></trkpt><trkpt lat="45.021576533679976" lon="8.05654006563777"><ele>226.28571428571428</ele><time>2026-05-03T10:45:07Z</time></trkpt><trkpt lat="45.02162696599516" lon="8.05645395146873"><ele>225.42857142857142</ele><time>2026-05-03T10:45:12Z</time></trkpt><trkpt lat="45.02167277619561" lon="8.056384496289756"><ele>224.57142857142856</ele><time>2026-05-03T10:45:16Z</time></trkpt><trkpt lat="45.0217058760252" lon="8.05628461253389"><ele>223.71428571428572</ele><time>2026-05-03T10:45:21Z</time></trkpt><trkpt lat="45.021724414107176" lon="8.056183883933144"><ele>222.85714285714283</ele><time>2026-05-03T10:45:25Z</time></trkpt><trkpt lat="45.0217545498743" lon="8.056087356817129"><ele>222.0</ele><time>2026-05-03T10:45:29Z</time></trkpt><trkpt lat="45.02179435020066" lon="8.056007734085304"><ele>222.0</ele><time>2026-05-03T10:45:33Z</time></trkpt><trkpt lat="45.02180893239433" lon="8.05591160868104"><ele>222.0</ele><time>2026-05-03T10:45:37Z</time></trkpt><trkpt lat="45.021822149392555" lon="8.05581006626775"><ele>222.0</ele><time>2026-05-03T10:45:41Z</time></trkpt><trkpt lat="45.021832687222606" lon="8.055716008457058"><ele>222.0</ele><time>2026-05-03T10:45:45Z</time></trkpt><trkpt lat="45.02185035201324" lon="8.055602630576571"><ele>222.0</ele><time>2026-05-03T10:45:49Z</time></trkpt><trkpt lat="45.02187989811031" lon="8.055518912908616"><ele>222.0</ele><time>2026-05-03T10:45:53Z</time></trkpt><trkpt lat="45.021903750827775" lon="8.055432490446226"><ele>222.0</ele><time>2026-05-03T10:45:56.999Z</time></trkpt><trkpt lat="45.02194683893578" lon="8.055354415463418"><ele>224.0</ele><time>2026-05-03T10:46:00.999Z</time></trkpt><trkpt lat="45.02197232323607" lon="8.055266486792101"><ele>226.0</ele><time>2026-05-03T10:46:04.999Z</time></trkpt><trkpt lat="45.02200840126907" lon="8.055179536921656"><ele>228.0</ele><time>2026-05-03T10:46:08.999Z</time></trkpt><trkpt lat="45.022022967758865" lon="8.055083702164895"><ele>230.0</ele><time>2026-05-03T10:46:12.999Z</time></trkpt><trkpt lat="45.02205620823841" lon="8.055003487922795"><ele>232.0</ele><time>2026-05-03T10:46:16.999Z</time></trkpt><trkpt lat="45.02207792482051" lon="8.054918608135116"><ele>234.0</ele><time>2026-05-03T10:46:20.999Z</time></trkpt><trkpt lat="45.02211178423019" lon="8.054830295373302"><ele>236.0</ele><time>2026-05-03T10:46:24.999Z</time></trkpt><trkpt lat="45.022162914677004" lon="8.054760082878996"><ele>236.0</ele><time>2026-05-03T10:46:28.999Z</time></trkpt><trkpt lat="45.02219902323356" lon="8.054679653360147"><ele>236.0</ele><time>2026-05-03T10:46:32.999Z</time></trkpt><trkpt lat="45.02223236874641" lon="8.054593411181187"><ele>236.0</ele><time>2026-05-03T10:46:36.999Z</time></trkpt><trkpt lat="45.02228546838742" lon="8.054542263860139"><ele>236.0</ele><time>2026-05-03T10:46:40.999Z</time></trkpt><trkpt lat="45.02235599576048" lon="8.054496070279999"><ele>236.0</ele><time>2026-05-03T10:46:44.999Z</time></trkpt><trkpt lat="45.02242039560442" lon="8.054494462263333"><ele>236.0</ele><time>2026-05-03T10:46:50.999Z</time></trkpt><trkpt lat="45.022484789588624" lon="8.054429975573024"><ele>236.0</ele><time>2026-05-03T10:46:56Z</time></trkpt><trkpt lat="45.022528589321965" lon="8.054351331877273"><ele>232.7142857142857</ele><time>2026-05-03T10:47:00Z</time></trkpt><trkpt lat="45.02258375466709" lon="8.054287549300582"><ele>229.42857142857144</ele><time>2026-05-03T10:47:05Z</time></trkpt><trkpt lat="45.02264047949411" lon="8.054334859717848"><ele>226.14285714285714</ele><time>2026-05-03T10:47:09Z</time></trkpt><trkpt lat="45.02268335498805" lon="8.054420259827278"><ele>222.85714285714283</ele><time>2026-05-03T10:47:14Z</time></trkpt><trkpt lat="45.0227464335471" lon="8.054362686650071"><ele>219.57142857142856</ele><time>2026-05-03T10:47:20Z</time></trkpt><trkpt lat="45.022790541707074" lon="8.054288220891443"><ele>216.28571428571428</ele><time>2026-05-03T10:47:25Z</time></trkpt><trkpt lat="45.022822256193784" lon="8.054208345788835"><ele>213.0</ele><time>2026-05-03T10:47:30Z</time></trkpt><trkpt lat="45.0228417896203" lon="8.054115798740494"><ele>212.99999999999997</ele><time>2026-05-03T10:47:44Z</time></trkpt><trkpt lat="45.02291209231303" lon="8.05409916442863"><ele>213.0</ele><time>2026-05-03T10:48:21Z</time></trkpt><trkpt lat="45.02298006950217" lon="8.054105514285146"><ele>213.0</ele><time>2026-05-03T10:48:27Z</time></trkpt><trkpt lat="45.02304879774386" lon="8.054094697032342"><ele>213.0</ele><time>2026-05-03T10:48:33.999Z</time></trkpt><trkpt lat="45.02311321675617" lon="8.054089074868095"><ele>213.0</ele><time>2026-05-03T10:48:38.999Z</time></trkpt><trkpt lat="45.023176003230255" lon="8.054063096052941"><ele>212.99999999999997</ele><time>2026-05-03T10:48:43.999Z</time></trkpt><trkpt lat="45.023239694962115" lon="8.054012341784109"><ele>213.0</ele><time>2026-05-03T10:48:51.999Z</time></trkpt><trkpt lat="45.023297354817615" lon="8.053964106926557"><ele>214.42857142857142</ele><time>2026-05-03T10:48:55.999Z</time></trkpt><trkpt lat="45.02334398905842" lon="8.053897637464315"><ele>215.85714285714286</ele><time>2026-05-03T10:49:10Z</time></trkpt><trkpt lat="45.02340903264056" lon="8.05385838115628"><ele>217.28571428571428</ele><time>2026-05-03T10:49:47Z</time></trkpt><trkpt lat="45.02345836227861" lon="8.05379941750194"><ele>218.71428571428572</ele><time>2026-05-03T10:49:52Z</time></trkpt><trkpt lat="45.02352537406155" lon="8.053733227050587"><ele>220.14285714285714</ele><time>2026-05-03T10:49:55Z</time></trkpt><trkpt lat="45.02357358956792" lon="8.053668590234132"><ele>221.57142857142856</ele><time>2026-05-03T10:49:58Z</time></trkpt><trkpt lat="45.02363510100147" lon="8.053598578714155"><ele>223.0</ele><time>2026-05-03T10:50:00Z</time></trkpt><trkpt lat="45.02367030942506" lon="8.053519937204394"><ele>223.0</ele><time>2026-05-03T10:50:07Z</time></trkpt><trkpt lat="45.023749856549856" lon="8.053510260217722"><ele>223.0</ele><time>2026-05-03T10:50:09Z</time></trkpt><trkpt lat="45.02379822332991" lon="8.053448956504303"><ele>223.0</ele><time>2026-05-03T10:50:12Z</time></trkpt><trkpt lat="45.023847189271365" lon="8.053378938100858"><ele>223.0</ele><time>2026-05-03T10:50:16Z</time></trkpt><trkpt lat="45.023887828257806" lon="8.053307645004324"><ele>223.0</ele><time>2026-05-03T10:50:20Z</time></trkpt><trkpt lat="45.02393117844604" lon="8.053218858722792"><ele>223.0</ele><time>2026-05-03T10:50:25Z</time></trkpt><trkpt lat="45.023995706495214" lon="8.05314988636748"><ele>223.0</ele><time>2026-05-03T10:50:28Z</time></trkpt><trkpt lat="45.024054522480164" lon="8.053099473021833"><ele>223.66666666666666</ele><time>2026-05-03T10:50:32Z</time></trkpt><trkpt lat="45.024129319589065" lon="8.053045748956757"><ele>224.33333333333331</ele><time>2026-05-03T10:50:36Z</time></trkpt><trkpt lat="45.024189181872266" lon="8.05296414538458"><ele>225.0</ele><time>2026-05-03T10:50:41Z</time></trkpt><trkpt lat="45.024244888647196" lon="8.05288882690782"><ele>225.66666666666669</ele><time>2026-05-03T10:50:46Z</time></trkpt><trkpt lat="45.024305933050535" lon="8.052831497413935"><ele>226.33333333333334</ele><time>2026-05-03T10:50:50Z</time></trkpt><trkpt lat="45.02436356437616" lon="8.052757734994769"><ele>227.0</ele><time>2026-05-03T10:50:55Z</time></trkpt><trkpt lat="45.02441552527552" lon="8.052665586610452"><ele>227.0</ele><time>2026-05-03T10:51:01Z</time></trkpt><trkpt lat="45.024476272706366" lon="8.052596903455115"><ele>227.00000000000003</ele><time>2026-05-03T10:51:05.999Z</time></trkpt><trkpt lat="45.024530550705016" lon="8.052520528062944"><ele>227.0</ele><time>2026-05-03T10:51:11Z</time></trkpt><trkpt lat="45.02456530260597" lon="8.052441643277954"><ele>227.0</ele><time>2026-05-03T10:51:15Z</time></trkpt><trkpt lat="45.0245999118665" lon="8.052365367795915"><ele>227.00000000000003</ele><time>2026-05-03T10:51:19Z</time></trkpt><trkpt lat="45.024653599838395" lon="8.052293133207845"><ele>227.0</ele><time>2026-05-03T10:51:24Z</time></trkpt><trkpt lat="45.024704213223394" lon="8.05223539395739"><ele>227.0</ele><time>2026-05-03T10:51:28Z</time></trkpt><trkpt lat="45.024765355699124" lon="8.052184455426145"><ele>226.57142857142858</ele><time>2026-05-03T10:51:32Z</time></trkpt><trkpt lat="45.02481286003884" lon="8.052124004620651"><ele>226.14285714285717</ele><time>2026-05-03T10:51:36Z</time></trkpt><trkpt lat="45.02486667111259" lon="8.05204615027366"><ele>225.71428571428572</ele><time>2026-05-03T10:51:41Z</time></trkpt><trkpt lat="45.02492742372613" lon="8.051973275489432"><ele>225.28571428571428</ele><time>2026-05-03T10:51:46Z</time></trkpt><trkpt lat="45.02498035697125" lon="8.051919893662975"><ele>224.85714285714286</ele><time>2026-05-03T10:51:50Z</time></trkpt><trkpt lat="45.02502192693849" lon="8.051852369233822"><ele>224.42857142857144</ele><time>2026-05-03T10:51:54Z</time></trkpt><trkpt lat="45.02508071155907" lon="8.05177436105696"><ele>224.0</ele><time>2026-05-03T10:51:59Z</time></trkpt><trkpt lat="45.025132099360064" lon="8.051720702308113"><ele>224.0</ele><time>2026-05-03T10:52:03Z</time></trkpt><trkpt lat="45.02516197052282" lon="8.051637638627675"><ele>224.0</ele><time>2026-05-03T10:52:07Z</time></trkpt><trkpt lat="45.02516345469057" lon="8.051537463345214"><ele>224.0</ele><time>2026-05-03T10:52:11Z</time></trkpt><trkpt lat="45.02521278581322" lon="8.051476851795092"><ele>224.0</ele><time>2026-05-03T10:52:15Z</time></trkpt><trkpt lat="45.02527026329508" lon="8.051432872715061"><ele>224.0</ele><time>2026-05-03T10:52:19Z</time></trkpt><trkpt lat="45.02532599769717" lon="8.05135705906039"><ele>224.0</ele><time>2026-05-03T10:52:24Z</time></trkpt><trkpt lat="45.02537872905336" lon="8.051297454537794"><ele>224.0</ele><time>2026-05-03T10:52:28Z</time></trkpt><trkpt lat="45.02544298756628" lon="8.05125413007791"><ele>226.57142857142856</ele><time>2026-05-03T10:52:32Z</time></trkpt><trkpt lat="45.02549064077691" lon="8.051180225887881"><ele>229.14285714285714</ele><time>2026-05-03T10:52:36Z</time></trkpt><trkpt lat="45.025540414763555" lon="8.051105927117412"><ele>231.71428571428572</ele><time>2026-05-03T10:52:40Z</time></trkpt><trkpt lat="45.025572782876424" lon="8.051020434006272"><ele>234.28571428571428</ele><time>2026-05-03T10:52:44Z</time></trkpt><trkpt lat="45.02559838264113" lon="8.050932372596657"><ele>236.85714285714283</ele><time>2026-05-03T10:52:48Z</time></trkpt><trkpt lat="45.02562040263515" lon="8.050841719946273"><ele>239.42857142857142</ele><time>2026-05-03T10:52:52Z</time></trkpt><trkpt lat="45.02565236644739" lon="8.050762259945257"><ele>242.0</ele><time>2026-05-03T10:52:56Z</time></trkpt><trkpt lat="45.025706090582204" lon="8.050678973312884"><ele>243.7142857142857</ele><time>2026-05-03T10:53:01Z</time></trkpt><trkpt lat="45.02575992534434" lon="8.05061223283979"><ele>245.4285714285714</ele><time>2026-05-03T10:53:06Z</time></trkpt><trkpt lat="45.025779731311204" lon="8.050509906747008"><ele>247.14285714285714</ele><time>2026-05-03T10:53:09.999Z</time></trkpt><trkpt lat="45.02580269066301" lon="8.050412304704636"><ele>248.85714285714283</ele><time>2026-05-03T10:53:15Z</time></trkpt><trkpt lat="45.02584347744612" lon="8.050336962580229"><ele>250.57142857142856</ele><time>2026-05-03T10:53:20Z</time></trkpt><trkpt lat="45.02588415818131" lon="8.050265093169486"><ele>252.28571428571428</ele><time>2026-05-03T10:53:25Z</time></trkpt><trkpt lat="45.025937087501525" lon="8.050209353883526"><ele>254.0</ele><time>2026-05-03T10:53:28Z</time></trkpt><trkpt lat="45.02601003058604" lon="8.050153362441991"><ele>252.42857142857144</ele><time>2026-05-03T10:53:33Z</time></trkpt><trkpt lat="45.02605978143839" lon="8.050093144590704"><ele>250.85714285714283</ele><time>2026-05-03T10:53:37Z</time></trkpt><trkpt lat="45.02613246977474" lon="8.050060693529977"><ele>249.28571428571428</ele><time>2026-05-03T10:53:41Z</time></trkpt><trkpt lat="45.02619091143392" lon="8.049986938593618"><ele>247.71428571428572</ele><time>2026-05-03T10:53:46Z</time></trkpt><trkpt lat="45.02624693836047" lon="8.049938526776977"><ele>246.14285714285717</ele><time>2026-05-03T10:53:50Z</time></trkpt><trkpt lat="45.02630878171041" lon="8.049863703452592"><ele>244.57142857142856</ele><time>2026-05-03T10:53:55Z</time></trkpt><trkpt lat="45.026361427843455" lon="8.049807922630178"><ele>243.0</ele><time>2026-05-03T10:53:59Z</time></trkpt><trkpt lat="45.02643526249874" lon="8.049770362399874"><ele>243.0</ele><time>2026-05-03T10:54:04Z</time></trkpt><trkpt lat="45.02648052502076" lon="8.049864815884982"><ele>243.0</ele><time>2026-05-03T10:54:59Z</time></trkpt><trkpt lat="45.02653632305712" lon="8.049936507551331"><ele>243.0</ele><time>2026-05-03T10:55:04Z</time></trkpt><trkpt lat="45.02659091602077" lon="8.049982170694564"><ele>243.0</ele><time>2026-05-03T10:55:07.999Z</time></trkpt><trkpt lat="45.026644606499616" lon="8.05004733174095"><ele>243.0</ele><time>2026-05-03T10:55:11.999Z</time></trkpt><trkpt lat="45.026704836777704" lon="8.050095010139158"><ele>243.0</ele><time>2026-05-03T10:55:15.999Z</time></trkpt><trkpt lat="45.0267578748701" lon="8.050147493177862"><ele>243.0</ele><time>2026-05-03T10:55:20Z</time></trkpt><trkpt lat="45.02681152267223" lon="8.050206285841094"><ele>240.16666666666666</ele><time>2026-05-03T10:55:23Z</time></trkpt><trkpt lat="45.02688422828804" lon="8.050290286320838"><ele>237.33333333333331</ele><time>2026-05-03T10:55:26Z</time></trkpt><trkpt lat="45.026951737538496" lon="8.050346329874275"><ele>234.5</ele><time>2026-05-03T10:55:29Z</time></trkpt><trkpt lat="45.027018084020874" lon="8.050415453859209"><ele>231.66666666666666</ele><time>2026-05-03T10:55:31Z</time></trkpt><trkpt lat="45.02708158561079" lon="8.050476956838718"><ele>228.83333333333331</ele><time>2026-05-03T10:55:33Z</time></trkpt><trkpt lat="45.027158617504334" lon="8.05056012699748"><ele>226.0</ele><time>2026-05-03T10:55:35Z</time></trkpt><trkpt lat="45.027240328854624" lon="8.050634299146209"><ele>225.99999999999997</ele><time>2026-05-03T10:55:38Z</time></trkpt><trkpt lat="45.02729308974831" lon="8.050744257281293"><ele>226.0</ele><time>2026-05-03T10:55:40Z</time></trkpt><trkpt lat="45.02736780162071" lon="8.050804805130062"><ele>226.0</ele><time>2026-05-03T10:55:42Z</time></trkpt><trkpt lat="45.027417649680075" lon="8.050870227940841"><ele>226.0</ele><time>2026-05-03T10:55:44Z</time></trkpt><trkpt lat="45.02749898004361" lon="8.050935302362198"><ele>225.99999999999997</ele><time>2026-05-03T10:55:46Z</time></trkpt><trkpt lat="45.0275803133655" lon="8.050963068994118"><ele>226.0</ele><time>2026-05-03T10:55:47Z</time></trkpt><trkpt lat="45.02769294971363" lon="8.0510464433175"><ele>228.20000000000002</ele><time>2026-05-03T10:55:49Z</time></trkpt><trkpt lat="45.02780554608778" lon="8.051072891315137"><ele>230.40000000000003</ele><time>2026-05-03T10:55:51Z</time></trkpt><trkpt lat="45.0279284488842" lon="8.051087932689924"><ele>232.6</ele><time>2026-05-03T10:55:53Z</time></trkpt><trkpt lat="45.02801094026028" lon="8.05112809303756"><ele>234.8</ele><time>2026-05-03T10:55:54Z</time></trkpt><trkpt lat="45.028130629191516" lon="8.05117618895818"><ele>237.0</ele><time>2026-05-03T10:55:56Z</time></trkpt><trkpt lat="45.02822847242287" lon="8.051254375134935"><ele>238.6</ele><time>2026-05-03T10:55:58Z</time></trkpt><trkpt lat="45.02833551323362" lon="8.051306547778827"><ele>240.2</ele><time>2026-05-03T10:56:00Z</time></trkpt><trkpt lat="45.028449863773055" lon="8.051365426320416"><ele>241.8</ele><time>2026-05-03T10:56:02Z</time></trkpt><trkpt lat="45.02855168488722" lon="8.05140577414565"><ele>243.4</ele><time>2026-05-03T10:56:04Z</time></trkpt><trkpt lat="45.028649464309524" lon="8.051423194851491"><ele>245.0</ele><time>2026-05-03T10:56:06Z</time></trkpt><trkpt lat="45.02877032390471" lon="8.05144813430726"><ele>245.00000000000003</ele><time>2026-05-03T10:56:08Z</time></trkpt><trkpt lat="45.02887415219445" lon="8.051467660786294"><ele>245.0</ele><time>2026-05-03T10:56:10Z</time></trkpt><trkpt lat="45.02897405928891" lon="8.051486953057502"><ele>245.0</ele><time>2026-05-03T10:56:12Z</time></trkpt><trkpt lat="45.02905241733564" lon="8.051486175445122"><ele>245.0</ele><time>2026-05-03T10:56:14Z</time></trkpt><trkpt lat="45.029119974601045" lon="8.051509391867834"><ele>245.00000000000003</ele><time>2026-05-03T10:56:16Z</time></trkpt><trkpt lat="45.029202232398525" lon="8.051516737577629"><ele>245.0</ele><time>2026-05-03T10:56:19Z</time></trkpt><trkpt lat="45.02926684709053" lon="8.051516562769756"><ele>245.0</ele><time>2026-05-03T10:56:22Z</time></trkpt><trkpt lat="45.029336407395704" lon="8.051501330520503"><ele>245.0</ele><time>2026-05-03T10:56:25Z</time></trkpt><trkpt lat="45.02940328059827" lon="8.05148164638375"><ele>245.0</ele><time>2026-05-03T10:56:30Z</time></trkpt><trkpt lat="45.029478598431744" lon="8.051493423331788"><ele>245.0</ele><time>2026-05-03T10:56:34Z</time></trkpt><trkpt lat="45.02954930987646" lon="8.051537973913929"><ele>245.0</ele><time>2026-05-03T10:56:38Z</time></trkpt><trkpt lat="45.02960631558645" lon="8.051580480727917"><ele>245.0</ele><time>2026-05-03T10:56:42Z</time></trkpt><trkpt lat="45.029672073787026" lon="8.051617040752603"><ele>245.0</ele><time>2026-05-03T10:56:46Z</time></trkpt><trkpt lat="45.02974043436302" lon="8.051715037982587"><ele>245.0</ele><time>2026-05-03T10:56:50Z</time></trkpt><trkpt lat="45.029804724171726" lon="8.051774592553615"><ele>245.0</ele><time>2026-05-03T10:56:55Z</time></trkpt><trkpt lat="45.029870194650606" lon="8.051815815868446"><ele>245.0</ele><time>2026-05-03T10:56:58Z</time></trkpt><trkpt lat="45.029914277417326" lon="8.051903662364122"><ele>245.0</ele><time>2026-05-03T10:57:01Z</time></trkpt><trkpt lat="45.0299585981615" lon="8.051970128191371"><ele>245.0</ele><time>2026-05-03T10:57:04.999Z</time></trkpt><trkpt lat="45.02998102423486" lon="8.05208070528585"><ele>245.0</ele><time>2026-05-03T10:57:07.999Z</time></trkpt><trkpt lat="45.0299825841553" lon="8.052190909665182"><ele>245.0</ele><time>2026-05-03T10:57:10.999Z</time></trkpt><trkpt lat="45.02996072757009" lon="8.052310157059281"><ele>245.0</ele><time>2026-05-03T10:57:13.999Z</time></trkpt><trkpt lat="45.0299349809709" lon="8.052427372209433"><ele>245.0</ele><time>2026-05-03T10:57:17.999Z</time></trkpt><trkpt lat="45.029948290628894" lon="8.052528570362043"><ele>245.0</ele><time>2026-05-03T10:57:22.999Z</time></trkpt><trkpt lat="45.02994429478525" lon="8.052638454394975"><ele>245.0</ele><time>2026-05-03T10:57:28Z</time></trkpt><trkpt lat="45.02994168154462" lon="8.052732111192705"><ele>245.0</ele><time>2026-05-03T10:57:32Z</time></trkpt><trkpt lat="45.03000841601711" lon="8.05272153164496"><ele>245.0</ele><time>2026-05-03T10:57:36Z</time></trkpt><trkpt lat="45.03004171974515" lon="8.052635635279778"><ele>245.0</ele><time>2026-05-03T10:57:40Z</time></trkpt><trkpt lat="45.03006693755064" lon="8.052543505657807"><ele>246.57142857142856</ele><time>2026-05-03T10:57:45Z</time></trkpt><trkpt lat="45.03007113853415" lon="8.052453944493326"><ele>248.14285714285714</ele><time>2026-05-03T10:57:52Z</time></trkpt><trkpt lat="45.0301010847246" lon="8.052374983224825"><ele>249.71428571428572</ele><time>2026-05-03T10:58:17Z</time></trkpt><trkpt lat="45.030172438240115" lon="8.052388479221941"><ele>251.28571428571428</ele><time>2026-05-03T10:58:25Z</time></trkpt><trkpt lat="45.03020704329057" lon="8.052308531801181"><ele>252.85714285714283</ele><time>2026-05-03T10:58:37Z</time></trkpt><trkpt lat="45.030242915768284" lon="8.052214669177667"><ele>254.42857142857142</ele><time>2026-05-03T10:58:43Z</time></trkpt><trkpt lat="45.030256097316745" lon="8.052112138192493"><ele>256.0</ele><time>2026-05-03T10:58:48Z</time></trkpt><trkpt lat="45.03025647826525" lon="8.052008038378933"><ele>256.0</ele><time>2026-05-03T10:58:53Z</time></trkpt><trkpt lat="45.0302471852255" lon="8.051901818488489"><ele>255.99999999999997</ele><time>2026-05-03T10:59:00Z</time></trkpt><trkpt lat="45.0302488125449" lon="8.051797617366072"><ele>256.0</ele><time>2026-05-03T10:59:05Z</time></trkpt><trkpt lat="45.03024421509864" lon="8.051693221623433"><ele>256.0</ele><time>2026-05-03T10:59:09.999Z</time></trkpt><trkpt lat="45.03024892349452" lon="8.051599848824493"><ele>255.99999999999997</ele><time>2026-05-03T10:59:14.999Z</time></trkpt><trkpt lat="45.030249318276255" lon="8.051503006640413"><ele>256.0</ele><time>2026-05-03T10:59:18.999Z</time></trkpt><trkpt lat="45.03025342429691" lon="8.051400699451378"><ele>256.0</ele><time>2026-05-03T10:59:23.999Z</time></trkpt><trkpt lat="45.03028900011637" lon="8.051300461214021"><ele>256.57142857142856</ele><time>2026-05-03T10:59:28.999Z</time></trkpt><trkpt lat="45.030321608412024" lon="8.051196167871458"><ele>257.1428571428571</ele><time>2026-05-03T10:59:34Z</time></trkpt><trkpt lat="45.03036318582423" lon="8.051117314976594"><ele>257.7142857142857</ele><time>2026-05-03T10:59:38Z</time></trkpt><trkpt lat="45.030384785563975" lon="8.051025502588956"><ele>258.2857142857143</ele><time>2026-05-03T10:59:43Z</time></trkpt><trkpt lat="45.03044368721778" lon="8.050983104238947"><ele>258.8571428571429</ele><time>2026-05-03T10:59:48Z</time></trkpt><trkpt lat="45.030511824271215" lon="8.050930894356574"><ele>259.42857142857144</ele><time>2026-05-03T10:59:52Z</time></trkpt><trkpt lat="45.03058696026725" lon="8.050890443339878"><ele>260.0</ele><time>2026-05-03T10:59:57Z</time></trkpt><trkpt lat="45.03063994459049" lon="8.050837742324381"><ele>260.00000000000006</ele><time>2026-05-03T11:00:01Z</time></trkpt><trkpt lat="45.03071245541817" lon="8.050808200314336"><ele>260.0</ele><time>2026-05-03T11:00:05Z</time></trkpt><trkpt lat="45.0307829979972" lon="8.050788391647323"><ele>260.0</ele><time>2026-05-03T11:00:09Z</time></trkpt><trkpt lat="45.03084674798398" lon="8.050768352986246"><ele>260.0</ele><time>2026-05-03T11:00:13Z</time></trkpt><trkpt lat="45.03090938403687" lon="8.050748628554508"><ele>260.0</ele><time>2026-05-03T11:00:17Z</time></trkpt><trkpt lat="45.03097206791257" lon="8.050717022452698"><ele>260.00000000000006</ele><time>2026-05-03T11:00:21Z</time></trkpt><trkpt lat="45.0310346419767" lon="8.05068107609882"><ele>260.0</ele><time>2026-05-03T11:00:25Z</time></trkpt><trkpt lat="45.031098152768905" lon="8.050648810610607"><ele>260.28571428571433</ele><time>2026-05-03T11:00:29Z</time></trkpt><trkpt lat="45.031153373469955" lon="8.050603530494746"><ele>260.57142857142856</ele><time>2026-05-03T11:00:33Z</time></trkpt><trkpt lat="45.03119246363206" lon="8.050524274813275"><ele>260.8571428571429</ele><time>2026-05-03T11:00:37Z</time></trkpt><trkpt lat="45.0312247099096" lon="8.05044117859125"><ele>261.14285714285717</ele><time>2026-05-03T11:00:41Z</time></trkpt><trkpt lat="45.03125553910129" lon="8.050357539412262"><ele>261.42857142857144</ele><time>2026-05-03T11:00:45Z</time></trkpt><trkpt lat="45.03127916799333" lon="8.05026654328859"><ele>261.7142857142857</ele><time>2026-05-03T11:00:49Z</time></trkpt><trkpt lat="45.031301367958704" lon="8.050178493797421"><ele>262.0</ele><time>2026-05-03T11:00:53Z</time></trkpt><trkpt lat="45.03132053850294" lon="8.050091763705534"><ele>262.0</ele><time>2026-05-03T11:00:57Z</time></trkpt><trkpt lat="45.031326326556005" lon="8.04999855858254"><ele>262.0</ele><time>2026-05-03T11:01:01Z</time></trkpt><trkpt lat="45.03133844794966" lon="8.049905561549862"><ele>262.0</ele><time>2026-05-03T11:01:04.999Z</time></trkpt><trkpt lat="45.031346098747775" lon="8.049810376659229"><ele>262.0</ele><time>2026-05-03T11:01:08.999Z</time></trkpt><trkpt lat="45.031350493978195" lon="8.049719848964584"><ele>262.0</ele><time>2026-05-03T11:01:12.999Z</time></trkpt><trkpt lat="45.03136704481663" lon="8.049625396809924"><ele>262.0</ele><time>2026-05-03T11:01:16.999Z</time></trkpt><trkpt lat="45.03137440492165" lon="8.04952006437754"><ele>262.0</ele><time>2026-05-03T11:01:20.999Z</time></trkpt><trkpt lat="45.031394813046944" lon="8.049425646667894"><ele>262.42857142857144</ele><time>2026-05-03T11:01:24.999Z</time></trkpt><trkpt lat="45.03142394842973" lon="8.049339434164724"><ele>262.8571428571429</ele><time>2026-05-03T11:01:28.999Z</time></trkpt><trkpt lat="45.03145513037516" lon="8.049260081434758"><ele>263.2857142857143</ele><time>2026-05-03T11:01:32.999Z</time></trkpt><trkpt lat="45.031500460023665" lon="8.049196266272178"><ele>263.7142857142857</ele><time>2026-05-03T11:01:36.999Z</time></trkpt><trkpt lat="45.03154591954443" lon="8.049127352669778"><ele>264.1428571428571</ele><time>2026-05-03T11:01:41Z</time></trkpt><trkpt lat="45.03159906896808" lon="8.049053106474673"><ele>264.57142857142856</ele><time>2026-05-03T11:01:46Z</time></trkpt><trkpt lat="45.031651835539435" lon="8.048972359481054"><ele>265.0</ele><time>2026-05-03T11:01:51Z</time></trkpt><trkpt lat="45.031704450206945" lon="8.048897074548508"><ele>266.0</ele><time>2026-05-03T11:01:56Z</time></trkpt><trkpt lat="45.031759910012184" lon="8.048822605733651"><ele>267.0</ele><time>2026-05-03T11:02:01Z</time></trkpt><trkpt lat="45.03182319703939" lon="8.04876596624897"><ele>268.0</ele><time>2026-05-03T11:02:06Z</time></trkpt><trkpt lat="45.03189050001366" lon="8.048717213151416"><ele>269.0</ele><time>2026-05-03T11:02:11Z</time></trkpt><trkpt lat="45.03196416762591" lon="8.048686161719091"><ele>270.0</ele><time>2026-05-03T11:02:16Z</time></trkpt><trkpt lat="45.03204130293849" lon="8.048664434187177"><ele>271.0</ele><time>2026-05-03T11:02:20Z</time></trkpt><trkpt lat="45.03211301734365" lon="8.048647732969243"><ele>271.0</ele><time>2026-05-03T11:02:25Z</time></trkpt><trkpt lat="45.032186189953954" lon="8.048625980955041"><ele>271.0</ele><time>2026-05-03T11:02:30Z</time></trkpt><trkpt lat="45.03226302826395" lon="8.048624052764383"><ele>271.0</ele><time>2026-05-03T11:02:35Z</time></trkpt><trkpt lat="45.03233903352313" lon="8.04859706468911"><ele>271.0</ele><time>2026-05-03T11:02:40Z</time></trkpt><trkpt lat="45.03239946265832" lon="8.048568272972416"><ele>271.0</ele><time>2026-05-03T11:02:44Z</time></trkpt><trkpt lat="45.03246135156906" lon="8.048539535836744"><ele>271.0</ele><time>2026-05-03T11:02:48Z</time></trkpt><trkpt lat="45.03252204357245" lon="8.048506513789752"><ele>271.0</ele><time>2026-05-03T11:02:52Z</time></trkpt><trkpt lat="45.03258619236031" lon="8.048476055717337"><ele>270.3333333333333</ele><time>2026-05-03T11:02:56Z</time></trkpt><trkpt lat="45.03265063049303" lon="8.048442954232554"><ele>269.66666666666663</ele><time>2026-05-03T11:02:59.999Z</time></trkpt><trkpt lat="45.03272244434034" lon="8.048418899346448"><ele>269.0</ele><time>2026-05-03T11:03:03.999Z</time></trkpt><trkpt lat="45.03279336694369" lon="8.048404346225857"><ele>268.3333333333333</ele><time>2026-05-03T11:03:07.999Z</time></trkpt><trkpt lat="45.03286798802525" lon="8.048389480508348"><ele>267.6666666666667</ele><time>2026-05-03T11:03:11.999Z</time></trkpt><trkpt lat="45.032946811513874" lon="8.048371497793976"><ele>267.0</ele><time>2026-05-03T11:03:15.999Z</time></trkpt><trkpt lat="45.03302626100814" lon="8.048344019488612"><ele>267.00000000000006</ele><time>2026-05-03T11:03:19.999Z</time></trkpt><trkpt lat="45.03309432892944" lon="8.048320966384152"><ele>267.0</ele><time>2026-05-03T11:03:23.999Z</time></trkpt><trkpt lat="45.0331633203414" lon="8.048298356344523"><ele>267.0</ele><time>2026-05-03T11:03:27.999Z</time></trkpt><trkpt lat="45.033228846203784" lon="8.048272417505284"><ele>267.0</ele><time>2026-05-03T11:03:31.999Z</time></trkpt><trkpt lat="45.0332950948706" lon="8.048259909910163"><ele>267.0</ele><time>2026-05-03T11:03:35.999Z</time></trkpt><trkpt lat="45.033361517155605" lon="8.04824934708285"><ele>267.00000000000006</ele><time>2026-05-03T11:03:39.999Z</time></trkpt><trkpt lat="45.0334258586131" lon="8.048226425742671"><ele>267.0</ele><time>2026-05-03T11:03:44Z</time></trkpt><trkpt lat="45.03349422677294" lon="8.048217228039194"><ele>267.14285714285717</ele><time>2026-05-03T11:03:48Z</time></trkpt><trkpt lat="45.03357899154532" lon="8.048203432810523"><ele>267.2857142857143</ele><time>2026-05-03T11:03:53Z</time></trkpt><trkpt lat="45.03364337021513" lon="8.048181603992534"><ele>267.42857142857144</ele><time>2026-05-03T11:03:57Z</time></trkpt><trkpt lat="45.033701999846734" lon="8.048140809063188"><ele>267.57142857142856</ele><time>2026-05-03T11:04:02Z</time></trkpt><trkpt lat="45.03376105431124" lon="8.048093459247262"><ele>267.7142857142857</ele><time>2026-05-03T11:04:11Z</time></trkpt><trkpt lat="45.033824543387" lon="8.048037380026754"><ele>267.8571428571429</ele><time>2026-05-03T11:04:16Z</time></trkpt><trkpt lat="45.03386266320825" lon="8.047949445066505"><ele>268.0</ele><time>2026-05-03T11:04:21Z</time></trkpt><trkpt lat="45.03389777124206" lon="8.047862645063484"><ele>268.0</ele><time>2026-05-03T11:04:26Z</time></trkpt><trkpt lat="45.03393416036715" lon="8.047763998898715"><ele>268.0</ele><time>2026-05-03T11:04:31Z</time></trkpt><trkpt lat="45.03394185829427" lon="8.047666262781927"><ele>268.0</ele><time>2026-05-03T11:04:35Z</time></trkpt><trkpt lat="45.03396524578649" lon="8.047580130992554"><ele>268.0</ele><time>2026-05-03T11:04:39Z</time></trkpt><trkpt lat="45.03397465945773" lon="8.047481891663143"><ele>268.0</ele><time>2026-05-03T11:04:43Z</time></trkpt><trkpt lat="45.03398834053472" lon="8.047394864173361"><ele>268.0</ele><time>2026-05-03T11:04:47Z</time></trkpt><trkpt lat="45.03400595494042" lon="8.047303154589041"><ele>268.0</ele><time>2026-05-03T11:04:51Z</time></trkpt><trkpt lat="45.03402565761088" lon="8.047213187036322"><ele>267.42857142857144</ele><time>2026-05-03T11:04:55Z</time></trkpt><trkpt lat="45.034041078071034" lon="8.047116352245137"><ele>266.85714285714283</ele><time>2026-05-03T11:04:59Z</time></trkpt><trkpt lat="45.03406346644715" lon="8.047023861775626"><ele>266.2857142857143</ele><time>2026-05-03T11:05:02.999Z</time></trkpt><trkpt lat="45.034083772702466" lon="8.046922779993519"><ele>265.7142857142857</ele><time>2026-05-03T11:05:07.999Z</time></trkpt><trkpt lat="45.03409666935872" lon="8.046827796367875"><ele>265.14285714285717</ele><time>2026-05-03T11:05:11.999Z</time></trkpt><trkpt lat="45.03412197296244" lon="8.046727713219697"><ele>264.57142857142856</ele><time>2026-05-03T11:05:16.999Z</time></trkpt><trkpt lat="45.034140249052925" lon="8.04661895774314"><ele>264.0</ele><time>2026-05-03T11:05:21.999Z</time></trkpt><trkpt lat="45.03415816216484" lon="8.046531007662878"><ele>265.57142857142856</ele><time>2026-05-03T11:05:25.999Z</time></trkpt><trkpt lat="45.03422192305734" lon="8.046487993235862"><ele>267.14285714285717</ele><time>2026-05-03T11:05:29.999Z</time></trkpt><trkpt lat="45.0342985102857" lon="8.046538763098647"><ele>268.7142857142857</ele><time>2026-05-03T11:05:33.999Z</time></trkpt><trkpt lat="45.03436179074734" lon="8.046599456806284"><ele>270.2857142857143</ele><time>2026-05-03T11:05:37.999Z</time></trkpt><trkpt lat="45.034424303678705" lon="8.046628939487567"><ele>271.85714285714283</ele><time>2026-05-03T11:05:41.999Z</time></trkpt><trkpt lat="45.034487286792086" lon="8.046661271824224"><ele>273.42857142857144</ele><time>2026-05-03T11:05:45.999Z</time></trkpt><trkpt lat="45.034560348364096" lon="8.046701499357697"><ele>275.0</ele><time>2026-05-03T11:05:51Z</time></trkpt><trkpt lat="45.03463070858667" lon="8.046713961820354"><ele>275.0</ele><time>2026-05-03T11:05:55Z</time></trkpt><trkpt lat="45.03469513847731" lon="8.046768467579355"><ele>275.0</ele><time>2026-05-03T11:06:00Z</time></trkpt><trkpt lat="45.03475240720769" lon="8.046809124652771"><ele>275.0</ele><time>2026-05-03T11:06:04Z</time></trkpt><trkpt lat="45.034814604218184" lon="8.046870640008251"><ele>275.0</ele><time>2026-05-03T11:06:09Z</time></trkpt><trkpt lat="45.034866052467734" lon="8.046924257332904"><ele>275.0</ele><time>2026-05-03T11:06:13Z</time></trkpt><trkpt lat="45.03489634678226" lon="8.047014184939481"><ele>275.0</ele><time>2026-05-03T11:06:17Z</time></trkpt><trkpt lat="45.034932432842595" lon="8.0470927535336"><ele>275.0</ele><time>2026-05-03T11:06:21Z</time></trkpt><trkpt lat="45.03498097186017" lon="8.047149700439238"><ele>274.8571428571429</ele><time>2026-05-03T11:06:25Z</time></trkpt><trkpt lat="45.03500753032033" lon="8.047240088935801"><ele>274.7142857142857</ele><time>2026-05-03T11:06:29Z</time></trkpt><trkpt lat="45.03506704103412" lon="8.047308727125966"><ele>274.57142857142856</ele><time>2026-05-03T11:06:34Z</time></trkpt><trkpt lat="45.03512631517943" lon="8.04735091211693"><ele>274.42857142857144</ele><time>2026-05-03T11:06:38Z</time></trkpt><trkpt lat="45.03519678071361" lon="8.047386197576582"><ele>274.2857142857143</ele><time>2026-05-03T11:06:43Z</time></trkpt><trkpt lat="45.035255576487394" lon="8.047419160863834"><ele>274.14285714285717</ele><time>2026-05-03T11:06:47Z</time></trkpt><trkpt lat="45.0353329024697" lon="8.047420057615993"><ele>274.0</ele><time>2026-05-03T11:06:52Z</time></trkpt><trkpt lat="45.0353957285522" lon="8.047392130399336"><ele>274.00000000000006</ele><time>2026-05-03T11:06:56Z</time></trkpt><trkpt lat="45.035468963655475" lon="8.047380740108691"><ele>274.0</ele><time>2026-05-03T11:07:01Z</time></trkpt><trkpt lat="45.03553192876028" lon="8.047352916992097"><ele>274.0</ele><time>2026-05-03T11:07:05Z</time></trkpt><trkpt lat="45.03559891121382" lon="8.047307571859875"><ele>274.0</ele><time>2026-05-03T11:07:09.999Z</time></trkpt><trkpt lat="45.03567118610773" lon="8.047289300174917"><ele>274.0</ele><time>2026-05-03T11:07:14.999Z</time></trkpt><trkpt lat="45.03574254040223" lon="8.047258904956005"><ele>274.00000000000006</ele><time>2026-05-03T11:07:19.999Z</time></trkpt><trkpt lat="45.03581733114854" lon="8.047232572387147"><ele>274.0</ele><time>2026-05-03T11:07:24.999Z</time></trkpt><trkpt lat="45.0358792404781" lon="8.047211522706156"><ele>273.8571428571429</ele><time>2026-05-03T11:07:28.999Z</time></trkpt><trkpt lat="45.035939363033535" lon="8.047183583521791"><ele>273.7142857142857</ele><time>2026-05-03T11:07:32.999Z</time></trkpt><trkpt lat="45.03599310595571" lon="8.047131481228401"><ele>273.57142857142856</ele><time>2026-05-03T11:07:36.999Z</time></trkpt><trkpt lat="45.036068247288874" lon="8.047104436149592"><ele>273.42857142857144</ele><time>2026-05-03T11:07:41.999Z</time></trkpt><trkpt lat="45.036136195811" lon="8.047064100542904"><ele>273.2857142857143</ele><time>2026-05-03T11:07:46.999Z</time></trkpt><trkpt lat="45.03619711118654" lon="8.04702841162426"><ele>273.14285714285717</ele><time>2026-05-03T11:07:50.999Z</time></trkpt><trkpt lat="45.036271160906686" lon="8.047004754067382"><ele>273.0</ele><time>2026-05-03T11:07:56Z</time></trkpt><trkpt lat="45.03633333908333" lon="8.046982909632485"><ele>273.0</ele><time>2026-05-03T11:08:00Z</time></trkpt><trkpt lat="45.03639343748328" lon="8.046924685779098"><ele>273.0</ele><time>2026-05-03T11:08:04Z</time></trkpt><trkpt lat="45.03643537793693" lon="8.046858187426038"><ele>273.0</ele><time>2026-05-03T11:08:08Z</time></trkpt><trkpt lat="45.03649113032717" lon="8.046792508760499"><ele>273.0</ele><time>2026-05-03T11:08:13Z</time></trkpt><trkpt lat="45.03655646533848" lon="8.04674202108265"><ele>273.0</ele><time>2026-05-03T11:08:17Z</time></trkpt><trkpt lat="45.03662781299342" lon="8.046722369522797"><ele>273.0</ele><time>2026-05-03T11:08:21Z</time></trkpt><trkpt lat="45.03668966269726" lon="8.046696113691235"><ele>273.0</ele><time>2026-05-03T11:08:25Z</time></trkpt><trkpt lat="45.03676674529498" lon="8.046668673668691"><ele>273.14285714285717</ele><time>2026-05-03T11:08:30Z</time></trkpt><trkpt lat="45.03684306964551" lon="8.046650116816355"><ele>273.2857142857143</ele><time>2026-05-03T11:08:35Z</time></trkpt><trkpt lat="45.036909962118486" lon="8.046626192572244"><ele>273.42857142857144</ele><time>2026-05-03T11:08:39Z</time></trkpt><trkpt lat="45.03697381291734" lon="8.04660669589438"><ele>273.57142857142856</ele><time>2026-05-03T11:08:43Z</time></trkpt><trkpt lat="45.03703172018693" lon="8.04656402729005"><ele>273.7142857142857</ele><time>2026-05-03T11:08:47Z</time></trkpt><trkpt lat="45.03709408191595" lon="8.046533256463892"><ele>273.8571428571429</ele><time>2026-05-03T11:08:51Z</time></trkpt><trkpt lat="45.03715687646412" lon="8.046504821928941"><ele>274.0</ele><time>2026-05-03T11:08:55Z</time></trkpt><trkpt lat="45.03722149457161" lon="8.046443394933293"><ele>274.0</ele><time>2026-05-03T11:09:00Z</time></trkpt><trkpt lat="45.037286506684254" lon="8.046384394388028"><ele>274.0</ele><time>2026-05-03T11:09:05Z</time></trkpt><trkpt lat="45.03733380957451" lon="8.046322047340078"><ele>274.0</ele><time>2026-05-03T11:09:09Z</time></trkpt><trkpt lat="45.03739061379319" lon="8.04624789072847"><ele>274.0</ele><time>2026-05-03T11:09:14Z</time></trkpt><trkpt lat="45.03745242342056" lon="8.046180480323896"><ele>274.0</ele><time>2026-05-03T11:09:19Z</time></trkpt><trkpt lat="45.03751402298094" lon="8.04611508197157"><ele>274.0</ele><time>2026-05-03T11:09:23.999Z</time></trkpt><trkpt lat="45.03758679523312" lon="8.046061785002905"><ele>275.5714285714286</ele><time>2026-05-03T11:09:28.999Z</time></trkpt><trkpt lat="45.037660268444284" lon="8.046033038428963"><ele>277.14285714285717</ele><time>2026-05-03T11:09:33.999Z</time></trkpt><trkpt lat="45.037721287061686" lon="8.046054971802654"><ele>278.7142857142857</ele><time>2026-05-03T11:09:37.999Z</time></trkpt><trkpt lat="45.03777934459061" lon="8.046095754344794"><ele>280.28571428571433</ele><time>2026-05-03T11:09:41.999Z</time></trkpt><trkpt lat="45.037831190384864" lon="8.046157609757069"><ele>281.8571428571429</ele><time>2026-05-03T11:09:45.999Z</time></trkpt><trkpt lat="45.03792924353645" lon="8.046196614682923"><ele>283.42857142857144</ele><time>2026-05-03T11:09:51.999Z</time></trkpt><trkpt lat="45.03799694662707" lon="8.04624030272866"><ele>285.0</ele><time>2026-05-03T11:09:55.999Z</time></trkpt><trkpt lat="45.03806345480817" lon="8.046297162314678"><ele>285.0</ele><time>2026-05-03T11:10:00.999Z</time></trkpt><trkpt lat="45.03812988783565" lon="8.046326000300526"><ele>285.0</ele><time>2026-05-03T11:10:06Z</time></trkpt><trkpt lat="45.03819850703754" lon="8.04631822973468"><ele>285.0</ele><time>2026-05-03T11:10:11Z</time></trkpt><trkpt lat="45.038264269195295" lon="8.046307501958553"><ele>285.0</ele><time>2026-05-03T11:10:17Z</time></trkpt><trkpt lat="45.038332875853335" lon="8.04629958434156"><ele>285.0</ele><time>2026-05-03T11:10:21Z</time></trkpt><trkpt lat="45.038405705315704" lon="8.04629299541449"><ele>285.0</ele><time>2026-05-03T11:10:27Z</time></trkpt><trkpt lat="45.03848072389365" lon="8.046290397991722"><ele>285.0</ele><time>2026-05-03T11:10:33Z</time></trkpt><trkpt lat="45.03854401276828" lon="8.046294333185312"><ele>284.42857142857144</ele><time>2026-05-03T11:10:38Z</time></trkpt><trkpt lat="45.03860847444375" lon="8.046274147831518"><ele>283.8571428571429</ele><time>2026-05-03T11:10:41Z</time></trkpt><trkpt lat="45.03868280505807" lon="8.046262238407948"><ele>283.28571428571433</ele><time>2026-05-03T11:10:44Z</time></trkpt><trkpt lat="45.03876472964063" lon="8.046227898455289"><ele>282.7142857142857</ele><time>2026-05-03T11:10:50Z</time></trkpt><trkpt lat="45.03882867130185" lon="8.046220088704626"><ele>282.14285714285717</ele><time>2026-05-03T11:10:54Z</time></trkpt><trkpt lat="45.038896309413424" lon="8.046194783389407"><ele>281.5714285714286</ele><time>2026-05-03T11:10:59Z</time></trkpt><trkpt lat="45.03897319795463" lon="8.046187552923945"><ele>281.0</ele><time>2026-05-03T11:11:04Z</time></trkpt><trkpt lat="45.03905122621378" lon="8.046186396775227"><ele>281.00000000000006</ele><time>2026-05-03T11:11:09Z</time></trkpt><trkpt lat="45.03912266117309" lon="8.046170273345304"><ele>281.0</ele><time>2026-05-03T11:11:14Z</time></trkpt><trkpt lat="45.039198948835256" lon="8.046164443754664"><ele>281.0</ele><time>2026-05-03T11:11:19Z</time></trkpt><trkpt lat="45.0392692217333" lon="8.04615543719642"><ele>281.0</ele><time>2026-05-03T11:11:23Z</time></trkpt><trkpt lat="45.03933980718568" lon="8.046148599790783"><ele>281.0</ele><time>2026-05-03T11:11:26.999Z</time></trkpt><trkpt lat="45.0394109527203" lon="8.046187278730201"><ele>281.00000000000006</ele><time>2026-05-03T11:11:31.999Z</time></trkpt><trkpt lat="45.03948352577071" lon="8.046223501714662"><ele>281.0</ele><time>2026-05-03T11:11:36.999Z</time></trkpt><trkpt lat="45.03954619177682" lon="8.046271286400554"><ele>280.83333333333337</ele><time>2026-05-03T11:11:40.999Z</time></trkpt><trkpt lat="45.03960892209995" lon="8.0463307756012"><ele>280.6666666666667</ele><time>2026-05-03T11:11:45.999Z</time></trkpt><trkpt lat="45.039672889349" lon="8.046386759363802"><ele>280.5</ele><time>2026-05-03T11:11:50.999Z</time></trkpt><trkpt lat="45.039722171545954" lon="8.046474599394962"><ele>280.3333333333333</ele><time>2026-05-03T11:11:55.999Z</time></trkpt><trkpt lat="45.03977002656485" lon="8.046548977818023"><ele>280.16666666666663</ele><time>2026-05-03T11:12:00.999Z</time></trkpt><trkpt lat="45.03984170573754" lon="8.046559196456462"><ele>280.0</ele><time>2026-05-03T11:12:08Z</time></trkpt><trkpt lat="45.039917494093956" lon="8.046535493415897"><ele>280.57142857142856</ele><time>2026-05-03T11:12:15Z</time></trkpt><trkpt lat="45.03998186478008" lon="8.046590661774164"><ele>281.1428571428571</ele><time>2026-05-03T11:12:20Z</time></trkpt><trkpt lat="45.04000860802228" lon="8.04667824245374"><ele>281.7142857142857</ele><time>2026-05-03T11:12:24Z</time></trkpt><trkpt lat="45.04004260846183" lon="8.046761899957913"><ele>282.2857142857143</ele><time>2026-05-03T11:12:29Z</time></trkpt><trkpt lat="45.04008345088748" lon="8.046835423316598"><ele>282.85714285714283</ele><time>2026-05-03T11:12:33Z</time></trkpt><trkpt lat="45.040119124423256" lon="8.046921144453957"><ele>283.42857142857144</ele><time>2026-05-03T11:12:38Z</time></trkpt><trkpt lat="45.040172897731075" lon="8.047002894714561"><ele>284.0</ele><time>2026-05-03T11:12:43Z</time></trkpt><trkpt lat="45.04023618889664" lon="8.047046201839807"><ele>284.0</ele><time>2026-05-03T11:12:48Z</time></trkpt><trkpt lat="45.040303511107645" lon="8.04711474899295"><ele>284.0</ele><time>2026-05-03T11:12:53Z</time></trkpt><trkpt lat="45.04036362975317" lon="8.047175982389891"><ele>284.0</ele><time>2026-05-03T11:12:58Z</time></trkpt><trkpt lat="45.04043615853228" lon="8.047206082065369"><ele>284.0</ele><time>2026-05-03T11:13:05Z</time></trkpt><trkpt lat="45.040498593344694" lon="8.047220806181262"><ele>284.0</ele><time>2026-05-03T11:13:10Z</time></trkpt><trkpt lat="45.04055942203177" lon="8.047266310647382"><ele>284.0</ele><time>2026-05-03T11:13:16Z</time></trkpt><trkpt lat="45.04063340969018" lon="8.047297681430294"><ele>284.0</ele><time>2026-05-03T11:13:22Z</time></trkpt><trkpt lat="45.04068868484966" lon="8.047354956896626"><ele>284.0</ele><time>2026-05-03T11:13:27Z</time></trkpt><trkpt lat="45.04074354654159" lon="8.04742937939314"><ele>284.0</ele><time>2026-05-03T11:13:32.999Z</time></trkpt><trkpt lat="45.04076304978966" lon="8.047531696577638"><ele>284.0</ele><time>2026-05-03T11:13:37.999Z</time></trkpt><trkpt lat="45.04077327536607" lon="8.047639848111954"><ele>284.0</ele><time>2026-05-03T11:13:43.999Z</time></trkpt><trkpt lat="45.04078537867025" lon="8.04773672769193"><ele>284.0</ele><time>2026-05-03T11:13:48.999Z</time></trkpt><trkpt lat="45.040782898991694" lon="8.047838373360987"><ele>284.0</ele><time>2026-05-03T11:13:54.999Z</time></trkpt><trkpt lat="45.04080270105827" lon="8.047931038726452"><ele>284.0</ele><time>2026-05-03T11:13:58.999Z</time></trkpt><trkpt lat="45.0408205576955" lon="8.048024662819222"><ele>283.0</ele><time>2026-05-03T11:14:03.999Z</time></trkpt><trkpt lat="45.04085708630051" lon="8.048113249139718"><ele>282.0</ele><time>2026-05-03T11:14:07.999Z</time></trkpt><trkpt lat="45.04088366239496" lon="8.04820473357605"><ele>281.0</ele><time>2026-05-03T11:14:12.999Z</time></trkpt><trkpt lat="45.04091554965328" lon="8.048298651504279"><ele>280.0</ele><time>2026-05-03T11:14:18Z</time></trkpt><trkpt lat="45.04094135461543" lon="8.048387873454773"><ele>279.0</ele><time>2026-05-03T11:14:23Z</time></trkpt><trkpt lat="45.0409725528833" lon="8.048473630506178"><ele>278.0</ele><time>2026-05-03T11:14:27Z</time></trkpt><trkpt lat="45.04100697694454" lon="8.048569184058536"><ele>277.0</ele><time>2026-05-03T11:14:32Z</time></trkpt><trkpt lat="45.04105746909248" lon="8.048640214540615"><ele>277.0</ele><time>2026-05-03T11:14:37Z</time></trkpt><trkpt lat="45.041085573620826" lon="8.048722117202791"><ele>277.0</ele><time>2026-05-03T11:14:42Z</time></trkpt><trkpt lat="45.041128160757296" lon="8.048796555787925"><ele>277.0</ele><time>2026-05-03T11:14:47Z</time></trkpt><trkpt lat="45.041174173179535" lon="8.0488867593774"><ele>277.0</ele><time>2026-05-03T11:14:52Z</time></trkpt><trkpt lat="45.04121462955004" lon="8.048962425686886"><ele>277.0</ele><time>2026-05-03T11:14:57Z</time></trkpt><trkpt lat="45.041247725372116" lon="8.049041832961063"><ele>277.0</ele><time>2026-05-03T11:15:02Z</time></trkpt><trkpt lat="45.041244752684406" lon="8.049144919608375"><ele>277.0</ele><time>2026-05-03T11:15:07Z</time></trkpt><trkpt lat="45.04119573105772" lon="8.049228347105032"><ele>277.42857142857144</ele><time>2026-05-03T11:15:11Z</time></trkpt><trkpt lat="45.0411398469351" lon="8.04928018126755"><ele>277.85714285714283</ele><time>2026-05-03T11:15:15Z</time></trkpt><trkpt lat="45.041069130212136" lon="8.04931386503455"><ele>278.2857142857143</ele><time>2026-05-03T11:15:21Z</time></trkpt><trkpt lat="45.04099977947931" lon="8.04929036396027"><ele>278.7142857142857</ele><time>2026-05-03T11:15:27Z</time></trkpt><trkpt lat="45.04093791253667" lon="8.049272410807108"><ele>279.1428571428571</ele><time>2026-05-03T11:15:31.999Z</time></trkpt><trkpt lat="45.04087503228113" lon="8.049260173536284"><ele>279.57142857142856</ele><time>2026-05-03T11:15:35.999Z</time></trkpt><trkpt lat="45.04080377859399" lon="8.049239930782399"><ele>280.0</ele><time>2026-05-03T11:15:40.999Z</time></trkpt><trkpt lat="45.040735081451096" lon="8.049230844843303"><ele>280.0</ele><time>2026-05-03T11:15:46.999Z</time></trkpt><trkpt lat="45.0406634069721" lon="8.04926056782522"><ele>280.0</ele><time>2026-05-03T11:15:51.999Z</time></trkpt><trkpt lat="45.04061613456448" lon="8.049334108207537"><ele>280.0</ele><time>2026-05-03T11:15:55.999Z</time></trkpt><trkpt lat="45.04063190788751" lon="8.049430551360441"><ele>280.0</ele><time>2026-05-03T11:15:59.999Z</time></trkpt><trkpt lat="45.04067218392559" lon="8.049504588511484"><ele>280.0</ele><time>2026-05-03T11:16:03.999Z</time></trkpt><trkpt lat="45.040721498533635" lon="8.049563097825574"><ele>280.0</ele><time>2026-05-03T11:16:07.999Z</time></trkpt><trkpt lat="45.04077314236279" lon="8.049638449024092"><ele>280.0</ele><time>2026-05-03T11:16:12.999Z</time></trkpt><trkpt lat="45.04083045662104" lon="8.049685300694764"><ele>278.42857142857144</ele><time>2026-05-03T11:16:16.999Z</time></trkpt><trkpt lat="45.040891496095874" lon="8.049718611615164"><ele>276.8571428571429</ele><time>2026-05-03T11:16:22Z</time></trkpt><trkpt lat="45.040951877888524" lon="8.049744626553014"><ele>275.2857142857143</ele><time>2026-05-03T11:16:27Z</time></trkpt><trkpt lat="45.04100417024733" lon="8.049686733670583"><ele>273.7142857142857</ele><time>2026-05-03T11:16:31Z</time></trkpt><trkpt lat="45.04106298351033" lon="8.04961560736755"><ele>272.14285714285717</ele><time>2026-05-03T11:16:36Z</time></trkpt><trkpt lat="45.04112512767363" lon="8.049580084832362"><ele>270.57142857142856</ele><time>2026-05-03T11:16:40Z</time></trkpt><trkpt lat="45.041181611288806" lon="8.049531744971112"><ele>269.0</ele><time>2026-05-03T11:16:44Z</time></trkpt><trkpt lat="45.04122635585778" lon="8.04946362559054"><ele>269.0</ele><time>2026-05-03T11:16:48Z</time></trkpt><trkpt lat="45.04126030051511" lon="8.049381842664493"><ele>269.0</ele><time>2026-05-03T11:16:52Z</time></trkpt><trkpt lat="45.041325994296734" lon="8.04933317506733"><ele>269.0</ele><time>2026-05-03T11:16:57Z</time></trkpt><trkpt lat="45.04139001343525" lon="8.049279356632331"><ele>269.0</ele><time>2026-05-03T11:17:02Z</time></trkpt><trkpt lat="45.04143667990599" lon="8.049207171271757"><ele>269.0</ele><time>2026-05-03T11:17:06Z</time></trkpt><trkpt lat="45.04150244386622" lon="8.049138505068269"><ele>269.0</ele><time>2026-05-03T11:17:11Z</time></trkpt><trkpt lat="45.04157038958421" lon="8.049082301210623"><ele>269.0</ele><time>2026-05-03T11:17:16Z</time></trkpt><trkpt lat="45.04163723293315" lon="8.049030828676134"><ele>268.5</ele><time>2026-05-03T11:17:21Z</time></trkpt><trkpt lat="45.04169662390455" lon="8.048962413136818"><ele>268.0</ele><time>2026-05-03T11:17:26Z</time></trkpt><trkpt lat="45.0417624224997" lon="8.048903388553402"><ele>267.5</ele><time>2026-05-03T11:17:31Z</time></trkpt><trkpt lat="45.041822694621935" lon="8.048849876035845"><ele>267.0</ele><time>2026-05-03T11:17:35.999Z</time></trkpt><trkpt lat="45.04187568555425" lon="8.048777548606665"><ele>266.5</ele><time>2026-05-03T11:17:40.999Z</time></trkpt><trkpt lat="45.041921972802875" lon="8.048689249139704"><ele>266.0</ele><time>2026-05-03T11:17:46.999Z</time></trkpt><trkpt lat="45.04198843867488" lon="8.048642455420161"><ele>266.0</ele><time>2026-05-03T11:17:51.999Z</time></trkpt><trkpt lat="45.04204194242946" lon="8.048567068462233"><ele>266.0</ele><time>2026-05-03T11:17:56.999Z</time></trkpt><trkpt lat="45.04211287834944" lon="8.048517985093984"><ele>266.0</ele><time>2026-05-03T11:18:01.999Z</time></trkpt><trkpt lat="45.04215495221664" lon="8.048436273367514"><ele>266.0</ele><time>2026-05-03T11:18:06.999Z</time></trkpt><trkpt lat="45.04221507001861" lon="8.048384953160031"><ele>266.0</ele><time>2026-05-03T11:18:11.999Z</time></trkpt><trkpt lat="45.042282519153076" lon="8.0483665578732"><ele>266.0</ele><time>2026-05-03T11:18:16.999Z</time></trkpt><trkpt lat="45.04235302241998" lon="8.048359655383987"><ele>266.0</ele><time>2026-05-03T11:18:21.999Z</time></trkpt><trkpt lat="45.04242177009629" lon="8.048345117890012"><ele>266.0</ele><time>2026-05-03T11:18:29Z</time></trkpt><trkpt lat="45.04237041363834" lon="8.048413952661848"><ele>266.0</ele><time>2026-05-03T11:18:39Z</time></trkpt><trkpt lat="45.04230888402264" lon="8.048467864512347"><ele>266.0</ele><time>2026-05-03T11:18:45Z</time></trkpt><trkpt lat="45.04225061053027" lon="8.048530961388792"><ele>266.0</ele><time>2026-05-03T11:18:50Z</time></trkpt><trkpt lat="45.04218895465897" lon="8.048597720672824"><ele>266.0</ele><time>2026-05-03T11:18:56Z</time></trkpt><trkpt lat="45.04213205079822" lon="8.04865933462497"><ele>266.0</ele><time>2026-05-03T11:19:01Z</time></trkpt><trkpt lat="45.04208156987823" lon="8.048713993950845"><ele>266.0</ele><time>2026-05-03T11:19:05Z</time></trkpt><trkpt lat="45.04203005944878" lon="8.048769767922078"><ele>266.0</ele><time>2026-05-03T11:19:10Z</time></trkpt><trkpt lat="45.04197361893464" lon="8.048830880131177"><ele>266.0</ele><time>2026-05-03T11:19:14Z</time></trkpt><trkpt lat="45.04191764819852" lon="8.04889148359564"><ele>266.0</ele><time>2026-05-03T11:19:19Z</time></trkpt><trkpt lat="45.04186338601971" lon="8.048950237094326"><ele>266.0</ele><time>2026-05-03T11:19:23Z</time></trkpt><trkpt lat="45.04180111776327" lon="8.049017659391355"><ele>266.0</ele><time>2026-05-03T11:19:28Z</time></trkpt><trkpt lat="45.041746694218276" lon="8.04907658762601"><ele>266.0</ele><time>2026-05-03T11:19:32Z</time></trkpt><trkpt lat="45.04169321478775" lon="8.049134493749207"><ele>266.0</ele><time>2026-05-03T11:19:37Z</time></trkpt><trkpt lat="45.041640162337806" lon="8.049191937439701"><ele>266.42857142857144</ele><time>2026-05-03T11:19:40.999Z</time></trkpt><trkpt lat="45.0415882914671" lon="8.049248101743483"><ele>266.8571428571429</ele><time>2026-05-03T11:19:44.999Z</time></trkpt><trkpt lat="45.041531024668714" lon="8.049310141097699"><ele>267.2857142857143</ele><time>2026-05-03T11:19:49.999Z</time></trkpt><trkpt lat="45.04147447286146" lon="8.049371803861082"><ele>267.7142857142857</ele><time>2026-05-03T11:19:54.999Z</time></trkpt><trkpt lat="45.04143961921618" lon="8.04929315827002"><ele>268.14285714285717</ele><time>2026-05-03T11:20:27.999Z</time></trkpt><trkpt lat="45.04136937050301" lon="8.049278681319983"><ele>268.57142857142856</ele><time>2026-05-03T11:20:39Z</time></trkpt><trkpt lat="45.04130902845395" lon="8.049318545920785"><ele>269.0</ele><time>2026-05-03T11:21:00Z</time></trkpt><trkpt lat="45.041353259383555" lon="8.049383948902715"><ele>269.0</ele><time>2026-05-03T11:21:08Z</time></trkpt><trkpt lat="45.041420486736264" lon="8.049330039686073"><ele>269.0</ele><time>2026-05-03T11:21:11Z</time></trkpt><trkpt lat="45.04146946198012" lon="8.049250874764388"><ele>269.0</ele><time>2026-05-03T11:21:13Z</time></trkpt><trkpt lat="45.04156420229464" lon="8.049252945686423"><ele>269.0</ele><time>2026-05-03T11:21:17Z</time></trkpt><trkpt lat="45.041626612745965" lon="8.049206608657382"><ele>269.0</ele><time>2026-05-03T11:21:23Z</time></trkpt><trkpt lat="45.04165689211157" lon="8.04928889207304"><ele>269.0</ele><time>2026-05-03T11:21:55.999Z</time></trkpt><trkpt lat="45.04170026924869" lon="8.049372043154863"><ele>268.6666666666667</ele><time>2026-05-03T11:21:58.999Z</time></trkpt><trkpt lat="45.04173724539998" lon="8.04944690032784"><ele>268.33333333333337</ele><time>2026-05-03T11:22:00.999Z</time></trkpt><trkpt lat="45.04177957541455" lon="8.04952574015202"><ele>268.0</ele><time>2026-05-03T11:22:04.999Z</time></trkpt><trkpt lat="45.041797574796426" lon="8.049633341366889"><ele>267.6666666666667</ele><time>2026-05-03T11:22:09.999Z</time></trkpt><trkpt lat="45.04182463572337" lon="8.049731538496465"><ele>267.3333333333333</ele><time>2026-05-03T11:22:13.999Z</time></trkpt><trkpt lat="45.04190044564335" lon="8.049808150822482"><ele>267.0</ele><time>2026-05-03T11:22:17.999Z</time></trkpt><trkpt lat="45.04197820790533" lon="8.049847693287804"><ele>267.0</ele><time>2026-05-03T11:22:20.999Z</time></trkpt><trkpt lat="45.04207083763321" lon="8.049899349146813"><ele>267.0</ele><time>2026-05-03T11:22:23.999Z</time></trkpt><trkpt lat="45.04215436416532" lon="8.04991975176153"><ele>267.0</ele><time>2026-05-03T11:22:25.999Z</time></trkpt><trkpt lat="45.04223441281986" lon="8.049947234016955"><ele>267.0</ele><time>2026-05-03T11:22:27.999Z</time></trkpt><trkpt lat="45.04231528348555" lon="8.049970138124301"><ele>267.0</ele><time>2026-05-03T11:22:29.999Z</time></trkpt><trkpt lat="45.04240751896904" lon="8.05001217731686"><ele>267.0</ele><time>2026-05-03T11:22:31.999Z</time></trkpt><trkpt lat="45.04247809859066" lon="8.050026713646629"><ele>269.8333333333333</ele><time>2026-05-03T11:22:34.999Z</time></trkpt><trkpt lat="45.04254936611295" lon="8.049998220029613"><ele>272.6666666666667</ele><time>2026-05-03T11:22:38Z</time></trkpt><trkpt lat="45.04263895997627" lon="8.049997677490875"><ele>275.5</ele><time>2026-05-03T11:22:40Z</time></trkpt><trkpt lat="45.04272255668455" lon="8.049987408604768"><ele>278.33333333333337</ele><time>2026-05-03T11:22:42Z</time></trkpt><trkpt lat="45.04278319535521" lon="8.050012366419564"><ele>281.1666666666667</ele><time>2026-05-03T11:22:43Z</time></trkpt><trkpt lat="45.04284536503102" lon="8.050026551739295"><ele>284.0</ele><time>2026-05-03T11:22:44Z</time></trkpt><trkpt lat="45.042968279309434" lon="8.050085525326468"><ele>284.0</ele><time>2026-05-03T11:22:46Z</time></trkpt><trkpt lat="45.043035506801715" lon="8.050096581987932"><ele>284.0</ele><time>2026-05-03T11:22:47Z</time></trkpt><trkpt lat="45.043148826606114" lon="8.050113850799267"><ele>284.0</ele><time>2026-05-03T11:22:49Z</time></trkpt><trkpt lat="45.04325592421146" lon="8.050119748388102"><ele>284.0</ele><time>2026-05-03T11:22:51Z</time></trkpt><trkpt lat="45.043361781772965" lon="8.05014871018892"><ele>284.0</ele><time>2026-05-03T11:22:53Z</time></trkpt><trkpt lat="45.043455480142526" lon="8.050148189628404"><ele>280.59999999999997</ele><time>2026-05-03T11:22:55Z</time></trkpt><trkpt lat="45.04352722851768" lon="8.050129218143498"><ele>277.2</ele><time>2026-05-03T11:22:56Z</time></trkpt><trkpt lat="45.04362912258873" lon="8.050122719511599"><ele>273.79999999999995</ele><time>2026-05-03T11:22:58Z</time></trkpt><trkpt lat="45.04373732376677" lon="8.050105325924454"><ele>270.4</ele><time>2026-05-03T11:23:00Z</time></trkpt><trkpt lat="45.04383194866394" lon="8.050082448308304"><ele>267.0</ele><time>2026-05-03T11:23:02Z</time></trkpt><trkpt lat="45.04392816501788" lon="8.05004553326212"><ele>267.0</ele><time>2026-05-03T11:23:04Z</time></trkpt><trkpt lat="45.04402333802723" lon="8.050016666653445"><ele>267.0</ele><time>2026-05-03T11:23:06Z</time></trkpt><trkpt lat="45.04409234095478" lon="8.050007234319128"><ele>267.0</ele><time>2026-05-03T11:23:07Z</time></trkpt><trkpt lat="45.04418823336487" lon="8.049963797643068"><ele>267.0</ele><time>2026-05-03T11:23:09Z</time></trkpt><trkpt lat="45.04429510436108" lon="8.049931721985104"><ele>267.0</ele><time>2026-05-03T11:23:11Z</time></trkpt><trkpt lat="45.04436373930462" lon="8.049847317132869"><ele>264.6</ele><time>2026-05-03T11:23:13Z</time></trkpt><trkpt lat="45.04443969635666" lon="8.0498018552329"><ele>262.2</ele><time>2026-05-03T11:23:15Z</time></trkpt><trkpt lat="45.04450874129327" lon="8.049825843866572"><ele>259.8</ele><time>2026-05-03T11:23:16Z</time></trkpt><trkpt lat="45.044576055745914" lon="8.049844548894583"><ele>257.4</ele><time>2026-05-03T11:23:17Z</time></trkpt><trkpt lat="45.0446867481175" lon="8.049882023967593"><ele>255.0</ele><time>2026-05-03T11:23:19Z</time></trkpt><trkpt lat="45.044815617692784" lon="8.049808083759029"><ele>255.0</ele><time>2026-05-03T11:23:21Z</time></trkpt><trkpt lat="45.04489920148423" lon="8.049807192771723"><ele>255.0</ele><time>2026-05-03T11:23:22Z</time></trkpt><trkpt lat="45.044969728015886" lon="8.049796501828057"><ele>255.0</ele><time>2026-05-03T11:23:23Z</time></trkpt><trkpt lat="45.04505487029698" lon="8.049788619845598"><ele>255.0</ele><time>2026-05-03T11:23:24Z</time></trkpt><trkpt lat="45.045144752794684" lon="8.049761593221296"><ele>255.0</ele><time>2026-05-03T11:23:25Z</time></trkpt><trkpt lat="45.045225107354504" lon="8.049739196541797"><ele>255.0</ele><time>2026-05-03T11:23:26Z</time></trkpt><trkpt lat="45.04530264327307" lon="8.049709865099326"><ele>256.8333333333333</ele><time>2026-05-03T11:23:27Z</time></trkpt><trkpt lat="45.04540792061853" lon="8.049657886573568"><ele>258.6666666666667</ele><time>2026-05-03T11:23:29Z</time></trkpt><trkpt lat="45.04549481887309" lon="8.049619351148246"><ele>260.5</ele><time>2026-05-03T11:23:31Z</time></trkpt><trkpt lat="45.04557494454316" lon="8.049580682855247"><ele>262.33333333333337</ele><time>2026-05-03T11:23:33Z</time></trkpt><trkpt lat="45.045648664904576" lon="8.049541562094312"><ele>264.1666666666667</ele><time>2026-05-03T11:23:35Z</time></trkpt><trkpt lat="45.0457271985332" lon="8.049517732630687"><ele>266.0</ele><time>2026-05-03T11:23:37Z</time></trkpt><trkpt lat="45.04580730022654" lon="8.049534113248583"><ele>266.83333333333337</ele><time>2026-05-03T11:23:39Z</time></trkpt><trkpt lat="45.0459001804523" lon="8.049505466104447"><ele>267.6666666666667</ele><time>2026-05-03T11:23:41Z</time></trkpt><trkpt lat="45.04596812653337" lon="8.049536664325162"><ele>268.5</ele><time>2026-05-03T11:23:43Z</time></trkpt><trkpt lat="45.04608048276152" lon="8.049611507477062"><ele>269.3333333333333</ele><time>2026-05-03T11:23:45Z</time></trkpt><trkpt lat="45.04614332144413" lon="8.049660145436953"><ele>270.16666666666663</ele><time>2026-05-03T11:23:46Z</time></trkpt><trkpt lat="45.046224713834974" lon="8.049694911056749"><ele>271.0</ele><time>2026-05-03T11:23:48Z</time></trkpt><trkpt lat="45.04628936828775" lon="8.049797288031671"><ele>271.0</ele><time>2026-05-03T11:23:49.999Z</time></trkpt><trkpt lat="45.046372521531325" lon="8.049900049101344"><ele>271.0</ele><time>2026-05-03T11:23:51.999Z</time></trkpt><trkpt lat="45.04647476533089" lon="8.04997294403548"><ele>271.0</ele><time>2026-05-03T11:23:53.999Z</time></trkpt><trkpt lat="45.04657712703768" lon="8.05002402056537"><ele>271.0</ele><time>2026-05-03T11:23:55.999Z</time></trkpt><trkpt lat="45.04664503302974" lon="8.050088082820187"><ele>271.0</ele><time>2026-05-03T11:23:56.999Z</time></trkpt><trkpt lat="45.04673988596952" lon="8.050128932110793"><ele>272.5</ele><time>2026-05-03T11:23:57.999Z</time></trkpt><trkpt lat="45.046832409775355" lon="8.05015956595283"><ele>274.0</ele><time>2026-05-03T11:23:58.999Z</time></trkpt><trkpt lat="45.04689798240048" lon="8.05018121869687"><ele>275.5</ele><time>2026-05-03T11:23:59.999Z</time></trkpt><trkpt lat="45.04699219797099" lon="8.050188453288522"><ele>277.0</ele><time>2026-05-03T11:24:01.999Z</time></trkpt><trkpt lat="45.047053880363855" lon="8.050208987572764"><ele>278.5</ele><time>2026-05-03T11:24:03.999Z</time></trkpt><trkpt lat="45.047117765464044" lon="8.050189264828623"><ele>280.0</ele><time>2026-05-03T11:24:07.999Z</time></trkpt><trkpt lat="45.04719509869488" lon="8.050191119242328"><ele>280.0</ele><time>2026-05-03T11:24:10.999Z</time></trkpt><trkpt lat="45.047259675889336" lon="8.050180809781851"><ele>280.0</ele><time>2026-05-03T11:24:13.999Z</time></trkpt><trkpt lat="45.04732431311198" lon="8.050169160758395"><ele>280.0</ele><time>2026-05-03T11:24:16.999Z</time></trkpt><trkpt lat="45.04740171982067" lon="8.050157878235105"><ele>280.0</ele><time>2026-05-03T11:24:20.999Z</time></trkpt><trkpt lat="45.04747159119073" lon="8.050107819505062"><ele>280.0</ele><time>2026-05-03T11:24:24.999Z</time></trkpt><trkpt lat="45.04753715004501" lon="8.050071574183727"><ele>280.0</ele><time>2026-05-03T11:24:28.999Z</time></trkpt><trkpt lat="45.04760760165788" lon="8.050059119953941"><ele>280.0</ele><time>2026-05-03T11:24:32.999Z</time></trkpt><trkpt lat="45.047672320847056" lon="8.050002935455208"><ele>280.0</ele><time>2026-05-03T11:24:37.999Z</time></trkpt><trkpt lat="45.0477455487373" lon="8.049970599761597"><ele>280.0</ele><time>2026-05-03T11:24:42.999Z</time></trkpt><trkpt lat="45.04781983707941" lon="8.049960719029178"><ele>280.0</ele><time>2026-05-03T11:24:48Z</time></trkpt><trkpt lat="45.0478914254577" lon="8.049940700019468"><ele>280.0</ele><time>2026-05-03T11:24:53Z</time></trkpt><trkpt lat="45.04796861888177" lon="8.049942870444655"><ele>280.0</ele><time>2026-05-03T11:24:57Z</time></trkpt><trkpt lat="45.04804148909776" lon="8.049931195493167"><ele>280.0</ele><time>2026-05-03T11:25:01Z</time></trkpt><trkpt lat="45.04811334236408" lon="8.049920321405773"><ele>280.0</ele><time>2026-05-03T11:25:05Z</time></trkpt><trkpt lat="45.048190506954555" lon="8.049920755371202"><ele>280.0</ele><time>2026-05-03T11:25:09Z</time></trkpt><trkpt lat="45.048267357258354" lon="8.049916373326052"><ele>280.0</ele><time>2026-05-03T11:25:13Z</time></trkpt><trkpt lat="45.04833949584214" lon="8.049919110093397"><ele>280.0</ele><time>2026-05-03T11:25:17Z</time></trkpt><trkpt lat="45.048420805835654" lon="8.049925527226092"><ele>280.0</ele><time>2026-05-03T11:25:21Z</time></trkpt><trkpt lat="45.048499641586346" lon="8.049909317576319"><ele>280.0</ele><time>2026-05-03T11:25:25Z</time></trkpt><trkpt lat="45.04858215234928" lon="8.049936136673846"><ele>280.0</ele><time>2026-05-03T11:25:28Z</time></trkpt><trkpt lat="45.04865093407217" lon="8.049927014439065"><ele>280.0</ele><time>2026-05-03T11:25:31Z</time></trkpt><trkpt lat="45.04872202698313" lon="8.049924232585662"><ele>280.0</ele><time>2026-05-03T11:25:34Z</time></trkpt><trkpt lat="45.048802607885655" lon="8.049922101593493"><ele>280.0</ele><time>2026-05-03T11:25:38Z</time></trkpt><trkpt lat="45.048872514197996" lon="8.049944203835555"><ele>280.0</ele><time>2026-05-03T11:25:42Z</time></trkpt><trkpt lat="45.04894324590012" lon="8.049954813520927"><ele>280.0</ele><time>2026-05-03T11:25:50Z</time></trkpt><trkpt lat="45.049013106521436" lon="8.049962966514268"><ele>280.0</ele><time>2026-05-03T11:25:55.999Z</time></trkpt><trkpt lat="45.049077109842194" lon="8.049958768239078"><ele>280.0</ele><time>2026-05-03T11:26:54Z</time></trkpt><trkpt lat="45.04914470152312" lon="8.049968041298365"><ele>281.42857142857144</ele><time>2026-05-03T11:27:02Z</time></trkpt><trkpt lat="45.04920778159417" lon="8.049970497889053"><ele>282.8571428571429</ele><time>2026-05-03T11:27:07Z</time></trkpt><trkpt lat="45.04927784902275" lon="8.050002619527948"><ele>284.2857142857143</ele><time>2026-05-03T11:27:12Z</time></trkpt><trkpt lat="45.049264189558016" lon="8.050125862131052"><ele>285.7142857142857</ele><time>2026-05-03T11:27:36Z</time></trkpt><trkpt lat="45.04925048439609" lon="8.050218480859499"><ele>287.14285714285717</ele><time>2026-05-03T11:27:58Z</time></trkpt><trkpt lat="45.04930094336385" lon="8.050278714062598"><ele>288.57142857142856</ele><time>2026-05-03T11:28:06.999Z</time></trkpt><trkpt lat="45.04933957026663" lon="8.050365339709172"><ele>290.0</ele><time>2026-05-03T11:28:11.999Z</time></trkpt><trkpt lat="45.04934562468611" lon="8.050457632068042"><ele>290.0</ele><time>2026-05-03T11:28:16.999Z</time></trkpt><trkpt lat="45.04933054010184" lon="8.050558092512032"><ele>290.0</ele><time>2026-05-03T11:28:24.999Z</time></trkpt><trkpt lat="45.04929355328871" lon="8.050649027142589"><ele>290.0</ele><time>2026-05-03T11:28:30.999Z</time></trkpt><trkpt lat="45.04926996406304" lon="8.050739734690087"><ele>290.0</ele><time>2026-05-03T11:28:35.999Z</time></trkpt><trkpt lat="45.04924616795951" lon="8.05082712777386"><ele>290.0</ele><time>2026-05-03T11:28:42.999Z</time></trkpt><trkpt lat="45.04919541270977" lon="8.050899660867342"><ele>290.0</ele><time>2026-05-03T11:28:47.999Z</time></trkpt><trkpt lat="45.04913936021792" lon="8.050964467873321"><ele>290.0</ele><time>2026-05-03T11:28:56Z</time></trkpt><trkpt lat="45.049086064005905" lon="8.051019912416468"><ele>287.0</ele><time>2026-05-03T11:29:03Z</time></trkpt><trkpt lat="45.04903262729177" lon="8.051095378095434"><ele>284.0</ele><time>2026-05-03T11:29:10Z</time></trkpt><trkpt lat="45.04897052185299" lon="8.051128878294051"><ele>281.0</ele><time>2026-05-03T11:29:18Z</time></trkpt><trkpt lat="45.04890882973436" lon="8.05115568997582"><ele>278.0</ele><time>2026-05-03T11:29:23Z</time></trkpt><trkpt lat="45.04885431364255" lon="8.05121201502124"><ele>275.0</ele><time>2026-05-03T11:29:27Z</time></trkpt><trkpt lat="45.048800660392764" lon="8.051310167353439"><ele>272.0</ele><time>2026-05-03T11:29:32Z</time></trkpt><trkpt lat="45.04876648045924" lon="8.051394142902687"><ele>269.0</ele><time>2026-05-03T11:29:36Z</time></trkpt><trkpt lat="45.0487383448696" lon="8.051480610518553"><ele>269.0</ele><time>2026-05-03T11:29:41Z</time></trkpt><trkpt lat="45.048704118350614" lon="8.051561285777293"><ele>269.0</ele><time>2026-05-03T11:29:46Z</time></trkpt><trkpt lat="45.04865767913023" lon="8.051626328957973"><ele>269.0</ele><time>2026-05-03T11:29:51Z</time></trkpt><trkpt lat="45.04860684371935" lon="8.051682817010548"><ele>269.0</ele><time>2026-05-03T11:29:56Z</time></trkpt><trkpt lat="45.04855250683784" lon="8.051736917957017"><ele>269.0</ele><time>2026-05-03T11:30:00Z</time></trkpt><trkpt lat="45.04849045127489" lon="8.05180149155661"><ele>269.0</ele><time>2026-05-03T11:30:05Z</time></trkpt><trkpt lat="45.04842327467475" lon="8.051863779361748"><ele>269.0</ele><time>2026-05-03T11:30:10.999Z</time></trkpt><trkpt lat="45.04835121470337" lon="8.051901004577587"><ele>267.0</ele><time>2026-05-03T11:30:15.999Z</time></trkpt><trkpt lat="45.04827736441882" lon="8.051930657873344"><ele>265.0</ele><time>2026-05-03T11:30:20.999Z</time></trkpt><trkpt lat="45.04820929492202" lon="8.05198476221229"><ele>263.0</ele><time>2026-05-03T11:30:25.999Z</time></trkpt><trkpt lat="45.048132365727774" lon="8.051973333019848"><ele>261.0</ele><time>2026-05-03T11:30:30.999Z</time></trkpt><trkpt lat="45.04805858270937" lon="8.051962789105827"><ele>259.0</ele><time>2026-05-03T11:30:35.999Z</time></trkpt><trkpt lat="45.04798541375054" lon="8.051971223224765"><ele>257.0</ele><time>2026-05-03T11:30:40.999Z</time></trkpt><trkpt lat="45.04792066883971" lon="8.052013298126333"><ele>257.0</ele><time>2026-05-03T11:30:45.999Z</time></trkpt><trkpt lat="45.04785892460553" lon="8.052058944168058"><ele>257.0</ele><time>2026-05-03T11:30:50.999Z</time></trkpt><trkpt lat="45.04779769693653" lon="8.052112083090663"><ele>257.0</ele><time>2026-05-03T11:30:55.999Z</time></trkpt><trkpt lat="45.047742303091525" lon="8.052179669531606"><ele>257.0</ele><time>2026-05-03T11:31:00.999Z</time></trkpt><trkpt lat="45.04767944749779" lon="8.052244390565448"><ele>257.0</ele><time>2026-05-03T11:31:06Z</time></trkpt><trkpt lat="45.047622749576895" lon="8.052304092972982"><ele>257.0</ele><time>2026-05-03T11:31:11Z</time></trkpt><trkpt lat="45.047576199932315" lon="8.052372763526945"><ele>257.0</ele><time>2026-05-03T11:31:15Z</time></trkpt><trkpt lat="45.047528577111784" lon="8.052460488949617"><ele>256.0</ele><time>2026-05-03T11:31:20Z</time></trkpt><trkpt lat="45.047453774113805" lon="8.052417898125594"><ele>255.0</ele><time>2026-05-03T11:31:26Z</time></trkpt><trkpt lat="45.047388624192884" lon="8.052374365172493"><ele>254.0</ele><time>2026-05-03T11:31:31Z</time></trkpt><trkpt lat="45.04730967876761" lon="8.052372585773556"><ele>253.0</ele><time>2026-05-03T11:31:36Z</time></trkpt><trkpt lat="45.04723780510247" lon="8.05240911493387"><ele>252.00000000000003</ele><time>2026-05-03T11:31:41Z</time></trkpt><trkpt lat="45.04716974209521" lon="8.05246923036153"><ele>251.0</ele><time>2026-05-03T11:31:46Z</time></trkpt><trkpt lat="45.0471086520615" lon="8.052522161372298"><ele>250.99999999999997</ele><time>2026-05-03T11:31:50Z</time></trkpt><trkpt lat="45.04705054554167" lon="8.052586371451179"><ele>251.0</ele><time>2026-05-03T11:31:54Z</time></trkpt><trkpt lat="45.04699317046445" lon="8.052631022356396"><ele>250.99999999999997</ele><time>2026-05-03T11:31:58Z</time></trkpt><trkpt lat="45.04693751926852" lon="8.05269431058304"><ele>250.99999999999997</ele><time>2026-05-03T11:32:02Z</time></trkpt><trkpt lat="45.04688360859161" lon="8.052742497692082"><ele>251.0</ele><time>2026-05-03T11:32:06Z</time></trkpt><trkpt lat="45.04682312991397" lon="8.052801492795359"><ele>250.99999999999997</ele><time>2026-05-03T11:32:10.999Z</time></trkpt><trkpt lat="45.046765057578355" lon="8.0528654643174"><ele>250.99999999999997</ele><time>2026-05-03T11:32:15.999Z</time></trkpt><trkpt lat="45.04669903830006" lon="8.052908984011387"><ele>250.99999999999997</ele><time>2026-05-03T11:32:20.999Z</time></trkpt><trkpt lat="45.04664662219682" lon="8.05296124223359"><ele>251.0</ele><time>2026-05-03T11:32:24.999Z</time></trkpt><trkpt lat="45.046587688308556" lon="8.053027309467087"><ele>250.99999999999997</ele><time>2026-05-03T11:32:29.999Z</time></trkpt><trkpt lat="45.046536531682435" lon="8.05308215430077"><ele>250.99999999999997</ele><time>2026-05-03T11:32:33.999Z</time></trkpt><trkpt lat="45.04647640415938" lon="8.0531315299961"><ele>251.0</ele><time>2026-05-03T11:32:37.999Z</time></trkpt><trkpt lat="45.04641168661532" lon="8.053162317675694"><ele>250.99999999999997</ele><time>2026-05-03T11:32:41.999Z</time></trkpt><trkpt lat="45.04635422246328" lon="8.053204230088598"><ele>250.99999999999997</ele><time>2026-05-03T11:32:45.999Z</time></trkpt><trkpt lat="45.04630351252652" lon="8.053265914625419"><ele>248.85714285714283</ele><time>2026-05-03T11:32:49.999Z</time></trkpt><trkpt lat="45.046253612719" lon="8.05332382400115"><ele>246.71428571428572</ele><time>2026-05-03T11:32:53.999Z</time></trkpt><trkpt lat="45.04620400900162" lon="8.053394784902856"><ele>244.57142857142856</ele><time>2026-05-03T11:32:57.999Z</time></trkpt><trkpt lat="45.04614827360879" lon="8.053469322638655"><ele>242.42857142857142</ele><time>2026-05-03T11:33:02.999Z</time></trkpt><trkpt lat="45.046106294425904" lon="8.053543338987616"><ele>240.28571428571428</ele><time>2026-05-03T11:33:06.999Z</time></trkpt><trkpt lat="45.04605556984194" lon="8.053604880515334"><ele>238.14285714285714</ele><time>2026-05-03T11:33:11Z</time></trkpt><trkpt lat="45.04601246366014" lon="8.05368136641512"><ele>236.0</ele><time>2026-05-03T11:33:15Z</time></trkpt><trkpt lat="45.04598932296775" lon="8.053778342258223"><ele>236.0</ele><time>2026-05-03T11:33:19Z</time></trkpt><trkpt lat="45.04594281596653" lon="8.053857788036673"><ele>236.0</ele><time>2026-05-03T11:33:23Z</time></trkpt><trkpt lat="45.04589955379955" lon="8.053924634067652"><ele>236.0</ele><time>2026-05-03T11:33:27Z</time></trkpt><trkpt lat="45.04585996615308" lon="8.05400105181404"><ele>236.0</ele><time>2026-05-03T11:33:31Z</time></trkpt><trkpt lat="45.04582041611322" lon="8.054087371419714"><ele>236.0</ele><time>2026-05-03T11:33:35Z</time></trkpt><trkpt lat="45.04578046025616" lon="8.054162291593409"><ele>236.0</ele><time>2026-05-03T11:33:39Z</time></trkpt><trkpt lat="45.045731044499334" lon="8.05423639587509"><ele>236.0</ele><time>2026-05-03T11:33:43Z</time></trkpt><trkpt lat="45.04568958509185" lon="8.054306760865327"><ele>237.0</ele><time>2026-05-03T11:33:47Z</time></trkpt><trkpt lat="45.045647766789614" lon="8.054384688446623"><ele>238.0</ele><time>2026-05-03T11:33:51Z</time></trkpt><trkpt lat="45.04560732208124" lon="8.05446011281823"><ele>239.0</ele><time>2026-05-03T11:33:55Z</time></trkpt><trkpt lat="45.04556051192616" lon="8.05455831241769"><ele>240.0</ele><time>2026-05-03T11:34:00Z</time></trkpt><trkpt lat="45.045527371971325" lon="8.0546374260604"><ele>241.0</ele><time>2026-05-03T11:34:04Z</time></trkpt><trkpt lat="45.045497659521935" lon="8.054716060917071"><ele>242.0</ele><time>2026-05-03T11:34:08Z</time></trkpt><trkpt lat="45.04545172104418" lon="8.054785792677967"><ele>243.0</ele><time>2026-05-03T11:34:12Z</time></trkpt><trkpt lat="45.04540061343846" lon="8.054857408091381"><ele>243.0</ele><time>2026-05-03T11:34:16Z</time></trkpt><trkpt lat="45.045363310220864" lon="8.054936051665123"><ele>243.0</ele><time>2026-05-03T11:34:19.999Z</time></trkpt><trkpt lat="45.04532392121645" lon="8.055011198918388"><ele>243.0</ele><time>2026-05-03T11:34:23.999Z</time></trkpt><trkpt lat="45.04528386278988" lon="8.055094530041165"><ele>243.0</ele><time>2026-05-03T11:34:27.999Z</time></trkpt><trkpt lat="45.04524615619345" lon="8.055171353979537"><ele>243.0</ele><time>2026-05-03T11:34:31.999Z</time></trkpt><trkpt lat="45.045203083077006" lon="8.055253549345286"><ele>243.0</ele><time>2026-05-03T11:34:35.999Z</time></trkpt><trkpt lat="45.04516886737076" lon="8.05534002836293"><ele>243.0</ele><time>2026-05-03T11:34:39.999Z</time></trkpt><trkpt lat="45.045137849032585" lon="8.055418416397108"><ele>241.71428571428572</ele><time>2026-05-03T11:34:43.999Z</time></trkpt><trkpt lat="45.04508784301877" lon="8.055477950061432"><ele>240.42857142857144</ele><time>2026-05-03T11:34:47.999Z</time></trkpt><trkpt lat="45.04503489929585" lon="8.055542293938277"><ele>239.14285714285717</ele><time>2026-05-03T11:34:51.999Z</time></trkpt><trkpt lat="45.04499939673055" lon="8.055627170458974"><ele>237.85714285714286</ele><time>2026-05-03T11:34:55.999Z</time></trkpt><trkpt lat="45.04497092437324" lon="8.055712334095317"><ele>236.5714285714286</ele><time>2026-05-03T11:34:59.999Z</time></trkpt><trkpt lat="45.04493766229469" lon="8.055795322328489"><ele>235.2857142857143</ele><time>2026-05-03T11:35:03.999Z</time></trkpt><trkpt lat="45.04492068579791" lon="8.055888030887917"><ele>234.0</ele><time>2026-05-03T11:35:07.999Z</time></trkpt><trkpt lat="45.04490429039525" lon="8.055975765400586"><ele>232.71428571428572</ele><time>2026-05-03T11:35:11.999Z</time></trkpt><trkpt lat="45.044901022462696" lon="8.056087049959682"><ele>231.42857142857144</ele><time>2026-05-03T11:35:17Z</time></trkpt><trkpt lat="45.04487641529549" lon="8.05617820671503"><ele>230.14285714285717</ele><time>2026-05-03T11:35:21Z</time></trkpt><trkpt lat="45.04487112239041" lon="8.056271297458073"><ele>228.8571428571429</ele><time>2026-05-03T11:35:25Z</time></trkpt><trkpt lat="45.04484358126673" lon="8.056362918700671"><ele>227.57142857142858</ele><time>2026-05-03T11:35:29Z</time></trkpt><trkpt lat="45.04484957676219" lon="8.056459926259985"><ele>226.28571428571433</ele><time>2026-05-03T11:35:33Z</time></trkpt><trkpt lat="45.04483678509923" lon="8.056554664589372"><ele>225.00000000000003</ele><time>2026-05-03T11:35:37Z</time></trkpt><trkpt lat="45.044825874268525" lon="8.05666899300975"><ele>224.2857142857143</ele><time>2026-05-03T11:35:42Z</time></trkpt><trkpt lat="45.044814115877365" lon="8.056780594812066"><ele>223.57142857142858</ele><time>2026-05-03T11:35:47Z</time></trkpt><trkpt lat="45.04479957319503" lon="8.056873825701235"><ele>222.85714285714286</ele><time>2026-05-03T11:35:51Z</time></trkpt><trkpt lat="45.044764504958266" lon="8.05696101084897"><ele>222.14285714285717</ele><time>2026-05-03T11:35:55Z</time></trkpt><trkpt lat="45.04474010083498" lon="8.057046769512853"><ele>221.42857142857144</ele><time>2026-05-03T11:35:59Z</time></trkpt><trkpt lat="45.04470292740781" lon="8.057127971677337"><ele>220.7142857142857</ele><time>2026-05-03T11:36:03Z</time></trkpt><trkpt lat="45.0446667754345" lon="8.05720813952703"><ele>220.0</ele><time>2026-05-03T11:36:07Z</time></trkpt><trkpt lat="45.04463068621642" lon="8.057290111263743"><ele>219.99999999999997</ele><time>2026-05-03T11:36:11Z</time></trkpt><trkpt lat="45.04458961802408" lon="8.057363051611516"><ele>220.0</ele><time>2026-05-03T11:36:15Z</time></trkpt><trkpt lat="45.044548324784905" lon="8.057439008263044"><ele>220.0</ele><time>2026-05-03T11:36:19Z</time></trkpt><trkpt lat="45.044515721962064" lon="8.057524347891762"><ele>220.0</ele><time>2026-05-03T11:36:23Z</time></trkpt><trkpt lat="45.044477010803114" lon="8.057621531216473"><ele>220.0</ele><time>2026-05-03T11:36:28Z</time></trkpt><trkpt lat="45.04447395573045" lon="8.057718048287674"><ele>219.99999999999997</ele><time>2026-05-03T11:36:32Z</time></trkpt><trkpt lat="45.04447950619848" lon="8.057813752166034"><ele>220.0</ele><time>2026-05-03T11:36:35.999Z</time></trkpt><trkpt lat="45.04449934029214" lon="8.057906197998246"><ele>220.14285714285714</ele><time>2026-05-03T11:36:39.999Z</time></trkpt><trkpt lat="45.04452886576664" lon="8.057989748469698"><ele>220.28571428571428</ele><time>2026-05-03T11:36:43.999Z</time></trkpt><trkpt lat="45.04456172000313" lon="8.058093224296622"><ele>220.42857142857144</ele><time>2026-05-03T11:36:48.999Z</time></trkpt><trkpt lat="45.04458488231323" lon="8.058190350417288"><ele>220.57142857142856</ele><time>2026-05-03T11:36:52.999Z</time></trkpt><trkpt lat="45.04460404924514" lon="8.058283675647239"><ele>220.71428571428572</ele><time>2026-05-03T11:36:56.999Z</time></trkpt><trkpt lat="45.0446245358105" lon="8.058369466855863"><ele>220.85714285714286</ele><time>2026-05-03T11:37:00.999Z</time></trkpt><trkpt lat="45.04464303812269" lon="8.058461986340234"><ele>221.0</ele><time>2026-05-03T11:37:04.999Z</time></trkpt><trkpt lat="45.04464091859362" lon="8.058578036372253"><ele>220.57142857142858</ele><time>2026-05-03T11:37:09.999Z</time></trkpt><trkpt lat="45.04462606574225" lon="8.05867649136953"><ele>220.14285714285714</ele><time>2026-05-03T11:37:13.999Z</time></trkpt><trkpt lat="45.04458780719477" lon="8.058763599007685"><ele>219.71428571428572</ele><time>2026-05-03T11:37:17.999Z</time></trkpt><trkpt lat="45.04455564915083" lon="8.05884088866583"><ele>219.28571428571428</ele><time>2026-05-03T11:37:22Z</time></trkpt><trkpt lat="45.044507213445286" lon="8.05891018432122"><ele>218.85714285714286</ele><time>2026-05-03T11:37:26Z</time></trkpt><trkpt lat="45.044457543507455" lon="8.05898716869724"><ele>218.42857142857144</ele><time>2026-05-03T11:37:31Z</time></trkpt><trkpt lat="45.04440065350202" lon="8.05904235275719"><ele>218.0</ele><time>2026-05-03T11:37:35Z</time></trkpt><trkpt lat="45.04434661716814" lon="8.059104269408301"><ele>217.57142857142858</ele><time>2026-05-03T11:37:39Z</time></trkpt><trkpt lat="45.044287468004086" lon="8.059156325126661"><ele>217.14285714285717</ele><time>2026-05-03T11:37:43Z</time></trkpt><trkpt lat="45.04422918882633" lon="8.05921116427723"><ele>216.71428571428572</ele><time>2026-05-03T11:37:47Z</time></trkpt><trkpt lat="45.04416809988687" lon="8.059260644649905"><ele>216.28571428571428</ele><time>2026-05-03T11:37:51Z</time></trkpt><trkpt lat="45.04411672126094" lon="8.05932671712972"><ele>215.85714285714286</ele><time>2026-05-03T11:37:55Z</time></trkpt><trkpt lat="45.04405586775312" lon="8.059375400470563"><ele>215.42857142857142</ele><time>2026-05-03T11:37:59Z</time></trkpt><trkpt lat="45.04400433765878" lon="8.059449636312703"><ele>215.0</ele><time>2026-05-03T11:38:03Z</time></trkpt><trkpt lat="45.04395673853507" lon="8.059515833736075"><ele>215.0</ele><time>2026-05-03T11:38:07Z</time></trkpt><trkpt lat="45.04389374951919" lon="8.059559354530041"><ele>215.0</ele><time>2026-05-03T11:38:11Z</time></trkpt><trkpt lat="45.04384880630639" lon="8.05963039092366"><ele>215.0</ele><time>2026-05-03T11:38:15Z</time></trkpt><trkpt lat="45.043793532293705" lon="8.059683753257504"><ele>215.0</ele><time>2026-05-03T11:38:19Z</time></trkpt><trkpt lat="45.04373935051377" lon="8.059745851092284"><ele>215.0</ele><time>2026-05-03T11:38:23Z</time></trkpt><trkpt lat="45.04368553621163" lon="8.059800803674396"><ele>215.0</ele><time>2026-05-03T11:38:27Z</time></trkpt><trkpt lat="45.043634677568875" lon="8.059860547031217"><ele>215.0</ele><time>2026-05-03T11:38:31Z</time></trkpt><trkpt lat="45.043583087231305" lon="8.059921047569944"><ele>214.85714285714286</ele><time>2026-05-03T11:38:35Z</time></trkpt><trkpt lat="45.04353129915681" lon="8.05997615033301"><ele>214.71428571428572</ele><time>2026-05-03T11:38:39Z</time></trkpt><trkpt lat="45.04348354184676" lon="8.060036823671679"><ele>214.57142857142858</ele><time>2026-05-03T11:38:42.999Z</time></trkpt><trkpt lat="45.04342758318986" lon="8.06009211686366"><ele>214.42857142857144</ele><time>2026-05-03T11:38:46.999Z</time></trkpt><trkpt lat="45.043370585147336" lon="8.060150254540195"><ele>214.28571428571428</ele><time>2026-05-03T11:38:50.999Z</time></trkpt><trkpt lat="45.04331858355579" lon="8.060207121252148"><ele>214.14285714285717</ele><time>2026-05-03T11:38:54.999Z</time></trkpt><trkpt lat="45.04326590588073" lon="8.060268096877977"><ele>214.0</ele><time>2026-05-03T11:38:58.999Z</time></trkpt><trkpt lat="45.04321271039337" lon="8.060332205791877"><ele>214.00000000000003</ele><time>2026-05-03T11:39:02.999Z</time></trkpt><trkpt lat="45.0431576664726" lon="8.060394138687979"><ele>214.0</ele><time>2026-05-03T11:39:06.999Z</time></trkpt><trkpt lat="45.04310624756412" lon="8.060463932214542"><ele>214.0</ele><time>2026-05-03T11:39:10.999Z</time></trkpt><trkpt lat="45.043057384932666" lon="8.060525267142962"><ele>214.0</ele><time>2026-05-03T11:39:14.999Z</time></trkpt><trkpt lat="45.04300144774409" lon="8.060579654468933"><ele>214.0</ele><time>2026-05-03T11:39:18.999Z</time></trkpt><trkpt lat="45.0429488095055" lon="8.060635665739344"><ele>214.00000000000003</ele><time>2026-05-03T11:39:22.999Z</time></trkpt><trkpt lat="45.042882860112314" lon="8.060685150259987"><ele>214.0</ele><time>2026-05-03T11:39:27Z</time></trkpt><trkpt lat="45.04283032463864" lon="8.060760825938056"><ele>214.14285714285717</ele><time>2026-05-03T11:39:31Z</time></trkpt><trkpt lat="45.042774920073754" lon="8.06082542883585"><ele>214.28571428571428</ele><time>2026-05-03T11:39:35Z</time></trkpt><trkpt lat="45.04271868508522" lon="8.06089579013899"><ele>214.42857142857144</ele><time>2026-05-03T11:39:39Z</time></trkpt><trkpt lat="45.04265779137462" lon="8.060948499926772"><ele>214.57142857142858</ele><time>2026-05-03T11:39:43Z</time></trkpt><trkpt lat="45.04259355099494" lon="8.060993524076444"><ele>214.71428571428572</ele><time>2026-05-03T11:39:47Z</time></trkpt><trkpt lat="45.04253014873371" lon="8.061045554178627"><ele>214.85714285714286</ele><time>2026-05-03T11:39:51Z</time></trkpt><trkpt lat="45.04246591131017" lon="8.061110181305153"><ele>215.0</ele><time>2026-05-03T11:39:56Z</time></trkpt><trkpt lat="45.04241385434596" lon="8.061161112014329"><ele>214.7142857142857</ele><time>2026-05-03T11:40:00Z</time></trkpt><trkpt lat="45.04236221939617" lon="8.061215722092413"><ele>214.42857142857144</ele><time>2026-05-03T11:40:04Z</time></trkpt><trkpt lat="45.04230524619865" lon="8.061262543251003"><ele>214.14285714285714</ele><time>2026-05-03T11:40:08Z</time></trkpt><trkpt lat="45.042249908889886" lon="8.061311241434051"><ele>213.85714285714283</ele><time>2026-05-03T11:40:12Z</time></trkpt><trkpt lat="45.042195753801586" lon="8.061365410022667"><ele>213.57142857142856</ele><time>2026-05-03T11:40:16Z</time></trkpt><trkpt lat="45.04214273133828" lon="8.061419255447008"><ele>213.28571428571428</ele><time>2026-05-03T11:40:20Z</time></trkpt><trkpt lat="45.042075105996176" lon="8.061473743720306"><ele>213.0</ele><time>2026-05-03T11:40:25Z</time></trkpt><trkpt lat="45.04202049572189" lon="8.06152554450024"><ele>212.99999999999997</ele><time>2026-05-03T11:40:29Z</time></trkpt><trkpt lat="45.04195688039298" lon="8.061557406323757"><ele>213.0</ele><time>2026-05-03T11:40:33Z</time></trkpt><trkpt lat="45.04188860770561" lon="8.061614921004415"><ele>213.0</ele><time>2026-05-03T11:40:38Z</time></trkpt><trkpt lat="45.04183210754658" lon="8.061666659797739"><ele>213.0</ele><time>2026-05-03T11:40:42Z</time></trkpt><trkpt lat="45.04177911089235" lon="8.061722631005487"><ele>213.0</ele><time>2026-05-03T11:40:46Z</time></trkpt><trkpt lat="45.04171628041457" lon="8.061779164283129"><ele>212.99999999999997</ele><time>2026-05-03T11:40:49.999Z</time></trkpt><trkpt lat="45.04165670888774" lon="8.061838016907133"><ele>213.0</ele><time>2026-05-03T11:40:53.999Z</time></trkpt><trkpt lat="45.0416037062703" lon="8.061888636767375"><ele>212.99999999999997</ele><time>2026-05-03T11:40:57.999Z</time></trkpt><trkpt lat="45.041562224964245" lon="8.061961827165034"><ele>213.0</ele><time>2026-05-03T11:41:01.999Z</time></trkpt><trkpt lat="45.04154447626961" lon="8.062063795148662"><ele>213.0</ele><time>2026-05-03T11:41:06.999Z</time></trkpt><trkpt lat="45.04149592688402" lon="8.06212197581366"><ele>213.0</ele><time>2026-05-03T11:41:16.999Z</time></trkpt><trkpt lat="45.04156879080966" lon="8.062094343860137"><ele>213.0</ele><time>2026-05-03T11:41:20.999Z</time></trkpt><trkpt lat="45.04163096518119" lon="8.062141003991014"><ele>212.99999999999997</ele><time>2026-05-03T11:41:22.999Z</time></trkpt><trkpt lat="45.04169963367257" lon="8.062214939622493"><ele>213.0</ele><time>2026-05-03T11:41:24.999Z</time></trkpt><trkpt lat="45.04177800840959" lon="8.062320422451611"><ele>213.14285714285714</ele><time>2026-05-03T11:41:26.999Z</time></trkpt><trkpt lat="45.041829368125406" lon="8.06237878815037"><ele>213.28571428571428</ele><time>2026-05-03T11:41:27.999Z</time></trkpt><trkpt lat="45.04187069493953" lon="8.062447423967143"><ele>213.42857142857144</ele><time>2026-05-03T11:41:28.999Z</time></trkpt><trkpt lat="45.04190537280781" lon="8.062528447501395"><ele>213.57142857142856</ele><time>2026-05-03T11:41:30.999Z</time></trkpt><trkpt lat="45.04195144824057" lon="8.062612624231209"><ele>213.71428571428572</ele><time>2026-05-03T11:41:33Z</time></trkpt><trkpt lat="45.04200478537213" lon="8.062736270345123"><ele>213.85714285714286</ele><time>2026-05-03T11:41:35Z</time></trkpt><trkpt lat="45.04204871167832" lon="8.062815027350924"><ele>214.0</ele><time>2026-05-03T11:41:36Z</time></trkpt><trkpt lat="45.042088033484376" lon="8.062896875585006"><ele>214.33333333333331</ele><time>2026-05-03T11:41:37Z</time></trkpt><trkpt lat="45.042131719404686" lon="8.062975548840528"><ele>214.66666666666666</ele><time>2026-05-03T11:41:38Z</time></trkpt><trkpt lat="45.04223113117409" lon="8.063083779364904"><ele>215.0</ele><time>2026-05-03T11:41:40Z</time></trkpt><trkpt lat="45.0422720738197" lon="8.063166103194602"><ele>215.33333333333331</ele><time>2026-05-03T11:41:41Z</time></trkpt><trkpt lat="45.04233001310224" lon="8.063217322427546"><ele>215.66666666666666</ele><time>2026-05-03T11:41:42Z</time></trkpt><trkpt lat="45.042396582339634" lon="8.063267778039158"><ele>216.0</ele><time>2026-05-03T11:41:43Z</time></trkpt><trkpt lat="45.04245933464246" lon="8.063332261371798"><ele>216.5</ele><time>2026-05-03T11:41:44Z</time></trkpt><trkpt lat="45.042517749172866" lon="8.063379240984586"><ele>217.0</ele><time>2026-05-03T11:41:45Z</time></trkpt><trkpt lat="45.0425816410469" lon="8.063448317093487"><ele>217.5</ele><time>2026-05-03T11:41:46Z</time></trkpt><trkpt lat="45.042682307779316" lon="8.063530560049083"><ele>218.0</ele><time>2026-05-03T11:41:48Z</time></trkpt><trkpt lat="45.04277745652778" lon="8.063592909860555"><ele>218.5</ele><time>2026-05-03T11:41:50Z</time></trkpt><trkpt lat="45.04284340553969" lon="8.063630993989905"><ele>219.0</ele><time>2026-05-03T11:41:51Z</time></trkpt><trkpt lat="45.042948432224236" lon="8.063709135302089"><ele>219.0</ele><time>2026-05-03T11:41:53Z</time></trkpt><trkpt lat="45.043055990163815" lon="8.063789002435966"><ele>218.99999999999997</ele><time>2026-05-03T11:41:55Z</time></trkpt><trkpt lat="45.04316154848089" lon="8.063858196976444"><ele>218.99999999999997</ele><time>2026-05-03T11:41:57Z</time></trkpt><trkpt lat="45.04322616457478" lon="8.06389562561685"><ele>219.0</ele><time>2026-05-03T11:41:58Z</time></trkpt><trkpt lat="45.043312228285615" lon="8.063956283191237"><ele>219.0</ele><time>2026-05-03T11:42:00Z</time></trkpt><trkpt lat="45.04338127136239" lon="8.063975179956573"><ele>218.16666666666666</ele><time>2026-05-03T11:42:02Z</time></trkpt><trkpt lat="45.04349179149525" lon="8.063994906034699"><ele>217.33333333333331</ele><time>2026-05-03T11:42:05Z</time></trkpt><trkpt lat="45.04356004068048" lon="8.063984531592952"><ele>216.5</ele><time>2026-05-03T11:42:07Z</time></trkpt><trkpt lat="45.04365325634909" lon="8.063972496798847"><ele>215.66666666666666</ele><time>2026-05-03T11:42:10Z</time></trkpt><trkpt lat="45.04371629906362" lon="8.063937794288707"><ele>214.83333333333331</ele><time>2026-05-03T11:42:12Z</time></trkpt><trkpt lat="45.04378176241614" lon="8.063932867970053"><ele>214.0</ele><time>2026-05-03T11:42:14Z</time></trkpt><trkpt lat="45.04387057270446" lon="8.0639316335525"><ele>213.99999999999997</ele><time>2026-05-03T11:42:16Z</time></trkpt><trkpt lat="45.04394503541003" lon="8.063925995277646"><ele>214.0</ele><time>2026-05-03T11:42:18Z</time></trkpt><trkpt lat="45.04400877531306" lon="8.063940439957367"><ele>214.0</ele><time>2026-05-03T11:42:20Z</time></trkpt><trkpt lat="45.04409697552638" lon="8.063931623159426"><ele>214.0</ele><time>2026-05-03T11:42:23Z</time></trkpt><trkpt lat="45.0441703951322" lon="8.063949038857011"><ele>213.99999999999997</ele><time>2026-05-03T11:42:26Z</time></trkpt><trkpt lat="45.04426355137125" lon="8.063965422268765"><ele>214.0</ele><time>2026-05-03T11:42:29Z</time></trkpt><trkpt lat="45.04432807993088" lon="8.063988856992552"><ele>214.2</ele><time>2026-05-03T11:42:31Z</time></trkpt><trkpt lat="45.04439736081702" lon="8.064036464897338"><ele>214.39999999999998</ele><time>2026-05-03T11:42:33Z</time></trkpt><trkpt lat="45.04449278194417" lon="8.064088094683354"><ele>214.6</ele><time>2026-05-03T11:42:35Z</time></trkpt><trkpt lat="45.044616625001765" lon="8.064146989538024"><ele>214.8</ele><time>2026-05-03T11:42:37Z</time></trkpt><trkpt lat="45.04470654129635" lon="8.064196860923744"><ele>215.0</ele><time>2026-05-03T11:42:39Z</time></trkpt><trkpt lat="45.04480296882449" lon="8.064274104851316"><ele>215.4</ele><time>2026-05-03T11:42:41Z</time></trkpt><trkpt lat="45.04489656140762" lon="8.064304345594188"><ele>215.8</ele><time>2026-05-03T11:42:43Z</time></trkpt><trkpt lat="45.04500725524332" lon="8.064376393381265"><ele>216.2</ele><time>2026-05-03T11:42:45Z</time></trkpt><trkpt lat="45.045085144675724" lon="8.064439815322947"><ele>216.6</ele><time>2026-05-03T11:42:47Z</time></trkpt><trkpt lat="45.04517446233323" lon="8.064501431903118"><ele>217.0</ele><time>2026-05-03T11:42:48.999Z</time></trkpt><trkpt lat="45.04523528180948" lon="8.064555922177298"><ele>216.99999999999997</ele><time>2026-05-03T11:42:50.999Z</time></trkpt><trkpt lat="45.04531518835751" lon="8.064634309668618"><ele>217.0</ele><time>2026-05-03T11:42:52.999Z</time></trkpt><trkpt lat="45.04538739451761" lon="8.06467545669585"><ele>217.0</ele><time>2026-05-03T11:42:54.999Z</time></trkpt><trkpt lat="45.04544668087283" lon="8.064751794727968"><ele>217.0</ele><time>2026-05-03T11:42:56.999Z</time></trkpt><trkpt lat="45.04553808262854" lon="8.064831190101774"><ele>216.99999999999997</ele><time>2026-05-03T11:42:58.999Z</time></trkpt><trkpt lat="45.04560964851493" lon="8.064880012493878"><ele>217.0</ele><time>2026-05-03T11:42:59.999Z</time></trkpt><trkpt lat="45.0457016013298" lon="8.064929307236591"><ele>218.0</ele><time>2026-05-03T11:43:00.999Z</time></trkpt><trkpt lat="45.04578250223439" lon="8.064992793685848"><ele>219.0</ele><time>2026-05-03T11:43:01.999Z</time></trkpt><trkpt lat="45.04588414164879" lon="8.065098063772483"><ele>220.0</ele><time>2026-05-03T11:43:03.999Z</time></trkpt><trkpt lat="45.045993486765575" lon="8.065188257558386"><ele>221.0</ele><time>2026-05-03T11:43:05.999Z</time></trkpt><trkpt lat="45.04608969795093" lon="8.065261404690979"><ele>221.00000000000003</ele><time>2026-05-03T11:43:07.999Z</time></trkpt><trkpt lat="45.04614269086137" lon="8.065314753879525"><ele>221.0</ele><time>2026-05-03T11:43:08.999Z</time></trkpt><trkpt lat="45.046225537371484" lon="8.065402125366424"><ele>221.0</ele><time>2026-05-03T11:43:10.999Z</time></trkpt><trkpt lat="45.046306043884094" lon="8.06548444903143"><ele>221.0</ele><time>2026-05-03T11:43:12.999Z</time></trkpt><trkpt lat="45.046376383671024" lon="8.065541578773313"><ele>221.00000000000003</ele><time>2026-05-03T11:43:14.999Z</time></trkpt><trkpt lat="45.04643936049338" lon="8.06557193164175"><ele>221.0</ele><time>2026-05-03T11:43:16.999Z</time></trkpt><trkpt lat="45.04649455936866" lon="8.065615908439723"><ele>221.00000000000003</ele><time>2026-05-03T11:43:18.999Z</time></trkpt><trkpt lat="45.04656667542899" lon="8.065659562097634"><ele>221.0</ele><time>2026-05-03T11:43:21.999Z</time></trkpt><trkpt lat="45.0466270785979" lon="8.065699493569545"><ele>221.0</ele><time>2026-05-03T11:43:23.999Z</time></trkpt><trkpt lat="45.04668859469995" lon="8.065731134292514"><ele>221.0</ele><time>2026-05-03T11:43:25.999Z</time></trkpt><trkpt lat="45.04676877139109" lon="8.065793824111564"><ele>221.00000000000003</ele><time>2026-05-03T11:43:27.999Z</time></trkpt><trkpt lat="45.04686964777884" lon="8.065860435694741"><ele>221.0</ele><time>2026-05-03T11:43:29.999Z</time></trkpt><trkpt lat="45.04696184765509" lon="8.065918578699357"><ele>221.60000000000002</ele><time>2026-05-03T11:43:31.999Z</time></trkpt><trkpt lat="45.04703186785777" lon="8.065989145482273"><ele>222.20000000000002</ele><time>2026-05-03T11:43:33.999Z</time></trkpt><trkpt lat="45.04709851924834" lon="8.066034763343419"><ele>222.79999999999998</ele><time>2026-05-03T11:43:34.999Z</time></trkpt><trkpt lat="45.04720368029635" lon="8.066077195358377"><ele>223.39999999999998</ele><time>2026-05-03T11:43:36.999Z</time></trkpt><trkpt lat="45.047294830918744" lon="8.066141239944088"><ele>224.0</ele><time>2026-05-03T11:43:39Z</time></trkpt><trkpt lat="45.047382038443295" lon="8.066193137228996"><ele>224.00000000000003</ele><time>2026-05-03T11:43:41Z</time></trkpt><trkpt lat="45.04743566541561" lon="8.066249113639095"><ele>224.0</ele><time>2026-05-03T11:43:42Z</time></trkpt><trkpt lat="45.047514363477845" lon="8.066296660958395"><ele>224.0</ele><time>2026-05-03T11:43:44Z</time></trkpt><trkpt lat="45.0475933412546" lon="8.06633643397791"><ele>224.0</ele><time>2026-05-03T11:43:46Z</time></trkpt><trkpt lat="45.047678672925706" lon="8.066398292499185"><ele>224.00000000000003</ele><time>2026-05-03T11:43:48Z</time></trkpt><trkpt lat="45.0477418633125" lon="8.06644742736889"><ele>224.0</ele><time>2026-05-03T11:43:50Z</time></trkpt><trkpt lat="45.047800840262695" lon="8.066480409013904"><ele>224.14285714285714</ele><time>2026-05-03T11:43:52Z</time></trkpt><trkpt lat="45.047856137599645" lon="8.066529038136293"><ele>224.28571428571428</ele><time>2026-05-03T11:43:54Z</time></trkpt><trkpt lat="45.04792231530301" lon="8.066555225490779"><ele>224.42857142857144</ele><time>2026-05-03T11:43:57Z</time></trkpt><trkpt lat="45.047980298105806" lon="8.066612702940189"><ele>224.57142857142858</ele><time>2026-05-03T11:44:00Z</time></trkpt><trkpt lat="45.04805559214756" lon="8.066654864222183"><ele>224.71428571428572</ele><time>2026-05-03T11:44:05Z</time></trkpt><trkpt lat="45.04812140212666" lon="8.066688971860778"><ele>224.8571428571429</ele><time>2026-05-03T11:44:10Z</time></trkpt><trkpt lat="45.04812992772557" lon="8.066795108542902"><ele>225.00000000000003</ele><time>2026-05-03T11:44:54Z</time></trkpt><trkpt lat="45.04807946496401" lon="8.066855361304262"><ele>225.00000000000003</ele><time>2026-05-03T11:45:21.999Z</time></trkpt><trkpt lat="45.048034848258254" lon="8.066921964717679"><ele>225.0</ele><time>2026-05-03T11:48:36Z</time></trkpt><trkpt lat="45.047997875699174" lon="8.06699690285667"><ele>225.00000000000003</ele><time>2026-05-03T11:48:40Z</time></trkpt><trkpt lat="45.04797337424938" lon="8.06708567253628"><ele>225.00000000000003</ele><time>2026-05-03T11:48:44Z</time></trkpt><trkpt lat="45.04797331571453" lon="8.067187297879837"><ele>225.0</ele><time>2026-05-03T11:48:49Z</time></trkpt><trkpt lat="45.04799956911334" lon="8.067283968088145"><ele>225.00000000000003</ele><time>2026-05-03T11:48:54Z</time></trkpt><trkpt lat="45.048029259566505" lon="8.067373832809176"><ele>225.00000000000003</ele><time>2026-05-03T11:48:58Z</time></trkpt><trkpt lat="45.04806145379844" lon="8.067465350450787"><ele>225.71428571428575</ele><time>2026-05-03T11:49:02.999Z</time></trkpt><trkpt lat="45.04809566172854" lon="8.067543994249528"><ele>226.42857142857144</ele><time>2026-05-03T11:49:06.999Z</time></trkpt><trkpt lat="45.04813216805052" lon="8.06762245171662"><ele>227.14285714285714</ele><time>2026-05-03T11:49:10.999Z</time></trkpt><trkpt lat="45.04817066060909" lon="8.067699673336472"><ele>227.85714285714286</ele><time>2026-05-03T11:49:14.999Z</time></trkpt><trkpt lat="45.04819076254632" lon="8.067794147693741"><ele>228.57142857142856</ele><time>2026-05-03T11:49:18.999Z</time></trkpt><trkpt lat="45.0482277754327" lon="8.067884885900963"><ele>229.28571428571425</ele><time>2026-05-03T11:49:22.999Z</time></trkpt><trkpt lat="45.04827273183782" lon="8.067964977060143"><ele>229.99999999999997</ele><time>2026-05-03T11:49:26.999Z</time></trkpt><trkpt lat="45.04830354697397" lon="8.068042914458966"><ele>229.99999999999997</ele><time>2026-05-03T11:49:29.999Z</time></trkpt><trkpt lat="45.048339382418476" lon="8.068139192810694"><ele>230.0</ele><time>2026-05-03T11:49:33.999Z</time></trkpt><trkpt lat="45.04837465504444" lon="8.068231522469706"><ele>229.99999999999997</ele><time>2026-05-03T11:49:37.999Z</time></trkpt><trkpt lat="45.04841594804652" lon="8.068322045333733"><ele>229.99999999999997</ele><time>2026-05-03T11:49:41.999Z</time></trkpt><trkpt lat="45.04843714879032" lon="8.068407240439738"><ele>230.0</ele><time>2026-05-03T11:49:44.999Z</time></trkpt><trkpt lat="45.04847622881294" lon="8.068482144503852"><ele>229.99999999999997</ele><time>2026-05-03T11:49:48.999Z</time></trkpt><trkpt lat="45.04850581923014" lon="8.068580452193746"><ele>229.99999999999997</ele><time>2026-05-03T11:49:52.999Z</time></trkpt><trkpt lat="45.04853289836198" lon="8.068677337980237"><ele>230.28571428571425</ele><time>2026-05-03T11:49:57Z</time></trkpt><trkpt lat="45.04856909234633" lon="8.068770197488343"><ele>230.57142857142856</ele><time>2026-05-03T11:50:01Z</time></trkpt><trkpt lat="45.04860300418162" lon="8.06885348630273"><ele>230.85714285714286</ele><time>2026-05-03T11:50:05Z</time></trkpt><trkpt lat="45.048641234341524" lon="8.068939768405127"><ele>231.14285714285714</ele><time>2026-05-03T11:50:09Z</time></trkpt><trkpt lat="45.048678401887926" lon="8.069021373688216"><ele>231.42857142857144</ele><time>2026-05-03T11:50:13Z</time></trkpt><trkpt lat="45.0487055612006" lon="8.06910983064063"><ele>231.71428571428575</ele><time>2026-05-03T11:50:17Z</time></trkpt><trkpt lat="45.04875312025082" lon="8.069186867745815"><ele>232.00000000000003</ele><time>2026-05-03T11:50:21Z</time></trkpt><trkpt lat="45.04879384622136" lon="8.069258446198937"><ele>233.14285714285717</ele><time>2026-05-03T11:50:25Z</time></trkpt><trkpt lat="45.04884059636758" lon="8.069326498929115"><ele>234.28571428571428</ele><time>2026-05-03T11:50:29Z</time></trkpt><trkpt lat="45.048879089804345" lon="8.069402249269011"><ele>235.42857142857144</ele><time>2026-05-03T11:50:33Z</time></trkpt><trkpt lat="45.048929368718795" lon="8.069478161401076"><ele>236.57142857142858</ele><time>2026-05-03T11:50:37Z</time></trkpt><trkpt lat="45.04898018071103" lon="8.069537098811065"><ele>237.71428571428572</ele><time>2026-05-03T11:50:41Z</time></trkpt><trkpt lat="45.04902316220821" lon="8.069614265839265"><ele>238.85714285714286</ele><time>2026-05-03T11:50:45Z</time></trkpt><trkpt lat="45.04906655731504" lon="8.069687945213698"><ele>240.0</ele><time>2026-05-03T11:50:49Z</time></trkpt><trkpt lat="45.04910921893587" lon="8.069762251749903"><ele>240.14285714285717</ele><time>2026-05-03T11:50:53Z</time></trkpt><trkpt lat="45.04915119360347" lon="8.069839202165928"><ele>240.28571428571428</ele><time>2026-05-03T11:50:57Z</time></trkpt><trkpt lat="45.04919691938027" lon="8.069910354637019"><ele>240.42857142857144</ele><time>2026-05-03T11:51:01Z</time></trkpt><trkpt lat="45.049238904910894" lon="8.069980737237648"><ele>240.57142857142858</ele><time>2026-05-03T11:51:05Z</time></trkpt><trkpt lat="45.04928022931194" lon="8.07005114437958"><ele>240.71428571428572</ele><time>2026-05-03T11:51:08.999Z</time></trkpt><trkpt lat="45.04933580733291" lon="8.070130095333138"><ele>240.85714285714286</ele><time>2026-05-03T11:51:13.999Z</time></trkpt><trkpt lat="45.04938648456146" lon="8.070200176724532"><ele>241.0</ele><time>2026-05-03T11:51:17.999Z</time></trkpt><trkpt lat="45.049440592404224" lon="8.070263055436545"><ele>241.2857142857143</ele><time>2026-05-03T11:51:21.999Z</time></trkpt><trkpt lat="45.049479935934436" lon="8.07033383122943"><ele>241.5714285714286</ele><time>2026-05-03T11:51:24.999Z</time></trkpt><trkpt lat="45.04953219327553" lon="8.070405726893334"><ele>241.85714285714286</ele><time>2026-05-03T11:51:28.999Z</time></trkpt><trkpt lat="45.04958246346295" lon="8.070479346419548"><ele>242.14285714285717</ele><time>2026-05-03T11:51:32.999Z</time></trkpt><trkpt lat="45.04963983292241" lon="8.070568312712986"><ele>242.42857142857144</ele><time>2026-05-03T11:51:36.999Z</time></trkpt><trkpt lat="45.04968586839971" lon="8.070629432585374"><ele>242.71428571428572</ele><time>2026-05-03T11:51:39.999Z</time></trkpt><trkpt lat="45.04973785689295" lon="8.070703828460394"><ele>243.0</ele><time>2026-05-03T11:51:43.999Z</time></trkpt><trkpt lat="45.04979425945094" lon="8.07076542744314"><ele>244.0</ele><time>2026-05-03T11:51:47.999Z</time></trkpt><trkpt lat="45.0498407911621" lon="8.070831286031824"><ele>245.0</ele><time>2026-05-03T11:51:51.999Z</time></trkpt><trkpt lat="45.04987915883419" lon="8.07090945603611"><ele>246.0</ele><time>2026-05-03T11:51:55.999Z</time></trkpt><trkpt lat="45.04992667083755" lon="8.070978842995137"><ele>247.0</ele><time>2026-05-03T11:51:59.999Z</time></trkpt><trkpt lat="45.04998270645643" lon="8.071049164795102"><ele>248.0</ele><time>2026-05-03T11:52:03.999Z</time></trkpt><trkpt lat="45.050037873908565" lon="8.071115179746657"><ele>249.0</ele><time>2026-05-03T11:52:07.999Z</time></trkpt><trkpt lat="45.05009006739271" lon="8.071188327351955"><ele>250.0</ele><time>2026-05-03T11:52:12Z</time></trkpt><trkpt lat="45.05014651870198" lon="8.071254287537403"><ele>250.28571428571428</ele><time>2026-05-03T11:52:16Z</time></trkpt><trkpt lat="45.05019954676583" lon="8.071312110097416"><ele>250.57142857142858</ele><time>2026-05-03T11:52:20Z</time></trkpt><trkpt lat="45.0502473934694" lon="8.071373295475752"><ele>250.85714285714286</ele><time>2026-05-03T11:52:24Z</time></trkpt><trkpt lat="45.050300803864864" lon="8.071440612697451"><ele>251.14285714285714</ele><time>2026-05-03T11:52:28Z</time></trkpt><trkpt lat="45.0503617467079" lon="8.0714999189416"><ele>251.42857142857144</ele><time>2026-05-03T11:52:32Z</time></trkpt><trkpt lat="45.050428976625376" lon="8.07157774185775"><ele>251.71428571428572</ele><time>2026-05-03T11:52:37Z</time></trkpt><trkpt lat="45.05048830359364" lon="8.071639326409883"><ele>252.0</ele><time>2026-05-03T11:52:40Z</time></trkpt><trkpt lat="45.050541277877386" lon="8.071702732121414"><ele>252.33333333333334</ele><time>2026-05-03T11:52:44Z</time></trkpt><trkpt lat="45.05060516129072" lon="8.071764198544768"><ele>252.66666666666669</ele><time>2026-05-03T11:52:47.999Z</time></trkpt><trkpt lat="45.050671328583725" lon="8.071825402414447"><ele>253.0</ele><time>2026-05-03T11:52:51.999Z</time></trkpt><trkpt lat="45.05071998167742" lon="8.071896765372848"><ele>253.33333333333334</ele><time>2026-05-03T11:52:56.999Z</time></trkpt><trkpt lat="45.05078773861824" lon="8.071975468578461"><ele>253.66666666666669</ele><time>2026-05-03T11:53:01.999Z</time></trkpt><trkpt lat="45.050847977614396" lon="8.072048118474132"><ele>254.0</ele><time>2026-05-03T11:53:05.999Z</time></trkpt><trkpt lat="45.05091347408682" lon="8.072103784704654"><ele>255.0</ele><time>2026-05-03T11:53:09.999Z</time></trkpt><trkpt lat="45.05095835903069" lon="8.072172169894335"><ele>256.0</ele><time>2026-05-03T11:53:13.999Z</time></trkpt><trkpt lat="45.05100668784964" lon="8.072232082960817"><ele>257.0</ele><time>2026-05-03T11:53:17.999Z</time></trkpt><trkpt lat="45.05107142058385" lon="8.072287670485933"><ele>258.0</ele><time>2026-05-03T11:53:23.999Z</time></trkpt><trkpt lat="45.05112887342372" lon="8.07235966440716"><ele>259.0</ele><time>2026-05-03T11:53:28.999Z</time></trkpt><trkpt lat="45.051184512305866" lon="8.072433212617113"><ele>260.0</ele><time>2026-05-03T11:53:33.999Z</time></trkpt><trkpt lat="45.051236188849785" lon="8.072499251117948"><ele>261.0</ele><time>2026-05-03T11:53:38.999Z</time></trkpt><trkpt lat="45.051283403266176" lon="8.072581729026453"><ele>262.14285714285717</ele><time>2026-05-03T11:53:43.999Z</time></trkpt><trkpt lat="45.051339884798686" lon="8.072644059131294"><ele>263.2857142857143</ele><time>2026-05-03T11:53:48.999Z</time></trkpt><trkpt lat="45.0514028406929" lon="8.072710295622342"><ele>264.42857142857144</ele><time>2026-05-03T11:53:53.999Z</time></trkpt><trkpt lat="45.05145085091768" lon="8.072785465979418"><ele>265.57142857142856</ele><time>2026-05-03T11:53:58.999Z</time></trkpt><trkpt lat="45.051506764768966" lon="8.07285296085098"><ele>266.7142857142857</ele><time>2026-05-03T11:54:03.999Z</time></trkpt><trkpt lat="45.05154894877864" lon="8.072944317659761"><ele>267.8571428571429</ele><time>2026-05-03T11:54:08.999Z</time></trkpt><trkpt lat="45.05159563067855" lon="8.073019300443507"><ele>269.0</ele><time>2026-05-03T11:54:13.999Z</time></trkpt><trkpt lat="45.051651450293946" lon="8.073075680499434"><ele>269.8571428571429</ele><time>2026-05-03T11:54:18.999Z</time></trkpt><trkpt lat="45.051720911018386" lon="8.073081336503737"><ele>270.7142857142857</ele><time>2026-05-03T11:54:25Z</time></trkpt><trkpt lat="45.0517912692315" lon="8.073092419684214"><ele>271.57142857142856</ele><time>2026-05-03T11:54:29Z</time></trkpt><trkpt lat="45.05186320108432" lon="8.073095326249511"><ele>272.42857142857144</ele><time>2026-05-03T11:54:34Z</time></trkpt><trkpt lat="45.051935970776725" lon="8.073101348080824"><ele>273.2857142857143</ele><time>2026-05-03T11:54:39Z</time></trkpt><trkpt lat="45.05200911523279" lon="8.073087086126195"><ele>274.14285714285717</ele><time>2026-05-03T11:54:44Z</time></trkpt><trkpt lat="45.05208173312351" lon="8.073070433346308"><ele>275.0</ele><time>2026-05-03T11:54:49Z</time></trkpt><trkpt lat="45.05215002526597" lon="8.073053634278255"><ele>275.0</ele><time>2026-05-03T11:54:53Z</time></trkpt><trkpt lat="45.05222434347162" lon="8.073022580326175"><ele>275.0</ele><time>2026-05-03T11:54:58Z</time></trkpt><trkpt lat="45.052290377113984" lon="8.072982018686936"><ele>275.0</ele><time>2026-05-03T11:55:03Z</time></trkpt><trkpt lat="45.05235582468831" lon="8.072956261112836"><ele>275.0</ele><time>2026-05-03T11:55:07.999Z</time></trkpt><trkpt lat="45.052416452775105" lon="8.072926513451382"><ele>275.0</ele><time>2026-05-03T11:55:11.999Z</time></trkpt><trkpt lat="45.0524840690886" lon="8.072883876605008"><ele>275.0</ele><time>2026-05-03T11:55:16.999Z</time></trkpt><trkpt lat="45.05255275749041" lon="8.072848484679378"><ele>275.0</ele><time>2026-05-03T11:55:21.999Z</time></trkpt><trkpt lat="45.052627920916045" lon="8.072822740240076"><ele>275.5</ele><time>2026-05-03T11:55:26.999Z</time></trkpt><trkpt lat="45.052701534068035" lon="8.072793151645484"><ele>276.0</ele><time>2026-05-03T11:55:31.999Z</time></trkpt><trkpt lat="45.05277455412857" lon="8.07276494647938"><ele>276.5</ele><time>2026-05-03T11:55:36.999Z</time></trkpt><trkpt lat="45.0528535015689" lon="8.072743917108289"><ele>277.0</ele><time>2026-05-03T11:55:41.999Z</time></trkpt><trkpt lat="45.052927740262135" lon="8.072734413583571"><ele>277.5</ele><time>2026-05-03T11:55:46.999Z</time></trkpt><trkpt lat="45.05299991311158" lon="8.072729685564687"><ele>278.0</ele><time>2026-05-03T11:55:51.999Z</time></trkpt><trkpt lat="45.0530800416201" lon="8.07271014148413"><ele>278.0</ele><time>2026-05-03T11:55:56.999Z</time></trkpt><trkpt lat="45.05315107817323" lon="8.07270425000153"><ele>278.0</ele><time>2026-05-03T11:56:01.999Z</time></trkpt><trkpt lat="45.05321900236286" lon="8.07269563652699"><ele>278.0</ele><time>2026-05-03T11:56:06.999Z</time></trkpt><trkpt lat="45.053286257212754" lon="8.072713112654991"><ele>278.0</ele><time>2026-05-03T11:56:11.999Z</time></trkpt><trkpt lat="45.053351743911044" lon="8.07271742343761"><ele>278.0</ele><time>2026-05-03T11:56:17Z</time></trkpt><trkpt lat="45.053420969214805" lon="8.072720765629605"><ele>278.0</ele><time>2026-05-03T11:56:22Z</time></trkpt><trkpt lat="45.05349506008486" lon="8.072737634685902"><ele>278.0</ele><time>2026-05-03T11:56:27Z</time></trkpt><trkpt lat="45.053565178505046" lon="8.072752163255663"><ele>278.2857142857143</ele><time>2026-05-03T11:56:33Z</time></trkpt><trkpt lat="45.053630373204825" lon="8.072756988997043"><ele>278.57142857142856</ele><time>2026-05-03T11:56:38Z</time></trkpt><trkpt lat="45.05370718715918" lon="8.07276090142103"><ele>278.8571428571429</ele><time>2026-05-03T11:56:43Z</time></trkpt><trkpt lat="45.05377310511203" lon="8.07277911907189"><ele>279.1428571428571</ele><time>2026-05-03T11:56:48Z</time></trkpt><trkpt lat="45.05383669275914" lon="8.07277423607295"><ele>279.42857142857144</ele><time>2026-05-03T11:56:52Z</time></trkpt><trkpt lat="45.053913528025454" lon="8.07278236668845"><ele>279.7142857142857</ele><time>2026-05-03T11:56:57Z</time></trkpt><trkpt lat="45.05398847123604" lon="8.072784750943452"><ele>280.0</ele><time>2026-05-03T11:57:02Z</time></trkpt><trkpt lat="45.05405732029985" lon="8.072781883860845"><ele>280.0</ele><time>2026-05-03T11:57:06Z</time></trkpt><trkpt lat="45.05412112047536" lon="8.07278948618884"><ele>280.0</ele><time>2026-05-03T11:57:10Z</time></trkpt><trkpt lat="45.05419490432961" lon="8.072775753065459"><ele>280.0</ele><time>2026-05-03T11:57:15Z</time></trkpt><trkpt lat="45.05426633989249" lon="8.07276501136786"><ele>280.0</ele><time>2026-05-03T11:57:20Z</time></trkpt><trkpt lat="45.05434471851234" lon="8.072747121218606"><ele>280.0</ele><time>2026-05-03T11:57:24Z</time></trkpt><trkpt lat="45.05442149604356" lon="8.07275864828257"><ele>280.0</ele><time>2026-05-03T11:57:28Z</time></trkpt><trkpt lat="45.05448387584" lon="8.072736546540098"><ele>280.0</ele><time>2026-05-03T11:57:31Z</time></trkpt><trkpt lat="45.05454588655557" lon="8.072717089724861"><ele>279.0</ele><time>2026-05-03T11:57:35Z</time></trkpt><trkpt lat="45.05461002845865" lon="8.072704997791309"><ele>278.0</ele><time>2026-05-03T11:57:39Z</time></trkpt><trkpt lat="45.05468799353726" lon="8.072695465663452"><ele>277.0</ele><time>2026-05-03T11:57:44Z</time></trkpt><trkpt lat="45.05475264586493" lon="8.072696727245406"><ele>276.0</ele><time>2026-05-03T11:57:48Z</time></trkpt><trkpt lat="45.054816071454916" lon="8.072701341880412"><ele>275.0</ele><time>2026-05-03T11:57:52Z</time></trkpt><trkpt lat="45.054881045569005" lon="8.072703155459541"><ele>274.0</ele><time>2026-05-03T11:57:55.999Z</time></trkpt><trkpt lat="45.05494374062189" lon="8.072711562850696"><ele>273.0</ele><time>2026-05-03T11:57:59.999Z</time></trkpt><trkpt lat="45.05500751527919" lon="8.07272905356078"><ele>273.0</ele><time>2026-05-03T11:58:03.999Z</time></trkpt><trkpt lat="45.05507077040352" lon="8.072726786734442"><ele>273.0</ele><time>2026-05-03T11:58:07.999Z</time></trkpt><trkpt lat="45.05514906538103" lon="8.07272804999113"><ele>273.0</ele><time>2026-05-03T11:58:12.999Z</time></trkpt><trkpt lat="45.055218033509995" lon="8.07274304449072"><ele>273.0</ele><time>2026-05-03T11:58:16.999Z</time></trkpt><trkpt lat="45.055280908861384" lon="8.072753008313008"><ele>273.0</ele><time>2026-05-03T11:58:21Z</time></trkpt><trkpt lat="45.055344145622044" lon="8.072764385878962"><ele>273.0</ele><time>2026-05-03T11:58:25Z</time></trkpt><trkpt lat="45.05540759380075" lon="8.072775570407304"><ele>273.0</ele><time>2026-05-03T11:58:29Z</time></trkpt><trkpt lat="45.05547084481335" lon="8.072796172624425"><ele>273.0</ele><time>2026-05-03T11:58:33Z</time></trkpt><trkpt lat="45.05553217672795" lon="8.07281992257991"><ele>273.0</ele><time>2026-05-03T11:58:37Z</time></trkpt><trkpt lat="45.055594349649866" lon="8.072845263199396"><ele>273.0</ele><time>2026-05-03T11:58:41Z</time></trkpt><trkpt lat="45.05565678797019" lon="8.07287491052089"><ele>273.0</ele><time>2026-05-03T11:58:45Z</time></trkpt><trkpt lat="45.055731698290394" lon="8.072903609013686"><ele>273.0</ele><time>2026-05-03T11:58:50Z</time></trkpt><trkpt lat="45.05580410857421" lon="8.072932223556023"><ele>273.0</ele><time>2026-05-03T11:58:55Z</time></trkpt><trkpt lat="45.055885967914094" lon="8.072992409746243"><ele>273.0</ele><time>2026-05-03T11:59:00Z</time></trkpt><trkpt lat="45.05594376776606" lon="8.073028541680163"><ele>273.14285714285717</ele><time>2026-05-03T11:59:05Z</time></trkpt><trkpt lat="45.05601529266873" lon="8.073073537240633"><ele>273.2857142857143</ele><time>2026-05-03T11:59:10Z</time></trkpt><trkpt lat="45.05607240981417" lon="8.073124376095658"><ele>273.42857142857144</ele><time>2026-05-03T11:59:14Z</time></trkpt><trkpt lat="45.05613016909024" lon="8.073171156528666"><ele>273.57142857142856</ele><time>2026-05-03T11:59:18Z</time></trkpt><trkpt lat="45.056193687851774" lon="8.073225554107845"><ele>273.7142857142857</ele><time>2026-05-03T11:59:23Z</time></trkpt><trkpt lat="45.05625253681473" lon="8.073281502223207"><ele>273.8571428571429</ele><time>2026-05-03T11:59:28Z</time></trkpt><trkpt lat="45.0563080737991" lon="8.073345879130946"><ele>274.0</ele><time>2026-05-03T11:59:33Z</time></trkpt><trkpt lat="45.0563531212395" lon="8.07340883099303"><ele>274.14285714285717</ele><time>2026-05-03T11:59:37Z</time></trkpt><trkpt lat="45.0563994959518" lon="8.07347803953018"><ele>274.2857142857143</ele><time>2026-05-03T11:59:41Z</time></trkpt><trkpt lat="45.05645401084191" lon="8.073525296336049"><ele>274.42857142857144</ele><time>2026-05-03T11:59:45Z</time></trkpt><trkpt lat="45.05651185348766" lon="8.073566443942328"><ele>274.57142857142856</ele><time>2026-05-03T11:59:49Z</time></trkpt><trkpt lat="45.05658082039452" lon="8.073587440648275"><ele>274.7142857142857</ele><time>2026-05-03T11:59:53Z</time></trkpt><trkpt lat="45.05665857499761" lon="8.07358555121723"><ele>274.8571428571429</ele><time>2026-05-03T11:59:58Z</time></trkpt><trkpt lat="45.056738659544116" lon="8.073586987998418"><ele>275.0</ele><time>2026-05-03T12:00:03Z</time></trkpt><trkpt lat="45.056815009672064" lon="8.073549140071869"><ele>274.7142857142857</ele><time>2026-05-03T12:00:08Z</time></trkpt><trkpt lat="45.05687903997949" lon="8.073560741862364"><ele>274.42857142857144</ele><time>2026-05-03T12:00:12Z</time></trkpt><trkpt lat="45.0569481514961" lon="8.073550891773062"><ele>274.1428571428571</ele><time>2026-05-03T12:00:16Z</time></trkpt><trkpt lat="45.05702273876763" lon="8.073560275555709"><ele>273.8571428571429</ele><time>2026-05-03T12:00:19.999Z</time></trkpt><trkpt lat="45.057088125310194" lon="8.07356413604049"><ele>273.57142857142856</ele><time>2026-05-03T12:00:23.999Z</time></trkpt><trkpt lat="45.05716198818266" lon="8.073565781518345"><ele>273.2857142857143</ele><time>2026-05-03T12:00:29Z</time></trkpt><trkpt lat="45.057226495080045" lon="8.073550063599422"><ele>273.0</ele><time>2026-05-03T12:00:32Z</time></trkpt><trkpt lat="45.05728767850025" lon="8.073511338808656"><ele>273.0</ele><time>2026-05-03T12:00:36Z</time></trkpt><trkpt lat="45.057354305525315" lon="8.073476070611704"><ele>273.0</ele><time>2026-05-03T12:00:40Z</time></trkpt><trkpt lat="45.05742020719598" lon="8.073447045513156"><ele>273.0</ele><time>2026-05-03T12:00:44Z</time></trkpt><trkpt lat="45.0574886784263" lon="8.073412616591096"><ele>273.0</ele><time>2026-05-03T12:00:48Z</time></trkpt><trkpt lat="45.0575492433523" lon="8.073369130688672"><ele>273.0</ele><time>2026-05-03T12:00:53Z</time></trkpt><trkpt lat="45.05762369576298" lon="8.073358221874495"><ele>273.0</ele><time>2026-05-03T12:00:56Z</time></trkpt><trkpt lat="45.057691182068226" lon="8.07331126783744"><ele>273.0</ele><time>2026-05-03T12:01:00Z</time></trkpt><trkpt lat="45.05774852319186" lon="8.073261557250284"><ele>271.57142857142856</ele><time>2026-05-03T12:01:03Z</time></trkpt><trkpt lat="45.057802533872774" lon="8.073198071183995"><ele>270.1428571428571</ele><time>2026-05-03T12:01:07Z</time></trkpt><trkpt lat="45.057862538958354" lon="8.073153298938513"><ele>268.7142857142857</ele><time>2026-05-03T12:01:11Z</time></trkpt><trkpt lat="45.05791287503005" lon="8.073091402691722"><ele>267.2857142857143</ele><time>2026-05-03T12:01:15Z</time></trkpt><trkpt lat="45.057982951938136" lon="8.073022843138514"><ele>265.85714285714283</ele><time>2026-05-03T12:01:20Z</time></trkpt><trkpt lat="45.05802881190593" lon="8.072960949787328"><ele>264.42857142857144</ele><time>2026-05-03T12:01:24Z</time></trkpt><trkpt lat="45.05808604916134" lon="8.072909405711057"><ele>263.0</ele><time>2026-05-03T12:01:28Z</time></trkpt><trkpt lat="45.05814777072204" lon="8.072843861679535"><ele>263.0</ele><time>2026-05-03T12:01:32Z</time></trkpt><trkpt lat="45.05820298111356" lon="8.072783146625497"><ele>263.0</ele><time>2026-05-03T12:01:36Z</time></trkpt><trkpt lat="45.05826167629786" lon="8.072710554821855"><ele>263.0</ele><time>2026-05-03T12:01:41Z</time></trkpt><trkpt lat="45.05831120341356" lon="8.072633829028332"><ele>263.0</ele><time>2026-05-03T12:01:45Z</time></trkpt><trkpt lat="45.05836319241223" lon="8.072555973040558"><ele>263.0</ele><time>2026-05-03T12:01:49Z</time></trkpt><trkpt lat="45.058426345925234" lon="8.072530787753767"><ele>263.0</ele><time>2026-05-03T12:01:53Z</time></trkpt><trkpt lat="45.05849459782347" lon="8.07250032470114"><ele>263.0</ele><time>2026-05-03T12:01:57Z</time></trkpt><trkpt lat="45.05855827254026" lon="8.072468641190978"><ele>263.42857142857144</ele><time>2026-05-03T12:02:01Z</time></trkpt><trkpt lat="45.058623842213215" lon="8.072456534243505"><ele>263.85714285714283</ele><time>2026-05-03T12:02:05Z</time></trkpt><trkpt lat="45.05868924340331" lon="8.072454566393514"><ele>264.2857142857143</ele><time>2026-05-03T12:02:09Z</time></trkpt><trkpt lat="45.05876015838407" lon="8.072441168140346"><ele>264.7142857142857</ele><time>2026-05-03T12:02:13Z</time></trkpt><trkpt lat="45.05883904770385" lon="8.072426499285205"><ele>265.1428571428571</ele><time>2026-05-03T12:02:17Z</time></trkpt><trkpt lat="45.05891149092897" lon="8.072418234850407"><ele>265.57142857142856</ele><time>2026-05-03T12:02:21Z</time></trkpt><trkpt lat="45.058978168016665" lon="8.072419529259374"><ele>266.0</ele><time>2026-05-03T12:02:25Z</time></trkpt><trkpt lat="45.05904405171776" lon="8.07243105951969"><ele>266.0</ele><time>2026-05-03T12:02:29Z</time></trkpt><trkpt lat="45.0591089746318" lon="8.072425739934198"><ele>266.0</ele><time>2026-05-03T12:02:33Z</time></trkpt><trkpt lat="45.05918402869082" lon="8.072438257775529"><ele>266.0</ele><time>2026-05-03T12:02:38Z</time></trkpt><trkpt lat="45.05925929604001" lon="8.07245765905631"><ele>266.0</ele><time>2026-05-03T12:02:43Z</time></trkpt><trkpt lat="45.059335659387365" lon="8.072457403404123"><ele>266.0</ele><time>2026-05-03T12:02:48Z</time></trkpt><trkpt lat="45.059398563265496" lon="8.072414280428825"><ele>266.0</ele><time>2026-05-03T12:02:52Z</time></trkpt><trkpt lat="45.05946390941227" lon="8.072438355469826"><ele>266.0</ele><time>2026-05-03T12:02:56Z</time></trkpt><trkpt lat="45.05952533260086" lon="8.07249992460211"><ele>268.2857142857143</ele><time>2026-05-03T12:03:00Z</time></trkpt><trkpt lat="45.05959569464881" lon="8.07251468257141"><ele>270.57142857142856</ele><time>2026-05-03T12:03:04Z</time></trkpt><trkpt lat="45.05965984159596" lon="8.072549934370102"><ele>272.8571428571429</ele><time>2026-05-03T12:03:08Z</time></trkpt><trkpt lat="45.05972547356728" lon="8.07256517447322"><ele>275.1428571428571</ele><time>2026-05-03T12:03:12Z</time></trkpt><trkpt lat="45.05979357266827" lon="8.072580462628094"><ele>277.42857142857144</ele><time>2026-05-03T12:03:16Z</time></trkpt><trkpt lat="45.05986259467723" lon="8.072599336607277"><ele>279.7142857142857</ele><time>2026-05-03T12:03:20Z</time></trkpt><trkpt lat="45.059935283045924" lon="8.07261831793961"><ele>282.0</ele><time>2026-05-03T12:03:24Z</time></trkpt><trkpt lat="45.0600024709838" lon="8.072619387628086"><ele>282.42857142857144</ele><time>2026-05-03T12:03:28Z</time></trkpt><trkpt lat="45.06007378499311" lon="8.072632129373664"><ele>282.85714285714283</ele><time>2026-05-03T12:03:32Z</time></trkpt><trkpt lat="45.06013804936419" lon="8.072643306210109"><ele>283.2857142857143</ele><time>2026-05-03T12:03:36Z</time></trkpt><trkpt lat="45.06020888909794" lon="8.072639729860336"><ele>283.7142857142857</ele><time>2026-05-03T12:03:40Z</time></trkpt><trkpt lat="45.060281173324874" lon="8.072635666602208"><ele>284.14285714285717</ele><time>2026-05-03T12:03:44Z</time></trkpt><trkpt lat="45.060347540186825" lon="8.07260290537892"><ele>284.57142857142856</ele><time>2026-05-03T12:03:48Z</time></trkpt><trkpt lat="45.06041139357066" lon="8.072586846335437"><ele>285.0</ele><time>2026-05-03T12:03:51Z</time></trkpt><trkpt lat="45.06048504468286" lon="8.072590021401687"><ele>285.0</ele><time>2026-05-03T12:03:55Z</time></trkpt><trkpt lat="45.060551019831756" lon="8.072588953800572"><ele>285.0</ele><time>2026-05-03T12:03:59Z</time></trkpt><trkpt lat="45.060615215264264" lon="8.072580739065941"><ele>285.0</ele><time>2026-05-03T12:04:03Z</time></trkpt><trkpt lat="45.06068609998471" lon="8.072571783166794"><ele>285.0</ele><time>2026-05-03T12:04:07Z</time></trkpt><trkpt lat="45.060749066173784" lon="8.072548671004691"><ele>285.0</ele><time>2026-05-03T12:04:10Z</time></trkpt><trkpt lat="45.06082688785715" lon="8.072520568117538"><ele>285.0</ele><time>2026-05-03T12:04:14Z</time></trkpt><trkpt lat="45.060897863072675" lon="8.072499715611722"><ele>285.0</ele><time>2026-05-03T12:04:18Z</time></trkpt><trkpt lat="45.06095894880859" lon="8.072464169317614"><ele>285.57142857142856</ele><time>2026-05-03T12:04:22Z</time></trkpt><trkpt lat="45.06102297719174" lon="8.072458774977624"><ele>286.14285714285717</ele><time>2026-05-03T12:04:26Z</time></trkpt><trkpt lat="45.06109454101435" lon="8.07242427293721"><ele>286.7142857142857</ele><time>2026-05-03T12:04:31Z</time></trkpt><trkpt lat="45.061158480722874" lon="8.072402368883521"><ele>287.2857142857143</ele><time>2026-05-03T12:04:35Z</time></trkpt><trkpt lat="45.0612199981727" lon="8.072376499708117"><ele>287.85714285714283</ele><time>2026-05-03T12:04:39Z</time></trkpt><trkpt lat="45.06129408355234" lon="8.072345272263226"><ele>288.42857142857144</ele><time>2026-05-03T12:04:44Z</time></trkpt><trkpt lat="45.061366515317324" lon="8.072316550684281"><ele>289.0</ele><time>2026-05-03T12:04:49Z</time></trkpt><trkpt lat="45.061427190827665" lon="8.072285268688471"><ele>288.2857142857143</ele><time>2026-05-03T12:04:53Z</time></trkpt><trkpt lat="45.06149167938886" lon="8.072271866309103"><ele>287.57142857142856</ele><time>2026-05-03T12:04:57Z</time></trkpt><trkpt lat="45.061555817440336" lon="8.072243937072145"><ele>286.85714285714283</ele><time>2026-05-03T12:05:01Z</time></trkpt><trkpt lat="45.0616309409333" lon="8.072217361056346"><ele>286.1428571428571</ele><time>2026-05-03T12:05:06Z</time></trkpt><trkpt lat="45.06169333591582" lon="8.072197881795061"><ele>285.4285714285714</ele><time>2026-05-03T12:05:10Z</time></trkpt><trkpt lat="45.06175488348701" lon="8.072158402069123"><ele>284.7142857142857</ele><time>2026-05-03T12:05:14Z</time></trkpt><trkpt lat="45.061818944042614" lon="8.072143229990047"><ele>284.0</ele><time>2026-05-03T12:05:18Z</time></trkpt><trkpt lat="45.061898236969746" lon="8.072113803768277"><ele>284.0</ele><time>2026-05-03T12:05:23Z</time></trkpt><trkpt lat="45.06196162051263" lon="8.072072443631315"><ele>284.0</ele><time>2026-05-03T12:05:27Z</time></trkpt><trkpt lat="45.06202803933482" lon="8.072024403769298"><ele>284.0</ele><time>2026-05-03T12:05:31Z</time></trkpt><trkpt lat="45.062104482127026" lon="8.071994122385101"><ele>284.0</ele><time>2026-05-03T12:05:36Z</time></trkpt><trkpt lat="45.06216641485168" lon="8.07205676136345"><ele>284.0</ele><time>2026-05-03T12:05:41Z</time></trkpt><trkpt lat="45.06214192783036" lon="8.072149618460928"><ele>284.0</ele><time>2026-05-03T12:05:44Z</time></trkpt><trkpt lat="45.062116702030984" lon="8.07224777705064"><ele>284.0</ele><time>2026-05-03T12:05:49Z</time></trkpt><trkpt lat="45.06210009375742" lon="8.072354418593315"><ele>284.85714285714283</ele><time>2026-05-03T12:05:53Z</time></trkpt><trkpt lat="45.062093939404086" lon="8.072460823238444"><ele>285.71428571428567</ele><time>2026-05-03T12:05:57Z</time></trkpt><trkpt lat="45.062102506834755" lon="8.072556491111216"><ele>286.57142857142856</ele><time>2026-05-03T12:06:01Z</time></trkpt><trkpt lat="45.06211246771593" lon="8.0726641208909"><ele>287.42857142857144</ele><time>2026-05-03T12:06:06Z</time></trkpt><trkpt lat="45.06213916992673" lon="8.072755239785621"><ele>288.28571428571433</ele><time>2026-05-03T12:06:10Z</time></trkpt><trkpt lat="45.062145109280266" lon="8.072863349913298"><ele>289.14285714285717</ele><time>2026-05-03T12:06:14Z</time></trkpt><trkpt lat="45.06216441863299" lon="8.072950537977407"><ele>290.0</ele><time>2026-05-03T12:06:18Z</time></trkpt><trkpt lat="45.062170009014565" lon="8.073044540494568"><ele>290.0</ele><time>2026-05-03T12:06:22Z</time></trkpt><trkpt lat="45.06218623091014" lon="8.07313200626012"><ele>290.0</ele><time>2026-05-03T12:06:26Z</time></trkpt><trkpt lat="45.06220303324007" lon="8.073237989482742"><ele>290.0</ele><time>2026-05-03T12:06:31Z</time></trkpt><trkpt lat="45.0622029314186" lon="8.073346755165806"><ele>290.0</ele><time>2026-05-03T12:06:35.999Z</time></trkpt><trkpt lat="45.0622022309394" lon="8.073446161441654"><ele>290.0</ele><time>2026-05-03T12:06:40.999Z</time></trkpt><trkpt lat="45.06221082993348" lon="8.073544989152651"><ele>290.0</ele><time>2026-05-03T12:06:46Z</time></trkpt><trkpt lat="45.06220632114101" lon="8.07365661937429"><ele>290.0</ele><time>2026-05-03T12:06:51Z</time></trkpt><trkpt lat="45.06220490945454" lon="8.07376303476049"><ele>289.6666666666667</ele><time>2026-05-03T12:06:56Z</time></trkpt><trkpt lat="45.06221273790854" lon="8.073868186762775"><ele>289.33333333333337</ele><time>2026-05-03T12:07:01Z</time></trkpt><trkpt lat="45.06221901152753" lon="8.07396926311328"><ele>289.0</ele><time>2026-05-03T12:07:06Z</time></trkpt><trkpt lat="45.06223160667624" lon="8.074076174252273"><ele>288.6666666666667</ele><time>2026-05-03T12:07:11Z</time></trkpt><trkpt lat="45.06222417921957" lon="8.074185824456974"><ele>288.3333333333333</ele><time>2026-05-03T12:07:16Z</time></trkpt><trkpt lat="45.06222166733476" lon="8.074293768018372"><ele>288.0</ele><time>2026-05-03T12:07:21Z</time></trkpt><trkpt lat="45.062227114390886" lon="8.074402285908903"><ele>288.00000000000006</ele><time>2026-05-03T12:07:26Z</time></trkpt><trkpt lat="45.06224332413847" lon="8.074504813320404"><ele>288.0</ele><time>2026-05-03T12:07:31Z</time></trkpt><trkpt lat="45.062265198284436" lon="8.074589458922778"><ele>288.0</ele><time>2026-05-03T12:07:35Z</time></trkpt><trkpt lat="45.062333156604375" lon="8.074594057356558"><ele>288.0</ele><time>2026-05-03T12:07:38Z</time></trkpt><trkpt lat="45.06241024261153" lon="8.074564629354049"><ele>288.0</ele><time>2026-05-03T12:07:42Z</time></trkpt><trkpt lat="45.06248454980413" lon="8.074556617730261"><ele>288.00000000000006</ele><time>2026-05-03T12:07:47Z</time></trkpt><trkpt lat="45.06256935667279" lon="8.074554172919738"><ele>288.0</ele><time>2026-05-03T12:07:53Z</time></trkpt><trkpt lat="45.06263072839636" lon="8.074495487985905"><ele>286.8571428571429</ele><time>2026-05-03T12:07:58Z</time></trkpt><trkpt lat="45.06269930147441" lon="8.074463471515147"><ele>285.7142857142857</ele><time>2026-05-03T12:08:02Z</time></trkpt><trkpt lat="45.06275767527254" lon="8.074429958129292"><ele>284.57142857142856</ele><time>2026-05-03T12:08:06Z</time></trkpt><trkpt lat="45.06282052513171" lon="8.074386718054962"><ele>283.42857142857144</ele><time>2026-05-03T12:08:10Z</time></trkpt><trkpt lat="45.06288573076298" lon="8.074330406348485"><ele>282.2857142857143</ele><time>2026-05-03T12:08:15Z</time></trkpt><trkpt lat="45.0629387467345" lon="8.074278182134252"><ele>281.14285714285717</ele><time>2026-05-03T12:08:20Z</time></trkpt><trkpt lat="45.06300365416796" lon="8.074252629769031"><ele>280.0</ele><time>2026-05-03T12:08:24Z</time></trkpt><trkpt lat="45.0630662875958" lon="8.074212930634646"><ele>280.0</ele><time>2026-05-03T12:08:30Z</time></trkpt><trkpt lat="45.06312531016681" lon="8.07417265469122"><ele>280.0</ele><time>2026-05-03T12:08:35.999Z</time></trkpt><trkpt lat="45.06319505322415" lon="8.074173780084912"><ele>280.0</ele><time>2026-05-03T12:08:42.999Z</time></trkpt><trkpt lat="45.06327705789633" lon="8.074177801276146"><ele>280.0</ele><time>2026-05-03T12:08:48.999Z</time></trkpt><trkpt lat="45.063342833316334" lon="8.074165484098064"><ele>280.0</ele><time>2026-05-03T12:08:55Z</time></trkpt><trkpt lat="45.06341583281554" lon="8.07417132493106"><ele>280.0</ele><time>2026-05-03T12:09:02Z</time></trkpt><trkpt lat="45.063496770213455" lon="8.074195600565353"><ele>280.0</ele><time>2026-05-03T12:09:08Z</time></trkpt><trkpt lat="45.06356021742714" lon="8.074190625202945"><ele>278.2857142857143</ele><time>2026-05-03T12:09:12Z</time></trkpt><trkpt lat="45.06362566695911" lon="8.074199630172771"><ele>276.57142857142856</ele><time>2026-05-03T12:09:17Z</time></trkpt><trkpt lat="45.06369031673713" lon="8.074195312927824"><ele>274.8571428571429</ele><time>2026-05-03T12:09:22Z</time></trkpt><trkpt lat="45.063765615496976" lon="8.074207313951538"><ele>273.1428571428571</ele><time>2026-05-03T12:09:29Z</time></trkpt><trkpt lat="45.063846068350976" lon="8.074227537514595"><ele>271.42857142857144</ele><time>2026-05-03T12:09:33Z</time></trkpt><trkpt lat="45.06391630974392" lon="8.074250962842791"><ele>269.7142857142857</ele><time>2026-05-03T12:09:38Z</time></trkpt><trkpt lat="45.0639811440495" lon="8.074273356088906"><ele>268.0</ele><time>2026-05-03T12:09:43Z</time></trkpt><trkpt lat="45.06405511078006" lon="8.074297441313599"><ele>265.14285714285717</ele><time>2026-05-03T12:09:48Z</time></trkpt><trkpt lat="45.06412746201489" lon="8.074313523856096"><ele>262.2857142857143</ele><time>2026-05-03T12:09:53Z</time></trkpt><trkpt lat="45.06420177015117" lon="8.07433671376269"><ele>259.42857142857144</ele><time>2026-05-03T12:09:58Z</time></trkpt><trkpt lat="45.06427144377282" lon="8.074317791369648"><ele>256.57142857142856</ele><time>2026-05-03T12:10:02Z</time></trkpt><trkpt lat="45.064342608687184" lon="8.07429684965976"><ele>253.71428571428572</ele><time>2026-05-03T12:10:06Z</time></trkpt><trkpt lat="45.064405402071365" lon="8.074282128548928"><ele>250.85714285714286</ele><time>2026-05-03T12:10:10Z</time></trkpt><trkpt lat="45.06447077181921" lon="8.074241353961511"><ele>248.0</ele><time>2026-05-03T12:10:14Z</time></trkpt><trkpt lat="45.06453753503534" lon="8.074209458125077"><ele>248.0</ele><time>2026-05-03T12:10:19Z</time></trkpt><trkpt lat="45.06460702580591" lon="8.074190275749972"><ele>248.00000000000003</ele><time>2026-05-03T12:10:24Z</time></trkpt><trkpt lat="45.06468005608834" lon="8.074155082403205"><ele>248.0</ele><time>2026-05-03T12:10:29.999Z</time></trkpt><trkpt lat="45.06474278778607" lon="8.074122435745423"><ele>248.0</ele><time>2026-05-03T12:10:34.999Z</time></trkpt><trkpt lat="45.06480127491158" lon="8.074069161573304"><ele>248.00000000000003</ele><time>2026-05-03T12:10:38.999Z</time></trkpt><trkpt lat="45.06485730855753" lon="8.074025132835681"><ele>248.0</ele><time>2026-05-03T12:10:42.999Z</time></trkpt><trkpt lat="45.06492974790099" lon="8.074039479640119"><ele>248.0</ele><time>2026-05-03T12:10:47.999Z</time></trkpt><trkpt lat="45.0649937298107" lon="8.074094438110897"><ele>246.00000000000003</ele><time>2026-05-03T12:10:52.999Z</time></trkpt><trkpt lat="45.06506253091843" lon="8.07412565403474"><ele>244.0</ele><time>2026-05-03T12:10:58Z</time></trkpt><trkpt lat="45.06514050575613" lon="8.074147094186765"><ele>242.0</ele><time>2026-05-03T12:11:04Z</time></trkpt><trkpt lat="45.06521366297045" lon="8.074184847133271"><ele>240.0</ele><time>2026-05-03T12:11:08Z</time></trkpt><trkpt lat="45.06527702660166" lon="8.074251497330147"><ele>238.00000000000003</ele><time>2026-05-03T12:11:13Z</time></trkpt><trkpt lat="45.06534152958768" lon="8.07428654771175"><ele>236.0</ele><time>2026-05-03T12:11:18Z</time></trkpt><trkpt lat="45.06541780667494" lon="8.07432152678068"><ele>236.0</ele><time>2026-05-03T12:11:26Z</time></trkpt><trkpt lat="45.065465262344965" lon="8.074402880350302"><ele>236.0</ele><time>2026-05-03T12:11:31Z</time></trkpt><trkpt lat="45.06552128979008" lon="8.074454149151551"><ele>236.0</ele><time>2026-05-03T12:11:36Z</time></trkpt><trkpt lat="45.06557530503935" lon="8.07450217919201"><ele>236.0</ele><time>2026-05-03T12:11:40Z</time></trkpt><trkpt lat="45.06564146714693" lon="8.07454926215783"><ele>236.0</ele><time>2026-05-03T12:11:45Z</time></trkpt><trkpt lat="45.065703488463804" lon="8.074603581968045"><ele>236.0</ele><time>2026-05-03T12:11:50Z</time></trkpt><trkpt lat="45.06576467281398" lon="8.074664688160848"><ele>236.0</ele><time>2026-05-03T12:11:55Z</time></trkpt><trkpt lat="45.06582543327988" lon="8.074726214229484"><ele>235.28571428571428</ele><time>2026-05-03T12:12:00Z</time></trkpt><trkpt lat="45.06589043018599" lon="8.074763982590234"><ele>234.57142857142858</ele><time>2026-05-03T12:12:04Z</time></trkpt><trkpt lat="45.06596113880789" lon="8.074786487842236"><ele>233.85714285714286</ele><time>2026-05-03T12:12:08Z</time></trkpt><trkpt lat="45.06601913034666" lon="8.074827353827706"><ele>233.14285714285714</ele><time>2026-05-03T12:12:12Z</time></trkpt><trkpt lat="45.06608389240209" lon="8.074876115516153"><ele>232.42857142857144</ele><time>2026-05-03T12:12:17Z</time></trkpt><trkpt lat="45.06613568460182" lon="8.074942766395175"><ele>231.71428571428572</ele><time>2026-05-03T12:12:21Z</time></trkpt><trkpt lat="45.066193766631926" lon="8.07500909208828"><ele>231.0</ele><time>2026-05-03T12:12:26Z</time></trkpt><trkpt lat="45.0662493139443" lon="8.07510704259599"><ele>230.85714285714286</ele><time>2026-05-03T12:12:30.999Z</time></trkpt><trkpt lat="45.066300682674914" lon="8.075162677210066"><ele>230.71428571428572</ele><time>2026-05-03T12:12:34.999Z</time></trkpt><trkpt lat="45.06635871248197" lon="8.0752147362"><ele>230.57142857142856</ele><time>2026-05-03T12:12:38.999Z</time></trkpt><trkpt lat="45.066413141396154" lon="8.075265926440197"><ele>230.42857142857142</ele><time>2026-05-03T12:12:42.999Z</time></trkpt><trkpt lat="45.06647323830588" lon="8.075316504901153"><ele>230.28571428571428</ele><time>2026-05-03T12:12:46.999Z</time></trkpt><trkpt lat="45.066523972549106" lon="8.075379287883619"><ele>230.1428571428571</ele><time>2026-05-03T12:12:50.999Z</time></trkpt><trkpt lat="45.06658842008354" lon="8.075417998836233"><ele>229.99999999999997</ele><time>2026-05-03T12:12:54.999Z</time></trkpt><trkpt lat="45.06663380734608" lon="8.075350847019134"><ele>229.99999999999997</ele><time>2026-05-03T12:12:57.999Z</time></trkpt><trkpt lat="45.06667111883088" lon="8.075265924775788"><ele>230.0</ele><time>2026-05-03T12:13:02Z</time></trkpt><trkpt lat="45.06669965595463" lon="8.075184574454623"><ele>229.99999999999997</ele><time>2026-05-03T12:13:06Z</time></trkpt><trkpt lat="45.066709411552395" lon="8.075089524061417"><ele>229.99999999999997</ele><time>2026-05-03T12:13:10Z</time></trkpt><trkpt lat="45.06670681903315" lon="8.074990146848522"><ele>230.0</ele><time>2026-05-03T12:13:14Z</time></trkpt><trkpt lat="45.06667056227033" lon="8.074890442948867"><ele>229.99999999999997</ele><time>2026-05-03T12:13:19Z</time></trkpt><trkpt lat="45.066626388230944" lon="8.074802848621024"><ele>229.99999999999997</ele><time>2026-05-03T12:13:24Z</time></trkpt><trkpt lat="45.066586418364665" lon="8.074731821250033"><ele>230.1428571428571</ele><time>2026-05-03T12:13:28Z</time></trkpt><trkpt lat="45.06654611049225" lon="8.074639649407553"><ele>230.28571428571428</ele><time>2026-05-03T12:13:33Z</time></trkpt><trkpt lat="45.06652249475717" lon="8.074538331801996"><ele>230.42857142857142</ele><time>2026-05-03T12:13:38Z</time></trkpt><trkpt lat="45.06646071982173" lon="8.074515493506409"><ele>230.57142857142856</ele><time>2026-05-03T12:16:57.999Z</time></trkpt><trkpt lat="45.06647861442446" lon="8.074418080764133"><ele>230.71428571428572</ele><time>2026-05-03T12:17:25Z</time></trkpt><trkpt lat="45.066541860402104" lon="8.074501399071158"><ele>230.85714285714286</ele><time>2026-05-03T12:20:38.999Z</time></trkpt><trkpt lat="45.06654245773495" lon="8.074602977480518"><ele>231.0</ele><time>2026-05-03T12:20:48.999Z</time></trkpt><trkpt lat="45.06654524826413" lon="8.074706019144326"><ele>231.0</ele><time>2026-05-03T12:20:54.999Z</time></trkpt><trkpt lat="45.066552814813235" lon="8.07480400888633"><ele>231.0</ele><time>2026-05-03T12:21:00.999Z</time></trkpt><trkpt lat="45.06653308479147" lon="8.074891477859582"><ele>231.0</ele><time>2026-05-03T12:21:11.999Z</time></trkpt><trkpt lat="45.066512367708114" lon="8.074983352742167"><ele>231.0</ele><time>2026-05-03T12:21:17.999Z</time></trkpt><trkpt lat="45.06652949839033" lon="8.074891854092272"><ele>231.0</ele><time>2026-05-03T12:22:22Z</time></trkpt><trkpt lat="45.06656419837315" lon="8.074805085483634"><ele>231.0</ele><time>2026-05-03T12:23:03.999Z</time></trkpt><trkpt lat="45.06655608909022" lon="8.074711075497762"><ele>231.0</ele><time>2026-05-03T12:23:16.999Z</time></trkpt><trkpt lat="45.0665512867849" lon="8.074613334887525"><ele>231.0</ele><time>2026-05-03T12:23:21.999Z</time></trkpt><trkpt lat="45.066540883296376" lon="8.07451562113193"><ele>231.0</ele><time>2026-05-03T12:23:26.999Z</time></trkpt><trkpt lat="45.06653788966744" lon="8.074426550441762"><ele>231.0</ele><time>2026-05-03T12:23:33Z</time></trkpt><trkpt lat="45.06649737217778" lon="8.074332765914818"><ele>231.0</ele><time>2026-05-03T12:23:38Z</time></trkpt><trkpt lat="45.06647492099098" lon="8.074240993992822"><ele>231.0</ele><time>2026-05-03T12:23:54Z</time></trkpt><trkpt lat="45.066479709661955" lon="8.074145096922983"><ele>231.0</ele><time>2026-05-03T12:24:00Z</time></trkpt><trkpt lat="45.06646560149116" lon="8.0742380368632"><ele>231.0</ele><time>2026-05-03T12:24:52Z</time></trkpt><trkpt lat="45.06647111399461" lon="8.074333597732274"><ele>231.0</ele><time>2026-05-03T12:24:58Z</time></trkpt><trkpt lat="45.0664845285548" lon="8.074423902989924"><ele>231.0</ele><time>2026-05-03T12:25:07Z</time></trkpt><trkpt lat="45.066470969714395" lon="8.074520077776453"><ele>231.0</ele><time>2026-05-03T12:29:08Z</time></trkpt><trkpt lat="45.06654090485214" lon="8.074526970805897"><ele>231.0</ele><time>2026-05-03T12:29:21Z</time></trkpt><trkpt lat="45.06662241082969" lon="8.074695617013981"><ele>234.0</ele><time>2026-05-03T12:32:42Z</time></trkpt><trkpt lat="45.06662116284014" lon="8.074591299622313"><ele>234.0</ele><time>2026-05-03T12:35:44.999Z</time></trkpt></trkseg></trk></gpx>